<?xml version="1.0" encoding="UTF-8" standalone="no" ?>
<gpx xmlns="http://www.topografix.com/GPX/1/1" xmlns:xsi="http://www.w3.org/2001/XMLSchema-instance" xsi:schemaLocation="http://www.topografix.com/GPX/1/1 http://www.topografix.com/GPX/1/1/gpx.xsd" version="1.1" creator="VisuGPX - https://www.visugpx.com">
  <metadata>
    <name>Journée 1 de Conques à livinhac</name>
    <desc><![CDATA[Itinéraire à pieds sur le chemin de saint Jacques de Conques à Livinhac]]></desc>
  </metadata>
  <trk>
    <name><![CDATA[j1-conques-livinhac]]></name>
    <desc><![CDATA[]]></desc>
    <trkseg>
      <trkpt lat="44.60002" lon="2.3979">
        <ele>320</ele>
        <time>2015-08-25T06:01:21Z</time>
      </trkpt>
      <trkpt lat="44.59993" lon="2.39779">
        <ele>332</ele>
        <time>2015-08-25T06:01:27Z</time>
      </trkpt>
      <trkpt lat="44.59991" lon="2.39791">
        <ele>327</ele>
        <time>2015-08-25T06:01:36Z</time>
      </trkpt>
      <trkpt lat="44.59972" lon="2.39803">
        <ele>355</ele>
        <time>2015-08-25T06:01:42Z</time>
      </trkpt>
      <trkpt lat="44.5997" lon="2.39818">
        <ele>338</ele>
        <time>2015-08-25T06:01:51Z</time>
      </trkpt>
      <trkpt lat="44.5997" lon="2.39829">
        <ele>340</ele>
        <time>2015-08-25T06:01:58Z</time>
      </trkpt>
      <trkpt lat="44.59993" lon="2.39844">
        <ele>300</ele>
        <time>2015-08-25T06:02:04Z</time>
      </trkpt>
      <trkpt lat="44.5998" lon="2.39859">
        <ele>316</ele>
        <time>2015-08-25T06:02:10Z</time>
      </trkpt>
      <trkpt lat="44.59941" lon="2.39873">
        <ele>368</ele>
        <time>2015-08-25T06:02:16Z</time>
      </trkpt>
      <trkpt lat="44.59946" lon="2.39868">
        <ele>360</ele>
        <time>2015-08-25T06:02:22Z</time>
      </trkpt>
      <trkpt lat="44.59948" lon="2.39852">
        <ele>355</ele>
        <time>2015-08-25T06:02:28Z</time>
      </trkpt>
      <trkpt lat="44.59949" lon="2.39836">
        <ele>356</ele>
        <time>2015-08-25T06:02:34Z</time>
      </trkpt>
      <trkpt lat="44.59944" lon="2.39834">
        <ele>357</ele>
        <time>2015-08-25T06:02:54Z</time>
      </trkpt>
      <trkpt lat="44.59946" lon="2.39827">
        <ele>356</ele>
        <time>2015-08-25T06:03:01Z</time>
      </trkpt>
      <trkpt lat="44.59945" lon="2.39813">
        <ele>356</ele>
        <time>2015-08-25T06:03:08Z</time>
      </trkpt>
      <trkpt lat="44.59946" lon="2.398">
        <ele>353</ele>
        <time>2015-08-25T06:03:14Z</time>
      </trkpt>
      <trkpt lat="44.59948" lon="2.39794">
        <ele>345</ele>
        <time>2015-08-25T06:03:20Z</time>
      </trkpt>
      <trkpt lat="44.60031" lon="2.39776">
        <ele>229</ele>
        <time>2015-08-25T06:03:45Z</time>
      </trkpt>
      <trkpt lat="44.60053" lon="2.39779">
        <ele>193</ele>
        <time>2015-08-25T06:03:51Z</time>
      </trkpt>
      <trkpt lat="44.60027" lon="2.39778">
        <ele>202</ele>
        <time>2015-08-25T06:03:59Z</time>
      </trkpt>
      <trkpt lat="44.59975" lon="2.39754">
        <ele>266</ele>
        <time>2015-08-25T06:04:05Z</time>
      </trkpt>
      <trkpt lat="44.59975" lon="2.39739">
        <ele>257</ele>
        <time>2015-08-25T06:04:13Z</time>
      </trkpt>
      <trkpt lat="44.59967" lon="2.39725">
        <ele>264</ele>
        <time>2015-08-25T06:04:19Z</time>
      </trkpt>
      <trkpt lat="44.59927" lon="2.39697">
        <ele>325</ele>
        <time>2015-08-25T06:04:25Z</time>
      </trkpt>
      <trkpt lat="44.59911" lon="2.39675">
        <ele>350</ele>
        <time>2015-08-25T06:04:34Z</time>
      </trkpt>
      <trkpt lat="44.59916" lon="2.39674">
        <ele>341</ele>
        <time>2015-08-25T06:04:53Z</time>
      </trkpt>
      <trkpt lat="44.59929" lon="2.39676">
        <ele>344</ele>
        <time>2015-08-25T06:05:00Z</time>
      </trkpt>
      <trkpt lat="44.59909" lon="2.39667">
        <ele>336</ele>
        <time>2015-08-25T06:05:06Z</time>
      </trkpt>
      <trkpt lat="44.59905" lon="2.39658">
        <ele>328</ele>
        <time>2015-08-25T06:05:17Z</time>
      </trkpt>
      <trkpt lat="44.59911" lon="2.39675">
        <ele>302</ele>
        <time>2015-08-25T06:06:44Z</time>
      </trkpt>
      <trkpt lat="44.59912" lon="2.39685">
        <ele>317</ele>
        <time>2015-08-25T06:06:51Z</time>
      </trkpt>
      <trkpt lat="44.59911" lon="2.39675">
        <ele>332</ele>
        <time>2015-08-25T06:07:09Z</time>
      </trkpt>
      <trkpt lat="44.59912" lon="2.39667">
        <ele>341</ele>
        <time>2015-08-25T06:07:18Z</time>
      </trkpt>
      <trkpt lat="44.59906" lon="2.39662">
        <ele>336</ele>
        <time>2015-08-25T06:07:25Z</time>
      </trkpt>
      <trkpt lat="44.59911" lon="2.3967">
        <ele>332</ele>
        <time>2015-08-25T06:07:33Z</time>
      </trkpt>
      <trkpt lat="44.59909" lon="2.39646">
        <ele>341</ele>
        <time>2015-08-25T06:07:40Z</time>
      </trkpt>
      <trkpt lat="44.599" lon="2.3963">
        <ele>361</ele>
        <time>2015-08-25T06:07:50Z</time>
      </trkpt>
      <trkpt lat="44.59895" lon="2.39629">
        <ele>370</ele>
        <time>2015-08-25T06:07:56Z</time>
      </trkpt>
      <trkpt lat="44.59909" lon="2.39622">
        <ele>353</ele>
        <time>2015-08-25T06:08:03Z</time>
      </trkpt>
      <trkpt lat="44.59914" lon="2.39614">
        <ele>345</ele>
        <time>2015-08-25T06:08:18Z</time>
      </trkpt>
      <trkpt lat="44.59915" lon="2.39599">
        <ele>346</ele>
        <time>2015-08-25T06:08:26Z</time>
      </trkpt>
      <trkpt lat="44.59915" lon="2.39586">
        <ele>342</ele>
        <time>2015-08-25T06:08:35Z</time>
      </trkpt>
      <trkpt lat="44.59913" lon="2.39571">
        <ele>341</ele>
        <time>2015-08-25T06:08:43Z</time>
      </trkpt>
      <trkpt lat="44.59911" lon="2.39557">
        <ele>341</ele>
        <time>2015-08-25T06:08:51Z</time>
      </trkpt>
      <trkpt lat="44.59903" lon="2.39542">
        <ele>345</ele>
        <time>2015-08-25T06:08:59Z</time>
      </trkpt>
      <trkpt lat="44.59894" lon="2.39533">
        <ele>347</ele>
        <time>2015-08-25T06:09:06Z</time>
      </trkpt>
      <trkpt lat="44.59886" lon="2.39524">
        <ele>349</ele>
        <time>2015-08-25T06:09:12Z</time>
      </trkpt>
      <trkpt lat="44.59877" lon="2.39515">
        <ele>349</ele>
        <time>2015-08-25T06:09:20Z</time>
      </trkpt>
      <trkpt lat="44.59871" lon="2.39504">
        <ele>349</ele>
        <time>2015-08-25T06:09:28Z</time>
      </trkpt>
      <trkpt lat="44.59869" lon="2.3951">
        <ele>345</ele>
        <time>2015-08-25T06:09:51Z</time>
      </trkpt>
      <trkpt lat="44.59872" lon="2.39524">
        <ele>342</ele>
        <time>2015-08-25T06:10:02Z</time>
      </trkpt>
      <trkpt lat="44.59874" lon="2.39533">
        <ele>340</ele>
        <time>2015-08-25T06:10:08Z</time>
      </trkpt>
      <trkpt lat="44.59876" lon="2.39546">
        <ele>337</ele>
        <time>2015-08-25T06:10:18Z</time>
      </trkpt>
      <trkpt lat="44.59878" lon="2.39559">
        <ele>336</ele>
        <time>2015-08-25T06:10:28Z</time>
      </trkpt>
      <trkpt lat="44.59874" lon="2.39558">
        <ele>331</ele>
        <time>2015-08-25T06:10:44Z</time>
      </trkpt>
      <trkpt lat="44.59871" lon="2.39552">
        <ele>330</ele>
        <time>2015-08-25T06:10:50Z</time>
      </trkpt>
      <trkpt lat="44.59867" lon="2.39548">
        <ele>328</ele>
        <time>2015-08-25T06:10:56Z</time>
      </trkpt>
      <trkpt lat="44.59859" lon="2.39539">
        <ele>329</ele>
        <time>2015-08-25T06:11:07Z</time>
      </trkpt>
      <trkpt lat="44.59854" lon="2.39526">
        <ele>328</ele>
        <time>2015-08-25T06:11:17Z</time>
      </trkpt>
      <trkpt lat="44.59847" lon="2.39515">
        <ele>328</ele>
        <time>2015-08-25T06:11:25Z</time>
      </trkpt>
      <trkpt lat="44.59845" lon="2.39509">
        <ele>328</ele>
        <time>2015-08-25T06:11:31Z</time>
      </trkpt>
      <trkpt lat="44.59841" lon="2.39496">
        <ele>326</ele>
        <time>2015-08-25T06:11:41Z</time>
      </trkpt>
      <trkpt lat="44.59837" lon="2.39491">
        <ele>324</ele>
        <time>2015-08-25T06:11:47Z</time>
      </trkpt>
      <trkpt lat="44.59832" lon="2.39481">
        <ele>324</ele>
        <time>2015-08-25T06:11:56Z</time>
      </trkpt>
      <trkpt lat="44.59825" lon="2.39471">
        <ele>321</ele>
        <time>2015-08-25T06:12:06Z</time>
      </trkpt>
      <trkpt lat="44.59821" lon="2.39459">
        <ele>321</ele>
        <time>2015-08-25T06:12:16Z</time>
      </trkpt>
      <trkpt lat="44.59819" lon="2.39453">
        <ele>320</ele>
        <time>2015-08-25T06:12:23Z</time>
      </trkpt>
      <trkpt lat="44.59814" lon="2.39441">
        <ele>321</ele>
        <time>2015-08-25T06:12:33Z</time>
      </trkpt>
      <trkpt lat="44.59815" lon="2.39434">
        <ele>318</ele>
        <time>2015-08-25T06:12:40Z</time>
      </trkpt>
      <trkpt lat="44.59815" lon="2.39427">
        <ele>317</ele>
        <time>2015-08-25T06:12:46Z</time>
      </trkpt>
      <trkpt lat="44.59815" lon="2.3942">
        <ele>313</ele>
        <time>2015-08-25T06:12:52Z</time>
      </trkpt>
      <trkpt lat="44.59815" lon="2.39408">
        <ele>310</ele>
        <time>2015-08-25T06:13:03Z</time>
      </trkpt>
      <trkpt lat="44.59814" lon="2.39401">
        <ele>309</ele>
        <time>2015-08-25T06:13:22Z</time>
      </trkpt>
      <trkpt lat="44.59813" lon="2.39395">
        <ele>307</ele>
        <time>2015-08-25T06:13:31Z</time>
      </trkpt>
      <trkpt lat="44.59814" lon="2.39382">
        <ele>307</ele>
        <time>2015-08-25T06:13:41Z</time>
      </trkpt>
      <trkpt lat="44.59817" lon="2.39377">
        <ele>306</ele>
        <time>2015-08-25T06:13:50Z</time>
      </trkpt>
      <trkpt lat="44.59815" lon="2.39383">
        <ele>304</ele>
        <time>2015-08-25T06:14:11Z</time>
      </trkpt>
      <trkpt lat="44.59817" lon="2.39376">
        <ele>302</ele>
        <time>2015-08-25T06:14:30Z</time>
      </trkpt>
      <trkpt lat="44.59817" lon="2.3937">
        <ele>299</ele>
        <time>2015-08-25T06:14:37Z</time>
      </trkpt>
      <trkpt lat="44.59817" lon="2.39362">
        <ele>300</ele>
        <time>2015-08-25T06:14:53Z</time>
      </trkpt>
      <trkpt lat="44.59819" lon="2.39353">
        <ele>299</ele>
        <time>2015-08-25T06:15:03Z</time>
      </trkpt>
      <trkpt lat="44.5982" lon="2.39339">
        <ele>297</ele>
        <time>2015-08-25T06:15:15Z</time>
      </trkpt>
      <trkpt lat="44.59814" lon="2.39328">
        <ele>296</ele>
        <time>2015-08-25T06:15:25Z</time>
      </trkpt>
      <trkpt lat="44.59812" lon="2.39322">
        <ele>294</ele>
        <time>2015-08-25T06:15:32Z</time>
      </trkpt>
      <trkpt lat="44.59807" lon="2.39311">
        <ele>292</ele>
        <time>2015-08-25T06:15:56Z</time>
      </trkpt>
      <trkpt lat="44.59807" lon="2.39304">
        <ele>291</ele>
        <time>2015-08-25T06:16:05Z</time>
      </trkpt>
      <trkpt lat="44.59805" lon="2.39298">
        <ele>292</ele>
        <time>2015-08-25T06:16:11Z</time>
      </trkpt>
      <trkpt lat="44.59806" lon="2.39287">
        <ele>293</ele>
        <time>2015-08-25T06:16:20Z</time>
      </trkpt>
      <trkpt lat="44.5981" lon="2.39283">
        <ele>290</ele>
        <time>2015-08-25T06:16:27Z</time>
      </trkpt>
      <trkpt lat="44.59814" lon="2.39269">
        <ele>290</ele>
        <time>2015-08-25T06:16:35Z</time>
      </trkpt>
      <trkpt lat="44.59819" lon="2.39256">
        <ele>291</ele>
        <time>2015-08-25T06:16:45Z</time>
      </trkpt>
      <trkpt lat="44.59821" lon="2.39242">
        <ele>290</ele>
        <time>2015-08-25T06:16:54Z</time>
      </trkpt>
      <trkpt lat="44.59822" lon="2.39231">
        <ele>289</ele>
        <time>2015-08-25T06:17:00Z</time>
      </trkpt>
      <trkpt lat="44.59824" lon="2.39217">
        <ele>288</ele>
        <time>2015-08-25T06:17:08Z</time>
      </trkpt>
      <trkpt lat="44.59824" lon="2.39211">
        <ele>289</ele>
        <time>2015-08-25T06:17:14Z</time>
      </trkpt>
      <trkpt lat="44.59824" lon="2.39196">
        <ele>291</ele>
        <time>2015-08-25T06:17:23Z</time>
      </trkpt>
      <trkpt lat="44.59821" lon="2.39182">
        <ele>291</ele>
        <time>2015-08-25T06:17:31Z</time>
      </trkpt>
      <trkpt lat="44.59817" lon="2.39169">
        <ele>292</ele>
        <time>2015-08-25T06:17:39Z</time>
      </trkpt>
      <trkpt lat="44.59813" lon="2.39157">
        <ele>292</ele>
        <time>2015-08-25T06:17:47Z</time>
      </trkpt>
      <trkpt lat="44.59808" lon="2.39144">
        <ele>292</ele>
        <time>2015-08-25T06:17:55Z</time>
      </trkpt>
      <trkpt lat="44.59802" lon="2.3913">
        <ele>294</ele>
        <time>2015-08-25T06:18:04Z</time>
      </trkpt>
      <trkpt lat="44.59793" lon="2.39121">
        <ele>295</ele>
        <time>2015-08-25T06:18:12Z</time>
      </trkpt>
      <trkpt lat="44.59784" lon="2.39116">
        <ele>296</ele>
        <time>2015-08-25T06:18:20Z</time>
      </trkpt>
      <trkpt lat="44.5978" lon="2.39113">
        <ele>296</ele>
        <time>2015-08-25T06:18:50Z</time>
      </trkpt>
      <trkpt lat="44.59773" lon="2.39105">
        <ele>296</ele>
        <time>2015-08-25T06:20:14Z</time>
      </trkpt>
      <trkpt lat="44.59777" lon="2.391">
        <ele>300</ele>
        <time>2015-08-25T06:20:21Z</time>
      </trkpt>
      <trkpt lat="44.59779" lon="2.39092">
        <ele>298</ele>
        <time>2015-08-25T06:20:33Z</time>
      </trkpt>
      <trkpt lat="44.59769" lon="2.39093">
        <ele>300</ele>
        <time>2015-08-25T06:20:46Z</time>
      </trkpt>
      <trkpt lat="44.59767" lon="2.39087">
        <ele>301</ele>
        <time>2015-08-25T06:20:55Z</time>
      </trkpt>
      <trkpt lat="44.59764" lon="2.3908">
        <ele>304</ele>
        <time>2015-08-25T06:21:04Z</time>
      </trkpt>
      <trkpt lat="44.59755" lon="2.39074">
        <ele>304</ele>
        <time>2015-08-25T06:21:14Z</time>
      </trkpt>
      <trkpt lat="44.59753" lon="2.39067">
        <ele>303</ele>
        <time>2015-08-25T06:21:26Z</time>
      </trkpt>
      <trkpt lat="44.5975" lon="2.39063">
        <ele>303</ele>
        <time>2015-08-25T06:21:34Z</time>
      </trkpt>
      <trkpt lat="44.59747" lon="2.39067">
        <ele>304</ele>
        <time>2015-08-25T06:21:46Z</time>
      </trkpt>
      <trkpt lat="44.59743" lon="2.39061">
        <ele>310</ele>
        <time>2015-08-25T06:22:11Z</time>
      </trkpt>
      <trkpt lat="44.59738" lon="2.39064">
        <ele>311</ele>
        <time>2015-08-25T06:22:25Z</time>
      </trkpt>
      <trkpt lat="44.59735" lon="2.39059">
        <ele>310</ele>
        <time>2015-08-25T06:22:39Z</time>
      </trkpt>
      <trkpt lat="44.59736" lon="2.39053">
        <ele>315</ele>
        <time>2015-08-25T06:22:54Z</time>
      </trkpt>
      <trkpt lat="44.59734" lon="2.39046">
        <ele>317</ele>
        <time>2015-08-25T06:23:12Z</time>
      </trkpt>
      <trkpt lat="44.5973" lon="2.39044">
        <ele>318</ele>
        <time>2015-08-25T06:23:23Z</time>
      </trkpt>
      <trkpt lat="44.59726" lon="2.3904">
        <ele>322</ele>
        <time>2015-08-25T06:23:34Z</time>
      </trkpt>
      <trkpt lat="44.5973" lon="2.39035">
        <ele>323</ele>
        <time>2015-08-25T06:23:45Z</time>
      </trkpt>
      <trkpt lat="44.59729" lon="2.39028">
        <ele>324</ele>
        <time>2015-08-25T06:23:51Z</time>
      </trkpt>
      <trkpt lat="44.59722" lon="2.39025">
        <ele>323</ele>
        <time>2015-08-25T06:24:06Z</time>
      </trkpt>
      <trkpt lat="44.59716" lon="2.39025">
        <ele>324</ele>
        <time>2015-08-25T06:24:25Z</time>
      </trkpt>
      <trkpt lat="44.59713" lon="2.39029">
        <ele>329</ele>
        <time>2015-08-25T06:24:42Z</time>
      </trkpt>
      <trkpt lat="44.5971" lon="2.39035">
        <ele>330</ele>
        <time>2015-08-25T06:24:52Z</time>
      </trkpt>
      <trkpt lat="44.59705" lon="2.39033">
        <ele>329</ele>
        <time>2015-08-25T06:25:06Z</time>
      </trkpt>
      <trkpt lat="44.59703" lon="2.39027">
        <ele>328</ele>
        <time>2015-08-25T06:25:28Z</time>
      </trkpt>
      <trkpt lat="44.597" lon="2.39021">
        <ele>332</ele>
        <time>2015-08-25T06:25:38Z</time>
      </trkpt>
      <trkpt lat="44.59702" lon="2.39014">
        <ele>335</ele>
        <time>2015-08-25T06:25:56Z</time>
      </trkpt>
      <trkpt lat="44.597" lon="2.39007">
        <ele>338</ele>
        <time>2015-08-25T06:26:05Z</time>
      </trkpt>
      <trkpt lat="44.59698" lon="2.39">
        <ele>342</ele>
        <time>2015-08-25T06:26:18Z</time>
      </trkpt>
      <trkpt lat="44.59694" lon="2.38996">
        <ele>342</ele>
        <time>2015-08-25T06:26:24Z</time>
      </trkpt>
      <trkpt lat="44.59692" lon="2.3899">
        <ele>346</ele>
        <time>2015-08-25T06:26:37Z</time>
      </trkpt>
      <trkpt lat="44.59689" lon="2.38985">
        <ele>346</ele>
        <time>2015-08-25T06:26:46Z</time>
      </trkpt>
      <trkpt lat="44.59683" lon="2.38975">
        <ele>347</ele>
        <time>2015-08-25T06:27:05Z</time>
      </trkpt>
      <trkpt lat="44.59681" lon="2.38969">
        <ele>345</ele>
        <time>2015-08-25T06:27:21Z</time>
      </trkpt>
      <trkpt lat="44.59673" lon="2.38969">
        <ele>351</ele>
        <time>2015-08-25T06:28:27Z</time>
      </trkpt>
      <trkpt lat="44.59678" lon="2.38966">
        <ele>357</ele>
        <time>2015-08-25T06:29:16Z</time>
      </trkpt>
      <trkpt lat="44.5968" lon="2.3896">
        <ele>359</ele>
        <time>2015-08-25T06:29:25Z</time>
      </trkpt>
      <trkpt lat="44.59675" lon="2.38958">
        <ele>360</ele>
        <time>2015-08-25T06:29:36Z</time>
      </trkpt>
      <trkpt lat="44.59676" lon="2.38946">
        <ele>365</ele>
        <time>2015-08-25T06:30:07Z</time>
      </trkpt>
      <trkpt lat="44.59674" lon="2.3894">
        <ele>363</ele>
        <time>2015-08-25T06:30:14Z</time>
      </trkpt>
      <trkpt lat="44.59669" lon="2.38937">
        <ele>364</ele>
        <time>2015-08-25T06:30:28Z</time>
      </trkpt>
      <trkpt lat="44.5967" lon="2.38931">
        <ele>367</ele>
        <time>2015-08-25T06:30:53Z</time>
      </trkpt>
      <trkpt lat="44.59669" lon="2.38923">
        <ele>367</ele>
        <time>2015-08-25T06:31:05Z</time>
      </trkpt>
      <trkpt lat="44.59668" lon="2.38916">
        <ele>366</ele>
        <time>2015-08-25T06:31:13Z</time>
      </trkpt>
      <trkpt lat="44.59669" lon="2.3891">
        <ele>368</ele>
        <time>2015-08-25T06:31:30Z</time>
      </trkpt>
      <trkpt lat="44.59666" lon="2.38904">
        <ele>366</ele>
        <time>2015-08-25T06:31:36Z</time>
      </trkpt>
      <trkpt lat="44.59666" lon="2.38897">
        <ele>369</ele>
        <time>2015-08-25T06:31:45Z</time>
      </trkpt>
      <trkpt lat="44.59668" lon="2.3889">
        <ele>371</ele>
        <time>2015-08-25T06:31:52Z</time>
      </trkpt>
      <trkpt lat="44.59671" lon="2.38883">
        <ele>374</ele>
        <time>2015-08-25T06:32:01Z</time>
      </trkpt>
      <trkpt lat="44.59668" lon="2.38872">
        <ele>374</ele>
        <time>2015-08-25T06:32:11Z</time>
      </trkpt>
      <trkpt lat="44.59665" lon="2.38866">
        <ele>373</ele>
        <time>2015-08-25T06:32:19Z</time>
      </trkpt>
      <trkpt lat="44.5966" lon="2.38864">
        <ele>373</ele>
        <time>2015-08-25T06:32:26Z</time>
      </trkpt>
      <trkpt lat="44.59656" lon="2.38863">
        <ele>372</ele>
        <time>2015-08-25T06:32:33Z</time>
      </trkpt>
      <trkpt lat="44.59653" lon="2.38857">
        <ele>374</ele>
        <time>2015-08-25T06:32:40Z</time>
      </trkpt>
      <trkpt lat="44.5965" lon="2.38852">
        <ele>375</ele>
        <time>2015-08-25T06:32:49Z</time>
      </trkpt>
      <trkpt lat="44.59649" lon="2.38842">
        <ele>379</ele>
        <time>2015-08-25T06:33:09Z</time>
      </trkpt>
      <trkpt lat="44.59646" lon="2.38836">
        <ele>381</ele>
        <time>2015-08-25T06:33:22Z</time>
      </trkpt>
      <trkpt lat="44.59644" lon="2.38829">
        <ele>383</ele>
        <time>2015-08-25T06:33:31Z</time>
      </trkpt>
      <trkpt lat="44.59644" lon="2.38823">
        <ele>384</ele>
        <time>2015-08-25T06:33:38Z</time>
      </trkpt>
      <trkpt lat="44.59647" lon="2.38818">
        <ele>387</ele>
        <time>2015-08-25T06:33:45Z</time>
      </trkpt>
      <trkpt lat="44.59647" lon="2.38811">
        <ele>388</ele>
        <time>2015-08-25T06:33:54Z</time>
      </trkpt>
      <trkpt lat="44.59644" lon="2.38806">
        <ele>388</ele>
        <time>2015-08-25T06:34:03Z</time>
      </trkpt>
      <trkpt lat="44.59641" lon="2.38799">
        <ele>388</ele>
        <time>2015-08-25T06:34:10Z</time>
      </trkpt>
      <trkpt lat="44.59639" lon="2.38794">
        <ele>388</ele>
        <time>2015-08-25T06:34:18Z</time>
      </trkpt>
      <trkpt lat="44.59639" lon="2.38787">
        <ele>391</ele>
        <time>2015-08-25T06:34:27Z</time>
      </trkpt>
      <trkpt lat="44.59635" lon="2.38777">
        <ele>397</ele>
        <time>2015-08-25T06:36:07Z</time>
      </trkpt>
      <trkpt lat="44.59632" lon="2.38772">
        <ele>398</ele>
        <time>2015-08-25T06:36:19Z</time>
      </trkpt>
      <trkpt lat="44.59631" lon="2.38765">
        <ele>400</ele>
        <time>2015-08-25T06:36:29Z</time>
      </trkpt>
      <trkpt lat="44.59629" lon="2.38759">
        <ele>400</ele>
        <time>2015-08-25T06:36:36Z</time>
      </trkpt>
      <trkpt lat="44.5963" lon="2.38752">
        <ele>401</ele>
        <time>2015-08-25T06:36:46Z</time>
      </trkpt>
      <trkpt lat="44.59632" lon="2.38745">
        <ele>401</ele>
        <time>2015-08-25T06:36:52Z</time>
      </trkpt>
      <trkpt lat="44.59634" lon="2.38735">
        <ele>400</ele>
        <time>2015-08-25T06:37:05Z</time>
      </trkpt>
      <trkpt lat="44.59629" lon="2.38737">
        <ele>403</ele>
        <time>2015-08-25T06:37:15Z</time>
      </trkpt>
      <trkpt lat="44.59626" lon="2.38741">
        <ele>404</ele>
        <time>2015-08-25T06:37:27Z</time>
      </trkpt>
      <trkpt lat="44.59621" lon="2.38741">
        <ele>403</ele>
        <time>2015-08-25T06:37:37Z</time>
      </trkpt>
      <trkpt lat="44.59621" lon="2.38734">
        <ele>408</ele>
        <time>2015-08-25T06:37:49Z</time>
      </trkpt>
      <trkpt lat="44.59624" lon="2.38726">
        <ele>416</ele>
        <time>2015-08-25T06:38:12Z</time>
      </trkpt>
      <trkpt lat="44.59624" lon="2.38718">
        <ele>416</ele>
        <time>2015-08-25T06:38:40Z</time>
      </trkpt>
      <trkpt lat="44.59625" lon="2.38706">
        <ele>421</ele>
        <time>2015-08-25T06:38:56Z</time>
      </trkpt>
      <trkpt lat="44.59626" lon="2.38699">
        <ele>420</ele>
        <time>2015-08-25T06:39:04Z</time>
      </trkpt>
      <trkpt lat="44.59623" lon="2.38694">
        <ele>421</ele>
        <time>2015-08-25T06:39:12Z</time>
      </trkpt>
      <trkpt lat="44.59621" lon="2.387">
        <ele>422</ele>
        <time>2015-08-25T06:39:20Z</time>
      </trkpt>
      <trkpt lat="44.59614" lon="2.38708">
        <ele>428</ele>
        <time>2015-08-25T06:39:42Z</time>
      </trkpt>
      <trkpt lat="44.59608" lon="2.38708">
        <ele>424</ele>
        <time>2015-08-25T06:44:45Z</time>
      </trkpt>
      <trkpt lat="44.59616" lon="2.38701">
        <ele>426</ele>
        <time>2015-08-25T06:45:39Z</time>
      </trkpt>
      <trkpt lat="44.59618" lon="2.38695">
        <ele>426</ele>
        <time>2015-08-25T06:45:46Z</time>
      </trkpt>
      <trkpt lat="44.59616" lon="2.38688">
        <ele>428</ele>
        <time>2015-08-25T06:45:54Z</time>
      </trkpt>
      <trkpt lat="44.59612" lon="2.38683">
        <ele>427</ele>
        <time>2015-08-25T06:46:10Z</time>
      </trkpt>
      <trkpt lat="44.59607" lon="2.38686">
        <ele>430</ele>
        <time>2015-08-25T06:46:19Z</time>
      </trkpt>
      <trkpt lat="44.59607" lon="2.38693">
        <ele>428</ele>
        <time>2015-08-25T06:46:28Z</time>
      </trkpt>
      <trkpt lat="44.59602" lon="2.38696">
        <ele>428</ele>
        <time>2015-08-25T06:46:44Z</time>
      </trkpt>
      <trkpt lat="44.59597" lon="2.38701">
        <ele>431</ele>
        <time>2015-08-25T06:46:53Z</time>
      </trkpt>
      <trkpt lat="44.59591" lon="2.38707">
        <ele>438</ele>
        <time>2015-08-25T06:47:02Z</time>
      </trkpt>
      <trkpt lat="44.59588" lon="2.38714">
        <ele>442</ele>
        <time>2015-08-25T06:47:11Z</time>
      </trkpt>
      <trkpt lat="44.59587" lon="2.3872">
        <ele>444</ele>
        <time>2015-08-25T06:47:17Z</time>
      </trkpt>
      <trkpt lat="44.5959" lon="2.38726">
        <ele>445</ele>
        <time>2015-08-25T06:47:23Z</time>
      </trkpt>
      <trkpt lat="44.59588" lon="2.38736">
        <ele>436</ele>
        <time>2015-08-25T06:48:28Z</time>
      </trkpt>
      <trkpt lat="44.59585" lon="2.3874">
        <ele>438</ele>
        <time>2015-08-25T06:48:38Z</time>
      </trkpt>
      <trkpt lat="44.59581" lon="2.38746">
        <ele>445</ele>
        <time>2015-08-25T06:48:52Z</time>
      </trkpt>
      <trkpt lat="44.59575" lon="2.38755">
        <ele>446</ele>
        <time>2015-08-25T06:49:06Z</time>
      </trkpt>
      <trkpt lat="44.59572" lon="2.3876">
        <ele>448</ele>
        <time>2015-08-25T06:49:33Z</time>
      </trkpt>
      <trkpt lat="44.59568" lon="2.38766">
        <ele>445</ele>
        <time>2015-08-25T06:50:46Z</time>
      </trkpt>
      <trkpt lat="44.59572" lon="2.38771">
        <ele>449</ele>
        <time>2015-08-25T06:50:55Z</time>
      </trkpt>
      <trkpt lat="44.59569" lon="2.3878">
        <ele>444</ele>
        <time>2015-08-25T06:51:03Z</time>
      </trkpt>
      <trkpt lat="44.59566" lon="2.38785">
        <ele>444</ele>
        <time>2015-08-25T06:51:11Z</time>
      </trkpt>
      <trkpt lat="44.59568" lon="2.38791">
        <ele>446</ele>
        <time>2015-08-25T06:51:18Z</time>
      </trkpt>
      <trkpt lat="44.59568" lon="2.38797">
        <ele>446</ele>
        <time>2015-08-25T06:51:26Z</time>
      </trkpt>
      <trkpt lat="44.59567" lon="2.38804">
        <ele>448</ele>
        <time>2015-08-25T06:51:32Z</time>
      </trkpt>
      <trkpt lat="44.59569" lon="2.38811">
        <ele>450</ele>
        <time>2015-08-25T06:51:40Z</time>
      </trkpt>
      <trkpt lat="44.59568" lon="2.38818">
        <ele>450</ele>
        <time>2015-08-25T06:51:47Z</time>
      </trkpt>
      <trkpt lat="44.59565" lon="2.38829">
        <ele>452</ele>
        <time>2015-08-25T06:52:03Z</time>
      </trkpt>
      <trkpt lat="44.59561" lon="2.38834">
        <ele>458</ele>
        <time>2015-08-25T06:52:10Z</time>
      </trkpt>
      <trkpt lat="44.59561" lon="2.3884">
        <ele>462</ele>
        <time>2015-08-25T06:52:24Z</time>
      </trkpt>
      <trkpt lat="44.59558" lon="2.38846">
        <ele>465</ele>
        <time>2015-08-25T06:52:34Z</time>
      </trkpt>
      <trkpt lat="44.59556" lon="2.38851">
        <ele>465</ele>
        <time>2015-08-25T06:52:46Z</time>
      </trkpt>
      <trkpt lat="44.59557" lon="2.38858">
        <ele>468</ele>
        <time>2015-08-25T06:52:56Z</time>
      </trkpt>
      <trkpt lat="44.59553" lon="2.38863">
        <ele>467</ele>
        <time>2015-08-25T06:53:03Z</time>
      </trkpt>
      <trkpt lat="44.59552" lon="2.38869">
        <ele>467</ele>
        <time>2015-08-25T06:53:12Z</time>
      </trkpt>
      <trkpt lat="44.59551" lon="2.38876">
        <ele>468</ele>
        <time>2015-08-25T06:53:19Z</time>
      </trkpt>
      <trkpt lat="44.59548" lon="2.38882">
        <ele>471</ele>
        <time>2015-08-25T06:53:28Z</time>
      </trkpt>
      <trkpt lat="44.59548" lon="2.38889">
        <ele>471</ele>
        <time>2015-08-25T06:53:36Z</time>
      </trkpt>
      <trkpt lat="44.59545" lon="2.38896">
        <ele>475</ele>
        <time>2015-08-25T06:53:45Z</time>
      </trkpt>
      <trkpt lat="44.59541" lon="2.38902">
        <ele>474</ele>
        <time>2015-08-25T06:53:53Z</time>
      </trkpt>
      <trkpt lat="44.59537" lon="2.38905">
        <ele>473</ele>
        <time>2015-08-25T06:54:04Z</time>
      </trkpt>
      <trkpt lat="44.59533" lon="2.38909">
        <ele>476</ele>
        <time>2015-08-25T06:54:15Z</time>
      </trkpt>
      <trkpt lat="44.59529" lon="2.38908">
        <ele>476</ele>
        <time>2015-08-25T06:54:25Z</time>
      </trkpt>
      <trkpt lat="44.59524" lon="2.38908">
        <ele>476</ele>
        <time>2015-08-25T06:54:32Z</time>
      </trkpt>
      <trkpt lat="44.59514" lon="2.38911">
        <ele>480</ele>
        <time>2015-08-25T06:54:42Z</time>
      </trkpt>
      <trkpt lat="44.5951" lon="2.3891">
        <ele>477</ele>
        <time>2015-08-25T06:56:56Z</time>
      </trkpt>
      <trkpt lat="44.59501" lon="2.38922">
        <ele>488</ele>
        <time>2015-08-25T06:57:19Z</time>
      </trkpt>
      <trkpt lat="44.595" lon="2.38915">
        <ele>489</ele>
        <time>2015-08-25T06:57:30Z</time>
      </trkpt>
      <trkpt lat="44.59492" lon="2.3891">
        <ele>489</ele>
        <time>2015-08-25T06:57:45Z</time>
      </trkpt>
      <trkpt lat="44.59486" lon="2.38907">
        <ele>489</ele>
        <time>2015-08-25T06:57:56Z</time>
      </trkpt>
      <trkpt lat="44.59481" lon="2.38901">
        <ele>492</ele>
        <time>2015-08-25T06:58:04Z</time>
      </trkpt>
      <trkpt lat="44.59476" lon="2.38899">
        <ele>495</ele>
        <time>2015-08-25T06:58:14Z</time>
      </trkpt>
      <trkpt lat="44.59472" lon="2.38896">
        <ele>495</ele>
        <time>2015-08-25T06:58:26Z</time>
      </trkpt>
      <trkpt lat="44.59464" lon="2.38887">
        <ele>494</ele>
        <time>2015-08-25T06:58:37Z</time>
      </trkpt>
      <trkpt lat="44.59459" lon="2.38883">
        <ele>492</ele>
        <time>2015-08-25T06:58:46Z</time>
      </trkpt>
      <trkpt lat="44.59455" lon="2.3888">
        <ele>497</ele>
        <time>2015-08-25T06:58:52Z</time>
      </trkpt>
      <trkpt lat="44.5945" lon="2.38877">
        <ele>498</ele>
        <time>2015-08-25T06:58:59Z</time>
      </trkpt>
      <trkpt lat="44.59446" lon="2.38873">
        <ele>499</ele>
        <time>2015-08-25T06:59:12Z</time>
      </trkpt>
      <trkpt lat="44.5944" lon="2.38871">
        <ele>500</ele>
        <time>2015-08-25T06:59:20Z</time>
      </trkpt>
      <trkpt lat="44.59437" lon="2.38866">
        <ele>502</ele>
        <time>2015-08-25T06:59:32Z</time>
      </trkpt>
      <trkpt lat="44.59428" lon="2.3886">
        <ele>503</ele>
        <time>2015-08-25T06:59:54Z</time>
      </trkpt>
      <trkpt lat="44.59422" lon="2.38859">
        <ele>501</ele>
        <time>2015-08-25T07:00:06Z</time>
      </trkpt>
      <trkpt lat="44.59409" lon="2.38852">
        <ele>507</ele>
        <time>2015-08-25T07:00:18Z</time>
      </trkpt>
      <trkpt lat="44.59404" lon="2.38852">
        <ele>510</ele>
        <time>2015-08-25T07:00:31Z</time>
      </trkpt>
      <trkpt lat="44.59399" lon="2.3885">
        <ele>513</ele>
        <time>2015-08-25T07:00:41Z</time>
      </trkpt>
      <trkpt lat="44.59395" lon="2.38846">
        <ele>514</ele>
        <time>2015-08-25T07:00:54Z</time>
      </trkpt>
      <trkpt lat="44.59386" lon="2.38841">
        <ele>518</ele>
        <time>2015-08-25T07:01:06Z</time>
      </trkpt>
      <trkpt lat="44.59381" lon="2.38838">
        <ele>519</ele>
        <time>2015-08-25T07:01:13Z</time>
      </trkpt>
      <trkpt lat="44.59378" lon="2.38833">
        <ele>515</ele>
        <time>2015-08-25T07:01:24Z</time>
      </trkpt>
      <trkpt lat="44.59371" lon="2.38822">
        <ele>515</ele>
        <time>2015-08-25T07:01:35Z</time>
      </trkpt>
      <trkpt lat="44.59367" lon="2.38818">
        <ele>516</ele>
        <time>2015-08-25T07:01:41Z</time>
      </trkpt>
      <trkpt lat="44.59364" lon="2.38813">
        <ele>519</ele>
        <time>2015-08-25T07:01:47Z</time>
      </trkpt>
      <trkpt lat="44.59358" lon="2.38806">
        <ele>528</ele>
        <time>2015-08-25T07:02:07Z</time>
      </trkpt>
      <trkpt lat="44.59349" lon="2.38799">
        <ele>527</ele>
        <time>2015-08-25T07:02:20Z</time>
      </trkpt>
      <trkpt lat="44.59347" lon="2.38793">
        <ele>527</ele>
        <time>2015-08-25T07:02:32Z</time>
      </trkpt>
      <trkpt lat="44.59343" lon="2.38791">
        <ele>528</ele>
        <time>2015-08-25T07:02:39Z</time>
      </trkpt>
      <trkpt lat="44.59337" lon="2.38786">
        <ele>525</ele>
        <time>2015-08-25T07:02:45Z</time>
      </trkpt>
      <trkpt lat="44.59333" lon="2.38781">
        <ele>525</ele>
        <time>2015-08-25T07:02:52Z</time>
      </trkpt>
      <trkpt lat="44.59328" lon="2.38772">
        <ele>522</ele>
        <time>2015-08-25T07:03:04Z</time>
      </trkpt>
      <trkpt lat="44.59321" lon="2.38771">
        <ele>523</ele>
        <time>2015-08-25T07:04:56Z</time>
      </trkpt>
      <trkpt lat="44.59325" lon="2.38767">
        <ele>523</ele>
        <time>2015-08-25T07:05:31Z</time>
      </trkpt>
      <trkpt lat="44.59329" lon="2.38764">
        <ele>525</ele>
        <time>2015-08-25T07:05:41Z</time>
      </trkpt>
      <trkpt lat="44.59334" lon="2.38766">
        <ele>527</ele>
        <time>2015-08-25T07:05:51Z</time>
      </trkpt>
      <trkpt lat="44.59344" lon="2.3877">
        <ele>526</ele>
        <time>2015-08-25T07:06:05Z</time>
      </trkpt>
      <trkpt lat="44.59348" lon="2.38766">
        <ele>529</ele>
        <time>2015-08-25T07:06:16Z</time>
      </trkpt>
      <trkpt lat="44.59349" lon="2.38759">
        <ele>530</ele>
        <time>2015-08-25T07:06:26Z</time>
      </trkpt>
      <trkpt lat="44.59347" lon="2.38753">
        <ele>531</ele>
        <time>2015-08-25T07:06:32Z</time>
      </trkpt>
      <trkpt lat="44.59346" lon="2.38747">
        <ele>531</ele>
        <time>2015-08-25T07:06:39Z</time>
      </trkpt>
      <trkpt lat="44.59347" lon="2.38739">
        <ele>534</ele>
        <time>2015-08-25T07:06:50Z</time>
      </trkpt>
      <trkpt lat="44.59348" lon="2.38728">
        <ele>536</ele>
        <time>2015-08-25T07:07:08Z</time>
      </trkpt>
      <trkpt lat="44.5935" lon="2.38722">
        <ele>537</ele>
        <time>2015-08-25T07:07:16Z</time>
      </trkpt>
      <trkpt lat="44.59351" lon="2.38715">
        <ele>541</ele>
        <time>2015-08-25T07:07:27Z</time>
      </trkpt>
      <trkpt lat="44.59354" lon="2.3871">
        <ele>541</ele>
        <time>2015-08-25T07:07:33Z</time>
      </trkpt>
      <trkpt lat="44.59359" lon="2.38706">
        <ele>542</ele>
        <time>2015-08-25T07:07:41Z</time>
      </trkpt>
      <trkpt lat="44.59363" lon="2.38703">
        <ele>544</ele>
        <time>2015-08-25T07:07:49Z</time>
      </trkpt>
      <trkpt lat="44.59368" lon="2.38696">
        <ele>546</ele>
        <time>2015-08-25T07:07:56Z</time>
      </trkpt>
      <trkpt lat="44.59369" lon="2.3869">
        <ele>546</ele>
        <time>2015-08-25T07:08:06Z</time>
      </trkpt>
      <trkpt lat="44.59371" lon="2.38684">
        <ele>546</ele>
        <time>2015-08-25T07:08:18Z</time>
      </trkpt>
      <trkpt lat="44.59375" lon="2.38679">
        <ele>547</ele>
        <time>2015-08-25T07:08:25Z</time>
      </trkpt>
      <trkpt lat="44.59377" lon="2.38674">
        <ele>547</ele>
        <time>2015-08-25T07:08:32Z</time>
      </trkpt>
      <trkpt lat="44.59383" lon="2.38669">
        <ele>548</ele>
        <time>2015-08-25T07:09:55Z</time>
      </trkpt>
      <trkpt lat="44.59386" lon="2.38659">
        <ele>554</ele>
        <time>2015-08-25T07:11:29Z</time>
      </trkpt>
      <trkpt lat="44.5939" lon="2.38647">
        <ele>555</ele>
        <time>2015-08-25T07:11:40Z</time>
      </trkpt>
      <trkpt lat="44.59391" lon="2.38641">
        <ele>555</ele>
        <time>2015-08-25T07:11:46Z</time>
      </trkpt>
      <trkpt lat="44.59393" lon="2.38635">
        <ele>556</ele>
        <time>2015-08-25T07:11:52Z</time>
      </trkpt>
      <trkpt lat="44.59394" lon="2.38624">
        <ele>556</ele>
        <time>2015-08-25T07:12:02Z</time>
      </trkpt>
      <trkpt lat="44.59394" lon="2.38618">
        <ele>554</ele>
        <time>2015-08-25T07:12:08Z</time>
      </trkpt>
      <trkpt lat="44.59395" lon="2.38611">
        <ele>554</ele>
        <time>2015-08-25T07:12:14Z</time>
      </trkpt>
      <trkpt lat="44.59396" lon="2.38604">
        <ele>555</ele>
        <time>2015-08-25T07:12:20Z</time>
      </trkpt>
      <trkpt lat="44.59398" lon="2.38598">
        <ele>555</ele>
        <time>2015-08-25T07:12:26Z</time>
      </trkpt>
      <trkpt lat="44.59401" lon="2.38592">
        <ele>558</ele>
        <time>2015-08-25T07:12:32Z</time>
      </trkpt>
      <trkpt lat="44.59403" lon="2.38587">
        <ele>560</ele>
        <time>2015-08-25T07:12:39Z</time>
      </trkpt>
      <trkpt lat="44.59406" lon="2.3858">
        <ele>561</ele>
        <time>2015-08-25T07:12:46Z</time>
      </trkpt>
      <trkpt lat="44.59406" lon="2.38574">
        <ele>562</ele>
        <time>2015-08-25T07:12:54Z</time>
      </trkpt>
      <trkpt lat="44.5941" lon="2.38566">
        <ele>565</ele>
        <time>2015-08-25T07:13:05Z</time>
      </trkpt>
      <trkpt lat="44.59412" lon="2.3856">
        <ele>566</ele>
        <time>2015-08-25T07:13:11Z</time>
      </trkpt>
      <trkpt lat="44.59412" lon="2.38552">
        <ele>565</ele>
        <time>2015-08-25T07:13:17Z</time>
      </trkpt>
      <trkpt lat="44.59411" lon="2.38539">
        <ele>562</ele>
        <time>2015-08-25T07:13:28Z</time>
      </trkpt>
      <trkpt lat="44.59405" lon="2.38529">
        <ele>561</ele>
        <time>2015-08-25T07:13:38Z</time>
      </trkpt>
      <trkpt lat="44.59401" lon="2.38524">
        <ele>559</ele>
        <time>2015-08-25T07:13:44Z</time>
      </trkpt>
      <trkpt lat="44.59398" lon="2.38519">
        <ele>558</ele>
        <time>2015-08-25T07:13:50Z</time>
      </trkpt>
      <trkpt lat="44.59393" lon="2.38515">
        <ele>558</ele>
        <time>2015-08-25T07:13:56Z</time>
      </trkpt>
      <trkpt lat="44.5939" lon="2.38509">
        <ele>558</ele>
        <time>2015-08-25T07:14:03Z</time>
      </trkpt>
      <trkpt lat="44.59386" lon="2.38505">
        <ele>560</ele>
        <time>2015-08-25T07:14:09Z</time>
      </trkpt>
      <trkpt lat="44.59378" lon="2.38498">
        <ele>561</ele>
        <time>2015-08-25T07:14:17Z</time>
      </trkpt>
      <trkpt lat="44.59375" lon="2.38492">
        <ele>563</ele>
        <time>2015-08-25T07:14:26Z</time>
      </trkpt>
      <trkpt lat="44.59372" lon="2.38488">
        <ele>563</ele>
        <time>2015-08-25T07:14:32Z</time>
      </trkpt>
      <trkpt lat="44.59364" lon="2.38479">
        <ele>562</ele>
        <time>2015-08-25T07:14:43Z</time>
      </trkpt>
      <trkpt lat="44.5936" lon="2.38476">
        <ele>563</ele>
        <time>2015-08-25T07:14:49Z</time>
      </trkpt>
      <trkpt lat="44.59357" lon="2.38469">
        <ele>564</ele>
        <time>2015-08-25T07:14:55Z</time>
      </trkpt>
      <trkpt lat="44.59355" lon="2.38462">
        <ele>562</ele>
        <time>2015-08-25T07:15:02Z</time>
      </trkpt>
      <trkpt lat="44.59351" lon="2.38458">
        <ele>563</ele>
        <time>2015-08-25T07:15:08Z</time>
      </trkpt>
      <trkpt lat="44.59348" lon="2.38454">
        <ele>566</ele>
        <time>2015-08-25T07:15:14Z</time>
      </trkpt>
      <trkpt lat="44.59343" lon="2.38451">
        <ele>568</ele>
        <time>2015-08-25T07:15:22Z</time>
      </trkpt>
      <trkpt lat="44.59339" lon="2.3844">
        <ele>569</ele>
        <time>2015-08-25T07:15:34Z</time>
      </trkpt>
      <trkpt lat="44.59336" lon="2.38434">
        <ele>571</ele>
        <time>2015-08-25T07:15:41Z</time>
      </trkpt>
      <trkpt lat="44.59334" lon="2.38428">
        <ele>572</ele>
        <time>2015-08-25T07:15:50Z</time>
      </trkpt>
      <trkpt lat="44.59328" lon="2.38419">
        <ele>575</ele>
        <time>2015-08-25T07:16:02Z</time>
      </trkpt>
      <trkpt lat="44.59325" lon="2.38412">
        <ele>577</ele>
        <time>2015-08-25T07:16:13Z</time>
      </trkpt>
      <trkpt lat="44.59322" lon="2.38407">
        <ele>578</ele>
        <time>2015-08-25T07:16:19Z</time>
      </trkpt>
      <trkpt lat="44.5932" lon="2.38401">
        <ele>579</ele>
        <time>2015-08-25T07:16:26Z</time>
      </trkpt>
      <trkpt lat="44.59313" lon="2.38391">
        <ele>581</ele>
        <time>2015-08-25T07:16:38Z</time>
      </trkpt>
      <trkpt lat="44.59309" lon="2.38379">
        <ele>581</ele>
        <time>2015-08-25T07:16:49Z</time>
      </trkpt>
      <trkpt lat="44.59308" lon="2.38371">
        <ele>582</ele>
        <time>2015-08-25T07:16:56Z</time>
      </trkpt>
      <trkpt lat="44.59307" lon="2.38365">
        <ele>582</ele>
        <time>2015-08-25T07:17:02Z</time>
      </trkpt>
      <trkpt lat="44.59306" lon="2.38352">
        <ele>583</ele>
        <time>2015-08-25T07:17:11Z</time>
      </trkpt>
      <trkpt lat="44.59306" lon="2.38338">
        <ele>582</ele>
        <time>2015-08-25T07:17:22Z</time>
      </trkpt>
      <trkpt lat="44.59306" lon="2.38325">
        <ele>583</ele>
        <time>2015-08-25T07:17:32Z</time>
      </trkpt>
      <trkpt lat="44.59304" lon="2.38318">
        <ele>583</ele>
        <time>2015-08-25T07:17:38Z</time>
      </trkpt>
      <trkpt lat="44.59302" lon="2.38305">
        <ele>581</ele>
        <time>2015-08-25T07:17:47Z</time>
      </trkpt>
      <trkpt lat="44.59301" lon="2.38292">
        <ele>582</ele>
        <time>2015-08-25T07:17:56Z</time>
      </trkpt>
      <trkpt lat="44.59297" lon="2.38278">
        <ele>581</ele>
        <time>2015-08-25T07:18:06Z</time>
      </trkpt>
      <trkpt lat="44.59294" lon="2.38264">
        <ele>582</ele>
        <time>2015-08-25T07:18:15Z</time>
      </trkpt>
      <trkpt lat="44.5929" lon="2.38251">
        <ele>582</ele>
        <time>2015-08-25T07:18:25Z</time>
      </trkpt>
      <trkpt lat="44.59283" lon="2.38241">
        <ele>581</ele>
        <time>2015-08-25T07:18:34Z</time>
      </trkpt>
      <trkpt lat="44.5928" lon="2.38227">
        <ele>582</ele>
        <time>2015-08-25T07:18:44Z</time>
      </trkpt>
      <trkpt lat="44.59278" lon="2.38213">
        <ele>581</ele>
        <time>2015-08-25T07:18:54Z</time>
      </trkpt>
      <trkpt lat="44.59275" lon="2.38204">
        <ele>582</ele>
        <time>2015-08-25T07:19:00Z</time>
      </trkpt>
      <trkpt lat="44.59271" lon="2.38191">
        <ele>583</ele>
        <time>2015-08-25T07:19:10Z</time>
      </trkpt>
      <trkpt lat="44.59268" lon="2.38177">
        <ele>583</ele>
        <time>2015-08-25T07:19:20Z</time>
      </trkpt>
      <trkpt lat="44.59265" lon="2.38165">
        <ele>584</ele>
        <time>2015-08-25T07:19:30Z</time>
      </trkpt>
      <trkpt lat="44.59264" lon="2.38159">
        <ele>587</ele>
        <time>2015-08-25T07:19:36Z</time>
      </trkpt>
      <trkpt lat="44.59261" lon="2.38146">
        <ele>587</ele>
        <time>2015-08-25T07:19:46Z</time>
      </trkpt>
      <trkpt lat="44.5926" lon="2.38133">
        <ele>587</ele>
        <time>2015-08-25T07:19:55Z</time>
      </trkpt>
      <trkpt lat="44.59258" lon="2.38123">
        <ele>587</ele>
        <time>2015-08-25T07:20:02Z</time>
      </trkpt>
      <trkpt lat="44.59258" lon="2.38116">
        <ele>586</ele>
        <time>2015-08-25T07:20:08Z</time>
      </trkpt>
      <trkpt lat="44.59254" lon="2.38103">
        <ele>587</ele>
        <time>2015-08-25T07:20:18Z</time>
      </trkpt>
      <trkpt lat="44.59252" lon="2.38089">
        <ele>588</ele>
        <time>2015-08-25T07:20:28Z</time>
      </trkpt>
      <trkpt lat="44.5925" lon="2.38082">
        <ele>589</ele>
        <time>2015-08-25T07:20:34Z</time>
      </trkpt>
      <trkpt lat="44.5925" lon="2.38075">
        <ele>589</ele>
        <time>2015-08-25T07:20:40Z</time>
      </trkpt>
      <trkpt lat="44.59249" lon="2.38067">
        <ele>589</ele>
        <time>2015-08-25T07:20:48Z</time>
      </trkpt>
      <trkpt lat="44.59248" lon="2.38061">
        <ele>589</ele>
        <time>2015-08-25T07:20:55Z</time>
      </trkpt>
      <trkpt lat="44.59247" lon="2.38052">
        <ele>590</ele>
        <time>2015-08-25T07:21:02Z</time>
      </trkpt>
      <trkpt lat="44.59244" lon="2.38038">
        <ele>592</ele>
        <time>2015-08-25T07:21:13Z</time>
      </trkpt>
      <trkpt lat="44.59243" lon="2.38024">
        <ele>593</ele>
        <time>2015-08-25T07:21:23Z</time>
      </trkpt>
      <trkpt lat="44.59241" lon="2.38017">
        <ele>592</ele>
        <time>2015-08-25T07:21:29Z</time>
      </trkpt>
      <trkpt lat="44.59236" lon="2.38003">
        <ele>593</ele>
        <time>2015-08-25T07:21:38Z</time>
      </trkpt>
      <trkpt lat="44.59231" lon="2.37991">
        <ele>595</ele>
        <time>2015-08-25T07:21:48Z</time>
      </trkpt>
      <trkpt lat="44.59231" lon="2.37977">
        <ele>595</ele>
        <time>2015-08-25T07:21:56Z</time>
      </trkpt>
      <trkpt lat="44.59229" lon="2.37964">
        <ele>596</ele>
        <time>2015-08-25T07:22:05Z</time>
      </trkpt>
      <trkpt lat="44.59225" lon="2.3795">
        <ele>596</ele>
        <time>2015-08-25T07:22:14Z</time>
      </trkpt>
      <trkpt lat="44.59221" lon="2.37939">
        <ele>596</ele>
        <time>2015-08-25T07:22:23Z</time>
      </trkpt>
      <trkpt lat="44.59218" lon="2.37925">
        <ele>596</ele>
        <time>2015-08-25T07:22:32Z</time>
      </trkpt>
      <trkpt lat="44.59218" lon="2.37912">
        <ele>598</ele>
        <time>2015-08-25T07:22:42Z</time>
      </trkpt>
      <trkpt lat="44.59224" lon="2.37904">
        <ele>598</ele>
        <time>2015-08-25T07:23:12Z</time>
      </trkpt>
      <trkpt lat="44.59228" lon="2.37901">
        <ele>598</ele>
        <time>2015-08-25T07:23:37Z</time>
      </trkpt>
      <trkpt lat="44.59233" lon="2.37897">
        <ele>597</ele>
        <time>2015-08-25T07:23:44Z</time>
      </trkpt>
      <trkpt lat="44.59241" lon="2.37889">
        <ele>595</ele>
        <time>2015-08-25T07:23:53Z</time>
      </trkpt>
      <trkpt lat="44.59249" lon="2.37885">
        <ele>592</ele>
        <time>2015-08-25T07:24:01Z</time>
      </trkpt>
      <trkpt lat="44.59257" lon="2.3788">
        <ele>592</ele>
        <time>2015-08-25T07:24:09Z</time>
      </trkpt>
      <trkpt lat="44.59264" lon="2.37871">
        <ele>589</ele>
        <time>2015-08-25T07:24:18Z</time>
      </trkpt>
      <trkpt lat="44.5927" lon="2.37859">
        <ele>591</ele>
        <time>2015-08-25T07:24:27Z</time>
      </trkpt>
      <trkpt lat="44.59275" lon="2.37847">
        <ele>590</ele>
        <time>2015-08-25T07:24:35Z</time>
      </trkpt>
      <trkpt lat="44.59281" lon="2.37836">
        <ele>594</ele>
        <time>2015-08-25T07:24:43Z</time>
      </trkpt>
      <trkpt lat="44.59288" lon="2.37825">
        <ele>592</ele>
        <time>2015-08-25T07:24:52Z</time>
      </trkpt>
      <trkpt lat="44.5929" lon="2.37812">
        <ele>591</ele>
        <time>2015-08-25T07:25:00Z</time>
      </trkpt>
      <trkpt lat="44.59294" lon="2.37799">
        <ele>591</ele>
        <time>2015-08-25T07:25:09Z</time>
      </trkpt>
      <trkpt lat="44.59301" lon="2.37788">
        <ele>591</ele>
        <time>2015-08-25T07:25:18Z</time>
      </trkpt>
      <trkpt lat="44.59304" lon="2.37776">
        <ele>593</ele>
        <time>2015-08-25T07:25:26Z</time>
      </trkpt>
      <trkpt lat="44.59311" lon="2.37765">
        <ele>594</ele>
        <time>2015-08-25T07:25:36Z</time>
      </trkpt>
      <trkpt lat="44.59319" lon="2.37756">
        <ele>593</ele>
        <time>2015-08-25T07:25:45Z</time>
      </trkpt>
      <trkpt lat="44.59328" lon="2.37746">
        <ele>592</ele>
        <time>2015-08-25T07:25:54Z</time>
      </trkpt>
      <trkpt lat="44.59335" lon="2.37743">
        <ele>591</ele>
        <time>2015-08-25T07:26:01Z</time>
      </trkpt>
      <trkpt lat="44.59344" lon="2.37736">
        <ele>591</ele>
        <time>2015-08-25T07:26:10Z</time>
      </trkpt>
      <trkpt lat="44.59352" lon="2.3773">
        <ele>592</ele>
        <time>2015-08-25T07:26:19Z</time>
      </trkpt>
      <trkpt lat="44.5936" lon="2.37723">
        <ele>591</ele>
        <time>2015-08-25T07:26:27Z</time>
      </trkpt>
      <trkpt lat="44.59364" lon="2.37719">
        <ele>592</ele>
        <time>2015-08-25T07:26:34Z</time>
      </trkpt>
      <trkpt lat="44.59372" lon="2.3771">
        <ele>591</ele>
        <time>2015-08-25T07:26:43Z</time>
      </trkpt>
      <trkpt lat="44.59374" lon="2.37705">
        <ele>595</ele>
        <time>2015-08-25T07:26:49Z</time>
      </trkpt>
      <trkpt lat="44.59381" lon="2.37697">
        <ele>596</ele>
        <time>2015-08-25T07:26:56Z</time>
      </trkpt>
      <trkpt lat="44.59389" lon="2.37687">
        <ele>596</ele>
        <time>2015-08-25T07:27:05Z</time>
      </trkpt>
      <trkpt lat="44.59386" lon="2.37672">
        <ele>595</ele>
        <time>2015-08-25T07:27:13Z</time>
      </trkpt>
      <trkpt lat="44.59383" lon="2.37659">
        <ele>595</ele>
        <time>2015-08-25T07:27:22Z</time>
      </trkpt>
      <trkpt lat="44.59384" lon="2.37646">
        <ele>596</ele>
        <time>2015-08-25T07:27:31Z</time>
      </trkpt>
      <trkpt lat="44.59383" lon="2.37631">
        <ele>595</ele>
        <time>2015-08-25T07:27:40Z</time>
      </trkpt>
      <trkpt lat="44.59381" lon="2.37618">
        <ele>593</ele>
        <time>2015-08-25T07:27:48Z</time>
      </trkpt>
      <trkpt lat="44.59378" lon="2.37604">
        <ele>594</ele>
        <time>2015-08-25T07:27:56Z</time>
      </trkpt>
      <trkpt lat="44.59372" lon="2.37592">
        <ele>593</ele>
        <time>2015-08-25T07:28:04Z</time>
      </trkpt>
      <trkpt lat="44.59363" lon="2.37584">
        <ele>593</ele>
        <time>2015-08-25T07:28:13Z</time>
      </trkpt>
      <trkpt lat="44.59355" lon="2.37576">
        <ele>591</ele>
        <time>2015-08-25T07:28:22Z</time>
      </trkpt>
      <trkpt lat="44.59347" lon="2.37569">
        <ele>589</ele>
        <time>2015-08-25T07:28:29Z</time>
      </trkpt>
      <trkpt lat="44.59338" lon="2.3756">
        <ele>586</ele>
        <time>2015-08-25T07:28:37Z</time>
      </trkpt>
      <trkpt lat="44.59333" lon="2.37549">
        <ele>585</ele>
        <time>2015-08-25T07:28:47Z</time>
      </trkpt>
      <trkpt lat="44.59327" lon="2.37538">
        <ele>585</ele>
        <time>2015-08-25T07:28:55Z</time>
      </trkpt>
      <trkpt lat="44.59319" lon="2.37527">
        <ele>585</ele>
        <time>2015-08-25T07:29:04Z</time>
      </trkpt>
      <trkpt lat="44.59311" lon="2.37517">
        <ele>586</ele>
        <time>2015-08-25T07:29:11Z</time>
      </trkpt>
      <trkpt lat="44.59302" lon="2.37509">
        <ele>584</ele>
        <time>2015-08-25T07:29:19Z</time>
      </trkpt>
      <trkpt lat="44.59293" lon="2.37504">
        <ele>586</ele>
        <time>2015-08-25T07:29:27Z</time>
      </trkpt>
      <trkpt lat="44.59285" lon="2.37498">
        <ele>586</ele>
        <time>2015-08-25T07:29:35Z</time>
      </trkpt>
      <trkpt lat="44.59276" lon="2.37492">
        <ele>586</ele>
        <time>2015-08-25T07:29:43Z</time>
      </trkpt>
      <trkpt lat="44.59268" lon="2.37484">
        <ele>585</ele>
        <time>2015-08-25T07:29:51Z</time>
      </trkpt>
      <trkpt lat="44.59262" lon="2.37472">
        <ele>586</ele>
        <time>2015-08-25T07:30:00Z</time>
      </trkpt>
      <trkpt lat="44.59258" lon="2.37459">
        <ele>586</ele>
        <time>2015-08-25T07:30:09Z</time>
      </trkpt>
      <trkpt lat="44.59256" lon="2.37445">
        <ele>583</ele>
        <time>2015-08-25T07:30:18Z</time>
      </trkpt>
      <trkpt lat="44.59256" lon="2.37431">
        <ele>582</ele>
        <time>2015-08-25T07:30:27Z</time>
      </trkpt>
      <trkpt lat="44.59256" lon="2.37418">
        <ele>579</ele>
        <time>2015-08-25T07:30:35Z</time>
      </trkpt>
      <trkpt lat="44.59258" lon="2.37404">
        <ele>579</ele>
        <time>2015-08-25T07:30:44Z</time>
      </trkpt>
      <trkpt lat="44.59259" lon="2.37389">
        <ele>580</ele>
        <time>2015-08-25T07:30:53Z</time>
      </trkpt>
      <trkpt lat="44.59261" lon="2.37379">
        <ele>581</ele>
        <time>2015-08-25T07:31:00Z</time>
      </trkpt>
      <trkpt lat="44.59263" lon="2.37366">
        <ele>579</ele>
        <time>2015-08-25T07:31:08Z</time>
      </trkpt>
      <trkpt lat="44.59264" lon="2.37352">
        <ele>579</ele>
        <time>2015-08-25T07:31:16Z</time>
      </trkpt>
      <trkpt lat="44.59266" lon="2.37338">
        <ele>578</ele>
        <time>2015-08-25T07:31:25Z</time>
      </trkpt>
      <trkpt lat="44.59271" lon="2.37324">
        <ele>576</ele>
        <time>2015-08-25T07:31:35Z</time>
      </trkpt>
      <trkpt lat="44.59275" lon="2.37313">
        <ele>577</ele>
        <time>2015-08-25T07:31:43Z</time>
      </trkpt>
      <trkpt lat="44.5928" lon="2.37304">
        <ele>574</ele>
        <time>2015-08-25T07:32:40Z</time>
      </trkpt>
      <trkpt lat="44.59285" lon="2.37292">
        <ele>574</ele>
        <time>2015-08-25T07:32:48Z</time>
      </trkpt>
      <trkpt lat="44.59289" lon="2.37278">
        <ele>572</ele>
        <time>2015-08-25T07:32:56Z</time>
      </trkpt>
      <trkpt lat="44.59293" lon="2.37265">
        <ele>571</ele>
        <time>2015-08-25T07:33:04Z</time>
      </trkpt>
      <trkpt lat="44.59296" lon="2.37251">
        <ele>571</ele>
        <time>2015-08-25T07:33:12Z</time>
      </trkpt>
      <trkpt lat="44.593" lon="2.37236">
        <ele>570</ele>
        <time>2015-08-25T07:33:21Z</time>
      </trkpt>
      <trkpt lat="44.59302" lon="2.37223">
        <ele>570</ele>
        <time>2015-08-25T07:33:28Z</time>
      </trkpt>
      <trkpt lat="44.59304" lon="2.37208">
        <ele>570</ele>
        <time>2015-08-25T07:33:36Z</time>
      </trkpt>
      <trkpt lat="44.59306" lon="2.37195">
        <ele>569</ele>
        <time>2015-08-25T07:33:43Z</time>
      </trkpt>
      <trkpt lat="44.5931" lon="2.37181">
        <ele>567</ele>
        <time>2015-08-25T07:33:52Z</time>
      </trkpt>
      <trkpt lat="44.59313" lon="2.37169">
        <ele>567</ele>
        <time>2015-08-25T07:33:59Z</time>
      </trkpt>
      <trkpt lat="44.59315" lon="2.37155">
        <ele>566</ele>
        <time>2015-08-25T07:34:08Z</time>
      </trkpt>
      <trkpt lat="44.59315" lon="2.37141">
        <ele>563</ele>
        <time>2015-08-25T07:34:17Z</time>
      </trkpt>
      <trkpt lat="44.59317" lon="2.37127">
        <ele>565</ele>
        <time>2015-08-25T07:34:26Z</time>
      </trkpt>
      <trkpt lat="44.59321" lon="2.37113">
        <ele>564</ele>
        <time>2015-08-25T07:34:35Z</time>
      </trkpt>
      <trkpt lat="44.59324" lon="2.371">
        <ele>566</ele>
        <time>2015-08-25T07:34:44Z</time>
      </trkpt>
      <trkpt lat="44.59326" lon="2.37087">
        <ele>568</ele>
        <time>2015-08-25T07:34:52Z</time>
      </trkpt>
      <trkpt lat="44.59325" lon="2.37075">
        <ele>568</ele>
        <time>2015-08-25T07:35:00Z</time>
      </trkpt>
      <trkpt lat="44.59326" lon="2.37061">
        <ele>566</ele>
        <time>2015-08-25T07:35:09Z</time>
      </trkpt>
      <trkpt lat="44.59325" lon="2.37047">
        <ele>562</ele>
        <time>2015-08-25T07:35:18Z</time>
      </trkpt>
      <trkpt lat="44.59323" lon="2.37031">
        <ele>559</ele>
        <time>2015-08-25T07:35:27Z</time>
      </trkpt>
      <trkpt lat="44.59319" lon="2.37019">
        <ele>557</ele>
        <time>2015-08-25T07:35:36Z</time>
      </trkpt>
      <trkpt lat="44.59315" lon="2.37006">
        <ele>555</ele>
        <time>2015-08-25T07:35:46Z</time>
      </trkpt>
      <trkpt lat="44.59311" lon="2.36992">
        <ele>553</ele>
        <time>2015-08-25T07:35:55Z</time>
      </trkpt>
      <trkpt lat="44.5931" lon="2.36982">
        <ele>551</ele>
        <time>2015-08-25T07:36:01Z</time>
      </trkpt>
      <trkpt lat="44.59309" lon="2.36969">
        <ele>549</ele>
        <time>2015-08-25T07:36:08Z</time>
      </trkpt>
      <trkpt lat="44.59303" lon="2.36957">
        <ele>550</ele>
        <time>2015-08-25T07:36:16Z</time>
      </trkpt>
      <trkpt lat="44.59294" lon="2.3695">
        <ele>549</ele>
        <time>2015-08-25T07:36:24Z</time>
      </trkpt>
      <trkpt lat="44.59283" lon="2.36947">
        <ele>549</ele>
        <time>2015-08-25T07:36:33Z</time>
      </trkpt>
      <trkpt lat="44.59274" lon="2.36947">
        <ele>544</ele>
        <time>2015-08-25T07:36:42Z</time>
      </trkpt>
      <trkpt lat="44.59264" lon="2.3695">
        <ele>545</ele>
        <time>2015-08-25T07:36:52Z</time>
      </trkpt>
      <trkpt lat="44.59256" lon="2.36956">
        <ele>545</ele>
        <time>2015-08-25T07:36:59Z</time>
      </trkpt>
      <trkpt lat="44.59248" lon="2.36961">
        <ele>543</ele>
        <time>2015-08-25T07:37:09Z</time>
      </trkpt>
      <trkpt lat="44.59238" lon="2.36965">
        <ele>544</ele>
        <time>2015-08-25T07:37:19Z</time>
      </trkpt>
      <trkpt lat="44.59228" lon="2.36963">
        <ele>538</ele>
        <time>2015-08-25T07:37:28Z</time>
      </trkpt>
      <trkpt lat="44.59219" lon="2.36963">
        <ele>538</ele>
        <time>2015-08-25T07:37:34Z</time>
      </trkpt>
      <trkpt lat="44.5921" lon="2.36966">
        <ele>541</ele>
        <time>2015-08-25T07:37:40Z</time>
      </trkpt>
      <trkpt lat="44.59201" lon="2.36975">
        <ele>540</ele>
        <time>2015-08-25T07:37:48Z</time>
      </trkpt>
      <trkpt lat="44.59196" lon="2.36986">
        <ele>538</ele>
        <time>2015-08-25T07:37:55Z</time>
      </trkpt>
      <trkpt lat="44.5919" lon="2.37002">
        <ele>539</ele>
        <time>2015-08-25T07:38:04Z</time>
      </trkpt>
      <trkpt lat="44.59185" lon="2.37014">
        <ele>540</ele>
        <time>2015-08-25T07:38:14Z</time>
      </trkpt>
      <trkpt lat="44.59178" lon="2.3703">
        <ele>539</ele>
        <time>2015-08-25T07:38:23Z</time>
      </trkpt>
      <trkpt lat="44.59172" lon="2.37041">
        <ele>535</ele>
        <time>2015-08-25T07:38:31Z</time>
      </trkpt>
      <trkpt lat="44.59167" lon="2.37053">
        <ele>535</ele>
        <time>2015-08-25T07:38:39Z</time>
      </trkpt>
      <trkpt lat="44.59159" lon="2.37061">
        <ele>535</ele>
        <time>2015-08-25T07:38:46Z</time>
      </trkpt>
      <trkpt lat="44.59153" lon="2.37071">
        <ele>534</ele>
        <time>2015-08-25T07:38:54Z</time>
      </trkpt>
      <trkpt lat="44.59147" lon="2.37076">
        <ele>534</ele>
        <time>2015-08-25T07:39:00Z</time>
      </trkpt>
      <trkpt lat="44.59138" lon="2.37086">
        <ele>534</ele>
        <time>2015-08-25T07:39:10Z</time>
      </trkpt>
      <trkpt lat="44.59132" lon="2.37096">
        <ele>532</ele>
        <time>2015-08-25T07:39:17Z</time>
      </trkpt>
      <trkpt lat="44.59126" lon="2.37108">
        <ele>527</ele>
        <time>2015-08-25T07:39:26Z</time>
      </trkpt>
      <trkpt lat="44.59117" lon="2.37118">
        <ele>525</ele>
        <time>2015-08-25T07:39:35Z</time>
      </trkpt>
      <trkpt lat="44.59108" lon="2.37124">
        <ele>526</ele>
        <time>2015-08-25T07:39:42Z</time>
      </trkpt>
      <trkpt lat="44.59099" lon="2.37131">
        <ele>526</ele>
        <time>2015-08-25T07:39:51Z</time>
      </trkpt>
      <trkpt lat="44.59088" lon="2.37142">
        <ele>527</ele>
        <time>2015-08-25T07:40:00Z</time>
      </trkpt>
      <trkpt lat="44.59079" lon="2.37147">
        <ele>525</ele>
        <time>2015-08-25T07:40:11Z</time>
      </trkpt>
      <trkpt lat="44.59073" lon="2.37151">
        <ele>524</ele>
        <time>2015-08-25T07:40:18Z</time>
      </trkpt>
      <trkpt lat="44.59067" lon="2.37153">
        <ele>521</ele>
        <time>2015-08-25T07:40:24Z</time>
      </trkpt>
      <trkpt lat="44.59056" lon="2.37151">
        <ele>525</ele>
        <time>2015-08-25T07:40:33Z</time>
      </trkpt>
      <trkpt lat="44.59051" lon="2.3715">
        <ele>526</ele>
        <time>2015-08-25T07:40:39Z</time>
      </trkpt>
      <trkpt lat="44.59042" lon="2.37149">
        <ele>529</ele>
        <time>2015-08-25T07:40:46Z</time>
      </trkpt>
      <trkpt lat="44.59032" lon="2.37145">
        <ele>530</ele>
        <time>2015-08-25T07:40:53Z</time>
      </trkpt>
      <trkpt lat="44.59023" lon="2.37144">
        <ele>528</ele>
        <time>2015-08-25T07:40:59Z</time>
      </trkpt>
      <trkpt lat="44.59014" lon="2.37148">
        <ele>527</ele>
        <time>2015-08-25T07:41:06Z</time>
      </trkpt>
      <trkpt lat="44.59003" lon="2.3715">
        <ele>522</ele>
        <time>2015-08-25T07:41:13Z</time>
      </trkpt>
      <trkpt lat="44.58992" lon="2.37145">
        <ele>525</ele>
        <time>2015-08-25T07:41:22Z</time>
      </trkpt>
      <trkpt lat="44.58987" lon="2.37142">
        <ele>526</ele>
        <time>2015-08-25T07:41:28Z</time>
      </trkpt>
      <trkpt lat="44.58978" lon="2.37139">
        <ele>526</ele>
        <time>2015-08-25T07:41:36Z</time>
      </trkpt>
      <trkpt lat="44.58968" lon="2.37132">
        <ele>527</ele>
        <time>2015-08-25T07:41:44Z</time>
      </trkpt>
      <trkpt lat="44.58958" lon="2.3713">
        <ele>528</ele>
        <time>2015-08-25T07:41:52Z</time>
      </trkpt>
      <trkpt lat="44.58947" lon="2.37127">
        <ele>530</ele>
        <time>2015-08-25T07:41:59Z</time>
      </trkpt>
      <trkpt lat="44.58937" lon="2.37127">
        <ele>529</ele>
        <time>2015-08-25T07:42:06Z</time>
      </trkpt>
      <trkpt lat="44.58927" lon="2.37128">
        <ele>529</ele>
        <time>2015-08-25T07:42:15Z</time>
      </trkpt>
      <trkpt lat="44.58917" lon="2.37131">
        <ele>528</ele>
        <time>2015-08-25T07:42:23Z</time>
      </trkpt>
      <trkpt lat="44.58908" lon="2.37133">
        <ele>529</ele>
        <time>2015-08-25T07:42:31Z</time>
      </trkpt>
      <trkpt lat="44.58904" lon="2.37137">
        <ele>529</ele>
        <time>2015-08-25T07:42:37Z</time>
      </trkpt>
      <trkpt lat="44.58893" lon="2.37136">
        <ele>530</ele>
        <time>2015-08-25T07:42:47Z</time>
      </trkpt>
      <trkpt lat="44.58888" lon="2.37133">
        <ele>531</ele>
        <time>2015-08-25T07:42:53Z</time>
      </trkpt>
      <trkpt lat="44.58879" lon="2.37133">
        <ele>530</ele>
        <time>2015-08-25T07:42:59Z</time>
      </trkpt>
      <trkpt lat="44.5887" lon="2.37139">
        <ele>529</ele>
        <time>2015-08-25T07:43:06Z</time>
      </trkpt>
      <trkpt lat="44.5886" lon="2.37141">
        <ele>531</ele>
        <time>2015-08-25T07:43:13Z</time>
      </trkpt>
      <trkpt lat="44.58851" lon="2.37146">
        <ele>530</ele>
        <time>2015-08-25T07:43:19Z</time>
      </trkpt>
      <trkpt lat="44.58841" lon="2.37148">
        <ele>532</ele>
        <time>2015-08-25T07:43:29Z</time>
      </trkpt>
      <trkpt lat="44.58832" lon="2.37146">
        <ele>530</ele>
        <time>2015-08-25T07:43:37Z</time>
      </trkpt>
      <trkpt lat="44.58833" lon="2.37139">
        <ele>534</ele>
        <time>2015-08-25T07:43:43Z</time>
      </trkpt>
      <trkpt lat="44.58836" lon="2.37133">
        <ele>539</ele>
        <time>2015-08-25T07:43:49Z</time>
      </trkpt>
      <trkpt lat="44.58841" lon="2.37131">
        <ele>542</ele>
        <time>2015-08-25T07:43:56Z</time>
      </trkpt>
      <trkpt lat="44.5885" lon="2.37124">
        <ele>546</ele>
        <time>2015-08-25T07:44:09Z</time>
      </trkpt>
      <trkpt lat="44.5886" lon="2.37116">
        <ele>546</ele>
        <time>2015-08-25T07:44:17Z</time>
      </trkpt>
      <trkpt lat="44.58869" lon="2.37109">
        <ele>547</ele>
        <time>2015-08-25T07:44:27Z</time>
      </trkpt>
      <trkpt lat="44.58879" lon="2.37102">
        <ele>544</ele>
        <time>2015-08-25T07:44:36Z</time>
      </trkpt>
      <trkpt lat="44.58888" lon="2.37099">
        <ele>546</ele>
        <time>2015-08-25T07:44:44Z</time>
      </trkpt>
      <trkpt lat="44.589" lon="2.37095">
        <ele>545</ele>
        <time>2015-08-25T07:44:53Z</time>
      </trkpt>
      <trkpt lat="44.58906" lon="2.37091">
        <ele>542</ele>
        <time>2015-08-25T07:44:59Z</time>
      </trkpt>
      <trkpt lat="44.58918" lon="2.37085">
        <ele>541</ele>
        <time>2015-08-25T07:45:06Z</time>
      </trkpt>
      <trkpt lat="44.58922" lon="2.37085">
        <ele>543</ele>
        <time>2015-08-25T07:45:12Z</time>
      </trkpt>
      <trkpt lat="44.58933" lon="2.37084">
        <ele>540</ele>
        <time>2015-08-25T07:45:21Z</time>
      </trkpt>
      <trkpt lat="44.58943" lon="2.37079">
        <ele>536</ele>
        <time>2015-08-25T07:45:28Z</time>
      </trkpt>
      <trkpt lat="44.58948" lon="2.37076">
        <ele>536</ele>
        <time>2015-08-25T07:45:34Z</time>
      </trkpt>
      <trkpt lat="44.58957" lon="2.37069">
        <ele>537</ele>
        <time>2015-08-25T07:45:43Z</time>
      </trkpt>
      <trkpt lat="44.58961" lon="2.37065">
        <ele>538</ele>
        <time>2015-08-25T07:45:49Z</time>
      </trkpt>
      <trkpt lat="44.5897" lon="2.3706">
        <ele>535</ele>
        <time>2015-08-25T07:45:56Z</time>
      </trkpt>
      <trkpt lat="44.58981" lon="2.37052">
        <ele>532</ele>
        <time>2015-08-25T07:46:05Z</time>
      </trkpt>
      <trkpt lat="44.58986" lon="2.37049">
        <ele>533</ele>
        <time>2015-08-25T07:46:11Z</time>
      </trkpt>
      <trkpt lat="44.5899" lon="2.37045">
        <ele>532</ele>
        <time>2015-08-25T07:46:17Z</time>
      </trkpt>
      <trkpt lat="44.58999" lon="2.37037">
        <ele>533</ele>
        <time>2015-08-25T07:46:25Z</time>
      </trkpt>
      <trkpt lat="44.59008" lon="2.37031">
        <ele>534</ele>
        <time>2015-08-25T07:46:35Z</time>
      </trkpt>
      <trkpt lat="44.59017" lon="2.37023">
        <ele>535</ele>
        <time>2015-08-25T07:46:44Z</time>
      </trkpt>
      <trkpt lat="44.59024" lon="2.37014">
        <ele>535</ele>
        <time>2015-08-25T07:46:52Z</time>
      </trkpt>
      <trkpt lat="44.59034" lon="2.37005">
        <ele>533</ele>
        <time>2015-08-25T07:46:59Z</time>
      </trkpt>
      <trkpt lat="44.59041" lon="2.36996">
        <ele>535</ele>
        <time>2015-08-25T07:47:09Z</time>
      </trkpt>
      <trkpt lat="44.59048" lon="2.36986">
        <ele>534</ele>
        <time>2015-08-25T07:47:15Z</time>
      </trkpt>
      <trkpt lat="44.59053" lon="2.36974">
        <ele>534</ele>
        <time>2015-08-25T07:47:23Z</time>
      </trkpt>
      <trkpt lat="44.59057" lon="2.36961">
        <ele>530</ele>
        <time>2015-08-25T07:47:32Z</time>
      </trkpt>
      <trkpt lat="44.59058" lon="2.36947">
        <ele>529</ele>
        <time>2015-08-25T07:47:40Z</time>
      </trkpt>
      <trkpt lat="44.59053" lon="2.36935">
        <ele>529</ele>
        <time>2015-08-25T07:47:48Z</time>
      </trkpt>
      <trkpt lat="44.5905" lon="2.36921">
        <ele>527</ele>
        <time>2015-08-25T07:47:55Z</time>
      </trkpt>
      <trkpt lat="44.59044" lon="2.36909">
        <ele>528</ele>
        <time>2015-08-25T07:48:03Z</time>
      </trkpt>
      <trkpt lat="44.59036" lon="2.369">
        <ele>528</ele>
        <time>2015-08-25T07:48:11Z</time>
      </trkpt>
      <trkpt lat="44.59027" lon="2.36891">
        <ele>532</ele>
        <time>2015-08-25T07:48:22Z</time>
      </trkpt>
      <trkpt lat="44.59019" lon="2.36882">
        <ele>533</ele>
        <time>2015-08-25T07:48:30Z</time>
      </trkpt>
      <trkpt lat="44.59013" lon="2.36879">
        <ele>532</ele>
        <time>2015-08-25T07:48:37Z</time>
      </trkpt>
      <trkpt lat="44.59006" lon="2.36871">
        <ele>534</ele>
        <time>2015-08-25T07:48:43Z</time>
      </trkpt>
      <trkpt lat="44.58997" lon="2.36864">
        <ele>533</ele>
        <time>2015-08-25T07:48:50Z</time>
      </trkpt>
      <trkpt lat="44.5899" lon="2.36862">
        <ele>532</ele>
        <time>2015-08-25T07:48:56Z</time>
      </trkpt>
      <trkpt lat="44.58981" lon="2.36854">
        <ele>536</ele>
        <time>2015-08-25T07:49:05Z</time>
      </trkpt>
      <trkpt lat="44.58982" lon="2.36847">
        <ele>539</ele>
        <time>2015-08-25T07:49:13Z</time>
      </trkpt>
      <trkpt lat="44.58983" lon="2.36837">
        <ele>540</ele>
        <time>2015-08-25T07:49:21Z</time>
      </trkpt>
      <trkpt lat="44.58987" lon="2.36826">
        <ele>537</ele>
        <time>2015-08-25T07:49:31Z</time>
      </trkpt>
      <trkpt lat="44.58994" lon="2.36817">
        <ele>537</ele>
        <time>2015-08-25T07:49:41Z</time>
      </trkpt>
      <trkpt lat="44.59003" lon="2.36808">
        <ele>534</ele>
        <time>2015-08-25T07:49:51Z</time>
      </trkpt>
      <trkpt lat="44.59011" lon="2.36797">
        <ele>531</ele>
        <time>2015-08-25T07:50:00Z</time>
      </trkpt>
      <trkpt lat="44.59019" lon="2.36788">
        <ele>530</ele>
        <time>2015-08-25T07:50:08Z</time>
      </trkpt>
      <trkpt lat="44.59026" lon="2.3678">
        <ele>529</ele>
        <time>2015-08-25T07:50:16Z</time>
      </trkpt>
      <trkpt lat="44.59035" lon="2.36771">
        <ele>529</ele>
        <time>2015-08-25T07:50:24Z</time>
      </trkpt>
      <trkpt lat="44.59042" lon="2.36763">
        <ele>529</ele>
        <time>2015-08-25T07:50:32Z</time>
      </trkpt>
      <trkpt lat="44.5905" lon="2.36753">
        <ele>529</ele>
        <time>2015-08-25T07:50:40Z</time>
      </trkpt>
      <trkpt lat="44.59058" lon="2.36743">
        <ele>529</ele>
        <time>2015-08-25T07:50:49Z</time>
      </trkpt>
      <trkpt lat="44.59064" lon="2.36733">
        <ele>528</ele>
        <time>2015-08-25T07:50:56Z</time>
      </trkpt>
      <trkpt lat="44.59071" lon="2.36722">
        <ele>529</ele>
        <time>2015-08-25T07:51:04Z</time>
      </trkpt>
      <trkpt lat="44.5908" lon="2.36713">
        <ele>526</ele>
        <time>2015-08-25T07:51:11Z</time>
      </trkpt>
      <trkpt lat="44.59087" lon="2.367">
        <ele>525</ele>
        <time>2015-08-25T07:51:20Z</time>
      </trkpt>
      <trkpt lat="44.59091" lon="2.36688">
        <ele>525</ele>
        <time>2015-08-25T07:51:27Z</time>
      </trkpt>
      <trkpt lat="44.59091" lon="2.36675">
        <ele>524</ele>
        <time>2015-08-25T07:51:38Z</time>
      </trkpt>
      <trkpt lat="44.59085" lon="2.36663">
        <ele>524</ele>
        <time>2015-08-25T07:51:46Z</time>
      </trkpt>
      <trkpt lat="44.5908" lon="2.36652">
        <ele>524</ele>
        <time>2015-08-25T07:51:55Z</time>
      </trkpt>
      <trkpt lat="44.59077" lon="2.36639">
        <ele>526</ele>
        <time>2015-08-25T07:52:06Z</time>
      </trkpt>
      <trkpt lat="44.59075" lon="2.36632">
        <ele>530</ele>
        <time>2015-08-25T07:52:13Z</time>
      </trkpt>
      <trkpt lat="44.59075" lon="2.36618">
        <ele>530</ele>
        <time>2015-08-25T07:52:23Z</time>
      </trkpt>
      <trkpt lat="44.59069" lon="2.36607">
        <ele>534</ele>
        <time>2015-08-25T07:52:31Z</time>
      </trkpt>
      <trkpt lat="44.59062" lon="2.36596">
        <ele>533</ele>
        <time>2015-08-25T07:52:39Z</time>
      </trkpt>
      <trkpt lat="44.59055" lon="2.36587">
        <ele>533</ele>
        <time>2015-08-25T07:52:49Z</time>
      </trkpt>
      <trkpt lat="44.5905" lon="2.36586">
        <ele>534</ele>
        <time>2015-08-25T07:52:56Z</time>
      </trkpt>
      <trkpt lat="44.59045" lon="2.36585">
        <ele>535</ele>
        <time>2015-08-25T07:53:02Z</time>
      </trkpt>
      <trkpt lat="44.59035" lon="2.36589">
        <ele>535</ele>
        <time>2015-08-25T07:53:12Z</time>
      </trkpt>
      <trkpt lat="44.59024" lon="2.36589">
        <ele>537</ele>
        <time>2015-08-25T07:53:22Z</time>
      </trkpt>
      <trkpt lat="44.59015" lon="2.36594">
        <ele>541</ele>
        <time>2015-08-25T07:53:32Z</time>
      </trkpt>
      <trkpt lat="44.59005" lon="2.36597">
        <ele>542</ele>
        <time>2015-08-25T07:53:43Z</time>
      </trkpt>
      <trkpt lat="44.58996" lon="2.36602">
        <ele>540</ele>
        <time>2015-08-25T07:53:52Z</time>
      </trkpt>
      <trkpt lat="44.58986" lon="2.366">
        <ele>540</ele>
        <time>2015-08-25T07:54:02Z</time>
      </trkpt>
      <trkpt lat="44.58981" lon="2.366">
        <ele>543</ele>
        <time>2015-08-25T07:54:08Z</time>
      </trkpt>
      <trkpt lat="44.58972" lon="2.36604">
        <ele>544</ele>
        <time>2015-08-25T07:54:18Z</time>
      </trkpt>
      <trkpt lat="44.58963" lon="2.36606">
        <ele>547</ele>
        <time>2015-08-25T07:54:28Z</time>
      </trkpt>
      <trkpt lat="44.58959" lon="2.3661">
        <ele>545</ele>
        <time>2015-08-25T07:54:36Z</time>
      </trkpt>
      <trkpt lat="44.5895" lon="2.36616">
        <ele>543</ele>
        <time>2015-08-25T07:54:46Z</time>
      </trkpt>
      <trkpt lat="44.58941" lon="2.36617">
        <ele>545</ele>
        <time>2015-08-25T07:54:55Z</time>
      </trkpt>
      <trkpt lat="44.58936" lon="2.3661">
        <ele>551</ele>
        <time>2015-08-25T07:55:03Z</time>
      </trkpt>
      <trkpt lat="44.58937" lon="2.36602">
        <ele>551</ele>
        <time>2015-08-25T07:55:10Z</time>
      </trkpt>
      <trkpt lat="44.5894" lon="2.36597">
        <ele>551</ele>
        <time>2015-08-25T07:55:16Z</time>
      </trkpt>
      <trkpt lat="44.58941" lon="2.3659">
        <ele>554</ele>
        <time>2015-08-25T07:55:23Z</time>
      </trkpt>
      <trkpt lat="44.58941" lon="2.36583">
        <ele>551</ele>
        <time>2015-08-25T07:55:29Z</time>
      </trkpt>
      <trkpt lat="44.58943" lon="2.3657">
        <ele>552</ele>
        <time>2015-08-25T07:55:39Z</time>
      </trkpt>
      <trkpt lat="44.58938" lon="2.36558">
        <ele>553</ele>
        <time>2015-08-25T07:55:50Z</time>
      </trkpt>
      <trkpt lat="44.58934" lon="2.36554">
        <ele>554</ele>
        <time>2015-08-25T07:55:56Z</time>
      </trkpt>
      <trkpt lat="44.58931" lon="2.36548">
        <ele>555</ele>
        <time>2015-08-25T07:56:04Z</time>
      </trkpt>
      <trkpt lat="44.58925" lon="2.36539">
        <ele>560</ele>
        <time>2015-08-25T07:56:13Z</time>
      </trkpt>
      <trkpt lat="44.58916" lon="2.36532">
        <ele>560</ele>
        <time>2015-08-25T07:56:21Z</time>
      </trkpt>
      <trkpt lat="44.58912" lon="2.36528">
        <ele>559</ele>
        <time>2015-08-25T07:56:27Z</time>
      </trkpt>
      <trkpt lat="44.58904" lon="2.3652">
        <ele>558</ele>
        <time>2015-08-25T07:56:36Z</time>
      </trkpt>
      <trkpt lat="44.58898" lon="2.3651">
        <ele>560</ele>
        <time>2015-08-25T07:56:47Z</time>
      </trkpt>
      <trkpt lat="44.58898" lon="2.36503">
        <ele>562</ele>
        <time>2015-08-25T07:56:55Z</time>
      </trkpt>
      <trkpt lat="44.58905" lon="2.36503">
        <ele>564</ele>
        <time>2015-08-25T07:57:03Z</time>
      </trkpt>
      <trkpt lat="44.5891" lon="2.36503">
        <ele>565</ele>
        <time>2015-08-25T07:57:11Z</time>
      </trkpt>
      <trkpt lat="44.58915" lon="2.36503">
        <ele>565</ele>
        <time>2015-08-25T07:57:21Z</time>
      </trkpt>
      <trkpt lat="44.58922" lon="2.36493">
        <ele>556</ele>
        <time>2015-08-25T07:57:28Z</time>
      </trkpt>
      <trkpt lat="44.58928" lon="2.36493">
        <ele>555</ele>
        <time>2015-08-25T07:57:34Z</time>
      </trkpt>
      <trkpt lat="44.58937" lon="2.36496">
        <ele>559</ele>
        <time>2015-08-25T07:57:43Z</time>
      </trkpt>
      <trkpt lat="44.58947" lon="2.36493">
        <ele>560</ele>
        <time>2015-08-25T07:57:51Z</time>
      </trkpt>
      <trkpt lat="44.58958" lon="2.3649">
        <ele>563</ele>
        <time>2015-08-25T07:58:01Z</time>
      </trkpt>
      <trkpt lat="44.58968" lon="2.36485">
        <ele>559</ele>
        <time>2015-08-25T07:58:09Z</time>
      </trkpt>
      <trkpt lat="44.5897" lon="2.36479">
        <ele>563</ele>
        <time>2015-08-25T07:58:16Z</time>
      </trkpt>
      <trkpt lat="44.58961" lon="2.3648">
        <ele>566</ele>
        <time>2015-08-25T07:59:16Z</time>
      </trkpt>
      <trkpt lat="44.58952" lon="2.36477">
        <ele>567</ele>
        <time>2015-08-25T07:59:26Z</time>
      </trkpt>
      <trkpt lat="44.58947" lon="2.36475">
        <ele>566</ele>
        <time>2015-08-25T07:59:32Z</time>
      </trkpt>
      <trkpt lat="44.58938" lon="2.36471">
        <ele>566</ele>
        <time>2015-08-25T07:59:43Z</time>
      </trkpt>
      <trkpt lat="44.58934" lon="2.36469">
        <ele>568</ele>
        <time>2015-08-25T07:59:49Z</time>
      </trkpt>
      <trkpt lat="44.58928" lon="2.36466">
        <ele>567</ele>
        <time>2015-08-25T07:59:56Z</time>
      </trkpt>
      <trkpt lat="44.58918" lon="2.36462">
        <ele>563</ele>
        <time>2015-08-25T08:00:04Z</time>
      </trkpt>
      <trkpt lat="44.58913" lon="2.3646">
        <ele>566</ele>
        <time>2015-08-25T08:00:11Z</time>
      </trkpt>
      <trkpt lat="44.5891" lon="2.36455">
        <ele>570</ele>
        <time>2015-08-25T08:00:17Z</time>
      </trkpt>
      <trkpt lat="44.58906" lon="2.36453">
        <ele>569</ele>
        <time>2015-08-25T08:00:23Z</time>
      </trkpt>
      <trkpt lat="44.58895" lon="2.36454">
        <ele>572</ele>
        <time>2015-08-25T08:00:32Z</time>
      </trkpt>
      <trkpt lat="44.58887" lon="2.36445">
        <ele>573</ele>
        <time>2015-08-25T08:00:46Z</time>
      </trkpt>
      <trkpt lat="44.58883" lon="2.36442">
        <ele>576</ele>
        <time>2015-08-25T08:00:53Z</time>
      </trkpt>
      <trkpt lat="44.58876" lon="2.36443">
        <ele>578</ele>
        <time>2015-08-25T08:01:02Z</time>
      </trkpt>
      <trkpt lat="44.58867" lon="2.36438">
        <ele>577</ele>
        <time>2015-08-25T08:01:08Z</time>
      </trkpt>
      <trkpt lat="44.58862" lon="2.36436">
        <ele>581</ele>
        <time>2015-08-25T08:01:14Z</time>
      </trkpt>
      <trkpt lat="44.58851" lon="2.36429">
        <ele>580</ele>
        <time>2015-08-25T08:01:26Z</time>
      </trkpt>
      <trkpt lat="44.58843" lon="2.36421">
        <ele>578</ele>
        <time>2015-08-25T08:01:37Z</time>
      </trkpt>
      <trkpt lat="44.58833" lon="2.36417">
        <ele>578</ele>
        <time>2015-08-25T08:01:47Z</time>
      </trkpt>
      <trkpt lat="44.58824" lon="2.36415">
        <ele>578</ele>
        <time>2015-08-25T08:01:56Z</time>
      </trkpt>
      <trkpt lat="44.58814" lon="2.36414">
        <ele>576</ele>
        <time>2015-08-25T08:02:05Z</time>
      </trkpt>
      <trkpt lat="44.58809" lon="2.36414">
        <ele>576</ele>
        <time>2015-08-25T08:02:17Z</time>
      </trkpt>
      <trkpt lat="44.58804" lon="2.36414">
        <ele>578</ele>
        <time>2015-08-25T08:03:08Z</time>
      </trkpt>
      <trkpt lat="44.58799" lon="2.36415">
        <ele>576</ele>
        <time>2015-08-25T08:03:14Z</time>
      </trkpt>
      <trkpt lat="44.58795" lon="2.36412">
        <ele>581</ele>
        <time>2015-08-25T08:03:21Z</time>
      </trkpt>
      <trkpt lat="44.58785" lon="2.36413">
        <ele>582</ele>
        <time>2015-08-25T08:03:31Z</time>
      </trkpt>
      <trkpt lat="44.5878" lon="2.36415">
        <ele>582</ele>
        <time>2015-08-25T08:03:37Z</time>
      </trkpt>
      <trkpt lat="44.5877" lon="2.36412">
        <ele>582</ele>
        <time>2015-08-25T08:03:48Z</time>
      </trkpt>
      <trkpt lat="44.58764" lon="2.36413">
        <ele>584</ele>
        <time>2015-08-25T08:04:01Z</time>
      </trkpt>
      <trkpt lat="44.58754" lon="2.36415">
        <ele>588</ele>
        <time>2015-08-25T08:04:15Z</time>
      </trkpt>
      <trkpt lat="44.58748" lon="2.36415">
        <ele>592</ele>
        <time>2015-08-25T08:04:23Z</time>
      </trkpt>
      <trkpt lat="44.58743" lon="2.36414">
        <ele>591</ele>
        <time>2015-08-25T08:04:30Z</time>
      </trkpt>
      <trkpt lat="44.58739" lon="2.36413">
        <ele>592</ele>
        <time>2015-08-25T08:04:36Z</time>
      </trkpt>
      <trkpt lat="44.58734" lon="2.36416">
        <ele>594</ele>
        <time>2015-08-25T08:04:55Z</time>
      </trkpt>
      <trkpt lat="44.58728" lon="2.36416">
        <ele>593</ele>
        <time>2015-08-25T08:05:02Z</time>
      </trkpt>
      <trkpt lat="44.58723" lon="2.36416">
        <ele>594</ele>
        <time>2015-08-25T08:05:09Z</time>
      </trkpt>
      <trkpt lat="44.58718" lon="2.36416">
        <ele>593</ele>
        <time>2015-08-25T08:05:16Z</time>
      </trkpt>
      <trkpt lat="44.58713" lon="2.36417">
        <ele>594</ele>
        <time>2015-08-25T08:05:24Z</time>
      </trkpt>
      <trkpt lat="44.58708" lon="2.36415">
        <ele>593</ele>
        <time>2015-08-25T08:05:30Z</time>
      </trkpt>
      <trkpt lat="44.58703" lon="2.36415">
        <ele>593</ele>
        <time>2015-08-25T08:05:36Z</time>
      </trkpt>
      <trkpt lat="44.58698" lon="2.36415">
        <ele>593</ele>
        <time>2015-08-25T08:06:56Z</time>
      </trkpt>
      <trkpt lat="44.58703" lon="2.36407">
        <ele>595</ele>
        <time>2015-08-25T08:13:08Z</time>
      </trkpt>
      <trkpt lat="44.5871" lon="2.36397">
        <ele>595</ele>
        <time>2015-08-25T08:13:17Z</time>
      </trkpt>
      <trkpt lat="44.58717" lon="2.36387">
        <ele>593</ele>
        <time>2015-08-25T08:13:25Z</time>
      </trkpt>
      <trkpt lat="44.58723" lon="2.36376">
        <ele>593</ele>
        <time>2015-08-25T08:13:34Z</time>
      </trkpt>
      <trkpt lat="44.58733" lon="2.3637">
        <ele>595</ele>
        <time>2015-08-25T08:13:42Z</time>
      </trkpt>
      <trkpt lat="44.58741" lon="2.36361">
        <ele>595</ele>
        <time>2015-08-25T08:13:50Z</time>
      </trkpt>
      <trkpt lat="44.58747" lon="2.36356">
        <ele>595</ele>
        <time>2015-08-25T08:13:56Z</time>
      </trkpt>
      <trkpt lat="44.58754" lon="2.36348">
        <ele>595</ele>
        <time>2015-08-25T08:14:04Z</time>
      </trkpt>
      <trkpt lat="44.58762" lon="2.36338">
        <ele>593</ele>
        <time>2015-08-25T08:14:12Z</time>
      </trkpt>
      <trkpt lat="44.5877" lon="2.36327">
        <ele>592</ele>
        <time>2015-08-25T08:14:20Z</time>
      </trkpt>
      <trkpt lat="44.58778" lon="2.36317">
        <ele>591</ele>
        <time>2015-08-25T08:14:28Z</time>
      </trkpt>
      <trkpt lat="44.58785" lon="2.36307">
        <ele>591</ele>
        <time>2015-08-25T08:14:36Z</time>
      </trkpt>
      <trkpt lat="44.58793" lon="2.36296">
        <ele>591</ele>
        <time>2015-08-25T08:14:44Z</time>
      </trkpt>
      <trkpt lat="44.588" lon="2.36285">
        <ele>591</ele>
        <time>2015-08-25T08:14:52Z</time>
      </trkpt>
      <trkpt lat="44.58808" lon="2.36275">
        <ele>591</ele>
        <time>2015-08-25T08:15:00Z</time>
      </trkpt>
      <trkpt lat="44.58814" lon="2.36262">
        <ele>591</ele>
        <time>2015-08-25T08:15:08Z</time>
      </trkpt>
      <trkpt lat="44.5882" lon="2.36251">
        <ele>591</ele>
        <time>2015-08-25T08:15:16Z</time>
      </trkpt>
      <trkpt lat="44.58826" lon="2.3624">
        <ele>591</ele>
        <time>2015-08-25T08:15:25Z</time>
      </trkpt>
      <trkpt lat="44.58833" lon="2.36229">
        <ele>592</ele>
        <time>2015-08-25T08:15:33Z</time>
      </trkpt>
      <trkpt lat="44.5884" lon="2.36219">
        <ele>591</ele>
        <time>2015-08-25T08:15:42Z</time>
      </trkpt>
      <trkpt lat="44.58846" lon="2.36207">
        <ele>592</ele>
        <time>2015-08-25T08:15:49Z</time>
      </trkpt>
      <trkpt lat="44.58848" lon="2.36196">
        <ele>593</ele>
        <time>2015-08-25T08:15:56Z</time>
      </trkpt>
      <trkpt lat="44.58851" lon="2.36182">
        <ele>592</ele>
        <time>2015-08-25T08:16:04Z</time>
      </trkpt>
      <trkpt lat="44.5885" lon="2.36166">
        <ele>590</ele>
        <time>2015-08-25T08:16:12Z</time>
      </trkpt>
      <trkpt lat="44.58849" lon="2.36152">
        <ele>591</ele>
        <time>2015-08-25T08:16:19Z</time>
      </trkpt>
      <trkpt lat="44.58849" lon="2.36138">
        <ele>590</ele>
        <time>2015-08-25T08:16:26Z</time>
      </trkpt>
      <trkpt lat="44.58848" lon="2.36124">
        <ele>592</ele>
        <time>2015-08-25T08:16:34Z</time>
      </trkpt>
      <trkpt lat="44.58848" lon="2.36109">
        <ele>591</ele>
        <time>2015-08-25T08:16:42Z</time>
      </trkpt>
      <trkpt lat="44.5885" lon="2.36096">
        <ele>591</ele>
        <time>2015-08-25T08:16:49Z</time>
      </trkpt>
      <trkpt lat="44.58853" lon="2.36084">
        <ele>592</ele>
        <time>2015-08-25T08:16:56Z</time>
      </trkpt>
      <trkpt lat="44.58855" lon="2.36069">
        <ele>594</ele>
        <time>2015-08-25T08:17:04Z</time>
      </trkpt>
      <trkpt lat="44.58857" lon="2.36054">
        <ele>595</ele>
        <time>2015-08-25T08:17:12Z</time>
      </trkpt>
      <trkpt lat="44.58858" lon="2.3604">
        <ele>596</ele>
        <time>2015-08-25T08:17:21Z</time>
      </trkpt>
      <trkpt lat="44.58856" lon="2.36027">
        <ele>595</ele>
        <time>2015-08-25T08:17:29Z</time>
      </trkpt>
      <trkpt lat="44.58857" lon="2.36014">
        <ele>594</ele>
        <time>2015-08-25T08:17:36Z</time>
      </trkpt>
      <trkpt lat="44.58858" lon="2.36">
        <ele>597</ele>
        <time>2015-08-25T08:17:44Z</time>
      </trkpt>
      <trkpt lat="44.5886" lon="2.35986">
        <ele>594</ele>
        <time>2015-08-25T08:17:52Z</time>
      </trkpt>
      <trkpt lat="44.58862" lon="2.35972">
        <ele>594</ele>
        <time>2015-08-25T08:18:00Z</time>
      </trkpt>
      <trkpt lat="44.58864" lon="2.35957">
        <ele>595</ele>
        <time>2015-08-25T08:18:09Z</time>
      </trkpt>
      <trkpt lat="44.58865" lon="2.35944">
        <ele>595</ele>
        <time>2015-08-25T08:18:15Z</time>
      </trkpt>
      <trkpt lat="44.58866" lon="2.35931">
        <ele>598</ele>
        <time>2015-08-25T08:18:23Z</time>
      </trkpt>
      <trkpt lat="44.58869" lon="2.35917">
        <ele>599</ele>
        <time>2015-08-25T08:18:31Z</time>
      </trkpt>
      <trkpt lat="44.5887" lon="2.35902">
        <ele>597</ele>
        <time>2015-08-25T08:18:39Z</time>
      </trkpt>
      <trkpt lat="44.58871" lon="2.35887">
        <ele>597</ele>
        <time>2015-08-25T08:18:47Z</time>
      </trkpt>
      <trkpt lat="44.58873" lon="2.35871">
        <ele>597</ele>
        <time>2015-08-25T08:18:56Z</time>
      </trkpt>
      <trkpt lat="44.58874" lon="2.35858">
        <ele>595</ele>
        <time>2015-08-25T08:19:04Z</time>
      </trkpt>
      <trkpt lat="44.58875" lon="2.35843">
        <ele>595</ele>
        <time>2015-08-25T08:19:12Z</time>
      </trkpt>
      <trkpt lat="44.58877" lon="2.35827">
        <ele>595</ele>
        <time>2015-08-25T08:19:20Z</time>
      </trkpt>
      <trkpt lat="44.58876" lon="2.35812">
        <ele>596</ele>
        <time>2015-08-25T08:19:29Z</time>
      </trkpt>
      <trkpt lat="44.58876" lon="2.35797">
        <ele>595</ele>
        <time>2015-08-25T08:19:37Z</time>
      </trkpt>
      <trkpt lat="44.58877" lon="2.35783">
        <ele>596</ele>
        <time>2015-08-25T08:19:45Z</time>
      </trkpt>
      <trkpt lat="44.58876" lon="2.35769">
        <ele>595</ele>
        <time>2015-08-25T08:19:54Z</time>
      </trkpt>
      <trkpt lat="44.58877" lon="2.35759">
        <ele>600</ele>
        <time>2015-08-25T08:20:01Z</time>
      </trkpt>
      <trkpt lat="44.58877" lon="2.35746">
        <ele>599</ele>
        <time>2015-08-25T08:20:08Z</time>
      </trkpt>
      <trkpt lat="44.58878" lon="2.35733">
        <ele>599</ele>
        <time>2015-08-25T08:20:15Z</time>
      </trkpt>
      <trkpt lat="44.58878" lon="2.35721">
        <ele>598</ele>
        <time>2015-08-25T08:20:22Z</time>
      </trkpt>
      <trkpt lat="44.58879" lon="2.35706">
        <ele>599</ele>
        <time>2015-08-25T08:20:30Z</time>
      </trkpt>
      <trkpt lat="44.58879" lon="2.35692">
        <ele>597</ele>
        <time>2015-08-25T08:20:38Z</time>
      </trkpt>
      <trkpt lat="44.58876" lon="2.35678">
        <ele>598</ele>
        <time>2015-08-25T08:20:46Z</time>
      </trkpt>
      <trkpt lat="44.58875" lon="2.35665">
        <ele>598</ele>
        <time>2015-08-25T08:20:54Z</time>
      </trkpt>
      <trkpt lat="44.58873" lon="2.35653">
        <ele>597</ele>
        <time>2015-08-25T08:21:00Z</time>
      </trkpt>
      <trkpt lat="44.58871" lon="2.35638">
        <ele>595</ele>
        <time>2015-08-25T08:21:08Z</time>
      </trkpt>
      <trkpt lat="44.58871" lon="2.35624">
        <ele>595</ele>
        <time>2015-08-25T08:21:16Z</time>
      </trkpt>
      <trkpt lat="44.5887" lon="2.3561">
        <ele>595</ele>
        <time>2015-08-25T08:21:25Z</time>
      </trkpt>
      <trkpt lat="44.58868" lon="2.35597">
        <ele>595</ele>
        <time>2015-08-25T08:21:31Z</time>
      </trkpt>
      <trkpt lat="44.58869" lon="2.35584">
        <ele>594</ele>
        <time>2015-08-25T08:21:39Z</time>
      </trkpt>
      <trkpt lat="44.58868" lon="2.3557">
        <ele>594</ele>
        <time>2015-08-25T08:21:47Z</time>
      </trkpt>
      <trkpt lat="44.58867" lon="2.35555">
        <ele>595</ele>
        <time>2015-08-25T08:21:54Z</time>
      </trkpt>
      <trkpt lat="44.58864" lon="2.35544">
        <ele>594</ele>
        <time>2015-08-25T08:22:00Z</time>
      </trkpt>
      <trkpt lat="44.58863" lon="2.35529">
        <ele>594</ele>
        <time>2015-08-25T08:22:08Z</time>
      </trkpt>
      <trkpt lat="44.58862" lon="2.35516">
        <ele>594</ele>
        <time>2015-08-25T08:22:16Z</time>
      </trkpt>
      <trkpt lat="44.5886" lon="2.35501">
        <ele>595</ele>
        <time>2015-08-25T08:22:24Z</time>
      </trkpt>
      <trkpt lat="44.58859" lon="2.35488">
        <ele>594</ele>
        <time>2015-08-25T08:22:32Z</time>
      </trkpt>
      <trkpt lat="44.58858" lon="2.35474">
        <ele>593</ele>
        <time>2015-08-25T08:22:39Z</time>
      </trkpt>
      <trkpt lat="44.58855" lon="2.35459">
        <ele>595</ele>
        <time>2015-08-25T08:22:47Z</time>
      </trkpt>
      <trkpt lat="44.58853" lon="2.35445">
        <ele>595</ele>
        <time>2015-08-25T08:22:56Z</time>
      </trkpt>
      <trkpt lat="44.58854" lon="2.35431">
        <ele>592</ele>
        <time>2015-08-25T08:23:04Z</time>
      </trkpt>
      <trkpt lat="44.58854" lon="2.35416">
        <ele>590</ele>
        <time>2015-08-25T08:23:12Z</time>
      </trkpt>
      <trkpt lat="44.58851" lon="2.35401">
        <ele>593</ele>
        <time>2015-08-25T08:23:20Z</time>
      </trkpt>
      <trkpt lat="44.5885" lon="2.35388">
        <ele>591</ele>
        <time>2015-08-25T08:23:28Z</time>
      </trkpt>
      <trkpt lat="44.58849" lon="2.35375">
        <ele>592</ele>
        <time>2015-08-25T08:23:35Z</time>
      </trkpt>
      <trkpt lat="44.58847" lon="2.35361">
        <ele>592</ele>
        <time>2015-08-25T08:23:43Z</time>
      </trkpt>
      <trkpt lat="44.58848" lon="2.35343">
        <ele>594</ele>
        <time>2015-08-25T08:23:51Z</time>
      </trkpt>
      <trkpt lat="44.58849" lon="2.35326">
        <ele>596</ele>
        <time>2015-08-25T08:24:00Z</time>
      </trkpt>
      <trkpt lat="44.58851" lon="2.35313">
        <ele>596</ele>
        <time>2015-08-25T08:24:09Z</time>
      </trkpt>
      <trkpt lat="44.58853" lon="2.35298">
        <ele>596</ele>
        <time>2015-08-25T08:24:18Z</time>
      </trkpt>
      <trkpt lat="44.58855" lon="2.35284">
        <ele>595</ele>
        <time>2015-08-25T08:24:28Z</time>
      </trkpt>
      <trkpt lat="44.58858" lon="2.35271">
        <ele>594</ele>
        <time>2015-08-25T08:24:37Z</time>
      </trkpt>
      <trkpt lat="44.58861" lon="2.35256">
        <ele>594</ele>
        <time>2015-08-25T08:24:45Z</time>
      </trkpt>
      <trkpt lat="44.5886" lon="2.35241">
        <ele>592</ele>
        <time>2015-08-25T08:24:53Z</time>
      </trkpt>
      <trkpt lat="44.58864" lon="2.35229">
        <ele>599</ele>
        <time>2015-08-25T08:24:59Z</time>
      </trkpt>
      <trkpt lat="44.58867" lon="2.35215">
        <ele>599</ele>
        <time>2015-08-25T08:25:08Z</time>
      </trkpt>
      <trkpt lat="44.58873" lon="2.35202">
        <ele>598</ele>
        <time>2015-08-25T08:25:16Z</time>
      </trkpt>
      <trkpt lat="44.58876" lon="2.35189">
        <ele>595</ele>
        <time>2015-08-25T08:25:25Z</time>
      </trkpt>
      <trkpt lat="44.58883" lon="2.35179">
        <ele>597</ele>
        <time>2015-08-25T08:25:33Z</time>
      </trkpt>
      <trkpt lat="44.58885" lon="2.35165">
        <ele>597</ele>
        <time>2015-08-25T08:25:42Z</time>
      </trkpt>
      <trkpt lat="44.5889" lon="2.35152">
        <ele>595</ele>
        <time>2015-08-25T08:25:51Z</time>
      </trkpt>
      <trkpt lat="44.58895" lon="2.35137">
        <ele>597</ele>
        <time>2015-08-25T08:26:00Z</time>
      </trkpt>
      <trkpt lat="44.58898" lon="2.35124">
        <ele>595</ele>
        <time>2015-08-25T08:26:10Z</time>
      </trkpt>
      <trkpt lat="44.58899" lon="2.35109">
        <ele>596</ele>
        <time>2015-08-25T08:26:18Z</time>
      </trkpt>
      <trkpt lat="44.589" lon="2.35094">
        <ele>593</ele>
        <time>2015-08-25T08:26:27Z</time>
      </trkpt>
      <trkpt lat="44.58901" lon="2.35081">
        <ele>592</ele>
        <time>2015-08-25T08:26:35Z</time>
      </trkpt>
      <trkpt lat="44.58902" lon="2.35067">
        <ele>590</ele>
        <time>2015-08-25T08:26:43Z</time>
      </trkpt>
      <trkpt lat="44.58902" lon="2.35051">
        <ele>590</ele>
        <time>2015-08-25T08:26:53Z</time>
      </trkpt>
      <trkpt lat="44.58904" lon="2.35038">
        <ele>586</ele>
        <time>2015-08-25T08:27:01Z</time>
      </trkpt>
      <trkpt lat="44.58906" lon="2.35025">
        <ele>586</ele>
        <time>2015-08-25T08:27:09Z</time>
      </trkpt>
      <trkpt lat="44.58907" lon="2.35009">
        <ele>588</ele>
        <time>2015-08-25T08:27:17Z</time>
      </trkpt>
      <trkpt lat="44.58907" lon="2.34995">
        <ele>588</ele>
        <time>2015-08-25T08:27:25Z</time>
      </trkpt>
      <trkpt lat="44.58907" lon="2.34981">
        <ele>589</ele>
        <time>2015-08-25T08:27:32Z</time>
      </trkpt>
      <trkpt lat="44.58908" lon="2.34968">
        <ele>589</ele>
        <time>2015-08-25T08:27:39Z</time>
      </trkpt>
      <trkpt lat="44.5891" lon="2.34953">
        <ele>590</ele>
        <time>2015-08-25T08:27:47Z</time>
      </trkpt>
      <trkpt lat="44.58909" lon="2.34938">
        <ele>590</ele>
        <time>2015-08-25T08:27:55Z</time>
      </trkpt>
      <trkpt lat="44.5891" lon="2.34922">
        <ele>591</ele>
        <time>2015-08-25T08:28:05Z</time>
      </trkpt>
      <trkpt lat="44.58908" lon="2.34908">
        <ele>590</ele>
        <time>2015-08-25T08:28:14Z</time>
      </trkpt>
      <trkpt lat="44.58904" lon="2.34895">
        <ele>591</ele>
        <time>2015-08-25T08:28:23Z</time>
      </trkpt>
      <trkpt lat="44.589" lon="2.34883">
        <ele>591</ele>
        <time>2015-08-25T08:28:31Z</time>
      </trkpt>
      <trkpt lat="44.58895" lon="2.34871">
        <ele>591</ele>
        <time>2015-08-25T08:28:40Z</time>
      </trkpt>
      <trkpt lat="44.58891" lon="2.34858">
        <ele>591</ele>
        <time>2015-08-25T08:28:48Z</time>
      </trkpt>
      <trkpt lat="44.58886" lon="2.34845">
        <ele>589</ele>
        <time>2015-08-25T08:28:56Z</time>
      </trkpt>
      <trkpt lat="44.58882" lon="2.34833">
        <ele>588</ele>
        <time>2015-08-25T08:29:04Z</time>
      </trkpt>
      <trkpt lat="44.58878" lon="2.3482">
        <ele>588</ele>
        <time>2015-08-25T08:29:12Z</time>
      </trkpt>
      <trkpt lat="44.58873" lon="2.34808">
        <ele>587</ele>
        <time>2015-08-25T08:29:20Z</time>
      </trkpt>
      <trkpt lat="44.58868" lon="2.34795">
        <ele>587</ele>
        <time>2015-08-25T08:29:28Z</time>
      </trkpt>
      <trkpt lat="44.58863" lon="2.34783">
        <ele>586</ele>
        <time>2015-08-25T08:29:37Z</time>
      </trkpt>
      <trkpt lat="44.58858" lon="2.34771">
        <ele>585</ele>
        <time>2015-08-25T08:29:45Z</time>
      </trkpt>
      <trkpt lat="44.58852" lon="2.34759">
        <ele>586</ele>
        <time>2015-08-25T08:29:53Z</time>
      </trkpt>
      <trkpt lat="44.58846" lon="2.34749">
        <ele>585</ele>
        <time>2015-08-25T08:30:00Z</time>
      </trkpt>
      <trkpt lat="44.58839" lon="2.34739">
        <ele>583</ele>
        <time>2015-08-25T08:30:09Z</time>
      </trkpt>
      <trkpt lat="44.58838" lon="2.34733">
        <ele>584</ele>
        <time>2015-08-25T08:30:15Z</time>
      </trkpt>
      <trkpt lat="44.58829" lon="2.34723">
        <ele>584</ele>
        <time>2015-08-25T08:30:24Z</time>
      </trkpt>
      <trkpt lat="44.5882" lon="2.34719">
        <ele>582</ele>
        <time>2015-08-25T08:30:31Z</time>
      </trkpt>
      <trkpt lat="44.58815" lon="2.34719">
        <ele>581</ele>
        <time>2015-08-25T08:30:37Z</time>
      </trkpt>
      <trkpt lat="44.58809" lon="2.3472">
        <ele>578</ele>
        <time>2015-08-25T08:30:45Z</time>
      </trkpt>
      <trkpt lat="44.58799" lon="2.34724">
        <ele>576</ele>
        <time>2015-08-25T08:30:54Z</time>
      </trkpt>
      <trkpt lat="44.58791" lon="2.34725">
        <ele>577</ele>
        <time>2015-08-25T08:31:02Z</time>
      </trkpt>
      <trkpt lat="44.58782" lon="2.3472">
        <ele>575</ele>
        <time>2015-08-25T08:31:11Z</time>
      </trkpt>
      <trkpt lat="44.58778" lon="2.34716">
        <ele>577</ele>
        <time>2015-08-25T08:31:17Z</time>
      </trkpt>
      <trkpt lat="44.58774" lon="2.34704">
        <ele>575</ele>
        <time>2015-08-25T08:31:28Z</time>
      </trkpt>
      <trkpt lat="44.58767" lon="2.34691">
        <ele>574</ele>
        <time>2015-08-25T08:31:39Z</time>
      </trkpt>
      <trkpt lat="44.58759" lon="2.3468">
        <ele>575</ele>
        <time>2015-08-25T08:31:48Z</time>
      </trkpt>
      <trkpt lat="44.58755" lon="2.34669">
        <ele>576</ele>
        <time>2015-08-25T08:31:56Z</time>
      </trkpt>
      <trkpt lat="44.58747" lon="2.34659">
        <ele>574</ele>
        <time>2015-08-25T08:32:07Z</time>
      </trkpt>
      <trkpt lat="44.58741" lon="2.34648">
        <ele>569</ele>
        <time>2015-08-25T08:32:17Z</time>
      </trkpt>
      <trkpt lat="44.58736" lon="2.34635">
        <ele>566</ele>
        <time>2015-08-25T08:32:26Z</time>
      </trkpt>
      <trkpt lat="44.58732" lon="2.34622">
        <ele>565</ele>
        <time>2015-08-25T08:32:35Z</time>
      </trkpt>
      <trkpt lat="44.58727" lon="2.34614">
        <ele>568</ele>
        <time>2015-08-25T08:32:56Z</time>
      </trkpt>
      <trkpt lat="44.58728" lon="2.34607">
        <ele>566</ele>
        <time>2015-08-25T08:33:02Z</time>
      </trkpt>
      <trkpt lat="44.58725" lon="2.346">
        <ele>564</ele>
        <time>2015-08-25T08:33:08Z</time>
      </trkpt>
      <trkpt lat="44.58722" lon="2.34588">
        <ele>561</ele>
        <time>2015-08-25T08:33:18Z</time>
      </trkpt>
      <trkpt lat="44.58724" lon="2.34575">
        <ele>558</ele>
        <time>2015-08-25T08:33:26Z</time>
      </trkpt>
      <trkpt lat="44.58727" lon="2.34562">
        <ele>558</ele>
        <time>2015-08-25T08:33:36Z</time>
      </trkpt>
      <trkpt lat="44.58731" lon="2.34549">
        <ele>559</ele>
        <time>2015-08-25T08:33:44Z</time>
      </trkpt>
      <trkpt lat="44.58734" lon="2.34544">
        <ele>561</ele>
        <time>2015-08-25T08:33:50Z</time>
      </trkpt>
      <trkpt lat="44.58737" lon="2.34535">
        <ele>562</ele>
        <time>2015-08-25T08:33:56Z</time>
      </trkpt>
      <trkpt lat="44.58737" lon="2.34527">
        <ele>557</ele>
        <time>2015-08-25T08:34:03Z</time>
      </trkpt>
      <trkpt lat="44.5874" lon="2.34519">
        <ele>555</ele>
        <time>2015-08-25T08:34:09Z</time>
      </trkpt>
      <trkpt lat="44.58743" lon="2.34506">
        <ele>553</ele>
        <time>2015-08-25T08:34:17Z</time>
      </trkpt>
      <trkpt lat="44.58744" lon="2.345">
        <ele>550</ele>
        <time>2015-08-25T08:34:23Z</time>
      </trkpt>
      <trkpt lat="44.58746" lon="2.34494">
        <ele>550</ele>
        <time>2015-08-25T08:34:29Z</time>
      </trkpt>
      <trkpt lat="44.5875" lon="2.34488">
        <ele>551</ele>
        <time>2015-08-25T08:34:35Z</time>
      </trkpt>
      <trkpt lat="44.58754" lon="2.34473">
        <ele>546</ele>
        <time>2015-08-25T08:34:45Z</time>
      </trkpt>
      <trkpt lat="44.58756" lon="2.3446">
        <ele>543</ele>
        <time>2015-08-25T08:34:56Z</time>
      </trkpt>
      <trkpt lat="44.58761" lon="2.34447">
        <ele>537</ele>
        <time>2015-08-25T08:35:22Z</time>
      </trkpt>
      <trkpt lat="44.58761" lon="2.34434">
        <ele>539</ele>
        <time>2015-08-25T08:35:29Z</time>
      </trkpt>
      <trkpt lat="44.58763" lon="2.34428">
        <ele>541</ele>
        <time>2015-08-25T08:35:36Z</time>
      </trkpt>
      <trkpt lat="44.58768" lon="2.34417">
        <ele>536</ele>
        <time>2015-08-25T08:35:43Z</time>
      </trkpt>
      <trkpt lat="44.58768" lon="2.34405">
        <ele>535</ele>
        <time>2015-08-25T08:35:51Z</time>
      </trkpt>
      <trkpt lat="44.58772" lon="2.34391">
        <ele>533</ele>
        <time>2015-08-25T08:36:00Z</time>
      </trkpt>
      <trkpt lat="44.58775" lon="2.34374">
        <ele>533</ele>
        <time>2015-08-25T08:36:11Z</time>
      </trkpt>
      <trkpt lat="44.58776" lon="2.34368">
        <ele>533</ele>
        <time>2015-08-25T08:36:17Z</time>
      </trkpt>
      <trkpt lat="44.58776" lon="2.34353">
        <ele>535</ele>
        <time>2015-08-25T08:36:24Z</time>
      </trkpt>
      <trkpt lat="44.58773" lon="2.34343">
        <ele>533</ele>
        <time>2015-08-25T08:36:33Z</time>
      </trkpt>
      <trkpt lat="44.58775" lon="2.34331">
        <ele>530</ele>
        <time>2015-08-25T08:36:40Z</time>
      </trkpt>
      <trkpt lat="44.58777" lon="2.34316">
        <ele>525</ele>
        <time>2015-08-25T08:36:49Z</time>
      </trkpt>
      <trkpt lat="44.58776" lon="2.34305">
        <ele>524</ele>
        <time>2015-08-25T08:36:56Z</time>
      </trkpt>
      <trkpt lat="44.58781" lon="2.34291">
        <ele>524</ele>
        <time>2015-08-25T08:37:06Z</time>
      </trkpt>
      <trkpt lat="44.58779" lon="2.34279">
        <ele>520</ele>
        <time>2015-08-25T08:37:14Z</time>
      </trkpt>
      <trkpt lat="44.58772" lon="2.3427">
        <ele>521</ele>
        <time>2015-08-25T08:37:23Z</time>
      </trkpt>
      <trkpt lat="44.5877" lon="2.34255">
        <ele>519</ele>
        <time>2015-08-25T08:37:31Z</time>
      </trkpt>
      <trkpt lat="44.58776" lon="2.34244">
        <ele>520</ele>
        <time>2015-08-25T08:37:39Z</time>
      </trkpt>
      <trkpt lat="44.58777" lon="2.3423">
        <ele>518</ele>
        <time>2015-08-25T08:37:49Z</time>
      </trkpt>
      <trkpt lat="44.58777" lon="2.34219">
        <ele>518</ele>
        <time>2015-08-25T08:37:56Z</time>
      </trkpt>
      <trkpt lat="44.58781" lon="2.34205">
        <ele>518</ele>
        <time>2015-08-25T08:38:17Z</time>
      </trkpt>
      <trkpt lat="44.58782" lon="2.34198">
        <ele>518</ele>
        <time>2015-08-25T08:38:24Z</time>
      </trkpt>
      <trkpt lat="44.58781" lon="2.34186">
        <ele>518</ele>
        <time>2015-08-25T08:38:38Z</time>
      </trkpt>
      <trkpt lat="44.58779" lon="2.34172">
        <ele>517</ele>
        <time>2015-08-25T08:38:47Z</time>
      </trkpt>
      <trkpt lat="44.58783" lon="2.34156">
        <ele>514</ele>
        <time>2015-08-25T08:38:56Z</time>
      </trkpt>
      <trkpt lat="44.58785" lon="2.34143">
        <ele>514</ele>
        <time>2015-08-25T08:39:03Z</time>
      </trkpt>
      <trkpt lat="44.58783" lon="2.3413">
        <ele>517</ele>
        <time>2015-08-25T08:39:10Z</time>
      </trkpt>
      <trkpt lat="44.58784" lon="2.34117">
        <ele>515</ele>
        <time>2015-08-25T08:39:20Z</time>
      </trkpt>
      <trkpt lat="44.58786" lon="2.34103">
        <ele>515</ele>
        <time>2015-08-25T08:39:27Z</time>
      </trkpt>
      <trkpt lat="44.58786" lon="2.34088">
        <ele>516</ele>
        <time>2015-08-25T08:39:38Z</time>
      </trkpt>
      <trkpt lat="44.5879" lon="2.34073">
        <ele>515</ele>
        <time>2015-08-25T08:39:46Z</time>
      </trkpt>
      <trkpt lat="44.58794" lon="2.3406">
        <ele>517</ele>
        <time>2015-08-25T08:39:54Z</time>
      </trkpt>
      <trkpt lat="44.58796" lon="2.34049">
        <ele>517</ele>
        <time>2015-08-25T08:40:00Z</time>
      </trkpt>
      <trkpt lat="44.58797" lon="2.34036">
        <ele>517</ele>
        <time>2015-08-25T08:40:09Z</time>
      </trkpt>
      <trkpt lat="44.58799" lon="2.34022">
        <ele>517</ele>
        <time>2015-08-25T08:40:17Z</time>
      </trkpt>
      <trkpt lat="44.58801" lon="2.34009">
        <ele>519</ele>
        <time>2015-08-25T08:40:25Z</time>
      </trkpt>
      <trkpt lat="44.58803" lon="2.33995">
        <ele>519</ele>
        <time>2015-08-25T08:40:34Z</time>
      </trkpt>
      <trkpt lat="44.58806" lon="2.33983">
        <ele>520</ele>
        <time>2015-08-25T08:40:44Z</time>
      </trkpt>
      <trkpt lat="44.58805" lon="2.3397">
        <ele>525</ele>
        <time>2015-08-25T08:40:55Z</time>
      </trkpt>
      <trkpt lat="44.58808" lon="2.33961">
        <ele>525</ele>
        <time>2015-08-25T08:41:01Z</time>
      </trkpt>
      <trkpt lat="44.58812" lon="2.33948">
        <ele>526</ele>
        <time>2015-08-25T08:41:13Z</time>
      </trkpt>
      <trkpt lat="44.58815" lon="2.33942">
        <ele>526</ele>
        <time>2015-08-25T08:41:20Z</time>
      </trkpt>
      <trkpt lat="44.58822" lon="2.33932">
        <ele>527</ele>
        <time>2015-08-25T08:41:29Z</time>
      </trkpt>
      <trkpt lat="44.58828" lon="2.33921">
        <ele>529</ele>
        <time>2015-08-25T08:41:37Z</time>
      </trkpt>
      <trkpt lat="44.58835" lon="2.33919">
        <ele>531</ele>
        <time>2015-08-25T08:41:43Z</time>
      </trkpt>
      <trkpt lat="44.5884" lon="2.33919">
        <ele>531</ele>
        <time>2015-08-25T08:41:49Z</time>
      </trkpt>
      <trkpt lat="44.58848" lon="2.33917">
        <ele>532</ele>
        <time>2015-08-25T08:41:56Z</time>
      </trkpt>
      <trkpt lat="44.58858" lon="2.33915">
        <ele>531</ele>
        <time>2015-08-25T08:42:05Z</time>
      </trkpt>
      <trkpt lat="44.58868" lon="2.33911">
        <ele>530</ele>
        <time>2015-08-25T08:42:15Z</time>
      </trkpt>
      <trkpt lat="44.58876" lon="2.33906">
        <ele>533</ele>
        <time>2015-08-25T08:42:22Z</time>
      </trkpt>
      <trkpt lat="44.58886" lon="2.33901">
        <ele>533</ele>
        <time>2015-08-25T08:42:29Z</time>
      </trkpt>
      <trkpt lat="44.58891" lon="2.33899">
        <ele>532</ele>
        <time>2015-08-25T08:42:35Z</time>
      </trkpt>
      <trkpt lat="44.58898" lon="2.3389">
        <ele>532</ele>
        <time>2015-08-25T08:42:43Z</time>
      </trkpt>
      <trkpt lat="44.58908" lon="2.33886">
        <ele>531</ele>
        <time>2015-08-25T08:42:52Z</time>
      </trkpt>
      <trkpt lat="44.58916" lon="2.33884">
        <ele>530</ele>
        <time>2015-08-25T08:43:01Z</time>
      </trkpt>
      <trkpt lat="44.58926" lon="2.33883">
        <ele>530</ele>
        <time>2015-08-25T08:43:08Z</time>
      </trkpt>
      <trkpt lat="44.58936" lon="2.33883">
        <ele>529</ele>
        <time>2015-08-25T08:43:19Z</time>
      </trkpt>
      <trkpt lat="44.58941" lon="2.33884">
        <ele>528</ele>
        <time>2015-08-25T08:43:25Z</time>
      </trkpt>
      <trkpt lat="44.58951" lon="2.33883">
        <ele>527</ele>
        <time>2015-08-25T08:43:33Z</time>
      </trkpt>
      <trkpt lat="44.58961" lon="2.33885">
        <ele>526</ele>
        <time>2015-08-25T08:43:42Z</time>
      </trkpt>
      <trkpt lat="44.58972" lon="2.33884">
        <ele>526</ele>
        <time>2015-08-25T08:43:52Z</time>
      </trkpt>
      <trkpt lat="44.58981" lon="2.33882">
        <ele>525</ele>
        <time>2015-08-25T08:44:01Z</time>
      </trkpt>
      <trkpt lat="44.5899" lon="2.33876">
        <ele>525</ele>
        <time>2015-08-25T08:44:09Z</time>
      </trkpt>
      <trkpt lat="44.59" lon="2.33872">
        <ele>523</ele>
        <time>2015-08-25T08:44:25Z</time>
      </trkpt>
      <trkpt lat="44.5901" lon="2.33864">
        <ele>524</ele>
        <time>2015-08-25T08:44:34Z</time>
      </trkpt>
      <trkpt lat="44.59018" lon="2.33856">
        <ele>526</ele>
        <time>2015-08-25T08:44:42Z</time>
      </trkpt>
      <trkpt lat="44.59024" lon="2.33846">
        <ele>524</ele>
        <time>2015-08-25T08:44:52Z</time>
      </trkpt>
      <trkpt lat="44.59032" lon="2.33838">
        <ele>527</ele>
        <time>2015-08-25T08:45:00Z</time>
      </trkpt>
      <trkpt lat="44.59042" lon="2.33833">
        <ele>529</ele>
        <time>2015-08-25T08:45:09Z</time>
      </trkpt>
      <trkpt lat="44.59052" lon="2.3383">
        <ele>529</ele>
        <time>2015-08-25T08:45:17Z</time>
      </trkpt>
      <trkpt lat="44.59061" lon="2.33825">
        <ele>528</ele>
        <time>2015-08-25T08:45:25Z</time>
      </trkpt>
      <trkpt lat="44.59065" lon="2.33822">
        <ele>530</ele>
        <time>2015-08-25T08:45:31Z</time>
      </trkpt>
      <trkpt lat="44.59071" lon="2.33818">
        <ele>532</ele>
        <time>2015-08-25T08:45:41Z</time>
      </trkpt>
      <trkpt lat="44.59083" lon="2.33807">
        <ele>537</ele>
        <time>2015-08-25T08:45:48Z</time>
      </trkpt>
      <trkpt lat="44.59089" lon="2.33801">
        <ele>536</ele>
        <time>2015-08-25T08:45:56Z</time>
      </trkpt>
      <trkpt lat="44.59098" lon="2.33791">
        <ele>537</ele>
        <time>2015-08-25T08:46:03Z</time>
      </trkpt>
      <trkpt lat="44.59107" lon="2.33786">
        <ele>539</ele>
        <time>2015-08-25T08:46:10Z</time>
      </trkpt>
      <trkpt lat="44.59112" lon="2.33784">
        <ele>532</ele>
        <time>2015-08-25T08:46:18Z</time>
      </trkpt>
      <trkpt lat="44.59116" lon="2.3378">
        <ele>532</ele>
        <time>2015-08-25T08:46:24Z</time>
      </trkpt>
      <trkpt lat="44.59123" lon="2.33774">
        <ele>531</ele>
        <time>2015-08-25T08:47:01Z</time>
      </trkpt>
      <trkpt lat="44.59125" lon="2.33767">
        <ele>535</ele>
        <time>2015-08-25T08:47:07Z</time>
      </trkpt>
      <trkpt lat="44.59133" lon="2.3376">
        <ele>535</ele>
        <time>2015-08-25T08:47:16Z</time>
      </trkpt>
      <trkpt lat="44.59134" lon="2.33753">
        <ele>536</ele>
        <time>2015-08-25T08:47:22Z</time>
      </trkpt>
      <trkpt lat="44.5914" lon="2.3374">
        <ele>528</ele>
        <time>2015-08-25T08:47:30Z</time>
      </trkpt>
      <trkpt lat="44.59146" lon="2.3373">
        <ele>531</ele>
        <time>2015-08-25T08:47:40Z</time>
      </trkpt>
      <trkpt lat="44.59152" lon="2.3373">
        <ele>531</ele>
        <time>2015-08-25T08:47:47Z</time>
      </trkpt>
      <trkpt lat="44.59158" lon="2.33726">
        <ele>530</ele>
        <time>2015-08-25T08:47:56Z</time>
      </trkpt>
      <trkpt lat="44.59161" lon="2.3372">
        <ele>531</ele>
        <time>2015-08-25T08:48:02Z</time>
      </trkpt>
      <trkpt lat="44.59163" lon="2.33715">
        <ele>529</ele>
        <time>2015-08-25T08:48:08Z</time>
      </trkpt>
      <trkpt lat="44.59172" lon="2.33703">
        <ele>525</ele>
        <time>2015-08-25T08:48:16Z</time>
      </trkpt>
      <trkpt lat="44.5918" lon="2.33694">
        <ele>519</ele>
        <time>2015-08-25T08:48:24Z</time>
      </trkpt>
      <trkpt lat="44.59183" lon="2.33688">
        <ele>517</ele>
        <time>2015-08-25T08:48:31Z</time>
      </trkpt>
      <trkpt lat="44.59191" lon="2.33682">
        <ele>518</ele>
        <time>2015-08-25T08:48:42Z</time>
      </trkpt>
      <trkpt lat="44.59196" lon="2.33678">
        <ele>520</ele>
        <time>2015-08-25T08:48:48Z</time>
      </trkpt>
      <trkpt lat="44.59198" lon="2.3367">
        <ele>521</ele>
        <time>2015-08-25T08:48:55Z</time>
      </trkpt>
      <trkpt lat="44.59201" lon="2.33661">
        <ele>519</ele>
        <time>2015-08-25T08:49:01Z</time>
      </trkpt>
      <trkpt lat="44.59203" lon="2.33653">
        <ele>522</ele>
        <time>2015-08-25T08:49:07Z</time>
      </trkpt>
      <trkpt lat="44.59202" lon="2.33647">
        <ele>523</ele>
        <time>2015-08-25T08:49:17Z</time>
      </trkpt>
      <trkpt lat="44.59205" lon="2.33641">
        <ele>520</ele>
        <time>2015-08-25T08:49:30Z</time>
      </trkpt>
      <trkpt lat="44.59206" lon="2.33628">
        <ele>513</ele>
        <time>2015-08-25T08:49:40Z</time>
      </trkpt>
      <trkpt lat="44.59201" lon="2.33615">
        <ele>509</ele>
        <time>2015-08-25T08:49:48Z</time>
      </trkpt>
      <trkpt lat="44.59193" lon="2.33615">
        <ele>511</ele>
        <time>2015-08-25T08:50:02Z</time>
      </trkpt>
      <trkpt lat="44.59188" lon="2.33616">
        <ele>513</ele>
        <time>2015-08-25T08:50:08Z</time>
      </trkpt>
      <trkpt lat="44.59181" lon="2.33606">
        <ele>508</ele>
        <time>2015-08-25T08:50:22Z</time>
      </trkpt>
      <trkpt lat="44.59174" lon="2.33595">
        <ele>506</ele>
        <time>2015-08-25T08:50:32Z</time>
      </trkpt>
      <trkpt lat="44.59171" lon="2.33589">
        <ele>505</ele>
        <time>2015-08-25T08:50:39Z</time>
      </trkpt>
      <trkpt lat="44.59169" lon="2.33583">
        <ele>506</ele>
        <time>2015-08-25T08:50:45Z</time>
      </trkpt>
      <trkpt lat="44.59166" lon="2.33573">
        <ele>502</ele>
        <time>2015-08-25T08:50:56Z</time>
      </trkpt>
      <trkpt lat="44.59162" lon="2.33571">
        <ele>501</ele>
        <time>2015-08-25T08:51:02Z</time>
      </trkpt>
      <trkpt lat="44.59157" lon="2.33569">
        <ele>495</ele>
        <time>2015-08-25T08:51:09Z</time>
      </trkpt>
      <trkpt lat="44.59154" lon="2.33563">
        <ele>493</ele>
        <time>2015-08-25T08:51:15Z</time>
      </trkpt>
      <trkpt lat="44.59152" lon="2.33558">
        <ele>490</ele>
        <time>2015-08-25T08:51:31Z</time>
      </trkpt>
      <trkpt lat="44.5915" lon="2.3355">
        <ele>492</ele>
        <time>2015-08-25T08:51:37Z</time>
      </trkpt>
      <trkpt lat="44.59145" lon="2.33534">
        <ele>497</ele>
        <time>2015-08-25T08:51:46Z</time>
      </trkpt>
      <trkpt lat="44.59129" lon="2.33519">
        <ele>495</ele>
        <time>2015-08-25T08:51:56Z</time>
      </trkpt>
      <trkpt lat="44.59126" lon="2.33512">
        <ele>489</ele>
        <time>2015-08-25T08:52:16Z</time>
      </trkpt>
      <trkpt lat="44.59122" lon="2.33499">
        <ele>486</ele>
        <time>2015-08-25T08:52:26Z</time>
      </trkpt>
      <trkpt lat="44.59118" lon="2.33487">
        <ele>484</ele>
        <time>2015-08-25T08:52:35Z</time>
      </trkpt>
      <trkpt lat="44.59115" lon="2.33475">
        <ele>484</ele>
        <time>2015-08-25T08:52:46Z</time>
      </trkpt>
      <trkpt lat="44.5911" lon="2.33466">
        <ele>483</ele>
        <time>2015-08-25T08:53:24Z</time>
      </trkpt>
      <trkpt lat="44.59111" lon="2.33451">
        <ele>479</ele>
        <time>2015-08-25T08:53:35Z</time>
      </trkpt>
      <trkpt lat="44.59106" lon="2.33441">
        <ele>476</ele>
        <time>2015-08-25T08:53:47Z</time>
      </trkpt>
      <trkpt lat="44.59111" lon="2.33438">
        <ele>474</ele>
        <time>2015-08-25T08:53:54Z</time>
      </trkpt>
      <trkpt lat="44.59104" lon="2.33438">
        <ele>472</ele>
        <time>2015-08-25T08:54:26Z</time>
      </trkpt>
      <trkpt lat="44.591" lon="2.3344">
        <ele>472</ele>
        <time>2015-08-25T08:54:32Z</time>
      </trkpt>
      <trkpt lat="44.59092" lon="2.33451">
        <ele>469</ele>
        <time>2015-08-25T08:54:41Z</time>
      </trkpt>
      <trkpt lat="44.59086" lon="2.33448">
        <ele>477</ele>
        <time>2015-08-25T08:54:47Z</time>
      </trkpt>
      <trkpt lat="44.5908" lon="2.33454">
        <ele>474</ele>
        <time>2015-08-25T08:54:56Z</time>
      </trkpt>
      <trkpt lat="44.59073" lon="2.33464">
        <ele>472</ele>
        <time>2015-08-25T08:55:06Z</time>
      </trkpt>
      <trkpt lat="44.59069" lon="2.33469">
        <ele>472</ele>
        <time>2015-08-25T08:55:12Z</time>
      </trkpt>
      <trkpt lat="44.5906" lon="2.33476">
        <ele>471</ele>
        <time>2015-08-25T08:55:19Z</time>
      </trkpt>
      <trkpt lat="44.59055" lon="2.3348">
        <ele>469</ele>
        <time>2015-08-25T08:55:25Z</time>
      </trkpt>
      <trkpt lat="44.59051" lon="2.33486">
        <ele>466</ele>
        <time>2015-08-25T08:55:31Z</time>
      </trkpt>
      <trkpt lat="44.59048" lon="2.33492">
        <ele>466</ele>
        <time>2015-08-25T08:55:38Z</time>
      </trkpt>
      <trkpt lat="44.59038" lon="2.33498">
        <ele>466</ele>
        <time>2015-08-25T08:55:48Z</time>
      </trkpt>
      <trkpt lat="44.59032" lon="2.33501">
        <ele>462</ele>
        <time>2015-08-25T08:55:56Z</time>
      </trkpt>
      <trkpt lat="44.59027" lon="2.33501">
        <ele>462</ele>
        <time>2015-08-25T08:56:04Z</time>
      </trkpt>
      <trkpt lat="44.59023" lon="2.33503">
        <ele>459</ele>
        <time>2015-08-25T08:56:13Z</time>
      </trkpt>
      <trkpt lat="44.59013" lon="2.33506">
        <ele>456</ele>
        <time>2015-08-25T08:56:22Z</time>
      </trkpt>
      <trkpt lat="44.59004" lon="2.33513">
        <ele>458</ele>
        <time>2015-08-25T08:56:48Z</time>
      </trkpt>
      <trkpt lat="44.59002" lon="2.33502">
        <ele>452</ele>
        <time>2015-08-25T08:57:04Z</time>
      </trkpt>
      <trkpt lat="44.59003" lon="2.33496">
        <ele>453</ele>
        <time>2015-08-25T08:57:11Z</time>
      </trkpt>
      <trkpt lat="44.59007" lon="2.33491">
        <ele>453</ele>
        <time>2015-08-25T08:57:18Z</time>
      </trkpt>
      <trkpt lat="44.59009" lon="2.33476">
        <ele>449</ele>
        <time>2015-08-25T08:57:26Z</time>
      </trkpt>
      <trkpt lat="44.59018" lon="2.33469">
        <ele>450</ele>
        <time>2015-08-25T08:57:36Z</time>
      </trkpt>
      <trkpt lat="44.59016" lon="2.33459">
        <ele>448</ele>
        <time>2015-08-25T08:58:27Z</time>
      </trkpt>
      <trkpt lat="44.59007" lon="2.33456">
        <ele>446</ele>
        <time>2015-08-25T08:58:35Z</time>
      </trkpt>
      <trkpt lat="44.58999" lon="2.33454">
        <ele>446</ele>
        <time>2015-08-25T08:58:44Z</time>
      </trkpt>
      <trkpt lat="44.58995" lon="2.33457">
        <ele>447</ele>
        <time>2015-08-25T08:58:50Z</time>
      </trkpt>
      <trkpt lat="44.58989" lon="2.33459">
        <ele>447</ele>
        <time>2015-08-25T08:58:56Z</time>
      </trkpt>
      <trkpt lat="44.58986" lon="2.33464">
        <ele>446</ele>
        <time>2015-08-25T08:59:02Z</time>
      </trkpt>
      <trkpt lat="44.58984" lon="2.33471">
        <ele>451</ele>
        <time>2015-08-25T08:59:10Z</time>
      </trkpt>
      <trkpt lat="44.58982" lon="2.33485">
        <ele>448</ele>
        <time>2015-08-25T08:59:20Z</time>
      </trkpt>
      <trkpt lat="44.58978" lon="2.3349">
        <ele>452</ele>
        <time>2015-08-25T08:59:28Z</time>
      </trkpt>
      <trkpt lat="44.58971" lon="2.335">
        <ele>452</ele>
        <time>2015-08-25T08:59:38Z</time>
      </trkpt>
      <trkpt lat="44.58963" lon="2.33505">
        <ele>451</ele>
        <time>2015-08-25T08:59:48Z</time>
      </trkpt>
      <trkpt lat="44.58955" lon="2.33507">
        <ele>451</ele>
        <time>2015-08-25T08:59:56Z</time>
      </trkpt>
      <trkpt lat="44.5895" lon="2.3351">
        <ele>452</ele>
        <time>2015-08-25T09:00:02Z</time>
      </trkpt>
      <trkpt lat="44.58949" lon="2.33516">
        <ele>451</ele>
        <time>2015-08-25T09:00:09Z</time>
      </trkpt>
      <trkpt lat="44.58943" lon="2.33517">
        <ele>452</ele>
        <time>2015-08-25T09:00:23Z</time>
      </trkpt>
      <trkpt lat="44.58931" lon="2.33518">
        <ele>456</ele>
        <time>2015-08-25T09:00:34Z</time>
      </trkpt>
      <trkpt lat="44.58921" lon="2.33519">
        <ele>460</ele>
        <time>2015-08-25T09:00:41Z</time>
      </trkpt>
      <trkpt lat="44.58916" lon="2.3352">
        <ele>461</ele>
        <time>2015-08-25T09:00:48Z</time>
      </trkpt>
      <trkpt lat="44.58911" lon="2.3352">
        <ele>459</ele>
        <time>2015-08-25T09:00:56Z</time>
      </trkpt>
      <trkpt lat="44.58906" lon="2.33519">
        <ele>471</ele>
        <time>2015-08-25T09:01:49Z</time>
      </trkpt>
      <trkpt lat="44.58912" lon="2.33514">
        <ele>467</ele>
        <time>2015-08-25T09:02:08Z</time>
      </trkpt>
      <trkpt lat="44.58917" lon="2.33512">
        <ele>451</ele>
        <time>2015-08-25T09:02:29Z</time>
      </trkpt>
      <trkpt lat="44.58924" lon="2.33503">
        <ele>452</ele>
        <time>2015-08-25T09:02:40Z</time>
      </trkpt>
      <trkpt lat="44.58929" lon="2.335">
        <ele>453</ele>
        <time>2015-08-25T09:02:46Z</time>
      </trkpt>
      <trkpt lat="44.58934" lon="2.33489">
        <ele>451</ele>
        <time>2015-08-25T09:02:56Z</time>
      </trkpt>
      <trkpt lat="44.58936" lon="2.33483">
        <ele>451</ele>
        <time>2015-08-25T09:03:02Z</time>
      </trkpt>
      <trkpt lat="44.58939" lon="2.33477">
        <ele>451</ele>
        <time>2015-08-25T09:03:08Z</time>
      </trkpt>
      <trkpt lat="44.5894" lon="2.3347">
        <ele>451</ele>
        <time>2015-08-25T09:03:17Z</time>
      </trkpt>
      <trkpt lat="44.58942" lon="2.33464">
        <ele>454</ele>
        <time>2015-08-25T09:03:27Z</time>
      </trkpt>
      <trkpt lat="44.58945" lon="2.33458">
        <ele>457</ele>
        <time>2015-08-25T09:03:36Z</time>
      </trkpt>
      <trkpt lat="44.58946" lon="2.33446">
        <ele>459</ele>
        <time>2015-08-25T09:03:53Z</time>
      </trkpt>
      <trkpt lat="44.58948" lon="2.33436">
        <ele>459</ele>
        <time>2015-08-25T09:04:06Z</time>
      </trkpt>
      <trkpt lat="44.58952" lon="2.33431">
        <ele>460</ele>
        <time>2015-08-25T09:04:14Z</time>
      </trkpt>
      <trkpt lat="44.58958" lon="2.33422">
        <ele>462</ele>
        <time>2015-08-25T09:04:26Z</time>
      </trkpt>
      <trkpt lat="44.5896" lon="2.33416">
        <ele>463</ele>
        <time>2015-08-25T09:04:33Z</time>
      </trkpt>
      <trkpt lat="44.58963" lon="2.33411">
        <ele>462</ele>
        <time>2015-08-25T09:04:43Z</time>
      </trkpt>
      <trkpt lat="44.58964" lon="2.33403">
        <ele>458</ele>
        <time>2015-08-25T09:04:52Z</time>
      </trkpt>
      <trkpt lat="44.5897" lon="2.33396">
        <ele>461</ele>
        <time>2015-08-25T09:05:04Z</time>
      </trkpt>
      <trkpt lat="44.58974" lon="2.33384">
        <ele>461</ele>
        <time>2015-08-25T09:05:14Z</time>
      </trkpt>
      <trkpt lat="44.58976" lon="2.33378">
        <ele>463</ele>
        <time>2015-08-25T09:05:20Z</time>
      </trkpt>
      <trkpt lat="44.58979" lon="2.33366">
        <ele>465</ele>
        <time>2015-08-25T09:05:31Z</time>
      </trkpt>
      <trkpt lat="44.58979" lon="2.33359">
        <ele>465</ele>
        <time>2015-08-25T09:05:41Z</time>
      </trkpt>
      <trkpt lat="44.58971" lon="2.33354">
        <ele>465</ele>
        <time>2015-08-25T09:06:06Z</time>
      </trkpt>
      <trkpt lat="44.58969" lon="2.33348">
        <ele>467</ele>
        <time>2015-08-25T09:06:15Z</time>
      </trkpt>
      <trkpt lat="44.58966" lon="2.33342">
        <ele>466</ele>
        <time>2015-08-25T09:06:22Z</time>
      </trkpt>
      <trkpt lat="44.58957" lon="2.33339">
        <ele>467</ele>
        <time>2015-08-25T09:06:32Z</time>
      </trkpt>
      <trkpt lat="44.58949" lon="2.33328">
        <ele>466</ele>
        <time>2015-08-25T09:06:43Z</time>
      </trkpt>
      <trkpt lat="44.5895" lon="2.33321">
        <ele>470</ele>
        <time>2015-08-25T09:06:49Z</time>
      </trkpt>
      <trkpt lat="44.58944" lon="2.33311">
        <ele>469</ele>
        <time>2015-08-25T09:07:00Z</time>
      </trkpt>
      <trkpt lat="44.58939" lon="2.33301">
        <ele>470</ele>
        <time>2015-08-25T09:07:08Z</time>
      </trkpt>
      <trkpt lat="44.58937" lon="2.33294">
        <ele>471</ele>
        <time>2015-08-25T09:07:15Z</time>
      </trkpt>
      <trkpt lat="44.58936" lon="2.33282">
        <ele>471</ele>
        <time>2015-08-25T09:07:26Z</time>
      </trkpt>
      <trkpt lat="44.58928" lon="2.33274">
        <ele>470</ele>
        <time>2015-08-25T09:07:32Z</time>
      </trkpt>
      <trkpt lat="44.58921" lon="2.33263">
        <ele>470</ele>
        <time>2015-08-25T09:07:42Z</time>
      </trkpt>
      <trkpt lat="44.5892" lon="2.33256">
        <ele>469</ele>
        <time>2015-08-25T09:07:52Z</time>
      </trkpt>
      <trkpt lat="44.5892" lon="2.33247">
        <ele>471</ele>
        <time>2015-08-25T09:08:00Z</time>
      </trkpt>
      <trkpt lat="44.58916" lon="2.33233">
        <ele>469</ele>
        <time>2015-08-25T09:08:09Z</time>
      </trkpt>
      <trkpt lat="44.58919" lon="2.3322">
        <ele>471</ele>
        <time>2015-08-25T09:08:19Z</time>
      </trkpt>
      <trkpt lat="44.58926" lon="2.33211">
        <ele>473</ele>
        <time>2015-08-25T09:08:25Z</time>
      </trkpt>
      <trkpt lat="44.58926" lon="2.33204">
        <ele>473</ele>
        <time>2015-08-25T09:08:32Z</time>
      </trkpt>
      <trkpt lat="44.58925" lon="2.33197">
        <ele>474</ele>
        <time>2015-08-25T09:08:38Z</time>
      </trkpt>
      <trkpt lat="44.58916" lon="2.33189">
        <ele>470</ele>
        <time>2015-08-25T09:08:45Z</time>
      </trkpt>
      <trkpt lat="44.5891" lon="2.33186">
        <ele>465</ele>
        <time>2015-08-25T09:08:54Z</time>
      </trkpt>
      <trkpt lat="44.58908" lon="2.3318">
        <ele>466</ele>
        <time>2015-08-25T09:09:02Z</time>
      </trkpt>
      <trkpt lat="44.58904" lon="2.33175">
        <ele>467</ele>
        <time>2015-08-25T09:09:12Z</time>
      </trkpt>
      <trkpt lat="44.58891" lon="2.33165">
        <ele>466</ele>
        <time>2015-08-25T09:09:20Z</time>
      </trkpt>
      <trkpt lat="44.58883" lon="2.33154">
        <ele>468</ele>
        <time>2015-08-25T09:09:29Z</time>
      </trkpt>
      <trkpt lat="44.58879" lon="2.33142">
        <ele>472</ele>
        <time>2015-08-25T09:09:37Z</time>
      </trkpt>
      <trkpt lat="44.58876" lon="2.33136">
        <ele>472</ele>
        <time>2015-08-25T09:09:43Z</time>
      </trkpt>
      <trkpt lat="44.58869" lon="2.33124">
        <ele>474</ele>
        <time>2015-08-25T09:09:52Z</time>
      </trkpt>
      <trkpt lat="44.58869" lon="2.33112">
        <ele>476</ele>
        <time>2015-08-25T09:10:01Z</time>
      </trkpt>
      <trkpt lat="44.5886" lon="2.33105">
        <ele>476</ele>
        <time>2015-08-25T09:10:12Z</time>
      </trkpt>
      <trkpt lat="44.58857" lon="2.33099">
        <ele>479</ele>
        <time>2015-08-25T09:10:18Z</time>
      </trkpt>
      <trkpt lat="44.5885" lon="2.33088">
        <ele>479</ele>
        <time>2015-08-25T09:10:28Z</time>
      </trkpt>
      <trkpt lat="44.5885" lon="2.33081">
        <ele>481</ele>
        <time>2015-08-25T09:10:35Z</time>
      </trkpt>
      <trkpt lat="44.58846" lon="2.33069">
        <ele>479</ele>
        <time>2015-08-25T09:10:44Z</time>
      </trkpt>
      <trkpt lat="44.58843" lon="2.33062">
        <ele>479</ele>
        <time>2015-08-25T09:10:50Z</time>
      </trkpt>
      <trkpt lat="44.58836" lon="2.33058">
        <ele>478</ele>
        <time>2015-08-25T09:10:56Z</time>
      </trkpt>
      <trkpt lat="44.58829" lon="2.33048">
        <ele>479</ele>
        <time>2015-08-25T09:11:06Z</time>
      </trkpt>
      <trkpt lat="44.58825" lon="2.33043">
        <ele>479</ele>
        <time>2015-08-25T09:11:24Z</time>
      </trkpt>
      <trkpt lat="44.58821" lon="2.33038">
        <ele>481</ele>
        <time>2015-08-25T09:11:34Z</time>
      </trkpt>
      <trkpt lat="44.58815" lon="2.33028">
        <ele>483</ele>
        <time>2015-08-25T09:11:48Z</time>
      </trkpt>
      <trkpt lat="44.58804" lon="2.33021">
        <ele>481</ele>
        <time>2015-08-25T09:11:55Z</time>
      </trkpt>
      <trkpt lat="44.58801" lon="2.33014">
        <ele>483</ele>
        <time>2015-08-25T09:12:01Z</time>
      </trkpt>
      <trkpt lat="44.58799" lon="2.33008">
        <ele>485</ele>
        <time>2015-08-25T09:12:08Z</time>
      </trkpt>
      <trkpt lat="44.58798" lon="2.33001">
        <ele>485</ele>
        <time>2015-08-25T09:12:14Z</time>
      </trkpt>
      <trkpt lat="44.58795" lon="2.32995">
        <ele>487</ele>
        <time>2015-08-25T09:12:21Z</time>
      </trkpt>
      <trkpt lat="44.58788" lon="2.32982">
        <ele>487</ele>
        <time>2015-08-25T09:12:30Z</time>
      </trkpt>
      <trkpt lat="44.58787" lon="2.32969">
        <ele>486</ele>
        <time>2015-08-25T09:12:39Z</time>
      </trkpt>
      <trkpt lat="44.58785" lon="2.32957">
        <ele>488</ele>
        <time>2015-08-25T09:12:49Z</time>
      </trkpt>
      <trkpt lat="44.58789" lon="2.32945">
        <ele>492</ele>
        <time>2015-08-25T09:12:56Z</time>
      </trkpt>
      <trkpt lat="44.58788" lon="2.32937">
        <ele>492</ele>
        <time>2015-08-25T09:13:02Z</time>
      </trkpt>
      <trkpt lat="44.58788" lon="2.32925">
        <ele>491</ele>
        <time>2015-08-25T09:13:11Z</time>
      </trkpt>
      <trkpt lat="44.58781" lon="2.32915">
        <ele>493</ele>
        <time>2015-08-25T09:13:21Z</time>
      </trkpt>
      <trkpt lat="44.58776" lon="2.32908">
        <ele>492</ele>
        <time>2015-08-25T09:13:30Z</time>
      </trkpt>
      <trkpt lat="44.5877" lon="2.32905">
        <ele>491</ele>
        <time>2015-08-25T09:13:36Z</time>
      </trkpt>
      <trkpt lat="44.58766" lon="2.329">
        <ele>494</ele>
        <time>2015-08-25T09:13:45Z</time>
      </trkpt>
      <trkpt lat="44.5876" lon="2.32894">
        <ele>494</ele>
        <time>2015-08-25T09:13:55Z</time>
      </trkpt>
      <trkpt lat="44.58756" lon="2.32891">
        <ele>492</ele>
        <time>2015-08-25T09:14:05Z</time>
      </trkpt>
      <trkpt lat="44.5874" lon="2.32882">
        <ele>493</ele>
        <time>2015-08-25T09:14:15Z</time>
      </trkpt>
      <trkpt lat="44.58739" lon="2.32875">
        <ele>496</ele>
        <time>2015-08-25T09:14:23Z</time>
      </trkpt>
      <trkpt lat="44.58734" lon="2.32872">
        <ele>495</ele>
        <time>2015-08-25T09:14:30Z</time>
      </trkpt>
      <trkpt lat="44.58733" lon="2.32866">
        <ele>496</ele>
        <time>2015-08-25T09:14:41Z</time>
      </trkpt>
      <trkpt lat="44.5872" lon="2.32853">
        <ele>499</ele>
        <time>2015-08-25T09:14:52Z</time>
      </trkpt>
      <trkpt lat="44.58715" lon="2.32843">
        <ele>500</ele>
        <time>2015-08-25T09:15:03Z</time>
      </trkpt>
      <trkpt lat="44.58713" lon="2.32832">
        <ele>502</ele>
        <time>2015-08-25T09:15:17Z</time>
      </trkpt>
      <trkpt lat="44.58706" lon="2.32825">
        <ele>505</ele>
        <time>2015-08-25T09:15:24Z</time>
      </trkpt>
      <trkpt lat="44.58696" lon="2.32818">
        <ele>504</ele>
        <time>2015-08-25T09:15:32Z</time>
      </trkpt>
      <trkpt lat="44.58685" lon="2.32813">
        <ele>502</ele>
        <time>2015-08-25T09:15:40Z</time>
      </trkpt>
      <trkpt lat="44.58676" lon="2.32809">
        <ele>504</ele>
        <time>2015-08-25T09:15:50Z</time>
      </trkpt>
      <trkpt lat="44.58668" lon="2.32804">
        <ele>508</ele>
        <time>2015-08-25T09:16:03Z</time>
      </trkpt>
      <trkpt lat="44.58658" lon="2.32801">
        <ele>506</ele>
        <time>2015-08-25T09:16:11Z</time>
      </trkpt>
      <trkpt lat="44.58648" lon="2.32799">
        <ele>510</ele>
        <time>2015-08-25T09:16:24Z</time>
      </trkpt>
      <trkpt lat="44.58643" lon="2.32798">
        <ele>511</ele>
        <time>2015-08-25T09:16:33Z</time>
      </trkpt>
      <trkpt lat="44.58633" lon="2.32796">
        <ele>510</ele>
        <time>2015-08-25T09:16:40Z</time>
      </trkpt>
      <trkpt lat="44.58623" lon="2.32793">
        <ele>511</ele>
        <time>2015-08-25T09:16:51Z</time>
      </trkpt>
      <trkpt lat="44.58612" lon="2.3279">
        <ele>513</ele>
        <time>2015-08-25T09:17:02Z</time>
      </trkpt>
      <trkpt lat="44.58607" lon="2.32787">
        <ele>516</ele>
        <time>2015-08-25T09:17:11Z</time>
      </trkpt>
      <trkpt lat="44.58597" lon="2.32781">
        <ele>520</ele>
        <time>2015-08-25T09:17:22Z</time>
      </trkpt>
      <trkpt lat="44.58598" lon="2.32775">
        <ele>521</ele>
        <time>2015-08-25T09:17:30Z</time>
      </trkpt>
      <trkpt lat="44.5859" lon="2.32766">
        <ele>523</ele>
        <time>2015-08-25T09:17:41Z</time>
      </trkpt>
      <trkpt lat="44.58581" lon="2.32767">
        <ele>513</ele>
        <time>2015-08-25T09:19:21Z</time>
      </trkpt>
      <trkpt lat="44.58576" lon="2.32763">
        <ele>513</ele>
        <time>2015-08-25T09:19:29Z</time>
      </trkpt>
      <trkpt lat="44.58575" lon="2.32756">
        <ele>516</ele>
        <time>2015-08-25T09:19:36Z</time>
      </trkpt>
      <trkpt lat="44.58578" lon="2.32744">
        <ele>516</ele>
        <time>2015-08-25T09:19:46Z</time>
      </trkpt>
      <trkpt lat="44.5858" lon="2.32738">
        <ele>516</ele>
        <time>2015-08-25T09:19:52Z</time>
      </trkpt>
      <trkpt lat="44.58583" lon="2.32728">
        <ele>518</ele>
        <time>2015-08-25T09:20:01Z</time>
      </trkpt>
      <trkpt lat="44.58584" lon="2.32721">
        <ele>519</ele>
        <time>2015-08-25T09:20:07Z</time>
      </trkpt>
      <trkpt lat="44.58586" lon="2.32708">
        <ele>517</ele>
        <time>2015-08-25T09:20:16Z</time>
      </trkpt>
      <trkpt lat="44.58592" lon="2.32695">
        <ele>518</ele>
        <time>2015-08-25T09:20:24Z</time>
      </trkpt>
      <trkpt lat="44.58596" lon="2.32682">
        <ele>522</ele>
        <time>2015-08-25T09:20:32Z</time>
      </trkpt>
      <trkpt lat="44.58603" lon="2.3267">
        <ele>521</ele>
        <time>2015-08-25T09:20:41Z</time>
      </trkpt>
      <trkpt lat="44.58607" lon="2.32666">
        <ele>521</ele>
        <time>2015-08-25T09:20:49Z</time>
      </trkpt>
      <trkpt lat="44.58607" lon="2.32653">
        <ele>520</ele>
        <time>2015-08-25T09:20:56Z</time>
      </trkpt>
      <trkpt lat="44.58609" lon="2.3264">
        <ele>518</ele>
        <time>2015-08-25T09:21:05Z</time>
      </trkpt>
      <trkpt lat="44.58609" lon="2.32626">
        <ele>516</ele>
        <time>2015-08-25T09:21:15Z</time>
      </trkpt>
      <trkpt lat="44.58615" lon="2.32617">
        <ele>515</ele>
        <time>2015-08-25T09:21:21Z</time>
      </trkpt>
      <trkpt lat="44.58619" lon="2.32611">
        <ele>519</ele>
        <time>2015-08-25T09:21:27Z</time>
      </trkpt>
      <trkpt lat="44.58618" lon="2.32602">
        <ele>519</ele>
        <time>2015-08-25T09:21:35Z</time>
      </trkpt>
      <trkpt lat="44.58616" lon="2.32587">
        <ele>517</ele>
        <time>2015-08-25T09:21:44Z</time>
      </trkpt>
      <trkpt lat="44.58615" lon="2.32574">
        <ele>513</ele>
        <time>2015-08-25T09:21:53Z</time>
      </trkpt>
      <trkpt lat="44.58607" lon="2.32565">
        <ele>508</ele>
        <time>2015-08-25T09:21:59Z</time>
      </trkpt>
      <trkpt lat="44.586" lon="2.32556">
        <ele>506</ele>
        <time>2015-08-25T09:22:07Z</time>
      </trkpt>
      <trkpt lat="44.5859" lon="2.32551">
        <ele>503</ele>
        <time>2015-08-25T09:22:15Z</time>
      </trkpt>
      <trkpt lat="44.58587" lon="2.32546">
        <ele>501</ele>
        <time>2015-08-25T09:22:22Z</time>
      </trkpt>
      <trkpt lat="44.58583" lon="2.32541">
        <ele>501</ele>
        <time>2015-08-25T09:22:28Z</time>
      </trkpt>
      <trkpt lat="44.58581" lon="2.32534">
        <ele>500</ele>
        <time>2015-08-25T09:22:35Z</time>
      </trkpt>
      <trkpt lat="44.58581" lon="2.32526">
        <ele>504</ele>
        <time>2015-08-25T09:22:45Z</time>
      </trkpt>
      <trkpt lat="44.58571" lon="2.32517">
        <ele>501</ele>
        <time>2015-08-25T09:22:54Z</time>
      </trkpt>
      <trkpt lat="44.58566" lon="2.32512">
        <ele>501</ele>
        <time>2015-08-25T09:23:03Z</time>
      </trkpt>
      <trkpt lat="44.58555" lon="2.32511">
        <ele>501</ele>
        <time>2015-08-25T09:23:19Z</time>
      </trkpt>
      <trkpt lat="44.58546" lon="2.32503">
        <ele>509</ele>
        <time>2015-08-25T09:23:37Z</time>
      </trkpt>
      <trkpt lat="44.5855" lon="2.32499">
        <ele>515</ele>
        <time>2015-08-25T09:23:53Z</time>
      </trkpt>
      <trkpt lat="44.58555" lon="2.32492">
        <ele>511</ele>
        <time>2015-08-25T09:24:10Z</time>
      </trkpt>
      <trkpt lat="44.58558" lon="2.32486">
        <ele>511</ele>
        <time>2015-08-25T09:24:22Z</time>
      </trkpt>
      <trkpt lat="44.58561" lon="2.32482">
        <ele>510</ele>
        <time>2015-08-25T09:24:30Z</time>
      </trkpt>
      <trkpt lat="44.58566" lon="2.32478">
        <ele>511</ele>
        <time>2015-08-25T09:24:36Z</time>
      </trkpt>
      <trkpt lat="44.58567" lon="2.32471">
        <ele>510</ele>
        <time>2015-08-25T09:24:42Z</time>
      </trkpt>
      <trkpt lat="44.58571" lon="2.32467">
        <ele>512</ele>
        <time>2015-08-25T09:24:50Z</time>
      </trkpt>
      <trkpt lat="44.58575" lon="2.32461">
        <ele>515</ele>
        <time>2015-08-25T09:25:05Z</time>
      </trkpt>
      <trkpt lat="44.58579" lon="2.32456">
        <ele>518</ele>
        <time>2015-08-25T09:25:13Z</time>
      </trkpt>
      <trkpt lat="44.5858" lon="2.32449">
        <ele>516</ele>
        <time>2015-08-25T09:25:22Z</time>
      </trkpt>
      <trkpt lat="44.58584" lon="2.32446">
        <ele>517</ele>
        <time>2015-08-25T09:25:34Z</time>
      </trkpt>
      <trkpt lat="44.58588" lon="2.32442">
        <ele>521</ele>
        <time>2015-08-25T09:25:47Z</time>
      </trkpt>
      <trkpt lat="44.58597" lon="2.3244">
        <ele>523</ele>
        <time>2015-08-25T09:26:16Z</time>
      </trkpt>
      <trkpt lat="44.58601" lon="2.32438">
        <ele>523</ele>
        <time>2015-08-25T09:26:24Z</time>
      </trkpt>
      <trkpt lat="44.58606" lon="2.32435">
        <ele>523</ele>
        <time>2015-08-25T09:26:31Z</time>
      </trkpt>
      <trkpt lat="44.5861" lon="2.32433">
        <ele>522</ele>
        <time>2015-08-25T09:26:37Z</time>
      </trkpt>
      <trkpt lat="44.58615" lon="2.32429">
        <ele>524</ele>
        <time>2015-08-25T09:26:45Z</time>
      </trkpt>
      <trkpt lat="44.58619" lon="2.32425">
        <ele>525</ele>
        <time>2015-08-25T09:26:51Z</time>
      </trkpt>
      <trkpt lat="44.58627" lon="2.32418">
        <ele>525</ele>
        <time>2015-08-25T09:27:03Z</time>
      </trkpt>
      <trkpt lat="44.5863" lon="2.32414">
        <ele>526</ele>
        <time>2015-08-25T09:27:09Z</time>
      </trkpt>
      <trkpt lat="44.58635" lon="2.32408">
        <ele>526</ele>
        <time>2015-08-25T09:27:16Z</time>
      </trkpt>
      <trkpt lat="44.58642" lon="2.324">
        <ele>527</ele>
        <time>2015-08-25T09:27:27Z</time>
      </trkpt>
      <trkpt lat="44.58646" lon="2.32395">
        <ele>529</ele>
        <time>2015-08-25T09:27:33Z</time>
      </trkpt>
      <trkpt lat="44.58646" lon="2.32389">
        <ele>530</ele>
        <time>2015-08-25T09:27:39Z</time>
      </trkpt>
      <trkpt lat="44.58649" lon="2.32383">
        <ele>529</ele>
        <time>2015-08-25T09:27:45Z</time>
      </trkpt>
      <trkpt lat="44.58652" lon="2.32378">
        <ele>530</ele>
        <time>2015-08-25T09:27:52Z</time>
      </trkpt>
      <trkpt lat="44.58655" lon="2.32369">
        <ele>530</ele>
        <time>2015-08-25T09:28:12Z</time>
      </trkpt>
      <trkpt lat="44.58659" lon="2.32364">
        <ele>532</ele>
        <time>2015-08-25T09:28:20Z</time>
      </trkpt>
      <trkpt lat="44.5866" lon="2.32357">
        <ele>534</ele>
        <time>2015-08-25T09:28:29Z</time>
      </trkpt>
      <trkpt lat="44.58661" lon="2.32351">
        <ele>532</ele>
        <time>2015-08-25T09:28:35Z</time>
      </trkpt>
      <trkpt lat="44.58662" lon="2.32344">
        <ele>532</ele>
        <time>2015-08-25T09:28:41Z</time>
      </trkpt>
      <trkpt lat="44.58663" lon="2.32337">
        <ele>533</ele>
        <time>2015-08-25T09:28:47Z</time>
      </trkpt>
      <trkpt lat="44.58664" lon="2.3233">
        <ele>533</ele>
        <time>2015-08-25T09:28:53Z</time>
      </trkpt>
      <trkpt lat="44.58665" lon="2.32321">
        <ele>535</ele>
        <time>2015-08-25T09:29:03Z</time>
      </trkpt>
      <trkpt lat="44.58665" lon="2.32315">
        <ele>536</ele>
        <time>2015-08-25T09:29:09Z</time>
      </trkpt>
      <trkpt lat="44.58663" lon="2.32302">
        <ele>537</ele>
        <time>2015-08-25T09:29:18Z</time>
      </trkpt>
      <trkpt lat="44.58664" lon="2.32295">
        <ele>535</ele>
        <time>2015-08-25T09:32:54Z</time>
      </trkpt>
      <trkpt lat="44.58662" lon="2.32286">
        <ele>534</ele>
        <time>2015-08-25T09:33:02Z</time>
      </trkpt>
      <trkpt lat="44.58658" lon="2.32281">
        <ele>533</ele>
        <time>2015-08-25T09:33:11Z</time>
      </trkpt>
      <trkpt lat="44.58657" lon="2.32274">
        <ele>536</ele>
        <time>2015-08-25T09:33:19Z</time>
      </trkpt>
      <trkpt lat="44.58656" lon="2.32267">
        <ele>538</ele>
        <time>2015-08-25T09:33:27Z</time>
      </trkpt>
      <trkpt lat="44.58656" lon="2.32256">
        <ele>541</ele>
        <time>2015-08-25T09:33:39Z</time>
      </trkpt>
      <trkpt lat="44.58652" lon="2.32244">
        <ele>545</ele>
        <time>2015-08-25T09:33:49Z</time>
      </trkpt>
      <trkpt lat="44.58647" lon="2.3224">
        <ele>546</ele>
        <time>2015-08-25T09:33:56Z</time>
      </trkpt>
      <trkpt lat="44.58642" lon="2.32228">
        <ele>546</ele>
        <time>2015-08-25T09:34:07Z</time>
      </trkpt>
      <trkpt lat="44.58639" lon="2.32222">
        <ele>546</ele>
        <time>2015-08-25T09:34:13Z</time>
      </trkpt>
      <trkpt lat="44.58636" lon="2.32217">
        <ele>547</ele>
        <time>2015-08-25T09:34:19Z</time>
      </trkpt>
      <trkpt lat="44.58633" lon="2.32211">
        <ele>548</ele>
        <time>2015-08-25T09:34:25Z</time>
      </trkpt>
      <trkpt lat="44.58629" lon="2.32199">
        <ele>547</ele>
        <time>2015-08-25T09:34:35Z</time>
      </trkpt>
      <trkpt lat="44.58624" lon="2.32188">
        <ele>547</ele>
        <time>2015-08-25T09:34:46Z</time>
      </trkpt>
      <trkpt lat="44.58619" lon="2.32181">
        <ele>547</ele>
        <time>2015-08-25T09:35:02Z</time>
      </trkpt>
      <trkpt lat="44.58615" lon="2.32177">
        <ele>548</ele>
        <time>2015-08-25T09:35:08Z</time>
      </trkpt>
      <trkpt lat="44.58611" lon="2.32172">
        <ele>548</ele>
        <time>2015-08-25T09:35:14Z</time>
      </trkpt>
      <trkpt lat="44.58603" lon="2.32166">
        <ele>550</ele>
        <time>2015-08-25T09:35:24Z</time>
      </trkpt>
      <trkpt lat="44.58595" lon="2.32157">
        <ele>549</ele>
        <time>2015-08-25T09:35:35Z</time>
      </trkpt>
      <trkpt lat="44.58587" lon="2.32148">
        <ele>550</ele>
        <time>2015-08-25T09:35:45Z</time>
      </trkpt>
      <trkpt lat="44.5858" lon="2.32138">
        <ele>553</ele>
        <time>2015-08-25T09:35:54Z</time>
      </trkpt>
      <trkpt lat="44.58574" lon="2.32132">
        <ele>552</ele>
        <time>2015-08-25T09:36:02Z</time>
      </trkpt>
      <trkpt lat="44.58572" lon="2.32127">
        <ele>553</ele>
        <time>2015-08-25T09:36:08Z</time>
      </trkpt>
      <trkpt lat="44.58566" lon="2.32115">
        <ele>554</ele>
        <time>2015-08-25T09:36:17Z</time>
      </trkpt>
      <trkpt lat="44.58559" lon="2.32105">
        <ele>555</ele>
        <time>2015-08-25T09:36:26Z</time>
      </trkpt>
      <trkpt lat="44.58551" lon="2.32094">
        <ele>555</ele>
        <time>2015-08-25T09:36:35Z</time>
      </trkpt>
      <trkpt lat="44.58546" lon="2.32081">
        <ele>555</ele>
        <time>2015-08-25T09:36:45Z</time>
      </trkpt>
      <trkpt lat="44.5854" lon="2.3207">
        <ele>555</ele>
        <time>2015-08-25T09:36:55Z</time>
      </trkpt>
      <trkpt lat="44.58536" lon="2.32063">
        <ele>556</ele>
        <time>2015-08-25T09:37:01Z</time>
      </trkpt>
      <trkpt lat="44.58529" lon="2.32053">
        <ele>554</ele>
        <time>2015-08-25T09:37:10Z</time>
      </trkpt>
      <trkpt lat="44.58527" lon="2.32046">
        <ele>555</ele>
        <time>2015-08-25T09:37:16Z</time>
      </trkpt>
      <trkpt lat="44.58524" lon="2.3204">
        <ele>554</ele>
        <time>2015-08-25T09:37:22Z</time>
      </trkpt>
      <trkpt lat="44.58521" lon="2.32033">
        <ele>556</ele>
        <time>2015-08-25T09:37:28Z</time>
      </trkpt>
      <trkpt lat="44.58515" lon="2.32022">
        <ele>554</ele>
        <time>2015-08-25T09:37:37Z</time>
      </trkpt>
      <trkpt lat="44.5851" lon="2.3201">
        <ele>556</ele>
        <time>2015-08-25T09:37:47Z</time>
      </trkpt>
      <trkpt lat="44.58509" lon="2.31999">
        <ele>559</ele>
        <time>2015-08-25T09:37:56Z</time>
      </trkpt>
      <trkpt lat="44.58506" lon="2.31988">
        <ele>559</ele>
        <time>2015-08-25T09:38:05Z</time>
      </trkpt>
      <trkpt lat="44.585" lon="2.31975">
        <ele>562</ele>
        <time>2015-08-25T09:38:16Z</time>
      </trkpt>
      <trkpt lat="44.58497" lon="2.31971">
        <ele>563</ele>
        <time>2015-08-25T09:38:22Z</time>
      </trkpt>
      <trkpt lat="44.5849" lon="2.31962">
        <ele>564</ele>
        <time>2015-08-25T09:38:32Z</time>
      </trkpt>
      <trkpt lat="44.58485" lon="2.31959">
        <ele>566</ele>
        <time>2015-08-25T09:38:38Z</time>
      </trkpt>
      <trkpt lat="44.58481" lon="2.31956">
        <ele>566</ele>
        <time>2015-08-25T09:38:44Z</time>
      </trkpt>
      <trkpt lat="44.58472" lon="2.31955">
        <ele>564</ele>
        <time>2015-08-25T09:45:44Z</time>
      </trkpt>
      <trkpt lat="44.58475" lon="2.31947">
        <ele>566</ele>
        <time>2015-08-25T09:51:56Z</time>
      </trkpt>
      <trkpt lat="44.58471" lon="2.31954">
        <ele>563</ele>
        <time>2015-08-25T09:56:28Z</time>
      </trkpt>
      <trkpt lat="44.58467" lon="2.31953">
        <ele>565</ele>
        <time>2015-08-25T10:01:57Z</time>
      </trkpt>
      <trkpt lat="44.58463" lon="2.3195">
        <ele>564</ele>
        <time>2015-08-25T10:02:03Z</time>
      </trkpt>
      <trkpt lat="44.58453" lon="2.31946">
        <ele>563</ele>
        <time>2015-08-25T10:02:12Z</time>
      </trkpt>
      <trkpt lat="44.58443" lon="2.31943">
        <ele>563</ele>
        <time>2015-08-25T10:02:22Z</time>
      </trkpt>
      <trkpt lat="44.58433" lon="2.3194">
        <ele>562</ele>
        <time>2015-08-25T10:02:31Z</time>
      </trkpt>
      <trkpt lat="44.58423" lon="2.31938">
        <ele>561</ele>
        <time>2015-08-25T10:02:41Z</time>
      </trkpt>
      <trkpt lat="44.58413" lon="2.31937">
        <ele>558</ele>
        <time>2015-08-25T10:02:50Z</time>
      </trkpt>
      <trkpt lat="44.58408" lon="2.31944">
        <ele>560</ele>
        <time>2015-08-25T10:02:56Z</time>
      </trkpt>
      <trkpt lat="44.584" lon="2.3195">
        <ele>560</ele>
        <time>2015-08-25T10:03:06Z</time>
      </trkpt>
      <trkpt lat="44.58389" lon="2.31952">
        <ele>561</ele>
        <time>2015-08-25T10:03:15Z</time>
      </trkpt>
      <trkpt lat="44.58381" lon="2.31957">
        <ele>561</ele>
        <time>2015-08-25T10:03:24Z</time>
      </trkpt>
      <trkpt lat="44.58372" lon="2.31964">
        <ele>562</ele>
        <time>2015-08-25T10:03:33Z</time>
      </trkpt>
      <trkpt lat="44.58363" lon="2.31973">
        <ele>563</ele>
        <time>2015-08-25T10:03:42Z</time>
      </trkpt>
      <trkpt lat="44.58353" lon="2.31977">
        <ele>560</ele>
        <time>2015-08-25T10:03:50Z</time>
      </trkpt>
      <trkpt lat="44.58348" lon="2.31985">
        <ele>561</ele>
        <time>2015-08-25T10:03:56Z</time>
      </trkpt>
      <trkpt lat="44.5834" lon="2.31993">
        <ele>561</ele>
        <time>2015-08-25T10:04:04Z</time>
      </trkpt>
      <trkpt lat="44.58332" lon="2.32003">
        <ele>560</ele>
        <time>2015-08-25T10:04:13Z</time>
      </trkpt>
      <trkpt lat="44.58325" lon="2.32012">
        <ele>560</ele>
        <time>2015-08-25T10:04:21Z</time>
      </trkpt>
      <trkpt lat="44.58316" lon="2.32021">
        <ele>558</ele>
        <time>2015-08-25T10:04:30Z</time>
      </trkpt>
      <trkpt lat="44.58306" lon="2.32028">
        <ele>557</ele>
        <time>2015-08-25T10:04:38Z</time>
      </trkpt>
      <trkpt lat="44.58297" lon="2.32033">
        <ele>556</ele>
        <time>2015-08-25T10:04:46Z</time>
      </trkpt>
      <trkpt lat="44.58288" lon="2.32039">
        <ele>558</ele>
        <time>2015-08-25T10:04:54Z</time>
      </trkpt>
      <trkpt lat="44.58282" lon="2.32043">
        <ele>559</ele>
        <time>2015-08-25T10:05:00Z</time>
      </trkpt>
      <trkpt lat="44.58272" lon="2.32049">
        <ele>558</ele>
        <time>2015-08-25T10:05:09Z</time>
      </trkpt>
      <trkpt lat="44.58263" lon="2.32055">
        <ele>557</ele>
        <time>2015-08-25T10:05:16Z</time>
      </trkpt>
      <trkpt lat="44.58253" lon="2.32059">
        <ele>555</ele>
        <time>2015-08-25T10:05:24Z</time>
      </trkpt>
      <trkpt lat="44.58243" lon="2.32064">
        <ele>555</ele>
        <time>2015-08-25T10:05:32Z</time>
      </trkpt>
      <trkpt lat="44.58233" lon="2.32066">
        <ele>554</ele>
        <time>2015-08-25T10:05:41Z</time>
      </trkpt>
      <trkpt lat="44.58221" lon="2.32065">
        <ele>555</ele>
        <time>2015-08-25T10:05:50Z</time>
      </trkpt>
      <trkpt lat="44.58214" lon="2.32063">
        <ele>555</ele>
        <time>2015-08-25T10:05:56Z</time>
      </trkpt>
      <trkpt lat="44.58204" lon="2.3206">
        <ele>554</ele>
        <time>2015-08-25T10:06:04Z</time>
      </trkpt>
      <trkpt lat="44.58195" lon="2.32057">
        <ele>556</ele>
        <time>2015-08-25T10:06:12Z</time>
      </trkpt>
      <trkpt lat="44.58185" lon="2.32053">
        <ele>554</ele>
        <time>2015-08-25T10:06:20Z</time>
      </trkpt>
      <trkpt lat="44.58175" lon="2.32051">
        <ele>551</ele>
        <time>2015-08-25T10:06:28Z</time>
      </trkpt>
      <trkpt lat="44.58165" lon="2.32046">
        <ele>552</ele>
        <time>2015-08-25T10:06:37Z</time>
      </trkpt>
      <trkpt lat="44.58156" lon="2.32039">
        <ele>552</ele>
        <time>2015-08-25T10:06:45Z</time>
      </trkpt>
      <trkpt lat="44.58148" lon="2.32029">
        <ele>554</ele>
        <time>2015-08-25T10:06:53Z</time>
      </trkpt>
      <trkpt lat="44.58139" lon="2.32021">
        <ele>554</ele>
        <time>2015-08-25T10:07:00Z</time>
      </trkpt>
      <trkpt lat="44.58133" lon="2.32011">
        <ele>555</ele>
        <time>2015-08-25T10:07:07Z</time>
      </trkpt>
      <trkpt lat="44.58127" lon="2.32">
        <ele>557</ele>
        <time>2015-08-25T10:07:15Z</time>
      </trkpt>
      <trkpt lat="44.58125" lon="2.31993">
        <ele>556</ele>
        <time>2015-08-25T10:07:56Z</time>
      </trkpt>
      <trkpt lat="44.5812" lon="2.31986">
        <ele>554</ele>
        <time>2015-08-25T10:10:12Z</time>
      </trkpt>
      <trkpt lat="44.5811" lon="2.31988">
        <ele>556</ele>
        <time>2015-08-25T10:10:25Z</time>
      </trkpt>
      <trkpt lat="44.58101" lon="2.31993">
        <ele>559</ele>
        <time>2015-08-25T10:10:34Z</time>
      </trkpt>
      <trkpt lat="44.58092" lon="2.32001">
        <ele>560</ele>
        <time>2015-08-25T10:10:44Z</time>
      </trkpt>
      <trkpt lat="44.58084" lon="2.32007">
        <ele>560</ele>
        <time>2015-08-25T10:10:52Z</time>
      </trkpt>
      <trkpt lat="44.58075" lon="2.32013">
        <ele>559</ele>
        <time>2015-08-25T10:11:00Z</time>
      </trkpt>
      <trkpt lat="44.58067" lon="2.32022">
        <ele>559</ele>
        <time>2015-08-25T10:11:09Z</time>
      </trkpt>
      <trkpt lat="44.5806" lon="2.32032">
        <ele>559</ele>
        <time>2015-08-25T10:11:17Z</time>
      </trkpt>
      <trkpt lat="44.58055" lon="2.32042">
        <ele>558</ele>
        <time>2015-08-25T10:11:25Z</time>
      </trkpt>
      <trkpt lat="44.58049" lon="2.32055">
        <ele>558</ele>
        <time>2015-08-25T10:11:34Z</time>
      </trkpt>
      <trkpt lat="44.58044" lon="2.32067">
        <ele>558</ele>
        <time>2015-08-25T10:11:43Z</time>
      </trkpt>
      <trkpt lat="44.58039" lon="2.3208">
        <ele>558</ele>
        <time>2015-08-25T10:11:51Z</time>
      </trkpt>
      <trkpt lat="44.58032" lon="2.32091">
        <ele>559</ele>
        <time>2015-08-25T10:12:00Z</time>
      </trkpt>
      <trkpt lat="44.58027" lon="2.32103">
        <ele>558</ele>
        <time>2015-08-25T10:12:09Z</time>
      </trkpt>
      <trkpt lat="44.58022" lon="2.32114">
        <ele>558</ele>
        <time>2015-08-25T10:12:17Z</time>
      </trkpt>
      <trkpt lat="44.58016" lon="2.32125">
        <ele>558</ele>
        <time>2015-08-25T10:12:25Z</time>
      </trkpt>
      <trkpt lat="44.5801" lon="2.32135">
        <ele>558</ele>
        <time>2015-08-25T10:12:33Z</time>
      </trkpt>
      <trkpt lat="44.58005" lon="2.32147">
        <ele>559</ele>
        <time>2015-08-25T10:12:41Z</time>
      </trkpt>
      <trkpt lat="44.57999" lon="2.32158">
        <ele>559</ele>
        <time>2015-08-25T10:12:49Z</time>
      </trkpt>
      <trkpt lat="44.57994" lon="2.32167">
        <ele>558</ele>
        <time>2015-08-25T10:12:56Z</time>
      </trkpt>
      <trkpt lat="44.57986" lon="2.32175">
        <ele>558</ele>
        <time>2015-08-25T10:13:04Z</time>
      </trkpt>
      <trkpt lat="44.57978" lon="2.32184">
        <ele>557</ele>
        <time>2015-08-25T10:13:12Z</time>
      </trkpt>
      <trkpt lat="44.57969" lon="2.32189">
        <ele>557</ele>
        <time>2015-08-25T10:13:20Z</time>
      </trkpt>
      <trkpt lat="44.5796" lon="2.32194">
        <ele>557</ele>
        <time>2015-08-25T10:13:29Z</time>
      </trkpt>
      <trkpt lat="44.57951" lon="2.32201">
        <ele>556</ele>
        <time>2015-08-25T10:13:38Z</time>
      </trkpt>
      <trkpt lat="44.57943" lon="2.32209">
        <ele>556</ele>
        <time>2015-08-25T10:13:48Z</time>
      </trkpt>
      <trkpt lat="44.57935" lon="2.32216">
        <ele>557</ele>
        <time>2015-08-25T10:13:57Z</time>
      </trkpt>
      <trkpt lat="44.57927" lon="2.32223">
        <ele>556</ele>
        <time>2015-08-25T10:14:06Z</time>
      </trkpt>
      <trkpt lat="44.57921" lon="2.32234">
        <ele>557</ele>
        <time>2015-08-25T10:14:16Z</time>
      </trkpt>
      <trkpt lat="44.57913" lon="2.32242">
        <ele>552</ele>
        <time>2015-08-25T10:14:24Z</time>
      </trkpt>
      <trkpt lat="44.57904" lon="2.32248">
        <ele>552</ele>
        <time>2015-08-25T10:14:32Z</time>
      </trkpt>
      <trkpt lat="44.57895" lon="2.3225">
        <ele>547</ele>
        <time>2015-08-25T10:14:44Z</time>
      </trkpt>
      <trkpt lat="44.57885" lon="2.32253">
        <ele>541</ele>
        <time>2015-08-25T10:14:51Z</time>
      </trkpt>
      <trkpt lat="44.57875" lon="2.32255">
        <ele>540</ele>
        <time>2015-08-25T10:15:01Z</time>
      </trkpt>
      <trkpt lat="44.57867" lon="2.32263">
        <ele>543</ele>
        <time>2015-08-25T10:15:10Z</time>
      </trkpt>
      <trkpt lat="44.57864" lon="2.32278">
        <ele>542</ele>
        <time>2015-08-25T10:15:18Z</time>
      </trkpt>
      <trkpt lat="44.57864" lon="2.32292">
        <ele>542</ele>
        <time>2015-08-25T10:15:27Z</time>
      </trkpt>
      <trkpt lat="44.57866" lon="2.323">
        <ele>540</ele>
        <time>2015-08-25T10:15:33Z</time>
      </trkpt>
      <trkpt lat="44.57865" lon="2.32314">
        <ele>544</ele>
        <time>2015-08-25T10:15:43Z</time>
      </trkpt>
      <trkpt lat="44.57861" lon="2.32326">
        <ele>540</ele>
        <time>2015-08-25T10:15:52Z</time>
      </trkpt>
      <trkpt lat="44.57858" lon="2.32339">
        <ele>541</ele>
        <time>2015-08-25T10:16:00Z</time>
      </trkpt>
      <trkpt lat="44.57851" lon="2.32349">
        <ele>544</ele>
        <time>2015-08-25T10:16:08Z</time>
      </trkpt>
      <trkpt lat="44.57844" lon="2.32359">
        <ele>543</ele>
        <time>2015-08-25T10:16:16Z</time>
      </trkpt>
      <trkpt lat="44.57837" lon="2.3237">
        <ele>540</ele>
        <time>2015-08-25T10:16:24Z</time>
      </trkpt>
      <trkpt lat="44.57828" lon="2.32377">
        <ele>537</ele>
        <time>2015-08-25T10:16:34Z</time>
      </trkpt>
      <trkpt lat="44.57819" lon="2.32382">
        <ele>537</ele>
        <time>2015-08-25T10:16:42Z</time>
      </trkpt>
      <trkpt lat="44.57809" lon="2.32387">
        <ele>538</ele>
        <time>2015-08-25T10:16:52Z</time>
      </trkpt>
      <trkpt lat="44.578" lon="2.32389">
        <ele>538</ele>
        <time>2015-08-25T10:17:01Z</time>
      </trkpt>
      <trkpt lat="44.57794" lon="2.32389">
        <ele>537</ele>
        <time>2015-08-25T10:17:07Z</time>
      </trkpt>
      <trkpt lat="44.57784" lon="2.32395">
        <ele>540</ele>
        <time>2015-08-25T10:17:16Z</time>
      </trkpt>
      <trkpt lat="44.57772" lon="2.32398">
        <ele>540</ele>
        <time>2015-08-25T10:17:26Z</time>
      </trkpt>
      <trkpt lat="44.57762" lon="2.32403">
        <ele>539</ele>
        <time>2015-08-25T10:17:36Z</time>
      </trkpt>
      <trkpt lat="44.57754" lon="2.32412">
        <ele>539</ele>
        <time>2015-08-25T10:17:44Z</time>
      </trkpt>
      <trkpt lat="44.57747" lon="2.32422">
        <ele>539</ele>
        <time>2015-08-25T10:17:52Z</time>
      </trkpt>
      <trkpt lat="44.5774" lon="2.32432">
        <ele>539</ele>
        <time>2015-08-25T10:18:01Z</time>
      </trkpt>
      <trkpt lat="44.57735" lon="2.32443">
        <ele>538</ele>
        <time>2015-08-25T10:18:10Z</time>
      </trkpt>
      <trkpt lat="44.57724" lon="2.32448">
        <ele>540</ele>
        <time>2015-08-25T10:18:19Z</time>
      </trkpt>
      <trkpt lat="44.57714" lon="2.32446">
        <ele>542</ele>
        <time>2015-08-25T10:18:27Z</time>
      </trkpt>
      <trkpt lat="44.57705" lon="2.32445">
        <ele>541</ele>
        <time>2015-08-25T10:18:37Z</time>
      </trkpt>
      <trkpt lat="44.57695" lon="2.32442">
        <ele>537</ele>
        <time>2015-08-25T10:18:47Z</time>
      </trkpt>
      <trkpt lat="44.57685" lon="2.32441">
        <ele>536</ele>
        <time>2015-08-25T10:18:55Z</time>
      </trkpt>
      <trkpt lat="44.57674" lon="2.32441">
        <ele>535</ele>
        <time>2015-08-25T10:19:05Z</time>
      </trkpt>
      <trkpt lat="44.57663" lon="2.32439">
        <ele>532</ele>
        <time>2015-08-25T10:19:14Z</time>
      </trkpt>
      <trkpt lat="44.57653" lon="2.32433">
        <ele>528</ele>
        <time>2015-08-25T10:19:23Z</time>
      </trkpt>
      <trkpt lat="44.57643" lon="2.32429">
        <ele>531</ele>
        <time>2015-08-25T10:19:32Z</time>
      </trkpt>
      <trkpt lat="44.57635" lon="2.32423">
        <ele>526</ele>
        <time>2015-08-25T10:19:42Z</time>
      </trkpt>
      <trkpt lat="44.57624" lon="2.32419">
        <ele>528</ele>
        <time>2015-08-25T10:19:51Z</time>
      </trkpt>
      <trkpt lat="44.57614" lon="2.32414">
        <ele>530</ele>
        <time>2015-08-25T10:20:00Z</time>
      </trkpt>
      <trkpt lat="44.57604" lon="2.3241">
        <ele>533</ele>
        <time>2015-08-25T10:20:10Z</time>
      </trkpt>
      <trkpt lat="44.57594" lon="2.32413">
        <ele>534</ele>
        <time>2015-08-25T10:20:19Z</time>
      </trkpt>
      <trkpt lat="44.57585" lon="2.32419">
        <ele>536</ele>
        <time>2015-08-25T10:20:28Z</time>
      </trkpt>
      <trkpt lat="44.5758" lon="2.32417">
        <ele>534</ele>
        <time>2015-08-25T10:20:34Z</time>
      </trkpt>
      <trkpt lat="44.57571" lon="2.32408">
        <ele>535</ele>
        <time>2015-08-25T10:20:42Z</time>
      </trkpt>
      <trkpt lat="44.57563" lon="2.32398">
        <ele>533</ele>
        <time>2015-08-25T10:20:51Z</time>
      </trkpt>
      <trkpt lat="44.57559" lon="2.32392">
        <ele>535</ele>
        <time>2015-08-25T10:20:57Z</time>
      </trkpt>
      <trkpt lat="44.57551" lon="2.32384">
        <ele>533</ele>
        <time>2015-08-25T10:21:06Z</time>
      </trkpt>
      <trkpt lat="44.57543" lon="2.32374">
        <ele>532</ele>
        <time>2015-08-25T10:21:15Z</time>
      </trkpt>
      <trkpt lat="44.57534" lon="2.32363">
        <ele>532</ele>
        <time>2015-08-25T10:21:23Z</time>
      </trkpt>
      <trkpt lat="44.57527" lon="2.32355">
        <ele>530</ele>
        <time>2015-08-25T10:21:33Z</time>
      </trkpt>
      <trkpt lat="44.57523" lon="2.3235">
        <ele>529</ele>
        <time>2015-08-25T10:21:39Z</time>
      </trkpt>
      <trkpt lat="44.57513" lon="2.32346">
        <ele>528</ele>
        <time>2015-08-25T10:21:47Z</time>
      </trkpt>
      <trkpt lat="44.57503" lon="2.32344">
        <ele>525</ele>
        <time>2015-08-25T10:21:56Z</time>
      </trkpt>
      <trkpt lat="44.57498" lon="2.32343">
        <ele>522</ele>
        <time>2015-08-25T10:22:05Z</time>
      </trkpt>
      <trkpt lat="44.57489" lon="2.32342">
        <ele>520</ele>
        <time>2015-08-25T10:22:15Z</time>
      </trkpt>
      <trkpt lat="44.57479" lon="2.32344">
        <ele>523</ele>
        <time>2015-08-25T10:22:25Z</time>
      </trkpt>
      <trkpt lat="44.5747" lon="2.32344">
        <ele>524</ele>
        <time>2015-08-25T10:22:33Z</time>
      </trkpt>
      <trkpt lat="44.57459" lon="2.32346">
        <ele>524</ele>
        <time>2015-08-25T10:22:42Z</time>
      </trkpt>
      <trkpt lat="44.57449" lon="2.32347">
        <ele>523</ele>
        <time>2015-08-25T10:22:50Z</time>
      </trkpt>
      <trkpt lat="44.57442" lon="2.32348">
        <ele>523</ele>
        <time>2015-08-25T10:22:57Z</time>
      </trkpt>
      <trkpt lat="44.57433" lon="2.32353">
        <ele>522</ele>
        <time>2015-08-25T10:23:05Z</time>
      </trkpt>
      <trkpt lat="44.57422" lon="2.32355">
        <ele>519</ele>
        <time>2015-08-25T10:23:15Z</time>
      </trkpt>
      <trkpt lat="44.57413" lon="2.3236">
        <ele>516</ele>
        <time>2015-08-25T10:23:24Z</time>
      </trkpt>
      <trkpt lat="44.57404" lon="2.32368">
        <ele>515</ele>
        <time>2015-08-25T10:23:33Z</time>
      </trkpt>
      <trkpt lat="44.57398" lon="2.32378">
        <ele>515</ele>
        <time>2015-08-25T10:23:40Z</time>
      </trkpt>
      <trkpt lat="44.57394" lon="2.32391">
        <ele>516</ele>
        <time>2015-08-25T10:23:50Z</time>
      </trkpt>
      <trkpt lat="44.57391" lon="2.32398">
        <ele>517</ele>
        <time>2015-08-25T10:23:56Z</time>
      </trkpt>
      <trkpt lat="44.57386" lon="2.32411">
        <ele>512</ele>
        <time>2015-08-25T10:24:05Z</time>
      </trkpt>
      <trkpt lat="44.57384" lon="2.32426">
        <ele>514</ele>
        <time>2015-08-25T10:24:15Z</time>
      </trkpt>
      <trkpt lat="44.5738" lon="2.32438">
        <ele>519</ele>
        <time>2015-08-25T10:24:24Z</time>
      </trkpt>
      <trkpt lat="44.57373" lon="2.32447">
        <ele>517</ele>
        <time>2015-08-25T10:24:41Z</time>
      </trkpt>
      <trkpt lat="44.57374" lon="2.32461">
        <ele>523</ele>
        <time>2015-08-25T10:24:51Z</time>
      </trkpt>
      <trkpt lat="44.57377" lon="2.32473">
        <ele>525</ele>
        <time>2015-08-25T10:25:02Z</time>
      </trkpt>
      <trkpt lat="44.57373" lon="2.32489">
        <ele>520</ele>
        <time>2015-08-25T10:25:11Z</time>
      </trkpt>
      <trkpt lat="44.57371" lon="2.32504">
        <ele>518</ele>
        <time>2015-08-25T10:25:20Z</time>
      </trkpt>
      <trkpt lat="44.57367" lon="2.32518">
        <ele>518</ele>
        <time>2015-08-25T10:25:30Z</time>
      </trkpt>
      <trkpt lat="44.57362" lon="2.32529">
        <ele>517</ele>
        <time>2015-08-25T10:25:40Z</time>
      </trkpt>
      <trkpt lat="44.57359" lon="2.32535">
        <ele>517</ele>
        <time>2015-08-25T10:25:46Z</time>
      </trkpt>
      <trkpt lat="44.57357" lon="2.32547">
        <ele>520</ele>
        <time>2015-08-25T10:25:56Z</time>
      </trkpt>
      <trkpt lat="44.57352" lon="2.32552">
        <ele>524</ele>
        <time>2015-08-25T10:26:02Z</time>
      </trkpt>
      <trkpt lat="44.57349" lon="2.32558">
        <ele>530</ele>
        <time>2015-08-25T10:26:08Z</time>
      </trkpt>
      <trkpt lat="44.57344" lon="2.32561">
        <ele>534</ele>
        <time>2015-08-25T10:26:15Z</time>
      </trkpt>
      <trkpt lat="44.57339" lon="2.32566">
        <ele>540</ele>
        <time>2015-08-25T10:26:22Z</time>
      </trkpt>
      <trkpt lat="44.57331" lon="2.32573">
        <ele>537</ele>
        <time>2015-08-25T10:26:32Z</time>
      </trkpt>
      <trkpt lat="44.57323" lon="2.32579">
        <ele>536</ele>
        <time>2015-08-25T10:26:43Z</time>
      </trkpt>
      <trkpt lat="44.57317" lon="2.32592">
        <ele>532</ele>
        <time>2015-08-25T10:26:56Z</time>
      </trkpt>
      <trkpt lat="44.57312" lon="2.32596">
        <ele>537</ele>
        <time>2015-08-25T10:27:07Z</time>
      </trkpt>
      <trkpt lat="44.57308" lon="2.32599">
        <ele>537</ele>
        <time>2015-08-25T10:27:13Z</time>
      </trkpt>
      <trkpt lat="44.57305" lon="2.32604">
        <ele>535</ele>
        <time>2015-08-25T10:27:19Z</time>
      </trkpt>
      <trkpt lat="44.57302" lon="2.3261">
        <ele>536</ele>
        <time>2015-08-25T10:27:25Z</time>
      </trkpt>
      <trkpt lat="44.57299" lon="2.32616">
        <ele>539</ele>
        <time>2015-08-25T10:27:31Z</time>
      </trkpt>
      <trkpt lat="44.57298" lon="2.32622">
        <ele>542</ele>
        <time>2015-08-25T10:27:53Z</time>
      </trkpt>
      <trkpt lat="44.57296" lon="2.32629">
        <ele>547</ele>
        <time>2015-08-25T10:28:28Z</time>
      </trkpt>
      <trkpt lat="44.57291" lon="2.32634">
        <ele>544</ele>
        <time>2015-08-25T10:28:34Z</time>
      </trkpt>
      <trkpt lat="44.57289" lon="2.32639">
        <ele>544</ele>
        <time>2015-08-25T10:28:40Z</time>
      </trkpt>
      <trkpt lat="44.57287" lon="2.32646">
        <ele>544</ele>
        <time>2015-08-25T10:28:47Z</time>
      </trkpt>
      <trkpt lat="44.57284" lon="2.32652">
        <ele>542</ele>
        <time>2015-08-25T10:28:54Z</time>
      </trkpt>
      <trkpt lat="44.57279" lon="2.3266">
        <ele>541</ele>
        <time>2015-08-25T10:29:03Z</time>
      </trkpt>
      <trkpt lat="44.57272" lon="2.32669">
        <ele>542</ele>
        <time>2015-08-25T10:29:15Z</time>
      </trkpt>
      <trkpt lat="44.57269" lon="2.32675">
        <ele>542</ele>
        <time>2015-08-25T10:29:22Z</time>
      </trkpt>
      <trkpt lat="44.57264" lon="2.32687">
        <ele>545</ele>
        <time>2015-08-25T10:29:33Z</time>
      </trkpt>
      <trkpt lat="44.57259" lon="2.32699">
        <ele>547</ele>
        <time>2015-08-25T10:29:45Z</time>
      </trkpt>
      <trkpt lat="44.57256" lon="2.32704">
        <ele>545</ele>
        <time>2015-08-25T10:29:52Z</time>
      </trkpt>
      <trkpt lat="44.57251" lon="2.32712">
        <ele>544</ele>
        <time>2015-08-25T10:30:21Z</time>
      </trkpt>
      <trkpt lat="44.57246" lon="2.32723">
        <ele>552</ele>
        <time>2015-08-25T10:30:31Z</time>
      </trkpt>
      <trkpt lat="44.57242" lon="2.32729">
        <ele>548</ele>
        <time>2015-08-25T10:30:37Z</time>
      </trkpt>
      <trkpt lat="44.57233" lon="2.32733">
        <ele>551</ele>
        <time>2015-08-25T10:30:48Z</time>
      </trkpt>
      <trkpt lat="44.5723" lon="2.32738">
        <ele>547</ele>
        <time>2015-08-25T10:30:56Z</time>
      </trkpt>
      <trkpt lat="44.5722" lon="2.32742">
        <ele>552</ele>
        <time>2015-08-25T10:31:05Z</time>
      </trkpt>
      <trkpt lat="44.57209" lon="2.32743">
        <ele>548</ele>
        <time>2015-08-25T10:31:16Z</time>
      </trkpt>
      <trkpt lat="44.57199" lon="2.32744">
        <ele>549</ele>
        <time>2015-08-25T10:31:26Z</time>
      </trkpt>
      <trkpt lat="44.5719" lon="2.32743">
        <ele>546</ele>
        <time>2015-08-25T10:31:36Z</time>
      </trkpt>
      <trkpt lat="44.5718" lon="2.32746">
        <ele>551</ele>
        <time>2015-08-25T10:31:44Z</time>
      </trkpt>
      <trkpt lat="44.5717" lon="2.32745">
        <ele>550</ele>
        <time>2015-08-25T10:31:55Z</time>
      </trkpt>
      <trkpt lat="44.57165" lon="2.32749">
        <ele>552</ele>
        <time>2015-08-25T10:32:21Z</time>
      </trkpt>
      <trkpt lat="44.57156" lon="2.32755">
        <ele>560</ele>
        <time>2015-08-25T10:32:32Z</time>
      </trkpt>
      <trkpt lat="44.57147" lon="2.32757">
        <ele>558</ele>
        <time>2015-08-25T10:32:42Z</time>
      </trkpt>
      <trkpt lat="44.57141" lon="2.32757">
        <ele>557</ele>
        <time>2015-08-25T10:32:48Z</time>
      </trkpt>
      <trkpt lat="44.57135" lon="2.32756">
        <ele>557</ele>
        <time>2015-08-25T10:32:56Z</time>
      </trkpt>
      <trkpt lat="44.57124" lon="2.32759">
        <ele>559</ele>
        <time>2015-08-25T10:33:07Z</time>
      </trkpt>
      <trkpt lat="44.57119" lon="2.32758">
        <ele>557</ele>
        <time>2015-08-25T10:33:14Z</time>
      </trkpt>
      <trkpt lat="44.5711" lon="2.32754">
        <ele>554</ele>
        <time>2015-08-25T10:33:25Z</time>
      </trkpt>
      <trkpt lat="44.57099" lon="2.32753">
        <ele>552</ele>
        <time>2015-08-25T10:33:35Z</time>
      </trkpt>
      <trkpt lat="44.57093" lon="2.32753">
        <ele>555</ele>
        <time>2015-08-25T10:33:42Z</time>
      </trkpt>
      <trkpt lat="44.57089" lon="2.3275">
        <ele>556</ele>
        <time>2015-08-25T10:33:49Z</time>
      </trkpt>
      <trkpt lat="44.57085" lon="2.32747">
        <ele>554</ele>
        <time>2015-08-25T10:33:56Z</time>
      </trkpt>
      <trkpt lat="44.57076" lon="2.32742">
        <ele>559</ele>
        <time>2015-08-25T10:34:05Z</time>
      </trkpt>
      <trkpt lat="44.57072" lon="2.32738">
        <ele>562</ele>
        <time>2015-08-25T10:34:30Z</time>
      </trkpt>
      <trkpt lat="44.57067" lon="2.32737">
        <ele>566</ele>
        <time>2015-08-25T10:34:36Z</time>
      </trkpt>
      <trkpt lat="44.57061" lon="2.32734">
        <ele>565</ele>
        <time>2015-08-25T10:35:08Z</time>
      </trkpt>
      <trkpt lat="44.57053" lon="2.32729">
        <ele>566</ele>
        <time>2015-08-25T10:35:17Z</time>
      </trkpt>
      <trkpt lat="44.57044" lon="2.32725">
        <ele>568</ele>
        <time>2015-08-25T10:35:27Z</time>
      </trkpt>
      <trkpt lat="44.57042" lon="2.32719">
        <ele>562</ele>
        <time>2015-08-25T10:35:33Z</time>
      </trkpt>
      <trkpt lat="44.57036" lon="2.32718">
        <ele>567</ele>
        <time>2015-08-25T10:35:42Z</time>
      </trkpt>
      <trkpt lat="44.57027" lon="2.32712">
        <ele>571</ele>
        <time>2015-08-25T10:35:51Z</time>
      </trkpt>
      <trkpt lat="44.57016" lon="2.32709">
        <ele>564</ele>
        <time>2015-08-25T10:36:02Z</time>
      </trkpt>
      <trkpt lat="44.57011" lon="2.32708">
        <ele>564</ele>
        <time>2015-08-25T10:36:09Z</time>
      </trkpt>
      <trkpt lat="44.57001" lon="2.32709">
        <ele>568</ele>
        <time>2015-08-25T10:36:19Z</time>
      </trkpt>
      <trkpt lat="44.56991" lon="2.32714">
        <ele>572</ele>
        <time>2015-08-25T10:36:30Z</time>
      </trkpt>
      <trkpt lat="44.56982" lon="2.32718">
        <ele>571</ele>
        <time>2015-08-25T10:36:39Z</time>
      </trkpt>
      <trkpt lat="44.56977" lon="2.32722">
        <ele>571</ele>
        <time>2015-08-25T10:36:50Z</time>
      </trkpt>
      <trkpt lat="44.5697" lon="2.32724">
        <ele>569</ele>
        <time>2015-08-25T10:36:57Z</time>
      </trkpt>
      <trkpt lat="44.56964" lon="2.32725">
        <ele>570</ele>
        <time>2015-08-25T10:37:04Z</time>
      </trkpt>
      <trkpt lat="44.56955" lon="2.32728">
        <ele>569</ele>
        <time>2015-08-25T10:37:12Z</time>
      </trkpt>
      <trkpt lat="44.56945" lon="2.32735">
        <ele>577</ele>
        <time>2015-08-25T10:37:18Z</time>
      </trkpt>
      <trkpt lat="44.56936" lon="2.32738">
        <ele>576</ele>
        <time>2015-08-25T10:37:32Z</time>
      </trkpt>
      <trkpt lat="44.56926" lon="2.3274">
        <ele>576</ele>
        <time>2015-08-25T10:37:40Z</time>
      </trkpt>
      <trkpt lat="44.56917" lon="2.32743">
        <ele>578</ele>
        <time>2015-08-25T10:37:48Z</time>
      </trkpt>
      <trkpt lat="44.56908" lon="2.32741">
        <ele>578</ele>
        <time>2015-08-25T10:37:56Z</time>
      </trkpt>
      <trkpt lat="44.56903" lon="2.32738">
        <ele>574</ele>
        <time>2015-08-25T10:38:02Z</time>
      </trkpt>
      <trkpt lat="44.56893" lon="2.32737">
        <ele>577</ele>
        <time>2015-08-25T10:38:12Z</time>
      </trkpt>
      <trkpt lat="44.56888" lon="2.32735">
        <ele>576</ele>
        <time>2015-08-25T10:38:19Z</time>
      </trkpt>
      <trkpt lat="44.56887" lon="2.32725">
        <ele>578</ele>
        <time>2015-08-25T10:38:33Z</time>
      </trkpt>
      <trkpt lat="44.56892" lon="2.32725">
        <ele>578</ele>
        <time>2015-08-25T10:38:40Z</time>
      </trkpt>
      <trkpt lat="44.56901" lon="2.32726">
        <ele>581</ele>
        <time>2015-08-25T10:38:57Z</time>
      </trkpt>
      <trkpt lat="44.56906" lon="2.32725">
        <ele>582</ele>
        <time>2015-08-25T10:42:54Z</time>
      </trkpt>
      <trkpt lat="44.56913" lon="2.32723">
        <ele>584</ele>
        <time>2015-08-25T10:43:02Z</time>
      </trkpt>
      <trkpt lat="44.56923" lon="2.3272">
        <ele>589</ele>
        <time>2015-08-25T10:43:13Z</time>
      </trkpt>
      <trkpt lat="44.56927" lon="2.32715">
        <ele>591</ele>
        <time>2015-08-25T10:43:20Z</time>
      </trkpt>
      <trkpt lat="44.56933" lon="2.32706">
        <ele>588</ele>
        <time>2015-08-25T10:43:28Z</time>
      </trkpt>
      <trkpt lat="44.56937" lon="2.32701">
        <ele>584</ele>
        <time>2015-08-25T10:43:34Z</time>
      </trkpt>
      <trkpt lat="44.56942" lon="2.32698">
        <ele>589</ele>
        <time>2015-08-25T10:43:41Z</time>
      </trkpt>
      <trkpt lat="44.56947" lon="2.32694">
        <ele>592</ele>
        <time>2015-08-25T10:43:48Z</time>
      </trkpt>
      <trkpt lat="44.5695" lon="2.32688">
        <ele>595</ele>
        <time>2015-08-25T10:43:54Z</time>
      </trkpt>
      <trkpt lat="44.56957" lon="2.32681">
        <ele>592</ele>
        <time>2015-08-25T10:44:02Z</time>
      </trkpt>
      <trkpt lat="44.56965" lon="2.32673">
        <ele>595</ele>
        <time>2015-08-25T10:44:10Z</time>
      </trkpt>
      <trkpt lat="44.56975" lon="2.32666">
        <ele>595</ele>
        <time>2015-08-25T10:44:23Z</time>
      </trkpt>
      <trkpt lat="44.56985" lon="2.3266">
        <ele>589</ele>
        <time>2015-08-25T10:44:33Z</time>
      </trkpt>
      <trkpt lat="44.56989" lon="2.32657">
        <ele>588</ele>
        <time>2015-08-25T10:44:40Z</time>
      </trkpt>
      <trkpt lat="44.56995" lon="2.32656">
        <ele>588</ele>
        <time>2015-08-25T10:44:47Z</time>
      </trkpt>
      <trkpt lat="44.57005" lon="2.32653">
        <ele>590</ele>
        <time>2015-08-25T10:44:55Z</time>
      </trkpt>
      <trkpt lat="44.57011" lon="2.3265">
        <ele>589</ele>
        <time>2015-08-25T10:45:01Z</time>
      </trkpt>
      <trkpt lat="44.57021" lon="2.32645">
        <ele>587</ele>
        <time>2015-08-25T10:45:12Z</time>
      </trkpt>
      <trkpt lat="44.57031" lon="2.32642">
        <ele>589</ele>
        <time>2015-08-25T10:45:20Z</time>
      </trkpt>
      <trkpt lat="44.5704" lon="2.32637">
        <ele>593</ele>
        <time>2015-08-25T10:45:30Z</time>
      </trkpt>
      <trkpt lat="44.57043" lon="2.32631">
        <ele>594</ele>
        <time>2015-08-25T10:45:36Z</time>
      </trkpt>
      <trkpt lat="44.57051" lon="2.32623">
        <ele>595</ele>
        <time>2015-08-25T10:45:44Z</time>
      </trkpt>
      <trkpt lat="44.57054" lon="2.32617">
        <ele>596</ele>
        <time>2015-08-25T10:45:50Z</time>
      </trkpt>
      <trkpt lat="44.57059" lon="2.32611">
        <ele>596</ele>
        <time>2015-08-25T10:45:56Z</time>
      </trkpt>
      <trkpt lat="44.57066" lon="2.326">
        <ele>598</ele>
        <time>2015-08-25T10:46:06Z</time>
      </trkpt>
      <trkpt lat="44.57069" lon="2.32596">
        <ele>597</ele>
        <time>2015-08-25T10:46:21Z</time>
      </trkpt>
      <trkpt lat="44.57074" lon="2.32584">
        <ele>598</ele>
        <time>2015-08-25T10:46:31Z</time>
      </trkpt>
      <trkpt lat="44.57079" lon="2.32572">
        <ele>599</ele>
        <time>2015-08-25T10:46:41Z</time>
      </trkpt>
      <trkpt lat="44.5708" lon="2.32566">
        <ele>599</ele>
        <time>2015-08-25T10:46:47Z</time>
      </trkpt>
      <trkpt lat="44.57081" lon="2.32559">
        <ele>599</ele>
        <time>2015-08-25T10:47:12Z</time>
      </trkpt>
      <trkpt lat="44.57082" lon="2.32546">
        <ele>600</ele>
        <time>2015-08-25T10:47:22Z</time>
      </trkpt>
      <trkpt lat="44.57083" lon="2.32531">
        <ele>600</ele>
        <time>2015-08-25T10:47:32Z</time>
      </trkpt>
      <trkpt lat="44.57082" lon="2.32518">
        <ele>601</ele>
        <time>2015-08-25T10:47:43Z</time>
      </trkpt>
      <trkpt lat="44.57087" lon="2.32526">
        <ele>600</ele>
        <time>2015-08-25T10:48:57Z</time>
      </trkpt>
      <trkpt lat="44.57088" lon="2.32519">
        <ele>593</ele>
        <time>2015-08-25T11:13:57Z</time>
      </trkpt>
      <trkpt lat="44.57086" lon="2.32526">
        <ele>595</ele>
        <time>2015-08-25T11:16:57Z</time>
      </trkpt>
      <trkpt lat="44.57091" lon="2.32527">
        <ele>593</ele>
        <time>2015-08-25T11:32:57Z</time>
      </trkpt>
      <trkpt lat="44.57086" lon="2.32519">
        <ele>593</ele>
        <time>2015-08-25T11:34:09Z</time>
      </trkpt>
      <trkpt lat="44.5708" lon="2.32508">
        <ele>593</ele>
        <time>2015-08-25T11:34:16Z</time>
      </trkpt>
      <trkpt lat="44.57079" lon="2.32499">
        <ele>593</ele>
        <time>2015-08-25T11:34:40Z</time>
      </trkpt>
      <trkpt lat="44.57082" lon="2.32487">
        <ele>593</ele>
        <time>2015-08-25T11:34:53Z</time>
      </trkpt>
      <trkpt lat="44.57086" lon="2.32476">
        <ele>593</ele>
        <time>2015-08-25T11:35:03Z</time>
      </trkpt>
      <trkpt lat="44.57088" lon="2.3247">
        <ele>592</ele>
        <time>2015-08-25T11:35:09Z</time>
      </trkpt>
      <trkpt lat="44.57093" lon="2.32458">
        <ele>591</ele>
        <time>2015-08-25T11:35:20Z</time>
      </trkpt>
      <trkpt lat="44.57096" lon="2.32445">
        <ele>591</ele>
        <time>2015-08-25T11:35:30Z</time>
      </trkpt>
      <trkpt lat="44.57097" lon="2.32438">
        <ele>591</ele>
        <time>2015-08-25T11:35:36Z</time>
      </trkpt>
      <trkpt lat="44.57101" lon="2.32426">
        <ele>593</ele>
        <time>2015-08-25T11:35:46Z</time>
      </trkpt>
      <trkpt lat="44.57109" lon="2.32419">
        <ele>594</ele>
        <time>2015-08-25T11:35:56Z</time>
      </trkpt>
      <trkpt lat="44.57115" lon="2.32419">
        <ele>594</ele>
        <time>2015-08-25T11:36:02Z</time>
      </trkpt>
      <trkpt lat="44.57125" lon="2.32417">
        <ele>592</ele>
        <time>2015-08-25T11:36:12Z</time>
      </trkpt>
      <trkpt lat="44.57129" lon="2.3242">
        <ele>592</ele>
        <time>2015-08-25T11:36:18Z</time>
      </trkpt>
      <trkpt lat="44.57134" lon="2.32419">
        <ele>593</ele>
        <time>2015-08-25T11:36:26Z</time>
      </trkpt>
      <trkpt lat="44.57139" lon="2.32419">
        <ele>592</ele>
        <time>2015-08-25T11:36:32Z</time>
      </trkpt>
      <trkpt lat="44.57135" lon="2.32424">
        <ele>594</ele>
        <time>2015-08-25T11:36:51Z</time>
      </trkpt>
      <trkpt lat="44.57129" lon="2.32422">
        <ele>590</ele>
        <time>2015-08-25T11:36:57Z</time>
      </trkpt>
      <trkpt lat="44.57124" lon="2.3242">
        <ele>591</ele>
        <time>2015-08-25T11:37:04Z</time>
      </trkpt>
      <trkpt lat="44.57115" lon="2.32421">
        <ele>591</ele>
        <time>2015-08-25T11:37:12Z</time>
      </trkpt>
      <trkpt lat="44.57105" lon="2.32426">
        <ele>591</ele>
        <time>2015-08-25T11:37:22Z</time>
      </trkpt>
      <trkpt lat="44.57099" lon="2.32437">
        <ele>591</ele>
        <time>2015-08-25T11:37:31Z</time>
      </trkpt>
      <trkpt lat="44.57097" lon="2.3245">
        <ele>592</ele>
        <time>2015-08-25T11:37:39Z</time>
      </trkpt>
      <trkpt lat="44.57093" lon="2.32463">
        <ele>593</ele>
        <time>2015-08-25T11:37:48Z</time>
      </trkpt>
      <trkpt lat="44.57089" lon="2.32475">
        <ele>593</ele>
        <time>2015-08-25T11:37:56Z</time>
      </trkpt>
      <trkpt lat="44.57083" lon="2.32488">
        <ele>594</ele>
        <time>2015-08-25T11:38:05Z</time>
      </trkpt>
      <trkpt lat="44.57076" lon="2.32498">
        <ele>594</ele>
        <time>2015-08-25T11:38:14Z</time>
      </trkpt>
      <trkpt lat="44.57067" lon="2.32504">
        <ele>595</ele>
        <time>2015-08-25T11:38:23Z</time>
      </trkpt>
      <trkpt lat="44.57059" lon="2.32511">
        <ele>596</ele>
        <time>2015-08-25T11:38:32Z</time>
      </trkpt>
      <trkpt lat="44.57051" lon="2.32519">
        <ele>596</ele>
        <time>2015-08-25T11:38:42Z</time>
      </trkpt>
      <trkpt lat="44.57042" lon="2.32527">
        <ele>596</ele>
        <time>2015-08-25T11:38:51Z</time>
      </trkpt>
      <trkpt lat="44.57036" lon="2.3253">
        <ele>597</ele>
        <time>2015-08-25T11:38:57Z</time>
      </trkpt>
      <trkpt lat="44.57027" lon="2.32533">
        <ele>598</ele>
        <time>2015-08-25T11:39:05Z</time>
      </trkpt>
      <trkpt lat="44.57017" lon="2.32538">
        <ele>598</ele>
        <time>2015-08-25T11:39:14Z</time>
      </trkpt>
      <trkpt lat="44.57012" lon="2.3254">
        <ele>598</ele>
        <time>2015-08-25T11:39:20Z</time>
      </trkpt>
      <trkpt lat="44.57004" lon="2.32546">
        <ele>599</ele>
        <time>2015-08-25T11:39:28Z</time>
      </trkpt>
      <trkpt lat="44.56995" lon="2.32551">
        <ele>600</ele>
        <time>2015-08-25T11:39:37Z</time>
      </trkpt>
      <trkpt lat="44.56984" lon="2.32554">
        <ele>599</ele>
        <time>2015-08-25T11:39:45Z</time>
      </trkpt>
      <trkpt lat="44.56974" lon="2.32559">
        <ele>600</ele>
        <time>2015-08-25T11:39:54Z</time>
      </trkpt>
      <trkpt lat="44.56966" lon="2.32559">
        <ele>600</ele>
        <time>2015-08-25T11:40:01Z</time>
      </trkpt>
      <trkpt lat="44.56955" lon="2.32556">
        <ele>600</ele>
        <time>2015-08-25T11:40:11Z</time>
      </trkpt>
      <trkpt lat="44.56946" lon="2.32552">
        <ele>601</ele>
        <time>2015-08-25T11:40:19Z</time>
      </trkpt>
      <trkpt lat="44.56937" lon="2.32548">
        <ele>604</ele>
        <time>2015-08-25T11:40:28Z</time>
      </trkpt>
      <trkpt lat="44.56929" lon="2.32543">
        <ele>603</ele>
        <time>2015-08-25T11:40:37Z</time>
      </trkpt>
      <trkpt lat="44.56919" lon="2.32539">
        <ele>603</ele>
        <time>2015-08-25T11:40:47Z</time>
      </trkpt>
      <trkpt lat="44.56909" lon="2.32535">
        <ele>604</ele>
        <time>2015-08-25T11:40:55Z</time>
      </trkpt>
      <trkpt lat="44.56902" lon="2.3253">
        <ele>605</ele>
        <time>2015-08-25T11:41:02Z</time>
      </trkpt>
      <trkpt lat="44.56892" lon="2.32526">
        <ele>606</ele>
        <time>2015-08-25T11:41:11Z</time>
      </trkpt>
      <trkpt lat="44.56883" lon="2.3252">
        <ele>608</ele>
        <time>2015-08-25T11:41:21Z</time>
      </trkpt>
      <trkpt lat="44.56873" lon="2.32515">
        <ele>608</ele>
        <time>2015-08-25T11:41:30Z</time>
      </trkpt>
      <trkpt lat="44.56863" lon="2.3251">
        <ele>606</ele>
        <time>2015-08-25T11:41:40Z</time>
      </trkpt>
      <trkpt lat="44.56854" lon="2.32505">
        <ele>607</ele>
        <time>2015-08-25T11:41:48Z</time>
      </trkpt>
      <trkpt lat="44.56845" lon="2.32499">
        <ele>610</ele>
        <time>2015-08-25T11:41:56Z</time>
      </trkpt>
      <trkpt lat="44.56835" lon="2.32493">
        <ele>610</ele>
        <time>2015-08-25T11:42:05Z</time>
      </trkpt>
      <trkpt lat="44.56826" lon="2.32488">
        <ele>610</ele>
        <time>2015-08-25T11:42:14Z</time>
      </trkpt>
      <trkpt lat="44.56816" lon="2.32481">
        <ele>608</ele>
        <time>2015-08-25T11:42:24Z</time>
      </trkpt>
      <trkpt lat="44.56808" lon="2.32473">
        <ele>609</ele>
        <time>2015-08-25T11:42:33Z</time>
      </trkpt>
      <trkpt lat="44.568" lon="2.32463">
        <ele>611</ele>
        <time>2015-08-25T11:42:43Z</time>
      </trkpt>
      <trkpt lat="44.56792" lon="2.32455">
        <ele>611</ele>
        <time>2015-08-25T11:42:51Z</time>
      </trkpt>
      <trkpt lat="44.56787" lon="2.3245">
        <ele>612</ele>
        <time>2015-08-25T11:42:57Z</time>
      </trkpt>
      <trkpt lat="44.5678" lon="2.32441">
        <ele>614</ele>
        <time>2015-08-25T11:43:06Z</time>
      </trkpt>
      <trkpt lat="44.56773" lon="2.32431">
        <ele>613</ele>
        <time>2015-08-25T11:43:14Z</time>
      </trkpt>
      <trkpt lat="44.56766" lon="2.32421">
        <ele>615</ele>
        <time>2015-08-25T11:43:24Z</time>
      </trkpt>
      <trkpt lat="44.5676" lon="2.32411">
        <ele>616</ele>
        <time>2015-08-25T11:43:32Z</time>
      </trkpt>
      <trkpt lat="44.56752" lon="2.32402">
        <ele>617</ele>
        <time>2015-08-25T11:43:42Z</time>
      </trkpt>
      <trkpt lat="44.56743" lon="2.32394">
        <ele>615</ele>
        <time>2015-08-25T11:43:51Z</time>
      </trkpt>
      <trkpt lat="44.56738" lon="2.32389">
        <ele>615</ele>
        <time>2015-08-25T11:43:57Z</time>
      </trkpt>
      <trkpt lat="44.5673" lon="2.32383">
        <ele>616</ele>
        <time>2015-08-25T11:44:06Z</time>
      </trkpt>
      <trkpt lat="44.56725" lon="2.3238">
        <ele>616</ele>
        <time>2015-08-25T11:44:12Z</time>
      </trkpt>
      <trkpt lat="44.56716" lon="2.32375">
        <ele>616</ele>
        <time>2015-08-25T11:44:21Z</time>
      </trkpt>
      <trkpt lat="44.56707" lon="2.32368">
        <ele>618</ele>
        <time>2015-08-25T11:44:30Z</time>
      </trkpt>
      <trkpt lat="44.56702" lon="2.32365">
        <ele>620</ele>
        <time>2015-08-25T11:44:36Z</time>
      </trkpt>
      <trkpt lat="44.56693" lon="2.32361">
        <ele>621</ele>
        <time>2015-08-25T11:44:45Z</time>
      </trkpt>
      <trkpt lat="44.56683" lon="2.32355">
        <ele>621</ele>
        <time>2015-08-25T11:44:55Z</time>
      </trkpt>
      <trkpt lat="44.56676" lon="2.32351">
        <ele>622</ele>
        <time>2015-08-25T11:45:01Z</time>
      </trkpt>
      <trkpt lat="44.56667" lon="2.32346">
        <ele>621</ele>
        <time>2015-08-25T11:45:11Z</time>
      </trkpt>
      <trkpt lat="44.56663" lon="2.32342">
        <ele>622</ele>
        <time>2015-08-25T11:45:17Z</time>
      </trkpt>
      <trkpt lat="44.56654" lon="2.32337">
        <ele>624</ele>
        <time>2015-08-25T11:45:26Z</time>
      </trkpt>
      <trkpt lat="44.56644" lon="2.32333">
        <ele>625</ele>
        <time>2015-08-25T11:45:35Z</time>
      </trkpt>
      <trkpt lat="44.56636" lon="2.32327">
        <ele>625</ele>
        <time>2015-08-25T11:45:43Z</time>
      </trkpt>
      <trkpt lat="44.56627" lon="2.32321">
        <ele>625</ele>
        <time>2015-08-25T11:45:53Z</time>
      </trkpt>
      <trkpt lat="44.56619" lon="2.32317">
        <ele>624</ele>
        <time>2015-08-25T11:46:01Z</time>
      </trkpt>
      <trkpt lat="44.5661" lon="2.3231">
        <ele>627</ele>
        <time>2015-08-25T11:46:10Z</time>
      </trkpt>
      <trkpt lat="44.56607" lon="2.32298">
        <ele>627</ele>
        <time>2015-08-25T11:46:49Z</time>
      </trkpt>
      <trkpt lat="44.56604" lon="2.32292">
        <ele>627</ele>
        <time>2015-08-25T11:46:55Z</time>
      </trkpt>
      <trkpt lat="44.56604" lon="2.32285">
        <ele>628</ele>
        <time>2015-08-25T11:47:57Z</time>
      </trkpt>
      <trkpt lat="44.56604" lon="2.32272">
        <ele>628</ele>
        <time>2015-08-25T11:49:35Z</time>
      </trkpt>
      <trkpt lat="44.56604" lon="2.32259">
        <ele>626</ele>
        <time>2015-08-25T11:49:43Z</time>
      </trkpt>
      <trkpt lat="44.56605" lon="2.32244">
        <ele>628</ele>
        <time>2015-08-25T11:49:51Z</time>
      </trkpt>
      <trkpt lat="44.56605" lon="2.32234">
        <ele>625</ele>
        <time>2015-08-25T11:49:57Z</time>
      </trkpt>
      <trkpt lat="44.56605" lon="2.32219">
        <ele>628</ele>
        <time>2015-08-25T11:50:05Z</time>
      </trkpt>
      <trkpt lat="44.56606" lon="2.32207">
        <ele>629</ele>
        <time>2015-08-25T11:50:13Z</time>
      </trkpt>
      <trkpt lat="44.56608" lon="2.32192">
        <ele>628</ele>
        <time>2015-08-25T11:50:23Z</time>
      </trkpt>
      <trkpt lat="44.5661" lon="2.32179">
        <ele>630</ele>
        <time>2015-08-25T11:50:31Z</time>
      </trkpt>
      <trkpt lat="44.56612" lon="2.32166">
        <ele>630</ele>
        <time>2015-08-25T11:50:39Z</time>
      </trkpt>
      <trkpt lat="44.56615" lon="2.32152">
        <ele>629</ele>
        <time>2015-08-25T11:50:47Z</time>
      </trkpt>
      <trkpt lat="44.56616" lon="2.32136">
        <ele>630</ele>
        <time>2015-08-25T11:50:56Z</time>
      </trkpt>
      <trkpt lat="44.56618" lon="2.3212">
        <ele>629</ele>
        <time>2015-08-25T11:51:05Z</time>
      </trkpt>
      <trkpt lat="44.56622" lon="2.32107">
        <ele>627</ele>
        <time>2015-08-25T11:51:14Z</time>
      </trkpt>
      <trkpt lat="44.56625" lon="2.32093">
        <ele>627</ele>
        <time>2015-08-25T11:51:22Z</time>
      </trkpt>
      <trkpt lat="44.56628" lon="2.32079">
        <ele>625</ele>
        <time>2015-08-25T11:51:32Z</time>
      </trkpt>
      <trkpt lat="44.5663" lon="2.32065">
        <ele>626</ele>
        <time>2015-08-25T11:51:40Z</time>
      </trkpt>
      <trkpt lat="44.56632" lon="2.32051">
        <ele>627</ele>
        <time>2015-08-25T11:51:48Z</time>
      </trkpt>
      <trkpt lat="44.56634" lon="2.32038">
        <ele>628</ele>
        <time>2015-08-25T11:51:56Z</time>
      </trkpt>
      <trkpt lat="44.56638" lon="2.32023">
        <ele>628</ele>
        <time>2015-08-25T11:52:05Z</time>
      </trkpt>
      <trkpt lat="44.5664" lon="2.3201">
        <ele>627</ele>
        <time>2015-08-25T11:52:13Z</time>
      </trkpt>
      <trkpt lat="44.56641" lon="2.31996">
        <ele>629</ele>
        <time>2015-08-25T11:52:21Z</time>
      </trkpt>
      <trkpt lat="44.56643" lon="2.31981">
        <ele>627</ele>
        <time>2015-08-25T11:52:29Z</time>
      </trkpt>
      <trkpt lat="44.56647" lon="2.31968">
        <ele>626</ele>
        <time>2015-08-25T11:52:38Z</time>
      </trkpt>
      <trkpt lat="44.56653" lon="2.31956">
        <ele>627</ele>
        <time>2015-08-25T11:52:46Z</time>
      </trkpt>
      <trkpt lat="44.56657" lon="2.31952">
        <ele>628</ele>
        <time>2015-08-25T11:52:52Z</time>
      </trkpt>
      <trkpt lat="44.56668" lon="2.31943">
        <ele>629</ele>
        <time>2015-08-25T11:53:02Z</time>
      </trkpt>
      <trkpt lat="44.56678" lon="2.31938">
        <ele>628</ele>
        <time>2015-08-25T11:53:10Z</time>
      </trkpt>
      <trkpt lat="44.56687" lon="2.31931">
        <ele>626</ele>
        <time>2015-08-25T11:53:19Z</time>
      </trkpt>
      <trkpt lat="44.56696" lon="2.31925">
        <ele>623</ele>
        <time>2015-08-25T11:53:28Z</time>
      </trkpt>
      <trkpt lat="44.56705" lon="2.31919">
        <ele>624</ele>
        <time>2015-08-25T11:53:37Z</time>
      </trkpt>
      <trkpt lat="44.56715" lon="2.31913">
        <ele>625</ele>
        <time>2015-08-25T11:53:46Z</time>
      </trkpt>
      <trkpt lat="44.56724" lon="2.31908">
        <ele>624</ele>
        <time>2015-08-25T11:53:56Z</time>
      </trkpt>
      <trkpt lat="44.56729" lon="2.31904">
        <ele>623</ele>
        <time>2015-08-25T11:54:02Z</time>
      </trkpt>
      <trkpt lat="44.56737" lon="2.31897">
        <ele>624</ele>
        <time>2015-08-25T11:54:09Z</time>
      </trkpt>
      <trkpt lat="44.56746" lon="2.31889">
        <ele>623</ele>
        <time>2015-08-25T11:54:17Z</time>
      </trkpt>
      <trkpt lat="44.56755" lon="2.31882">
        <ele>624</ele>
        <time>2015-08-25T11:54:26Z</time>
      </trkpt>
      <trkpt lat="44.56763" lon="2.31873">
        <ele>624</ele>
        <time>2015-08-25T11:54:35Z</time>
      </trkpt>
      <trkpt lat="44.5677" lon="2.31863">
        <ele>624</ele>
        <time>2015-08-25T11:54:43Z</time>
      </trkpt>
      <trkpt lat="44.56776" lon="2.31853">
        <ele>622</ele>
        <time>2015-08-25T11:54:51Z</time>
      </trkpt>
      <trkpt lat="44.56782" lon="2.31846">
        <ele>622</ele>
        <time>2015-08-25T11:54:57Z</time>
      </trkpt>
      <trkpt lat="44.56788" lon="2.31835">
        <ele>621</ele>
        <time>2015-08-25T11:55:06Z</time>
      </trkpt>
      <trkpt lat="44.56796" lon="2.31826">
        <ele>621</ele>
        <time>2015-08-25T11:55:14Z</time>
      </trkpt>
      <trkpt lat="44.56802" lon="2.31815">
        <ele>619</ele>
        <time>2015-08-25T11:55:22Z</time>
      </trkpt>
      <trkpt lat="44.56809" lon="2.31806">
        <ele>619</ele>
        <time>2015-08-25T11:55:30Z</time>
      </trkpt>
      <trkpt lat="44.56816" lon="2.31797">
        <ele>618</ele>
        <time>2015-08-25T11:55:38Z</time>
      </trkpt>
      <trkpt lat="44.56824" lon="2.31787">
        <ele>620</ele>
        <time>2015-08-25T11:55:49Z</time>
      </trkpt>
      <trkpt lat="44.56831" lon="2.31784">
        <ele>617</ele>
        <time>2015-08-25T11:55:56Z</time>
      </trkpt>
      <trkpt lat="44.56836" lon="2.31782">
        <ele>619</ele>
        <time>2015-08-25T11:56:03Z</time>
      </trkpt>
      <trkpt lat="44.56847" lon="2.31781">
        <ele>620</ele>
        <time>2015-08-25T11:56:11Z</time>
      </trkpt>
      <trkpt lat="44.56857" lon="2.31782">
        <ele>620</ele>
        <time>2015-08-25T11:56:20Z</time>
      </trkpt>
      <trkpt lat="44.56867" lon="2.31783">
        <ele>620</ele>
        <time>2015-08-25T11:56:29Z</time>
      </trkpt>
      <trkpt lat="44.56878" lon="2.31784">
        <ele>621</ele>
        <time>2015-08-25T11:56:38Z</time>
      </trkpt>
      <trkpt lat="44.56888" lon="2.31786">
        <ele>621</ele>
        <time>2015-08-25T11:56:46Z</time>
      </trkpt>
      <trkpt lat="44.569" lon="2.31786">
        <ele>619</ele>
        <time>2015-08-25T11:56:54Z</time>
      </trkpt>
      <trkpt lat="44.56908" lon="2.31787">
        <ele>618</ele>
        <time>2015-08-25T11:57:01Z</time>
      </trkpt>
      <trkpt lat="44.56918" lon="2.31787">
        <ele>618</ele>
        <time>2015-08-25T11:57:10Z</time>
      </trkpt>
      <trkpt lat="44.56928" lon="2.31784">
        <ele>620</ele>
        <time>2015-08-25T11:57:19Z</time>
      </trkpt>
      <trkpt lat="44.56939" lon="2.31782">
        <ele>621</ele>
        <time>2015-08-25T11:57:27Z</time>
      </trkpt>
      <trkpt lat="44.5695" lon="2.31778">
        <ele>620</ele>
        <time>2015-08-25T11:57:37Z</time>
      </trkpt>
      <trkpt lat="44.56955" lon="2.31768">
        <ele>619</ele>
        <time>2015-08-25T11:57:45Z</time>
      </trkpt>
      <trkpt lat="44.56961" lon="2.31759">
        <ele>616</ele>
        <time>2015-08-25T11:57:52Z</time>
      </trkpt>
      <trkpt lat="44.56959" lon="2.31743">
        <ele>617</ele>
        <time>2015-08-25T11:58:02Z</time>
      </trkpt>
      <trkpt lat="44.56952" lon="2.31734">
        <ele>620</ele>
        <time>2015-08-25T11:58:14Z</time>
      </trkpt>
      <trkpt lat="44.56943" lon="2.31728">
        <ele>619</ele>
        <time>2015-08-25T11:58:22Z</time>
      </trkpt>
      <trkpt lat="44.56934" lon="2.31723">
        <ele>618</ele>
        <time>2015-08-25T11:58:30Z</time>
      </trkpt>
      <trkpt lat="44.56924" lon="2.31718">
        <ele>617</ele>
        <time>2015-08-25T11:58:38Z</time>
      </trkpt>
      <trkpt lat="44.56915" lon="2.31711">
        <ele>615</ele>
        <time>2015-08-25T11:58:46Z</time>
      </trkpt>
      <trkpt lat="44.56907" lon="2.31706">
        <ele>614</ele>
        <time>2015-08-25T11:58:54Z</time>
      </trkpt>
      <trkpt lat="44.56899" lon="2.31697">
        <ele>614</ele>
        <time>2015-08-25T11:59:02Z</time>
      </trkpt>
      <trkpt lat="44.56892" lon="2.31686">
        <ele>612</ele>
        <time>2015-08-25T11:59:11Z</time>
      </trkpt>
      <trkpt lat="44.56886" lon="2.31677">
        <ele>614</ele>
        <time>2015-08-25T11:59:19Z</time>
      </trkpt>
      <trkpt lat="44.56879" lon="2.31666">
        <ele>614</ele>
        <time>2015-08-25T11:59:28Z</time>
      </trkpt>
      <trkpt lat="44.56875" lon="2.31653">
        <ele>613</ele>
        <time>2015-08-25T11:59:36Z</time>
      </trkpt>
      <trkpt lat="44.56872" lon="2.31639">
        <ele>613</ele>
        <time>2015-08-25T11:59:45Z</time>
      </trkpt>
      <trkpt lat="44.5687" lon="2.31625">
        <ele>615</ele>
        <time>2015-08-25T11:59:54Z</time>
      </trkpt>
      <trkpt lat="44.56868" lon="2.31613">
        <ele>614</ele>
        <time>2015-08-25T12:00:02Z</time>
      </trkpt>
      <trkpt lat="44.56867" lon="2.316">
        <ele>612</ele>
        <time>2015-08-25T12:00:11Z</time>
      </trkpt>
      <trkpt lat="44.56866" lon="2.31585">
        <ele>611</ele>
        <time>2015-08-25T12:00:19Z</time>
      </trkpt>
      <trkpt lat="44.56865" lon="2.31571">
        <ele>610</ele>
        <time>2015-08-25T12:00:28Z</time>
      </trkpt>
      <trkpt lat="44.5686" lon="2.31556">
        <ele>610</ele>
        <time>2015-08-25T12:00:37Z</time>
      </trkpt>
      <trkpt lat="44.56856" lon="2.31543">
        <ele>612</ele>
        <time>2015-08-25T12:00:46Z</time>
      </trkpt>
      <trkpt lat="44.56852" lon="2.3153">
        <ele>609</ele>
        <time>2015-08-25T12:00:54Z</time>
      </trkpt>
      <trkpt lat="44.56849" lon="2.31521">
        <ele>609</ele>
        <time>2015-08-25T12:01:01Z</time>
      </trkpt>
      <trkpt lat="44.56846" lon="2.31506">
        <ele>607</ele>
        <time>2015-08-25T12:01:11Z</time>
      </trkpt>
      <trkpt lat="44.56843" lon="2.31492">
        <ele>606</ele>
        <time>2015-08-25T12:01:20Z</time>
      </trkpt>
      <trkpt lat="44.5684" lon="2.31479">
        <ele>606</ele>
        <time>2015-08-25T12:01:29Z</time>
      </trkpt>
      <trkpt lat="44.56835" lon="2.31467">
        <ele>606</ele>
        <time>2015-08-25T12:01:38Z</time>
      </trkpt>
      <trkpt lat="44.56829" lon="2.31457">
        <ele>604</ele>
        <time>2015-08-25T12:01:47Z</time>
      </trkpt>
      <trkpt lat="44.56823" lon="2.31445">
        <ele>603</ele>
        <time>2015-08-25T12:01:56Z</time>
      </trkpt>
      <trkpt lat="44.56815" lon="2.31435">
        <ele>604</ele>
        <time>2015-08-25T12:02:05Z</time>
      </trkpt>
      <trkpt lat="44.56809" lon="2.31423">
        <ele>603</ele>
        <time>2015-08-25T12:02:14Z</time>
      </trkpt>
      <trkpt lat="44.56802" lon="2.31413">
        <ele>602</ele>
        <time>2015-08-25T12:02:22Z</time>
      </trkpt>
      <trkpt lat="44.56797" lon="2.31402">
        <ele>602</ele>
        <time>2015-08-25T12:02:30Z</time>
      </trkpt>
      <trkpt lat="44.56794" lon="2.31389">
        <ele>603</ele>
        <time>2015-08-25T12:02:39Z</time>
      </trkpt>
      <trkpt lat="44.56789" lon="2.31374">
        <ele>603</ele>
        <time>2015-08-25T12:02:48Z</time>
      </trkpt>
      <trkpt lat="44.56785" lon="2.31361">
        <ele>602</ele>
        <time>2015-08-25T12:02:57Z</time>
      </trkpt>
      <trkpt lat="44.56781" lon="2.31348">
        <ele>602</ele>
        <time>2015-08-25T12:03:06Z</time>
      </trkpt>
      <trkpt lat="44.56778" lon="2.31335">
        <ele>601</ele>
        <time>2015-08-25T12:03:15Z</time>
      </trkpt>
      <trkpt lat="44.56775" lon="2.31322">
        <ele>601</ele>
        <time>2015-08-25T12:03:24Z</time>
      </trkpt>
      <trkpt lat="44.56773" lon="2.31309">
        <ele>600</ele>
        <time>2015-08-25T12:03:33Z</time>
      </trkpt>
      <trkpt lat="44.56771" lon="2.31296">
        <ele>602</ele>
        <time>2015-08-25T12:03:41Z</time>
      </trkpt>
      <trkpt lat="44.5677" lon="2.31282">
        <ele>601</ele>
        <time>2015-08-25T12:03:49Z</time>
      </trkpt>
      <trkpt lat="44.5677" lon="2.31269">
        <ele>601</ele>
        <time>2015-08-25T12:03:57Z</time>
      </trkpt>
      <trkpt lat="44.56769" lon="2.31256">
        <ele>600</ele>
        <time>2015-08-25T12:04:06Z</time>
      </trkpt>
      <trkpt lat="44.56768" lon="2.31243">
        <ele>600</ele>
        <time>2015-08-25T12:04:14Z</time>
      </trkpt>
      <trkpt lat="44.56767" lon="2.31229">
        <ele>603</ele>
        <time>2015-08-25T12:04:22Z</time>
      </trkpt>
      <trkpt lat="44.56764" lon="2.31216">
        <ele>603</ele>
        <time>2015-08-25T12:04:30Z</time>
      </trkpt>
      <trkpt lat="44.56761" lon="2.31203">
        <ele>602</ele>
        <time>2015-08-25T12:04:38Z</time>
      </trkpt>
      <trkpt lat="44.56755" lon="2.31191">
        <ele>603</ele>
        <time>2015-08-25T12:04:47Z</time>
      </trkpt>
      <trkpt lat="44.56748" lon="2.31181">
        <ele>605</ele>
        <time>2015-08-25T12:04:56Z</time>
      </trkpt>
      <trkpt lat="44.5674" lon="2.31172">
        <ele>604</ele>
        <time>2015-08-25T12:05:05Z</time>
      </trkpt>
      <trkpt lat="44.56732" lon="2.31161">
        <ele>605</ele>
        <time>2015-08-25T12:05:15Z</time>
      </trkpt>
      <trkpt lat="44.56724" lon="2.31152">
        <ele>605</ele>
        <time>2015-08-25T12:05:24Z</time>
      </trkpt>
      <trkpt lat="44.56716" lon="2.31144">
        <ele>604</ele>
        <time>2015-08-25T12:05:32Z</time>
      </trkpt>
      <trkpt lat="44.56706" lon="2.31137">
        <ele>605</ele>
        <time>2015-08-25T12:05:41Z</time>
      </trkpt>
      <trkpt lat="44.56698" lon="2.31127">
        <ele>605</ele>
        <time>2015-08-25T12:05:50Z</time>
      </trkpt>
      <trkpt lat="44.56691" lon="2.31119">
        <ele>604</ele>
        <time>2015-08-25T12:05:57Z</time>
      </trkpt>
      <trkpt lat="44.56684" lon="2.3111">
        <ele>604</ele>
        <time>2015-08-25T12:06:05Z</time>
      </trkpt>
      <trkpt lat="44.56677" lon="2.31099">
        <ele>604</ele>
        <time>2015-08-25T12:06:13Z</time>
      </trkpt>
      <trkpt lat="44.5667" lon="2.31089">
        <ele>602</ele>
        <time>2015-08-25T12:06:21Z</time>
      </trkpt>
      <trkpt lat="44.56665" lon="2.31079">
        <ele>602</ele>
        <time>2015-08-25T12:06:29Z</time>
      </trkpt>
      <trkpt lat="44.56659" lon="2.31068">
        <ele>602</ele>
        <time>2015-08-25T12:06:37Z</time>
      </trkpt>
      <trkpt lat="44.56652" lon="2.31057">
        <ele>602</ele>
        <time>2015-08-25T12:06:46Z</time>
      </trkpt>
      <trkpt lat="44.56646" lon="2.31047">
        <ele>602</ele>
        <time>2015-08-25T12:06:54Z</time>
      </trkpt>
      <trkpt lat="44.5664" lon="2.31039">
        <ele>602</ele>
        <time>2015-08-25T12:07:01Z</time>
      </trkpt>
      <trkpt lat="44.56631" lon="2.3103">
        <ele>602</ele>
        <time>2015-08-25T12:07:09Z</time>
      </trkpt>
      <trkpt lat="44.56624" lon="2.3102">
        <ele>604</ele>
        <time>2015-08-25T12:07:17Z</time>
      </trkpt>
      <trkpt lat="44.56616" lon="2.31011">
        <ele>603</ele>
        <time>2015-08-25T12:07:26Z</time>
      </trkpt>
      <trkpt lat="44.56608" lon="2.31002">
        <ele>602</ele>
        <time>2015-08-25T12:07:34Z</time>
      </trkpt>
      <trkpt lat="44.56602" lon="2.30991">
        <ele>602</ele>
        <time>2015-08-25T12:07:42Z</time>
      </trkpt>
      <trkpt lat="44.56597" lon="2.30978">
        <ele>600</ele>
        <time>2015-08-25T12:07:51Z</time>
      </trkpt>
      <trkpt lat="44.56592" lon="2.3097">
        <ele>600</ele>
        <time>2015-08-25T12:07:57Z</time>
      </trkpt>
      <trkpt lat="44.56587" lon="2.3096">
        <ele>599</ele>
        <time>2015-08-25T12:08:05Z</time>
      </trkpt>
      <trkpt lat="44.56582" lon="2.30949">
        <ele>598</ele>
        <time>2015-08-25T12:08:13Z</time>
      </trkpt>
      <trkpt lat="44.56577" lon="2.30936">
        <ele>595</ele>
        <time>2015-08-25T12:08:22Z</time>
      </trkpt>
      <trkpt lat="44.56573" lon="2.30923">
        <ele>593</ele>
        <time>2015-08-25T12:08:30Z</time>
      </trkpt>
      <trkpt lat="44.56571" lon="2.3091">
        <ele>592</ele>
        <time>2015-08-25T12:08:38Z</time>
      </trkpt>
      <trkpt lat="44.56566" lon="2.30897">
        <ele>592</ele>
        <time>2015-08-25T12:08:46Z</time>
      </trkpt>
      <trkpt lat="44.56564" lon="2.30884">
        <ele>588</ele>
        <time>2015-08-25T12:08:55Z</time>
      </trkpt>
      <trkpt lat="44.56562" lon="2.30875">
        <ele>591</ele>
        <time>2015-08-25T12:09:01Z</time>
      </trkpt>
      <trkpt lat="44.5656" lon="2.30861">
        <ele>591</ele>
        <time>2015-08-25T12:09:09Z</time>
      </trkpt>
      <trkpt lat="44.56559" lon="2.30846">
        <ele>592</ele>
        <time>2015-08-25T12:09:19Z</time>
      </trkpt>
      <trkpt lat="44.56561" lon="2.30831">
        <ele>591</ele>
        <time>2015-08-25T12:09:28Z</time>
      </trkpt>
      <trkpt lat="44.56562" lon="2.30818">
        <ele>590</ele>
        <time>2015-08-25T12:09:36Z</time>
      </trkpt>
      <trkpt lat="44.56567" lon="2.30804">
        <ele>588</ele>
        <time>2015-08-25T12:09:46Z</time>
      </trkpt>
      <trkpt lat="44.56573" lon="2.30791">
        <ele>588</ele>
        <time>2015-08-25T12:09:56Z</time>
      </trkpt>
      <trkpt lat="44.56579" lon="2.3078">
        <ele>588</ele>
        <time>2015-08-25T12:10:05Z</time>
      </trkpt>
      <trkpt lat="44.56585" lon="2.30768">
        <ele>587</ele>
        <time>2015-08-25T12:10:14Z</time>
      </trkpt>
      <trkpt lat="44.56591" lon="2.30756">
        <ele>586</ele>
        <time>2015-08-25T12:10:23Z</time>
      </trkpt>
      <trkpt lat="44.56596" lon="2.30744">
        <ele>586</ele>
        <time>2015-08-25T12:10:33Z</time>
      </trkpt>
      <trkpt lat="44.56601" lon="2.30732">
        <ele>585</ele>
        <time>2015-08-25T12:10:41Z</time>
      </trkpt>
      <trkpt lat="44.56605" lon="2.30721">
        <ele>585</ele>
        <time>2015-08-25T12:10:49Z</time>
      </trkpt>
      <trkpt lat="44.5661" lon="2.30711">
        <ele>586</ele>
        <time>2015-08-25T12:10:57Z</time>
      </trkpt>
      <trkpt lat="44.56615" lon="2.30699">
        <ele>586</ele>
        <time>2015-08-25T12:11:05Z</time>
      </trkpt>
      <trkpt lat="44.56621" lon="2.30687">
        <ele>586</ele>
        <time>2015-08-25T12:11:14Z</time>
      </trkpt>
      <trkpt lat="44.56625" lon="2.30675">
        <ele>585</ele>
        <time>2015-08-25T12:11:23Z</time>
      </trkpt>
      <trkpt lat="44.5663" lon="2.30663">
        <ele>584</ele>
        <time>2015-08-25T12:11:32Z</time>
      </trkpt>
      <trkpt lat="44.56636" lon="2.30652">
        <ele>584</ele>
        <time>2015-08-25T12:11:41Z</time>
      </trkpt>
      <trkpt lat="44.56639" lon="2.30641">
        <ele>584</ele>
        <time>2015-08-25T12:11:57Z</time>
      </trkpt>
      <trkpt lat="44.56643" lon="2.30629">
        <ele>584</ele>
        <time>2015-08-25T12:16:32Z</time>
      </trkpt>
      <trkpt lat="44.56647" lon="2.30616">
        <ele>583</ele>
        <time>2015-08-25T12:16:40Z</time>
      </trkpt>
      <trkpt lat="44.5665" lon="2.30604">
        <ele>582</ele>
        <time>2015-08-25T12:16:48Z</time>
      </trkpt>
      <trkpt lat="44.5665" lon="2.30589">
        <ele>581</ele>
        <time>2015-08-25T12:16:57Z</time>
      </trkpt>
      <trkpt lat="44.56651" lon="2.30575">
        <ele>581</ele>
        <time>2015-08-25T12:17:06Z</time>
      </trkpt>
      <trkpt lat="44.56648" lon="2.30561">
        <ele>581</ele>
        <time>2015-08-25T12:17:15Z</time>
      </trkpt>
      <trkpt lat="44.56647" lon="2.30547">
        <ele>579</ele>
        <time>2015-08-25T12:17:23Z</time>
      </trkpt>
      <trkpt lat="44.56644" lon="2.30534">
        <ele>581</ele>
        <time>2015-08-25T12:17:32Z</time>
      </trkpt>
      <trkpt lat="44.56641" lon="2.30519">
        <ele>579</ele>
        <time>2015-08-25T12:17:41Z</time>
      </trkpt>
      <trkpt lat="44.5664" lon="2.30505">
        <ele>578</ele>
        <time>2015-08-25T12:17:50Z</time>
      </trkpt>
      <trkpt lat="44.56638" lon="2.30492">
        <ele>577</ele>
        <time>2015-08-25T12:17:57Z</time>
      </trkpt>
      <trkpt lat="44.56638" lon="2.30477">
        <ele>573</ele>
        <time>2015-08-25T12:18:06Z</time>
      </trkpt>
      <trkpt lat="44.56636" lon="2.30463">
        <ele>576</ele>
        <time>2015-08-25T12:18:14Z</time>
      </trkpt>
      <trkpt lat="44.56633" lon="2.30449">
        <ele>573</ele>
        <time>2015-08-25T12:18:23Z</time>
      </trkpt>
      <trkpt lat="44.56631" lon="2.30435">
        <ele>573</ele>
        <time>2015-08-25T12:18:31Z</time>
      </trkpt>
      <trkpt lat="44.5663" lon="2.3042">
        <ele>573</ele>
        <time>2015-08-25T12:18:41Z</time>
      </trkpt>
      <trkpt lat="44.56627" lon="2.30406">
        <ele>573</ele>
        <time>2015-08-25T12:18:50Z</time>
      </trkpt>
      <trkpt lat="44.56626" lon="2.30394">
        <ele>573</ele>
        <time>2015-08-25T12:18:57Z</time>
      </trkpt>
      <trkpt lat="44.56623" lon="2.3038">
        <ele>572</ele>
        <time>2015-08-25T12:19:06Z</time>
      </trkpt>
      <trkpt lat="44.5662" lon="2.30366">
        <ele>572</ele>
        <time>2015-08-25T12:19:14Z</time>
      </trkpt>
      <trkpt lat="44.56618" lon="2.30352">
        <ele>571</ele>
        <time>2015-08-25T12:19:22Z</time>
      </trkpt>
      <trkpt lat="44.56614" lon="2.30339">
        <ele>571</ele>
        <time>2015-08-25T12:19:31Z</time>
      </trkpt>
      <trkpt lat="44.56611" lon="2.30326">
        <ele>571</ele>
        <time>2015-08-25T12:19:40Z</time>
      </trkpt>
      <trkpt lat="44.56609" lon="2.30311">
        <ele>571</ele>
        <time>2015-08-25T12:19:49Z</time>
      </trkpt>
      <trkpt lat="44.56607" lon="2.30298">
        <ele>571</ele>
        <time>2015-08-25T12:19:56Z</time>
      </trkpt>
      <trkpt lat="44.56605" lon="2.30283">
        <ele>570</ele>
        <time>2015-08-25T12:20:05Z</time>
      </trkpt>
      <trkpt lat="44.56604" lon="2.30267">
        <ele>571</ele>
        <time>2015-08-25T12:20:16Z</time>
      </trkpt>
      <trkpt lat="44.56606" lon="2.30252">
        <ele>569</ele>
        <time>2015-08-25T12:20:25Z</time>
      </trkpt>
      <trkpt lat="44.56609" lon="2.30239">
        <ele>575</ele>
        <time>2015-08-25T12:20:36Z</time>
      </trkpt>
      <trkpt lat="44.56611" lon="2.30222">
        <ele>569</ele>
        <time>2015-08-25T12:20:45Z</time>
      </trkpt>
      <trkpt lat="44.56614" lon="2.30207">
        <ele>568</ele>
        <time>2015-08-25T12:20:54Z</time>
      </trkpt>
      <trkpt lat="44.56616" lon="2.30198">
        <ele>564</ele>
        <time>2015-08-25T12:21:05Z</time>
      </trkpt>
      <trkpt lat="44.56617" lon="2.30184">
        <ele>562</ele>
        <time>2015-08-25T12:21:13Z</time>
      </trkpt>
      <trkpt lat="44.56621" lon="2.3017">
        <ele>561</ele>
        <time>2015-08-25T12:21:23Z</time>
      </trkpt>
      <trkpt lat="44.56622" lon="2.30157">
        <ele>559</ele>
        <time>2015-08-25T12:21:32Z</time>
      </trkpt>
      <trkpt lat="44.56625" lon="2.30143">
        <ele>558</ele>
        <time>2015-08-25T12:21:41Z</time>
      </trkpt>
      <trkpt lat="44.56625" lon="2.3013">
        <ele>558</ele>
        <time>2015-08-25T12:21:49Z</time>
      </trkpt>
      <trkpt lat="44.56627" lon="2.30118">
        <ele>557</ele>
        <time>2015-08-25T12:21:57Z</time>
      </trkpt>
      <trkpt lat="44.5663" lon="2.30107">
        <ele>556</ele>
        <time>2015-08-25T12:22:05Z</time>
      </trkpt>
      <trkpt lat="44.56632" lon="2.30094">
        <ele>555</ele>
        <time>2015-08-25T12:22:13Z</time>
      </trkpt>
      <trkpt lat="44.56634" lon="2.30086">
        <ele>556</ele>
        <time>2015-08-25T12:22:20Z</time>
      </trkpt>
      <trkpt lat="44.56636" lon="2.30073">
        <ele>554</ele>
        <time>2015-08-25T12:22:30Z</time>
      </trkpt>
      <trkpt lat="44.5664" lon="2.30061">
        <ele>554</ele>
        <time>2015-08-25T12:22:39Z</time>
      </trkpt>
      <trkpt lat="44.56644" lon="2.30048">
        <ele>552</ele>
        <time>2015-08-25T12:22:48Z</time>
      </trkpt>
      <trkpt lat="44.56647" lon="2.30036">
        <ele>553</ele>
        <time>2015-08-25T12:22:57Z</time>
      </trkpt>
      <trkpt lat="44.56651" lon="2.30023">
        <ele>553</ele>
        <time>2015-08-25T12:23:08Z</time>
      </trkpt>
      <trkpt lat="44.56652" lon="2.30016">
        <ele>553</ele>
        <time>2015-08-25T12:23:15Z</time>
      </trkpt>
      <trkpt lat="44.56654" lon="2.30002">
        <ele>553</ele>
        <time>2015-08-25T12:23:24Z</time>
      </trkpt>
      <trkpt lat="44.56659" lon="2.29991">
        <ele>550</ele>
        <time>2015-08-25T12:23:33Z</time>
      </trkpt>
      <trkpt lat="44.56662" lon="2.29978">
        <ele>548</ele>
        <time>2015-08-25T12:23:41Z</time>
      </trkpt>
      <trkpt lat="44.56665" lon="2.29963">
        <ele>548</ele>
        <time>2015-08-25T12:23:50Z</time>
      </trkpt>
      <trkpt lat="44.56667" lon="2.29953">
        <ele>548</ele>
        <time>2015-08-25T12:23:57Z</time>
      </trkpt>
      <trkpt lat="44.5667" lon="2.2994">
        <ele>547</ele>
        <time>2015-08-25T12:24:06Z</time>
      </trkpt>
      <trkpt lat="44.5667" lon="2.29925">
        <ele>546</ele>
        <time>2015-08-25T12:24:15Z</time>
      </trkpt>
      <trkpt lat="44.56668" lon="2.29911">
        <ele>546</ele>
        <time>2015-08-25T12:24:24Z</time>
      </trkpt>
      <trkpt lat="44.56664" lon="2.29897">
        <ele>545</ele>
        <time>2015-08-25T12:24:34Z</time>
      </trkpt>
      <trkpt lat="44.5666" lon="2.29884">
        <ele>545</ele>
        <time>2015-08-25T12:24:42Z</time>
      </trkpt>
      <trkpt lat="44.56659" lon="2.2987">
        <ele>544</ele>
        <time>2015-08-25T12:24:50Z</time>
      </trkpt>
      <trkpt lat="44.56659" lon="2.29859">
        <ele>544</ele>
        <time>2015-08-25T12:24:57Z</time>
      </trkpt>
      <trkpt lat="44.56661" lon="2.29845">
        <ele>543</ele>
        <time>2015-08-25T12:25:07Z</time>
      </trkpt>
      <trkpt lat="44.56665" lon="2.29831">
        <ele>540</ele>
        <time>2015-08-25T12:25:15Z</time>
      </trkpt>
      <trkpt lat="44.5667" lon="2.2982">
        <ele>539</ele>
        <time>2015-08-25T12:25:23Z</time>
      </trkpt>
      <trkpt lat="44.56675" lon="2.29807">
        <ele>538</ele>
        <time>2015-08-25T12:25:32Z</time>
      </trkpt>
      <trkpt lat="44.5668" lon="2.29794">
        <ele>539</ele>
        <time>2015-08-25T12:25:41Z</time>
      </trkpt>
      <trkpt lat="44.56686" lon="2.29784">
        <ele>538</ele>
        <time>2015-08-25T12:25:49Z</time>
      </trkpt>
      <trkpt lat="44.56689" lon="2.29772">
        <ele>536</ele>
        <time>2015-08-25T12:25:57Z</time>
      </trkpt>
      <trkpt lat="44.56695" lon="2.29761">
        <ele>536</ele>
        <time>2015-08-25T12:26:05Z</time>
      </trkpt>
      <trkpt lat="44.567" lon="2.29748">
        <ele>537</ele>
        <time>2015-08-25T12:26:15Z</time>
      </trkpt>
      <trkpt lat="44.56703" lon="2.29736">
        <ele>537</ele>
        <time>2015-08-25T12:26:23Z</time>
      </trkpt>
      <trkpt lat="44.56709" lon="2.29723">
        <ele>536</ele>
        <time>2015-08-25T12:26:32Z</time>
      </trkpt>
      <trkpt lat="44.56713" lon="2.29711">
        <ele>534</ele>
        <time>2015-08-25T12:26:42Z</time>
      </trkpt>
      <trkpt lat="44.56719" lon="2.29699">
        <ele>532</ele>
        <time>2015-08-25T12:26:51Z</time>
      </trkpt>
      <trkpt lat="44.56721" lon="2.29691">
        <ele>530</ele>
        <time>2015-08-25T12:26:57Z</time>
      </trkpt>
      <trkpt lat="44.56728" lon="2.29681">
        <ele>528</ele>
        <time>2015-08-25T12:27:05Z</time>
      </trkpt>
      <trkpt lat="44.56733" lon="2.2967">
        <ele>529</ele>
        <time>2015-08-25T12:27:13Z</time>
      </trkpt>
      <trkpt lat="44.5674" lon="2.29659">
        <ele>527</ele>
        <time>2015-08-25T12:27:23Z</time>
      </trkpt>
      <trkpt lat="44.56744" lon="2.29646">
        <ele>527</ele>
        <time>2015-08-25T12:27:32Z</time>
      </trkpt>
      <trkpt lat="44.56748" lon="2.29632">
        <ele>528</ele>
        <time>2015-08-25T12:27:41Z</time>
      </trkpt>
      <trkpt lat="44.5675" lon="2.29618">
        <ele>528</ele>
        <time>2015-08-25T12:27:50Z</time>
      </trkpt>
      <trkpt lat="44.56751" lon="2.29606">
        <ele>528</ele>
        <time>2015-08-25T12:27:57Z</time>
      </trkpt>
      <trkpt lat="44.56753" lon="2.29593">
        <ele>526</ele>
        <time>2015-08-25T12:28:06Z</time>
      </trkpt>
      <trkpt lat="44.56755" lon="2.29578">
        <ele>526</ele>
        <time>2015-08-25T12:28:16Z</time>
      </trkpt>
      <trkpt lat="44.56756" lon="2.29564">
        <ele>525</ele>
        <time>2015-08-25T12:28:24Z</time>
      </trkpt>
      <trkpt lat="44.56757" lon="2.29551">
        <ele>523</ele>
        <time>2015-08-25T12:28:31Z</time>
      </trkpt>
      <trkpt lat="44.56758" lon="2.29538">
        <ele>524</ele>
        <time>2015-08-25T12:28:39Z</time>
      </trkpt>
      <trkpt lat="44.56757" lon="2.29525">
        <ele>524</ele>
        <time>2015-08-25T12:28:47Z</time>
      </trkpt>
      <trkpt lat="44.56759" lon="2.2951">
        <ele>524</ele>
        <time>2015-08-25T12:28:56Z</time>
      </trkpt>
      <trkpt lat="44.56759" lon="2.29495">
        <ele>527</ele>
        <time>2015-08-25T12:29:06Z</time>
      </trkpt>
      <trkpt lat="44.5676" lon="2.29482">
        <ele>526</ele>
        <time>2015-08-25T12:29:13Z</time>
      </trkpt>
      <trkpt lat="44.56763" lon="2.29467">
        <ele>527</ele>
        <time>2015-08-25T12:29:22Z</time>
      </trkpt>
      <trkpt lat="44.56767" lon="2.29455">
        <ele>527</ele>
        <time>2015-08-25T12:29:31Z</time>
      </trkpt>
      <trkpt lat="44.56768" lon="2.29441">
        <ele>524</ele>
        <time>2015-08-25T12:29:39Z</time>
      </trkpt>
      <trkpt lat="44.5677" lon="2.29428">
        <ele>525</ele>
        <time>2015-08-25T12:29:48Z</time>
      </trkpt>
      <trkpt lat="44.56774" lon="2.29415">
        <ele>525</ele>
        <time>2015-08-25T12:29:57Z</time>
      </trkpt>
      <trkpt lat="44.56778" lon="2.29402">
        <ele>523</ele>
        <time>2015-08-25T12:30:07Z</time>
      </trkpt>
      <trkpt lat="44.56783" lon="2.29389">
        <ele>522</ele>
        <time>2015-08-25T12:30:16Z</time>
      </trkpt>
      <trkpt lat="44.56786" lon="2.29376">
        <ele>523</ele>
        <time>2015-08-25T12:30:24Z</time>
      </trkpt>
      <trkpt lat="44.56791" lon="2.29362">
        <ele>524</ele>
        <time>2015-08-25T12:30:33Z</time>
      </trkpt>
      <trkpt lat="44.56796" lon="2.29349">
        <ele>524</ele>
        <time>2015-08-25T12:30:41Z</time>
      </trkpt>
      <trkpt lat="44.56799" lon="2.29338">
        <ele>525</ele>
        <time>2015-08-25T12:30:49Z</time>
      </trkpt>
      <trkpt lat="44.56804" lon="2.29326">
        <ele>524</ele>
        <time>2015-08-25T12:30:57Z</time>
      </trkpt>
      <trkpt lat="44.56809" lon="2.29312">
        <ele>523</ele>
        <time>2015-08-25T12:31:06Z</time>
      </trkpt>
      <trkpt lat="44.56815" lon="2.29301">
        <ele>522</ele>
        <time>2015-08-25T12:31:15Z</time>
      </trkpt>
      <trkpt lat="44.56819" lon="2.29287">
        <ele>524</ele>
        <time>2015-08-25T12:31:25Z</time>
      </trkpt>
      <trkpt lat="44.56823" lon="2.29274">
        <ele>524</ele>
        <time>2015-08-25T12:31:33Z</time>
      </trkpt>
      <trkpt lat="44.56828" lon="2.29262">
        <ele>525</ele>
        <time>2015-08-25T12:31:42Z</time>
      </trkpt>
      <trkpt lat="44.56833" lon="2.2925">
        <ele>527</ele>
        <time>2015-08-25T12:31:52Z</time>
      </trkpt>
      <trkpt lat="44.56836" lon="2.29235">
        <ele>526</ele>
        <time>2015-08-25T12:32:01Z</time>
      </trkpt>
      <trkpt lat="44.56837" lon="2.2922">
        <ele>525</ele>
        <time>2015-08-25T12:32:09Z</time>
      </trkpt>
      <trkpt lat="44.5684" lon="2.29207">
        <ele>522</ele>
        <time>2015-08-25T12:32:18Z</time>
      </trkpt>
      <trkpt lat="44.56843" lon="2.29194">
        <ele>522</ele>
        <time>2015-08-25T12:32:27Z</time>
      </trkpt>
      <trkpt lat="44.56845" lon="2.2918">
        <ele>520</ele>
        <time>2015-08-25T12:32:35Z</time>
      </trkpt>
      <trkpt lat="44.56847" lon="2.29165">
        <ele>520</ele>
        <time>2015-08-25T12:32:45Z</time>
      </trkpt>
      <trkpt lat="44.56849" lon="2.29151">
        <ele>518</ele>
        <time>2015-08-25T12:32:55Z</time>
      </trkpt>
      <trkpt lat="44.56848" lon="2.29139">
        <ele>517</ele>
        <time>2015-08-25T12:33:03Z</time>
      </trkpt>
      <trkpt lat="44.56848" lon="2.29132">
        <ele>516</ele>
        <time>2015-08-25T12:33:09Z</time>
      </trkpt>
      <trkpt lat="44.56848" lon="2.29117">
        <ele>513</ele>
        <time>2015-08-25T12:33:18Z</time>
      </trkpt>
      <trkpt lat="44.5685" lon="2.29103">
        <ele>512</ele>
        <time>2015-08-25T12:33:27Z</time>
      </trkpt>
      <trkpt lat="44.56852" lon="2.29096">
        <ele>513</ele>
        <time>2015-08-25T12:33:33Z</time>
      </trkpt>
      <trkpt lat="44.56854" lon="2.29081">
        <ele>512</ele>
        <time>2015-08-25T12:33:42Z</time>
      </trkpt>
      <trkpt lat="44.56856" lon="2.29068">
        <ele>511</ele>
        <time>2015-08-25T12:33:51Z</time>
      </trkpt>
      <trkpt lat="44.56858" lon="2.2906">
        <ele>511</ele>
        <time>2015-08-25T12:33:57Z</time>
      </trkpt>
      <trkpt lat="44.56862" lon="2.29047">
        <ele>512</ele>
        <time>2015-08-25T12:34:06Z</time>
      </trkpt>
      <trkpt lat="44.56866" lon="2.29034">
        <ele>513</ele>
        <time>2015-08-25T12:34:15Z</time>
      </trkpt>
      <trkpt lat="44.5687" lon="2.29022">
        <ele>512</ele>
        <time>2015-08-25T12:34:23Z</time>
      </trkpt>
      <trkpt lat="44.56877" lon="2.29012">
        <ele>512</ele>
        <time>2015-08-25T12:34:33Z</time>
      </trkpt>
      <trkpt lat="44.56881" lon="2.28999">
        <ele>510</ele>
        <time>2015-08-25T12:34:42Z</time>
      </trkpt>
      <trkpt lat="44.56886" lon="2.28988">
        <ele>509</ele>
        <time>2015-08-25T12:34:51Z</time>
      </trkpt>
      <trkpt lat="44.56888" lon="2.28978">
        <ele>509</ele>
        <time>2015-08-25T12:34:57Z</time>
      </trkpt>
      <trkpt lat="44.56891" lon="2.28965">
        <ele>507</ele>
        <time>2015-08-25T12:35:06Z</time>
      </trkpt>
      <trkpt lat="44.56894" lon="2.28959">
        <ele>512</ele>
        <time>2015-08-25T12:35:13Z</time>
      </trkpt>
      <trkpt lat="44.56897" lon="2.28945">
        <ele>510</ele>
        <time>2015-08-25T12:35:23Z</time>
      </trkpt>
      <trkpt lat="44.569" lon="2.2893">
        <ele>505</ele>
        <time>2015-08-25T12:35:32Z</time>
      </trkpt>
      <trkpt lat="44.56903" lon="2.28915">
        <ele>503</ele>
        <time>2015-08-25T12:35:42Z</time>
      </trkpt>
      <trkpt lat="44.56905" lon="2.289">
        <ele>502</ele>
        <time>2015-08-25T12:35:52Z</time>
      </trkpt>
      <trkpt lat="44.56909" lon="2.28888">
        <ele>498</ele>
        <time>2015-08-25T12:36:01Z</time>
      </trkpt>
      <trkpt lat="44.5691" lon="2.28874">
        <ele>495</ele>
        <time>2015-08-25T12:36:10Z</time>
      </trkpt>
      <trkpt lat="44.56912" lon="2.28867">
        <ele>496</ele>
        <time>2015-08-25T12:36:16Z</time>
      </trkpt>
      <trkpt lat="44.56915" lon="2.28853">
        <ele>493</ele>
        <time>2015-08-25T12:36:25Z</time>
      </trkpt>
      <trkpt lat="44.56915" lon="2.2884">
        <ele>493</ele>
        <time>2015-08-25T12:36:35Z</time>
      </trkpt>
      <trkpt lat="44.56913" lon="2.28827">
        <ele>495</ele>
        <time>2015-08-25T12:36:45Z</time>
      </trkpt>
      <trkpt lat="44.56912" lon="2.28813">
        <ele>496</ele>
        <time>2015-08-25T12:36:56Z</time>
      </trkpt>
      <trkpt lat="44.5691" lon="2.28798">
        <ele>490</ele>
        <time>2015-08-25T12:37:06Z</time>
      </trkpt>
      <trkpt lat="44.56905" lon="2.28787">
        <ele>491</ele>
        <time>2015-08-25T12:37:14Z</time>
      </trkpt>
      <trkpt lat="44.569" lon="2.28774">
        <ele>492</ele>
        <time>2015-08-25T12:37:23Z</time>
      </trkpt>
      <trkpt lat="44.56895" lon="2.2876">
        <ele>491</ele>
        <time>2015-08-25T12:37:32Z</time>
      </trkpt>
      <trkpt lat="44.56889" lon="2.2875">
        <ele>491</ele>
        <time>2015-08-25T12:37:42Z</time>
      </trkpt>
      <trkpt lat="44.56885" lon="2.28738">
        <ele>489</ele>
        <time>2015-08-25T12:37:51Z</time>
      </trkpt>
      <trkpt lat="44.56881" lon="2.28731">
        <ele>490</ele>
        <time>2015-08-25T12:37:57Z</time>
      </trkpt>
      <trkpt lat="44.56873" lon="2.28724">
        <ele>492</ele>
        <time>2015-08-25T12:38:05Z</time>
      </trkpt>
      <trkpt lat="44.56865" lon="2.28718">
        <ele>491</ele>
        <time>2015-08-25T12:38:14Z</time>
      </trkpt>
      <trkpt lat="44.56857" lon="2.2871">
        <ele>491</ele>
        <time>2015-08-25T12:38:22Z</time>
      </trkpt>
      <trkpt lat="44.56848" lon="2.28702">
        <ele>489</ele>
        <time>2015-08-25T12:38:31Z</time>
      </trkpt>
      <trkpt lat="44.56844" lon="2.28689">
        <ele>489</ele>
        <time>2015-08-25T12:38:40Z</time>
      </trkpt>
      <trkpt lat="44.5684" lon="2.28676">
        <ele>486</ele>
        <time>2015-08-25T12:38:48Z</time>
      </trkpt>
      <trkpt lat="44.56836" lon="2.28664">
        <ele>486</ele>
        <time>2015-08-25T12:38:57Z</time>
      </trkpt>
      <trkpt lat="44.56831" lon="2.2865">
        <ele>484</ele>
        <time>2015-08-25T12:39:06Z</time>
      </trkpt>
      <trkpt lat="44.56828" lon="2.28637">
        <ele>484</ele>
        <time>2015-08-25T12:39:15Z</time>
      </trkpt>
      <trkpt lat="44.56827" lon="2.28623">
        <ele>485</ele>
        <time>2015-08-25T12:39:23Z</time>
      </trkpt>
      <trkpt lat="44.56826" lon="2.28608">
        <ele>486</ele>
        <time>2015-08-25T12:39:32Z</time>
      </trkpt>
      <trkpt lat="44.56825" lon="2.28594">
        <ele>486</ele>
        <time>2015-08-25T12:39:41Z</time>
      </trkpt>
      <trkpt lat="44.56824" lon="2.2858">
        <ele>485</ele>
        <time>2015-08-25T12:39:50Z</time>
      </trkpt>
      <trkpt lat="44.56824" lon="2.28567">
        <ele>485</ele>
        <time>2015-08-25T12:39:57Z</time>
      </trkpt>
      <trkpt lat="44.56826" lon="2.28553">
        <ele>484</ele>
        <time>2015-08-25T12:40:06Z</time>
      </trkpt>
      <trkpt lat="44.56828" lon="2.28541">
        <ele>486</ele>
        <time>2015-08-25T12:40:14Z</time>
      </trkpt>
      <trkpt lat="44.56831" lon="2.28526">
        <ele>483</ele>
        <time>2015-08-25T12:40:23Z</time>
      </trkpt>
      <trkpt lat="44.56834" lon="2.28513">
        <ele>482</ele>
        <time>2015-08-25T12:40:31Z</time>
      </trkpt>
      <trkpt lat="44.56837" lon="2.28499">
        <ele>480</ele>
        <time>2015-08-25T12:40:41Z</time>
      </trkpt>
      <trkpt lat="44.56842" lon="2.28485">
        <ele>480</ele>
        <time>2015-08-25T12:40:50Z</time>
      </trkpt>
      <trkpt lat="44.56843" lon="2.28474">
        <ele>481</ele>
        <time>2015-08-25T12:40:57Z</time>
      </trkpt>
      <trkpt lat="44.56845" lon="2.28462">
        <ele>483</ele>
        <time>2015-08-25T12:41:05Z</time>
      </trkpt>
      <trkpt lat="44.56848" lon="2.28448">
        <ele>482</ele>
        <time>2015-08-25T12:41:15Z</time>
      </trkpt>
      <trkpt lat="44.56852" lon="2.28435">
        <ele>481</ele>
        <time>2015-08-25T12:41:24Z</time>
      </trkpt>
      <trkpt lat="44.56854" lon="2.28422">
        <ele>479</ele>
        <time>2015-08-25T12:41:32Z</time>
      </trkpt>
      <trkpt lat="44.56857" lon="2.28408">
        <ele>476</ele>
        <time>2015-08-25T12:41:41Z</time>
      </trkpt>
      <trkpt lat="44.56857" lon="2.28393">
        <ele>478</ele>
        <time>2015-08-25T12:41:49Z</time>
      </trkpt>
      <trkpt lat="44.5686" lon="2.28382">
        <ele>478</ele>
        <time>2015-08-25T12:41:57Z</time>
      </trkpt>
      <trkpt lat="44.56862" lon="2.28368">
        <ele>478</ele>
        <time>2015-08-25T12:42:07Z</time>
      </trkpt>
      <trkpt lat="44.56865" lon="2.28354">
        <ele>478</ele>
        <time>2015-08-25T12:42:17Z</time>
      </trkpt>
      <trkpt lat="44.56866" lon="2.28341">
        <ele>479</ele>
        <time>2015-08-25T12:42:25Z</time>
      </trkpt>
      <trkpt lat="44.56868" lon="2.28326">
        <ele>479</ele>
        <time>2015-08-25T12:42:34Z</time>
      </trkpt>
      <trkpt lat="44.56868" lon="2.28313">
        <ele>478</ele>
        <time>2015-08-25T12:42:42Z</time>
      </trkpt>
      <trkpt lat="44.56872" lon="2.283">
        <ele>479</ele>
        <time>2015-08-25T12:42:52Z</time>
      </trkpt>
      <trkpt lat="44.56876" lon="2.28286">
        <ele>478</ele>
        <time>2015-08-25T12:43:02Z</time>
      </trkpt>
      <trkpt lat="44.56878" lon="2.28271">
        <ele>477</ele>
        <time>2015-08-25T12:43:11Z</time>
      </trkpt>
      <trkpt lat="44.56882" lon="2.28259">
        <ele>476</ele>
        <time>2015-08-25T12:43:20Z</time>
      </trkpt>
      <trkpt lat="44.56885" lon="2.28246">
        <ele>477</ele>
        <time>2015-08-25T12:43:28Z</time>
      </trkpt>
      <trkpt lat="44.5689" lon="2.28233">
        <ele>478</ele>
        <time>2015-08-25T12:43:37Z</time>
      </trkpt>
      <trkpt lat="44.56896" lon="2.28222">
        <ele>477</ele>
        <time>2015-08-25T12:43:46Z</time>
      </trkpt>
      <trkpt lat="44.56903" lon="2.28213">
        <ele>479</ele>
        <time>2015-08-25T12:43:55Z</time>
      </trkpt>
      <trkpt lat="44.56907" lon="2.28204">
        <ele>478</ele>
        <time>2015-08-25T12:44:01Z</time>
      </trkpt>
      <trkpt lat="44.56914" lon="2.28191">
        <ele>481</ele>
        <time>2015-08-25T12:44:11Z</time>
      </trkpt>
      <trkpt lat="44.56922" lon="2.28181">
        <ele>480</ele>
        <time>2015-08-25T12:44:20Z</time>
      </trkpt>
      <trkpt lat="44.56929" lon="2.28172">
        <ele>482</ele>
        <time>2015-08-25T12:44:28Z</time>
      </trkpt>
      <trkpt lat="44.56936" lon="2.28162">
        <ele>480</ele>
        <time>2015-08-25T12:44:36Z</time>
      </trkpt>
      <trkpt lat="44.56941" lon="2.28151">
        <ele>479</ele>
        <time>2015-08-25T12:44:44Z</time>
      </trkpt>
      <trkpt lat="44.56949" lon="2.28141">
        <ele>480</ele>
        <time>2015-08-25T12:44:54Z</time>
      </trkpt>
      <trkpt lat="44.56956" lon="2.28135">
        <ele>481</ele>
        <time>2015-08-25T12:45:02Z</time>
      </trkpt>
      <trkpt lat="44.56963" lon="2.28124">
        <ele>479</ele>
        <time>2015-08-25T12:45:10Z</time>
      </trkpt>
      <trkpt lat="44.5697" lon="2.28113">
        <ele>480</ele>
        <time>2015-08-25T12:45:19Z</time>
      </trkpt>
      <trkpt lat="44.56976" lon="2.28103">
        <ele>476</ele>
        <time>2015-08-25T12:45:30Z</time>
      </trkpt>
      <trkpt lat="44.56981" lon="2.28091">
        <ele>475</ele>
        <time>2015-08-25T12:45:39Z</time>
      </trkpt>
      <trkpt lat="44.56989" lon="2.28082">
        <ele>474</ele>
        <time>2015-08-25T12:45:49Z</time>
      </trkpt>
      <trkpt lat="44.56993" lon="2.28069">
        <ele>476</ele>
        <time>2015-08-25T12:45:57Z</time>
      </trkpt>
      <trkpt lat="44.56998" lon="2.28056">
        <ele>479</ele>
        <time>2015-08-25T12:46:05Z</time>
      </trkpt>
      <trkpt lat="44.57" lon="2.28043">
        <ele>476</ele>
        <time>2015-08-25T12:46:14Z</time>
      </trkpt>
      <trkpt lat="44.57004" lon="2.2803">
        <ele>475</ele>
        <time>2015-08-25T12:46:24Z</time>
      </trkpt>
      <trkpt lat="44.57006" lon="2.28017">
        <ele>474</ele>
        <time>2015-08-25T12:46:31Z</time>
      </trkpt>
      <trkpt lat="44.57009" lon="2.28005">
        <ele>471</ele>
        <time>2015-08-25T12:46:40Z</time>
      </trkpt>
      <trkpt lat="44.57011" lon="2.27992">
        <ele>469</ele>
        <time>2015-08-25T12:46:49Z</time>
      </trkpt>
      <trkpt lat="44.57014" lon="2.27979">
        <ele>467</ele>
        <time>2015-08-25T12:46:57Z</time>
      </trkpt>
      <trkpt lat="44.57015" lon="2.27972">
        <ele>466</ele>
        <time>2015-08-25T12:47:04Z</time>
      </trkpt>
      <trkpt lat="44.57017" lon="2.27966">
        <ele>466</ele>
        <time>2015-08-25T12:47:10Z</time>
      </trkpt>
      <trkpt lat="44.5702" lon="2.27953">
        <ele>466</ele>
        <time>2015-08-25T12:47:19Z</time>
      </trkpt>
      <trkpt lat="44.57022" lon="2.27945">
        <ele>464</ele>
        <time>2015-08-25T12:47:25Z</time>
      </trkpt>
      <trkpt lat="44.57026" lon="2.27931">
        <ele>463</ele>
        <time>2015-08-25T12:47:35Z</time>
      </trkpt>
      <trkpt lat="44.5703" lon="2.27919">
        <ele>461</ele>
        <time>2015-08-25T12:47:44Z</time>
      </trkpt>
      <trkpt lat="44.57035" lon="2.27906">
        <ele>460</ele>
        <time>2015-08-25T12:47:54Z</time>
      </trkpt>
      <trkpt lat="44.57038" lon="2.27896">
        <ele>461</ele>
        <time>2015-08-25T12:48:01Z</time>
      </trkpt>
      <trkpt lat="44.57045" lon="2.27885">
        <ele>459</ele>
        <time>2015-08-25T12:48:11Z</time>
      </trkpt>
      <trkpt lat="44.5705" lon="2.27881">
        <ele>458</ele>
        <time>2015-08-25T12:48:17Z</time>
      </trkpt>
      <trkpt lat="44.57055" lon="2.27868">
        <ele>459</ele>
        <time>2015-08-25T12:48:26Z</time>
      </trkpt>
      <trkpt lat="44.5706" lon="2.27855">
        <ele>458</ele>
        <time>2015-08-25T12:48:35Z</time>
      </trkpt>
      <trkpt lat="44.57068" lon="2.27846">
        <ele>458</ele>
        <time>2015-08-25T12:48:44Z</time>
      </trkpt>
      <trkpt lat="44.57074" lon="2.27836">
        <ele>459</ele>
        <time>2015-08-25T12:48:52Z</time>
      </trkpt>
      <trkpt lat="44.5708" lon="2.27825">
        <ele>458</ele>
        <time>2015-08-25T12:49:01Z</time>
      </trkpt>
      <trkpt lat="44.57087" lon="2.27815">
        <ele>456</ele>
        <time>2015-08-25T12:49:10Z</time>
      </trkpt>
      <trkpt lat="44.57092" lon="2.27803">
        <ele>456</ele>
        <time>2015-08-25T12:49:19Z</time>
      </trkpt>
      <trkpt lat="44.571" lon="2.27795">
        <ele>456</ele>
        <time>2015-08-25T12:49:27Z</time>
      </trkpt>
      <trkpt lat="44.57107" lon="2.27784">
        <ele>456</ele>
        <time>2015-08-25T12:49:36Z</time>
      </trkpt>
      <trkpt lat="44.57114" lon="2.27774">
        <ele>456</ele>
        <time>2015-08-25T12:49:46Z</time>
      </trkpt>
      <trkpt lat="44.57119" lon="2.27762">
        <ele>455</ele>
        <time>2015-08-25T12:49:54Z</time>
      </trkpt>
      <trkpt lat="44.57125" lon="2.27751">
        <ele>452</ele>
        <time>2015-08-25T12:50:02Z</time>
      </trkpt>
      <trkpt lat="44.57131" lon="2.27741">
        <ele>453</ele>
        <time>2015-08-25T12:50:10Z</time>
      </trkpt>
      <trkpt lat="44.57138" lon="2.2773">
        <ele>453</ele>
        <time>2015-08-25T12:50:20Z</time>
      </trkpt>
      <trkpt lat="44.57144" lon="2.27719">
        <ele>450</ele>
        <time>2015-08-25T12:50:29Z</time>
      </trkpt>
      <trkpt lat="44.57148" lon="2.27706">
        <ele>453</ele>
        <time>2015-08-25T12:50:38Z</time>
      </trkpt>
      <trkpt lat="44.57154" lon="2.27695">
        <ele>451</ele>
        <time>2015-08-25T12:50:49Z</time>
      </trkpt>
      <trkpt lat="44.57158" lon="2.27689">
        <ele>451</ele>
        <time>2015-08-25T12:51:25Z</time>
      </trkpt>
      <trkpt lat="44.57164" lon="2.27679">
        <ele>450</ele>
        <time>2015-08-25T12:51:32Z</time>
      </trkpt>
      <trkpt lat="44.57169" lon="2.27665">
        <ele>451</ele>
        <time>2015-08-25T12:51:42Z</time>
      </trkpt>
      <trkpt lat="44.57174" lon="2.27652">
        <ele>449</ele>
        <time>2015-08-25T12:51:51Z</time>
      </trkpt>
      <trkpt lat="44.57177" lon="2.27645">
        <ele>448</ele>
        <time>2015-08-25T12:51:57Z</time>
      </trkpt>
      <trkpt lat="44.57185" lon="2.27634">
        <ele>449</ele>
        <time>2015-08-25T12:52:06Z</time>
      </trkpt>
      <trkpt lat="44.5719" lon="2.27623">
        <ele>450</ele>
        <time>2015-08-25T12:52:14Z</time>
      </trkpt>
      <trkpt lat="44.57196" lon="2.27612">
        <ele>451</ele>
        <time>2015-08-25T12:52:23Z</time>
      </trkpt>
      <trkpt lat="44.57201" lon="2.27601">
        <ele>448</ele>
        <time>2015-08-25T12:52:31Z</time>
      </trkpt>
      <trkpt lat="44.57208" lon="2.27591">
        <ele>447</ele>
        <time>2015-08-25T12:52:39Z</time>
      </trkpt>
      <trkpt lat="44.57215" lon="2.27582">
        <ele>449</ele>
        <time>2015-08-25T12:52:48Z</time>
      </trkpt>
      <trkpt lat="44.57222" lon="2.27572">
        <ele>448</ele>
        <time>2015-08-25T12:52:56Z</time>
      </trkpt>
      <trkpt lat="44.57229" lon="2.2756">
        <ele>448</ele>
        <time>2015-08-25T12:53:06Z</time>
      </trkpt>
      <trkpt lat="44.57237" lon="2.27552">
        <ele>448</ele>
        <time>2015-08-25T12:53:14Z</time>
      </trkpt>
      <trkpt lat="44.57244" lon="2.27543">
        <ele>447</ele>
        <time>2015-08-25T12:53:23Z</time>
      </trkpt>
      <trkpt lat="44.57249" lon="2.27532">
        <ele>446</ele>
        <time>2015-08-25T12:53:31Z</time>
      </trkpt>
      <trkpt lat="44.57255" lon="2.27521">
        <ele>443</ele>
        <time>2015-08-25T12:53:40Z</time>
      </trkpt>
      <trkpt lat="44.57262" lon="2.27509">
        <ele>442</ele>
        <time>2015-08-25T12:53:49Z</time>
      </trkpt>
      <trkpt lat="44.5727" lon="2.275">
        <ele>442</ele>
        <time>2015-08-25T12:53:57Z</time>
      </trkpt>
      <trkpt lat="44.57275" lon="2.27489">
        <ele>443</ele>
        <time>2015-08-25T12:54:06Z</time>
      </trkpt>
      <trkpt lat="44.57279" lon="2.27477">
        <ele>444</ele>
        <time>2015-08-25T12:54:14Z</time>
      </trkpt>
      <trkpt lat="44.57278" lon="2.27466">
        <ele>439</ele>
        <time>2015-08-25T12:54:57Z</time>
      </trkpt>
      <trkpt lat="44.57283" lon="2.27455">
        <ele>443</ele>
        <time>2015-08-25T13:10:40Z</time>
      </trkpt>
      <trkpt lat="44.57288" lon="2.27441">
        <ele>444</ele>
        <time>2015-08-25T13:10:50Z</time>
      </trkpt>
      <trkpt lat="44.57291" lon="2.27435">
        <ele>445</ele>
        <time>2015-08-25T13:10:56Z</time>
      </trkpt>
      <trkpt lat="44.57296" lon="2.27422">
        <ele>444</ele>
        <time>2015-08-25T13:11:05Z</time>
      </trkpt>
      <trkpt lat="44.57302" lon="2.27409">
        <ele>445</ele>
        <time>2015-08-25T13:11:14Z</time>
      </trkpt>
      <trkpt lat="44.57307" lon="2.27396">
        <ele>443</ele>
        <time>2015-08-25T13:11:23Z</time>
      </trkpt>
      <trkpt lat="44.57311" lon="2.27384">
        <ele>442</ele>
        <time>2015-08-25T13:11:31Z</time>
      </trkpt>
      <trkpt lat="44.57317" lon="2.27373">
        <ele>439</ele>
        <time>2015-08-25T13:11:40Z</time>
      </trkpt>
      <trkpt lat="44.57322" lon="2.27361">
        <ele>438</ele>
        <time>2015-08-25T13:11:48Z</time>
      </trkpt>
      <trkpt lat="44.5733" lon="2.27353">
        <ele>438</ele>
        <time>2015-08-25T13:11:56Z</time>
      </trkpt>
      <trkpt lat="44.57335" lon="2.27346">
        <ele>437</ele>
        <time>2015-08-25T13:12:02Z</time>
      </trkpt>
      <trkpt lat="44.57344" lon="2.27337">
        <ele>437</ele>
        <time>2015-08-25T13:12:12Z</time>
      </trkpt>
      <trkpt lat="44.57352" lon="2.27327">
        <ele>436</ele>
        <time>2015-08-25T13:12:21Z</time>
      </trkpt>
      <trkpt lat="44.57361" lon="2.27319">
        <ele>434</ele>
        <time>2015-08-25T13:12:29Z</time>
      </trkpt>
      <trkpt lat="44.57369" lon="2.27313">
        <ele>434</ele>
        <time>2015-08-25T13:12:36Z</time>
      </trkpt>
      <trkpt lat="44.57379" lon="2.27308">
        <ele>432</ele>
        <time>2015-08-25T13:12:46Z</time>
      </trkpt>
      <trkpt lat="44.57389" lon="2.27301">
        <ele>432</ele>
        <time>2015-08-25T13:12:57Z</time>
      </trkpt>
      <trkpt lat="44.57396" lon="2.2729">
        <ele>430</ele>
        <time>2015-08-25T13:13:06Z</time>
      </trkpt>
      <trkpt lat="44.57404" lon="2.27283">
        <ele>429</ele>
        <time>2015-08-25T13:13:14Z</time>
      </trkpt>
      <trkpt lat="44.5741" lon="2.27272">
        <ele>428</ele>
        <time>2015-08-25T13:13:23Z</time>
      </trkpt>
      <trkpt lat="44.57414" lon="2.27267">
        <ele>428</ele>
        <time>2015-08-25T13:13:29Z</time>
      </trkpt>
      <trkpt lat="44.57417" lon="2.27254">
        <ele>426</ele>
        <time>2015-08-25T13:13:38Z</time>
      </trkpt>
      <trkpt lat="44.57421" lon="2.27241">
        <ele>426</ele>
        <time>2015-08-25T13:13:47Z</time>
      </trkpt>
      <trkpt lat="44.57423" lon="2.27227">
        <ele>425</ele>
        <time>2015-08-25T13:13:56Z</time>
      </trkpt>
      <trkpt lat="44.57425" lon="2.27211">
        <ele>425</ele>
        <time>2015-08-25T13:14:06Z</time>
      </trkpt>
      <trkpt lat="44.57426" lon="2.27196">
        <ele>424</ele>
        <time>2015-08-25T13:14:16Z</time>
      </trkpt>
      <trkpt lat="44.57427" lon="2.27182">
        <ele>424</ele>
        <time>2015-08-25T13:14:24Z</time>
      </trkpt>
      <trkpt lat="44.57429" lon="2.27168">
        <ele>423</ele>
        <time>2015-08-25T13:14:33Z</time>
      </trkpt>
      <trkpt lat="44.57433" lon="2.27155">
        <ele>424</ele>
        <time>2015-08-25T13:14:42Z</time>
      </trkpt>
      <trkpt lat="44.57434" lon="2.27141">
        <ele>424</ele>
        <time>2015-08-25T13:14:50Z</time>
      </trkpt>
      <trkpt lat="44.57438" lon="2.2713">
        <ele>424</ele>
        <time>2015-08-25T13:14:57Z</time>
      </trkpt>
      <trkpt lat="44.57446" lon="2.27121">
        <ele>426</ele>
        <time>2015-08-25T13:15:06Z</time>
      </trkpt>
      <trkpt lat="44.57454" lon="2.27113">
        <ele>424</ele>
        <time>2015-08-25T13:15:15Z</time>
      </trkpt>
      <trkpt lat="44.57463" lon="2.27108">
        <ele>424</ele>
        <time>2015-08-25T13:15:23Z</time>
      </trkpt>
      <trkpt lat="44.57473" lon="2.27108">
        <ele>424</ele>
        <time>2015-08-25T13:15:34Z</time>
      </trkpt>
      <trkpt lat="44.57478" lon="2.27105">
        <ele>422</ele>
        <time>2015-08-25T13:15:40Z</time>
      </trkpt>
      <trkpt lat="44.57487" lon="2.27108">
        <ele>422</ele>
        <time>2015-08-25T13:15:48Z</time>
      </trkpt>
      <trkpt lat="44.57495" lon="2.27109">
        <ele>420</ele>
        <time>2015-08-25T13:15:57Z</time>
      </trkpt>
      <trkpt lat="44.575" lon="2.27113">
        <ele>422</ele>
        <time>2015-08-25T13:16:03Z</time>
      </trkpt>
      <trkpt lat="44.57509" lon="2.27121">
        <ele>423</ele>
        <time>2015-08-25T13:16:13Z</time>
      </trkpt>
      <trkpt lat="44.57517" lon="2.27129">
        <ele>422</ele>
        <time>2015-08-25T13:16:23Z</time>
      </trkpt>
      <trkpt lat="44.57526" lon="2.27135">
        <ele>426</ele>
        <time>2015-08-25T13:16:31Z</time>
      </trkpt>
      <trkpt lat="44.57536" lon="2.2714">
        <ele>425</ele>
        <time>2015-08-25T13:16:39Z</time>
      </trkpt>
      <trkpt lat="44.57545" lon="2.27148">
        <ele>425</ele>
        <time>2015-08-25T13:16:48Z</time>
      </trkpt>
      <trkpt lat="44.57553" lon="2.27154">
        <ele>422</ele>
        <time>2015-08-25T13:16:57Z</time>
      </trkpt>
      <trkpt lat="44.5756" lon="2.27163">
        <ele>424</ele>
        <time>2015-08-25T13:17:05Z</time>
      </trkpt>
      <trkpt lat="44.57568" lon="2.27174">
        <ele>424</ele>
        <time>2015-08-25T13:17:15Z</time>
      </trkpt>
      <trkpt lat="44.57573" lon="2.27186">
        <ele>424</ele>
        <time>2015-08-25T13:17:23Z</time>
      </trkpt>
      <trkpt lat="44.57581" lon="2.27196">
        <ele>422</ele>
        <time>2015-08-25T13:17:33Z</time>
      </trkpt>
      <trkpt lat="44.5759" lon="2.27201">
        <ele>420</ele>
        <time>2015-08-25T13:17:42Z</time>
      </trkpt>
      <trkpt lat="44.576" lon="2.27204">
        <ele>423</ele>
        <time>2015-08-25T13:17:52Z</time>
      </trkpt>
      <trkpt lat="44.57608" lon="2.27197">
        <ele>424</ele>
        <time>2015-08-25T13:18:13Z</time>
      </trkpt>
      <trkpt lat="44.57603" lon="2.27197">
        <ele>423</ele>
        <time>2015-08-25T13:19:38Z</time>
      </trkpt>
      <trkpt lat="44.57599" lon="2.27205">
        <ele>427</ele>
        <time>2015-08-25T13:21:57Z</time>
      </trkpt>
      <trkpt lat="44.57605" lon="2.27203">
        <ele>427</ele>
        <time>2015-08-25T13:28:29Z</time>
      </trkpt>
      <trkpt lat="44.57601" lon="2.27206">
        <ele>423</ele>
        <time>2015-08-25T13:28:38Z</time>
      </trkpt>
      <trkpt lat="44.57596" lon="2.27205">
        <ele>421</ele>
        <time>2015-08-25T13:28:44Z</time>
      </trkpt>
      <trkpt lat="44.57586" lon="2.27202">
        <ele>425</ele>
        <time>2015-08-25T13:28:54Z</time>
      </trkpt>
      <trkpt lat="44.57579" lon="2.27196">
        <ele>424</ele>
        <time>2015-08-25T13:29:01Z</time>
      </trkpt>
      <trkpt lat="44.57573" lon="2.27184">
        <ele>424</ele>
        <time>2015-08-25T13:29:10Z</time>
      </trkpt>
      <trkpt lat="44.57567" lon="2.27174">
        <ele>425</ele>
        <time>2015-08-25T13:29:19Z</time>
      </trkpt>
      <trkpt lat="44.57559" lon="2.27164">
        <ele>424</ele>
        <time>2015-08-25T13:29:28Z</time>
      </trkpt>
      <trkpt lat="44.5755" lon="2.27155">
        <ele>427</ele>
        <time>2015-08-25T13:29:38Z</time>
      </trkpt>
      <trkpt lat="44.57543" lon="2.27145">
        <ele>425</ele>
        <time>2015-08-25T13:29:46Z</time>
      </trkpt>
      <trkpt lat="44.57534" lon="2.27137">
        <ele>424</ele>
        <time>2015-08-25T13:29:55Z</time>
      </trkpt>
      <trkpt lat="44.57529" lon="2.27134">
        <ele>423</ele>
        <time>2015-08-25T13:30:01Z</time>
      </trkpt>
      <trkpt lat="44.5752" lon="2.27127">
        <ele>424</ele>
        <time>2015-08-25T13:30:09Z</time>
      </trkpt>
      <trkpt lat="44.57511" lon="2.27123">
        <ele>424</ele>
        <time>2015-08-25T13:30:17Z</time>
      </trkpt>
      <trkpt lat="44.57502" lon="2.27119">
        <ele>425</ele>
        <time>2015-08-25T13:30:26Z</time>
      </trkpt>
      <trkpt lat="44.57493" lon="2.27114">
        <ele>424</ele>
        <time>2015-08-25T13:30:34Z</time>
      </trkpt>
      <trkpt lat="44.57484" lon="2.27106">
        <ele>423</ele>
        <time>2015-08-25T13:30:44Z</time>
      </trkpt>
      <trkpt lat="44.57476" lon="2.271">
        <ele>421</ele>
        <time>2015-08-25T13:30:52Z</time>
      </trkpt>
      <trkpt lat="44.57465" lon="2.27095">
        <ele>422</ele>
        <time>2015-08-25T13:31:02Z</time>
      </trkpt>
      <trkpt lat="44.57457" lon="2.27101">
        <ele>422</ele>
        <time>2015-08-25T13:31:11Z</time>
      </trkpt>
      <trkpt lat="44.57454" lon="2.27106">
        <ele>421</ele>
        <time>2015-08-25T13:32:06Z</time>
      </trkpt>
      <trkpt lat="44.57445" lon="2.27109">
        <ele>422</ele>
        <time>2015-08-25T13:32:15Z</time>
      </trkpt>
      <trkpt lat="44.57439" lon="2.27108">
        <ele>423</ele>
        <time>2015-08-25T13:32:46Z</time>
      </trkpt>
      <trkpt lat="44.57437" lon="2.27102">
        <ele>422</ele>
        <time>2015-08-25T13:32:57Z</time>
      </trkpt>
      <trkpt lat="44.57438" lon="2.27088">
        <ele>420</ele>
        <time>2015-08-25T13:33:06Z</time>
      </trkpt>
      <trkpt lat="44.57439" lon="2.27076">
        <ele>415</ele>
        <time>2015-08-25T13:33:20Z</time>
      </trkpt>
      <trkpt lat="44.5744" lon="2.27063">
        <ele>416</ele>
        <time>2015-08-25T13:33:29Z</time>
      </trkpt>
      <trkpt lat="44.57439" lon="2.27049">
        <ele>416</ele>
        <time>2015-08-25T13:33:38Z</time>
      </trkpt>
      <trkpt lat="44.57442" lon="2.27035">
        <ele>413</ele>
        <time>2015-08-25T13:33:47Z</time>
      </trkpt>
      <trkpt lat="44.57447" lon="2.27024">
        <ele>412</ele>
        <time>2015-08-25T13:33:57Z</time>
      </trkpt>
      <trkpt lat="44.57455" lon="2.27015">
        <ele>412</ele>
        <time>2015-08-25T13:34:07Z</time>
      </trkpt>
      <trkpt lat="44.57458" lon="2.27009">
        <ele>411</ele>
        <time>2015-08-25T13:34:14Z</time>
      </trkpt>
      <trkpt lat="44.57464" lon="2.26997">
        <ele>411</ele>
        <time>2015-08-25T13:34:22Z</time>
      </trkpt>
      <trkpt lat="44.57471" lon="2.26986">
        <ele>413</ele>
        <time>2015-08-25T13:34:31Z</time>
      </trkpt>
      <trkpt lat="44.57478" lon="2.2697">
        <ele>413</ele>
        <time>2015-08-25T13:34:41Z</time>
      </trkpt>
      <trkpt lat="44.57485" lon="2.26961">
        <ele>411</ele>
        <time>2015-08-25T13:34:50Z</time>
      </trkpt>
      <trkpt lat="44.57492" lon="2.26952">
        <ele>411</ele>
        <time>2015-08-25T13:34:57Z</time>
      </trkpt>
      <trkpt lat="44.57499" lon="2.26942">
        <ele>412</ele>
        <time>2015-08-25T13:35:07Z</time>
      </trkpt>
      <trkpt lat="44.57506" lon="2.26932">
        <ele>413</ele>
        <time>2015-08-25T13:35:18Z</time>
      </trkpt>
      <trkpt lat="44.57513" lon="2.26921">
        <ele>413</ele>
        <time>2015-08-25T13:35:28Z</time>
      </trkpt>
      <trkpt lat="44.5752" lon="2.2691">
        <ele>413</ele>
        <time>2015-08-25T13:35:37Z</time>
      </trkpt>
      <trkpt lat="44.57526" lon="2.269">
        <ele>413</ele>
        <time>2015-08-25T13:35:45Z</time>
      </trkpt>
      <trkpt lat="44.57533" lon="2.2689">
        <ele>413</ele>
        <time>2015-08-25T13:35:54Z</time>
      </trkpt>
      <trkpt lat="44.57539" lon="2.26882">
        <ele>414</ele>
        <time>2015-08-25T13:36:02Z</time>
      </trkpt>
      <trkpt lat="44.57543" lon="2.26877">
        <ele>413</ele>
        <time>2015-08-25T13:36:08Z</time>
      </trkpt>
      <trkpt lat="44.5755" lon="2.26866">
        <ele>413</ele>
        <time>2015-08-25T13:36:17Z</time>
      </trkpt>
      <trkpt lat="44.57557" lon="2.26855">
        <ele>412</ele>
        <time>2015-08-25T13:36:27Z</time>
      </trkpt>
      <trkpt lat="44.57564" lon="2.26843">
        <ele>412</ele>
        <time>2015-08-25T13:36:37Z</time>
      </trkpt>
      <trkpt lat="44.57571" lon="2.26832">
        <ele>412</ele>
        <time>2015-08-25T13:36:48Z</time>
      </trkpt>
      <trkpt lat="44.57574" lon="2.2682">
        <ele>409</ele>
        <time>2015-08-25T13:36:57Z</time>
      </trkpt>
      <trkpt lat="44.57576" lon="2.26813">
        <ele>410</ele>
        <time>2015-08-25T13:37:03Z</time>
      </trkpt>
      <trkpt lat="44.57579" lon="2.26798">
        <ele>409</ele>
        <time>2015-08-25T13:37:12Z</time>
      </trkpt>
      <trkpt lat="44.5758" lon="2.26784">
        <ele>409</ele>
        <time>2015-08-25T13:37:20Z</time>
      </trkpt>
      <trkpt lat="44.57583" lon="2.26771">
        <ele>411</ele>
        <time>2015-08-25T13:37:28Z</time>
      </trkpt>
      <trkpt lat="44.57583" lon="2.26756">
        <ele>411</ele>
        <time>2015-08-25T13:37:36Z</time>
      </trkpt>
      <trkpt lat="44.57583" lon="2.26743">
        <ele>413</ele>
        <time>2015-08-25T13:37:44Z</time>
      </trkpt>
      <trkpt lat="44.57582" lon="2.26729">
        <ele>410</ele>
        <time>2015-08-25T13:37:53Z</time>
      </trkpt>
      <trkpt lat="44.57582" lon="2.26716">
        <ele>410</ele>
        <time>2015-08-25T13:38:02Z</time>
      </trkpt>
      <trkpt lat="44.57582" lon="2.26702">
        <ele>408</ele>
        <time>2015-08-25T13:38:11Z</time>
      </trkpt>
      <trkpt lat="44.57579" lon="2.26688">
        <ele>409</ele>
        <time>2015-08-25T13:38:19Z</time>
      </trkpt>
      <trkpt lat="44.57577" lon="2.26675">
        <ele>410</ele>
        <time>2015-08-25T13:38:28Z</time>
      </trkpt>
      <trkpt lat="44.57574" lon="2.26663">
        <ele>408</ele>
        <time>2015-08-25T13:38:36Z</time>
      </trkpt>
      <trkpt lat="44.5757" lon="2.26651">
        <ele>407</ele>
        <time>2015-08-25T13:38:46Z</time>
      </trkpt>
      <trkpt lat="44.57566" lon="2.2664">
        <ele>408</ele>
        <time>2015-08-25T13:38:54Z</time>
      </trkpt>
      <trkpt lat="44.57564" lon="2.26629">
        <ele>407</ele>
        <time>2015-08-25T13:39:02Z</time>
      </trkpt>
      <trkpt lat="44.57561" lon="2.26616">
        <ele>407</ele>
        <time>2015-08-25T13:39:11Z</time>
      </trkpt>
      <trkpt lat="44.57555" lon="2.26604">
        <ele>406</ele>
        <time>2015-08-25T13:39:20Z</time>
      </trkpt>
      <trkpt lat="44.5755" lon="2.26591">
        <ele>406</ele>
        <time>2015-08-25T13:39:29Z</time>
      </trkpt>
      <trkpt lat="44.57546" lon="2.2658">
        <ele>405</ele>
        <time>2015-08-25T13:39:37Z</time>
      </trkpt>
      <trkpt lat="44.57541" lon="2.26568">
        <ele>403</ele>
        <time>2015-08-25T13:39:45Z</time>
      </trkpt>
      <trkpt lat="44.57537" lon="2.26555">
        <ele>402</ele>
        <time>2015-08-25T13:39:54Z</time>
      </trkpt>
      <trkpt lat="44.57533" lon="2.26545">
        <ele>401</ele>
        <time>2015-08-25T13:40:00Z</time>
      </trkpt>
      <trkpt lat="44.5753" lon="2.26531">
        <ele>399</ele>
        <time>2015-08-25T13:40:10Z</time>
      </trkpt>
      <trkpt lat="44.57527" lon="2.26518">
        <ele>399</ele>
        <time>2015-08-25T13:40:19Z</time>
      </trkpt>
      <trkpt lat="44.57525" lon="2.26503">
        <ele>401</ele>
        <time>2015-08-25T13:40:28Z</time>
      </trkpt>
      <trkpt lat="44.57524" lon="2.2649">
        <ele>401</ele>
        <time>2015-08-25T13:40:37Z</time>
      </trkpt>
      <trkpt lat="44.57523" lon="2.26477">
        <ele>398</ele>
        <time>2015-08-25T13:40:47Z</time>
      </trkpt>
      <trkpt lat="44.57524" lon="2.26462">
        <ele>399</ele>
        <time>2015-08-25T13:40:56Z</time>
      </trkpt>
      <trkpt lat="44.57522" lon="2.26446">
        <ele>400</ele>
        <time>2015-08-25T13:41:06Z</time>
      </trkpt>
      <trkpt lat="44.57522" lon="2.26432">
        <ele>400</ele>
        <time>2015-08-25T13:41:15Z</time>
      </trkpt>
      <trkpt lat="44.57524" lon="2.26418">
        <ele>396</ele>
        <time>2015-08-25T13:41:25Z</time>
      </trkpt>
      <trkpt lat="44.57524" lon="2.26404">
        <ele>394</ele>
        <time>2015-08-25T13:41:35Z</time>
      </trkpt>
      <trkpt lat="44.57524" lon="2.26392">
        <ele>392</ele>
        <time>2015-08-25T13:41:57Z</time>
      </trkpt>
      <trkpt lat="44.57519" lon="2.26393">
        <ele>386</ele>
        <time>2015-08-25T13:42:37Z</time>
      </trkpt>
      <trkpt lat="44.57522" lon="2.26387">
        <ele>386</ele>
        <time>2015-08-25T13:42:47Z</time>
      </trkpt>
      <trkpt lat="44.57529" lon="2.26376">
        <ele>386</ele>
        <time>2015-08-25T13:42:56Z</time>
      </trkpt>
      <trkpt lat="44.57531" lon="2.2636">
        <ele>388</ele>
        <time>2015-08-25T13:43:05Z</time>
      </trkpt>
      <trkpt lat="44.5753" lon="2.26346">
        <ele>388</ele>
        <time>2015-08-25T13:43:15Z</time>
      </trkpt>
      <trkpt lat="44.57526" lon="2.26333">
        <ele>387</ele>
        <time>2015-08-25T13:43:24Z</time>
      </trkpt>
      <trkpt lat="44.57523" lon="2.26322">
        <ele>391</ele>
        <time>2015-08-25T13:43:33Z</time>
      </trkpt>
      <trkpt lat="44.57515" lon="2.26311">
        <ele>390</ele>
        <time>2015-08-25T13:43:43Z</time>
      </trkpt>
      <trkpt lat="44.5751" lon="2.26299">
        <ele>388</ele>
        <time>2015-08-25T13:43:53Z</time>
      </trkpt>
      <trkpt lat="44.57508" lon="2.26286">
        <ele>386</ele>
        <time>2015-08-25T13:44:01Z</time>
      </trkpt>
      <trkpt lat="44.57503" lon="2.26274">
        <ele>387</ele>
        <time>2015-08-25T13:44:09Z</time>
      </trkpt>
      <trkpt lat="44.57505" lon="2.26268">
        <ele>381</ele>
        <time>2015-08-25T13:44:15Z</time>
      </trkpt>
      <trkpt lat="44.575" lon="2.26253">
        <ele>383</ele>
        <time>2015-08-25T13:44:23Z</time>
      </trkpt>
      <trkpt lat="44.57497" lon="2.26241">
        <ele>385</ele>
        <time>2015-08-25T13:44:30Z</time>
      </trkpt>
      <trkpt lat="44.57491" lon="2.26231">
        <ele>385</ele>
        <time>2015-08-25T13:44:37Z</time>
      </trkpt>
      <trkpt lat="44.57488" lon="2.26219">
        <ele>387</ele>
        <time>2015-08-25T13:44:45Z</time>
      </trkpt>
      <trkpt lat="44.57484" lon="2.26205">
        <ele>388</ele>
        <time>2015-08-25T13:44:54Z</time>
      </trkpt>
      <trkpt lat="44.57481" lon="2.26194">
        <ele>388</ele>
        <time>2015-08-25T13:45:02Z</time>
      </trkpt>
      <trkpt lat="44.57477" lon="2.26182">
        <ele>389</ele>
        <time>2015-08-25T13:45:12Z</time>
      </trkpt>
      <trkpt lat="44.57473" lon="2.2617">
        <ele>387</ele>
        <time>2015-08-25T13:45:20Z</time>
      </trkpt>
      <trkpt lat="44.57467" lon="2.26159">
        <ele>386</ele>
        <time>2015-08-25T13:45:27Z</time>
      </trkpt>
      <trkpt lat="44.57465" lon="2.26153">
        <ele>386</ele>
        <time>2015-08-25T13:45:33Z</time>
      </trkpt>
      <trkpt lat="44.5746" lon="2.2614">
        <ele>384</ele>
        <time>2015-08-25T13:45:42Z</time>
      </trkpt>
      <trkpt lat="44.57457" lon="2.26126">
        <ele>385</ele>
        <time>2015-08-25T13:45:51Z</time>
      </trkpt>
      <trkpt lat="44.57456" lon="2.2612">
        <ele>385</ele>
        <time>2015-08-25T13:45:57Z</time>
      </trkpt>
      <trkpt lat="44.57451" lon="2.26109">
        <ele>385</ele>
        <time>2015-08-25T13:46:05Z</time>
      </trkpt>
      <trkpt lat="44.57448" lon="2.26097">
        <ele>386</ele>
        <time>2015-08-25T13:46:13Z</time>
      </trkpt>
      <trkpt lat="44.57444" lon="2.26083">
        <ele>386</ele>
        <time>2015-08-25T13:46:22Z</time>
      </trkpt>
      <trkpt lat="44.57441" lon="2.2607">
        <ele>383</ele>
        <time>2015-08-25T13:46:31Z</time>
      </trkpt>
      <trkpt lat="44.57441" lon="2.26056">
        <ele>384</ele>
        <time>2015-08-25T13:46:41Z</time>
      </trkpt>
      <trkpt lat="44.57438" lon="2.26042">
        <ele>385</ele>
        <time>2015-08-25T13:46:52Z</time>
      </trkpt>
      <trkpt lat="44.57433" lon="2.26029">
        <ele>387</ele>
        <time>2015-08-25T13:47:02Z</time>
      </trkpt>
      <trkpt lat="44.57429" lon="2.26015">
        <ele>389</ele>
        <time>2015-08-25T13:47:11Z</time>
      </trkpt>
      <trkpt lat="44.57428" lon="2.26002">
        <ele>390</ele>
        <time>2015-08-25T13:47:22Z</time>
      </trkpt>
      <trkpt lat="44.57426" lon="2.25994">
        <ele>390</ele>
        <time>2015-08-25T13:47:28Z</time>
      </trkpt>
      <trkpt lat="44.57425" lon="2.25987">
        <ele>390</ele>
        <time>2015-08-25T13:47:34Z</time>
      </trkpt>
      <trkpt lat="44.57423" lon="2.25974">
        <ele>391</ele>
        <time>2015-08-25T13:47:43Z</time>
      </trkpt>
      <trkpt lat="44.57421" lon="2.25966">
        <ele>392</ele>
        <time>2015-08-25T13:47:49Z</time>
      </trkpt>
      <trkpt lat="44.5742" lon="2.2596">
        <ele>392</ele>
        <time>2015-08-25T13:47:55Z</time>
      </trkpt>
      <trkpt lat="44.57419" lon="2.2595">
        <ele>391</ele>
        <time>2015-08-25T13:48:01Z</time>
      </trkpt>
      <trkpt lat="44.57418" lon="2.25943">
        <ele>391</ele>
        <time>2015-08-25T13:48:07Z</time>
      </trkpt>
      <trkpt lat="44.57418" lon="2.25928">
        <ele>391</ele>
        <time>2015-08-25T13:48:18Z</time>
      </trkpt>
      <trkpt lat="44.57418" lon="2.25913">
        <ele>392</ele>
        <time>2015-08-25T13:48:28Z</time>
      </trkpt>
      <trkpt lat="44.57417" lon="2.25899">
        <ele>392</ele>
        <time>2015-08-25T13:48:38Z</time>
      </trkpt>
      <trkpt lat="44.57415" lon="2.25885">
        <ele>393</ele>
        <time>2015-08-25T13:48:47Z</time>
      </trkpt>
      <trkpt lat="44.57415" lon="2.25878">
        <ele>394</ele>
        <time>2015-08-25T13:48:53Z</time>
      </trkpt>
      <trkpt lat="44.57412" lon="2.25868">
        <ele>396</ele>
        <time>2015-08-25T13:49:01Z</time>
      </trkpt>
      <trkpt lat="44.57409" lon="2.25853">
        <ele>395</ele>
        <time>2015-08-25T13:49:10Z</time>
      </trkpt>
      <trkpt lat="44.5741" lon="2.2584">
        <ele>397</ele>
        <time>2015-08-25T13:49:20Z</time>
      </trkpt>
      <trkpt lat="44.57409" lon="2.25833">
        <ele>397</ele>
        <time>2015-08-25T13:49:26Z</time>
      </trkpt>
      <trkpt lat="44.5741" lon="2.2582">
        <ele>398</ele>
        <time>2015-08-25T13:49:35Z</time>
      </trkpt>
      <trkpt lat="44.5741" lon="2.25813">
        <ele>399</ele>
        <time>2015-08-25T13:49:42Z</time>
      </trkpt>
      <trkpt lat="44.5741" lon="2.258">
        <ele>403</ele>
        <time>2015-08-25T13:49:53Z</time>
      </trkpt>
      <trkpt lat="44.57413" lon="2.25787">
        <ele>401</ele>
        <time>2015-08-25T13:50:00Z</time>
      </trkpt>
      <trkpt lat="44.57414" lon="2.25773">
        <ele>400</ele>
        <time>2015-08-25T13:50:10Z</time>
      </trkpt>
      <trkpt lat="44.57418" lon="2.25761">
        <ele>399</ele>
        <time>2015-08-25T13:50:17Z</time>
      </trkpt>
      <trkpt lat="44.57422" lon="2.2575">
        <ele>398</ele>
        <time>2015-08-25T13:50:25Z</time>
      </trkpt>
      <trkpt lat="44.57428" lon="2.25739">
        <ele>398</ele>
        <time>2015-08-25T13:50:34Z</time>
      </trkpt>
      <trkpt lat="44.57435" lon="2.25731">
        <ele>395</ele>
        <time>2015-08-25T13:50:44Z</time>
      </trkpt>
      <trkpt lat="44.57439" lon="2.25726">
        <ele>392</ele>
        <time>2015-08-25T13:50:50Z</time>
      </trkpt>
      <trkpt lat="44.57444" lon="2.25718">
        <ele>389</ele>
        <time>2015-08-25T13:50:57Z</time>
      </trkpt>
      <trkpt lat="44.57451" lon="2.25708">
        <ele>390</ele>
        <time>2015-08-25T13:51:05Z</time>
      </trkpt>
      <trkpt lat="44.57456" lon="2.25694">
        <ele>390</ele>
        <time>2015-08-25T13:51:15Z</time>
      </trkpt>
      <trkpt lat="44.57462" lon="2.25683">
        <ele>387</ele>
        <time>2015-08-25T13:51:23Z</time>
      </trkpt>
      <trkpt lat="44.57463" lon="2.25677">
        <ele>387</ele>
        <time>2015-08-25T13:51:31Z</time>
      </trkpt>
      <trkpt lat="44.57468" lon="2.25665">
        <ele>386</ele>
        <time>2015-08-25T13:51:39Z</time>
      </trkpt>
      <trkpt lat="44.57473" lon="2.25654">
        <ele>385</ele>
        <time>2015-08-25T13:51:48Z</time>
      </trkpt>
      <trkpt lat="44.57478" lon="2.25643">
        <ele>388</ele>
        <time>2015-08-25T13:51:57Z</time>
      </trkpt>
      <trkpt lat="44.57485" lon="2.25633">
        <ele>390</ele>
        <time>2015-08-25T13:52:04Z</time>
      </trkpt>
      <trkpt lat="44.57487" lon="2.25625">
        <ele>387</ele>
        <time>2015-08-25T13:52:10Z</time>
      </trkpt>
      <trkpt lat="44.57492" lon="2.25612">
        <ele>388</ele>
        <time>2015-08-25T13:52:19Z</time>
      </trkpt>
      <trkpt lat="44.57499" lon="2.256">
        <ele>389</ele>
        <time>2015-08-25T13:52:28Z</time>
      </trkpt>
      <trkpt lat="44.57504" lon="2.25587">
        <ele>390</ele>
        <time>2015-08-25T13:52:37Z</time>
      </trkpt>
      <trkpt lat="44.5751" lon="2.25574">
        <ele>390</ele>
        <time>2015-08-25T13:52:46Z</time>
      </trkpt>
      <trkpt lat="44.57515" lon="2.25561">
        <ele>389</ele>
        <time>2015-08-25T13:52:54Z</time>
      </trkpt>
      <trkpt lat="44.57515" lon="2.25551">
        <ele>387</ele>
        <time>2015-08-25T13:53:01Z</time>
      </trkpt>
      <trkpt lat="44.57515" lon="2.25537">
        <ele>386</ele>
        <time>2015-08-25T13:53:10Z</time>
      </trkpt>
      <trkpt lat="44.57509" lon="2.25525">
        <ele>381</ele>
        <time>2015-08-25T13:53:17Z</time>
      </trkpt>
      <trkpt lat="44.57509" lon="2.25511">
        <ele>381</ele>
        <time>2015-08-25T13:53:25Z</time>
      </trkpt>
      <trkpt lat="44.57514" lon="2.255">
        <ele>378</ele>
        <time>2015-08-25T13:53:38Z</time>
      </trkpt>
      <trkpt lat="44.57515" lon="2.25485">
        <ele>380</ele>
        <time>2015-08-25T13:53:48Z</time>
      </trkpt>
      <trkpt lat="44.57516" lon="2.25472">
        <ele>379</ele>
        <time>2015-08-25T13:53:56Z</time>
      </trkpt>
      <trkpt lat="44.57515" lon="2.25463">
        <ele>378</ele>
        <time>2015-08-25T13:54:03Z</time>
      </trkpt>
      <trkpt lat="44.57512" lon="2.25451">
        <ele>375</ele>
        <time>2015-08-25T13:54:11Z</time>
      </trkpt>
      <trkpt lat="44.57512" lon="2.25437">
        <ele>375</ele>
        <time>2015-08-25T13:54:19Z</time>
      </trkpt>
      <trkpt lat="44.57507" lon="2.25422">
        <ele>374</ele>
        <time>2015-08-25T13:54:27Z</time>
      </trkpt>
      <trkpt lat="44.57506" lon="2.25407">
        <ele>373</ele>
        <time>2015-08-25T13:54:35Z</time>
      </trkpt>
      <trkpt lat="44.57505" lon="2.25394">
        <ele>373</ele>
        <time>2015-08-25T13:54:44Z</time>
      </trkpt>
      <trkpt lat="44.57505" lon="2.25387">
        <ele>374</ele>
        <time>2015-08-25T13:54:50Z</time>
      </trkpt>
      <trkpt lat="44.57502" lon="2.25375">
        <ele>372</ele>
        <time>2015-08-25T13:54:57Z</time>
      </trkpt>
      <trkpt lat="44.57501" lon="2.25362">
        <ele>375</ele>
        <time>2015-08-25T13:55:06Z</time>
      </trkpt>
      <trkpt lat="44.57499" lon="2.25349">
        <ele>373</ele>
        <time>2015-08-25T13:55:13Z</time>
      </trkpt>
      <trkpt lat="44.57497" lon="2.25334">
        <ele>372</ele>
        <time>2015-08-25T13:55:20Z</time>
      </trkpt>
      <trkpt lat="44.57495" lon="2.25319">
        <ele>370</ele>
        <time>2015-08-25T13:55:30Z</time>
      </trkpt>
      <trkpt lat="44.57494" lon="2.25305">
        <ele>371</ele>
        <time>2015-08-25T13:55:38Z</time>
      </trkpt>
      <trkpt lat="44.57491" lon="2.25293">
        <ele>370</ele>
        <time>2015-08-25T13:55:46Z</time>
      </trkpt>
      <trkpt lat="44.57491" lon="2.25279">
        <ele>369</ele>
        <time>2015-08-25T13:55:54Z</time>
      </trkpt>
      <trkpt lat="44.5749" lon="2.25269">
        <ele>369</ele>
        <time>2015-08-25T13:56:01Z</time>
      </trkpt>
      <trkpt lat="44.57491" lon="2.25255">
        <ele>369</ele>
        <time>2015-08-25T13:56:11Z</time>
      </trkpt>
      <trkpt lat="44.57493" lon="2.25241">
        <ele>369</ele>
        <time>2015-08-25T13:56:20Z</time>
      </trkpt>
      <trkpt lat="44.57495" lon="2.25235">
        <ele>369</ele>
        <time>2015-08-25T13:56:26Z</time>
      </trkpt>
      <trkpt lat="44.57501" lon="2.25223">
        <ele>371</ele>
        <time>2015-08-25T13:56:35Z</time>
      </trkpt>
      <trkpt lat="44.57505" lon="2.2521">
        <ele>371</ele>
        <time>2015-08-25T13:56:45Z</time>
      </trkpt>
      <trkpt lat="44.5751" lon="2.25198">
        <ele>371</ele>
        <time>2015-08-25T13:56:52Z</time>
      </trkpt>
      <trkpt lat="44.57515" lon="2.25186">
        <ele>373</ele>
        <time>2015-08-25T13:57:01Z</time>
      </trkpt>
      <trkpt lat="44.57521" lon="2.25174">
        <ele>370</ele>
        <time>2015-08-25T13:57:09Z</time>
      </trkpt>
      <trkpt lat="44.57525" lon="2.25161">
        <ele>372</ele>
        <time>2015-08-25T13:57:19Z</time>
      </trkpt>
      <trkpt lat="44.57527" lon="2.25155">
        <ele>373</ele>
        <time>2015-08-25T13:57:43Z</time>
      </trkpt>
      <trkpt lat="44.57529" lon="2.25147">
        <ele>368</ele>
        <time>2015-08-25T13:58:24Z</time>
      </trkpt>
      <trkpt lat="44.57537" lon="2.25136">
        <ele>369</ele>
        <time>2015-08-25T13:58:34Z</time>
      </trkpt>
      <trkpt lat="44.57544" lon="2.25128">
        <ele>370</ele>
        <time>2015-08-25T13:58:42Z</time>
      </trkpt>
      <trkpt lat="44.57552" lon="2.25118">
        <ele>371</ele>
        <time>2015-08-25T13:58:51Z</time>
      </trkpt>
      <trkpt lat="44.57557" lon="2.25111">
        <ele>372</ele>
        <time>2015-08-25T13:58:57Z</time>
      </trkpt>
      <trkpt lat="44.57563" lon="2.251">
        <ele>372</ele>
        <time>2015-08-25T13:59:06Z</time>
      </trkpt>
      <trkpt lat="44.5757" lon="2.25089">
        <ele>371</ele>
        <time>2015-08-25T13:59:14Z</time>
      </trkpt>
      <trkpt lat="44.57574" lon="2.25083">
        <ele>369</ele>
        <time>2015-08-25T13:59:20Z</time>
      </trkpt>
      <trkpt lat="44.57582" lon="2.25075">
        <ele>371</ele>
        <time>2015-08-25T13:59:27Z</time>
      </trkpt>
      <trkpt lat="44.5759" lon="2.25069">
        <ele>370</ele>
        <time>2015-08-25T13:59:36Z</time>
      </trkpt>
      <trkpt lat="44.57597" lon="2.25057">
        <ele>365</ele>
        <time>2015-08-25T13:59:45Z</time>
      </trkpt>
      <trkpt lat="44.57605" lon="2.25051">
        <ele>364</ele>
        <time>2015-08-25T13:59:53Z</time>
      </trkpt>
      <trkpt lat="44.57614" lon="2.25042">
        <ele>362</ele>
        <time>2015-08-25T14:00:04Z</time>
      </trkpt>
      <trkpt lat="44.57621" lon="2.25034">
        <ele>362</ele>
        <time>2015-08-25T14:00:10Z</time>
      </trkpt>
      <trkpt lat="44.5763" lon="2.25025">
        <ele>362</ele>
        <time>2015-08-25T14:00:19Z</time>
      </trkpt>
      <trkpt lat="44.57639" lon="2.25013">
        <ele>360</ele>
        <time>2015-08-25T14:00:28Z</time>
      </trkpt>
      <trkpt lat="44.57645" lon="2.25003">
        <ele>359</ele>
        <time>2015-08-25T14:00:37Z</time>
      </trkpt>
      <trkpt lat="44.57655" lon="2.24992">
        <ele>359</ele>
        <time>2015-08-25T14:00:48Z</time>
      </trkpt>
      <trkpt lat="44.57661" lon="2.24983">
        <ele>361</ele>
        <time>2015-08-25T14:00:57Z</time>
      </trkpt>
      <trkpt lat="44.57664" lon="2.24977">
        <ele>362</ele>
        <time>2015-08-25T14:01:03Z</time>
      </trkpt>
      <trkpt lat="44.57672" lon="2.24966">
        <ele>363</ele>
        <time>2015-08-25T14:01:10Z</time>
      </trkpt>
      <trkpt lat="44.57679" lon="2.24956">
        <ele>359</ele>
        <time>2015-08-25T14:01:18Z</time>
      </trkpt>
      <trkpt lat="44.57687" lon="2.24947">
        <ele>359</ele>
        <time>2015-08-25T14:01:28Z</time>
      </trkpt>
      <trkpt lat="44.57695" lon="2.24938">
        <ele>357</ele>
        <time>2015-08-25T14:01:37Z</time>
      </trkpt>
      <trkpt lat="44.57703" lon="2.24927">
        <ele>355</ele>
        <time>2015-08-25T14:01:47Z</time>
      </trkpt>
      <trkpt lat="44.5771" lon="2.24917">
        <ele>357</ele>
        <time>2015-08-25T14:01:56Z</time>
      </trkpt>
      <trkpt lat="44.57718" lon="2.24903">
        <ele>359</ele>
        <time>2015-08-25T14:02:06Z</time>
      </trkpt>
      <trkpt lat="44.57723" lon="2.2489">
        <ele>361</ele>
        <time>2015-08-25T14:02:17Z</time>
      </trkpt>
      <trkpt lat="44.57731" lon="2.24881">
        <ele>357</ele>
        <time>2015-08-25T14:02:27Z</time>
      </trkpt>
      <trkpt lat="44.57736" lon="2.24877">
        <ele>357</ele>
        <time>2015-08-25T14:02:33Z</time>
      </trkpt>
      <trkpt lat="44.57742" lon="2.24866">
        <ele>353</ele>
        <time>2015-08-25T14:02:42Z</time>
      </trkpt>
      <trkpt lat="44.57747" lon="2.24854">
        <ele>352</ele>
        <time>2015-08-25T14:02:50Z</time>
      </trkpt>
      <trkpt lat="44.57753" lon="2.24845">
        <ele>352</ele>
        <time>2015-08-25T14:02:57Z</time>
      </trkpt>
      <trkpt lat="44.57761" lon="2.24834">
        <ele>354</ele>
        <time>2015-08-25T14:03:06Z</time>
      </trkpt>
      <trkpt lat="44.57769" lon="2.24826">
        <ele>353</ele>
        <time>2015-08-25T14:03:16Z</time>
      </trkpt>
      <trkpt lat="44.57777" lon="2.24818">
        <ele>351</ele>
        <time>2015-08-25T14:03:25Z</time>
      </trkpt>
      <trkpt lat="44.57785" lon="2.2481">
        <ele>351</ele>
        <time>2015-08-25T14:03:35Z</time>
      </trkpt>
      <trkpt lat="44.57796" lon="2.24801">
        <ele>350</ele>
        <time>2015-08-25T14:03:43Z</time>
      </trkpt>
      <trkpt lat="44.57804" lon="2.24804">
        <ele>351</ele>
        <time>2015-08-25T14:03:55Z</time>
      </trkpt>
      <trkpt lat="44.57811" lon="2.24806">
        <ele>352</ele>
        <time>2015-08-25T14:04:01Z</time>
      </trkpt>
      <trkpt lat="44.57822" lon="2.24806">
        <ele>352</ele>
        <time>2015-08-25T14:04:11Z</time>
      </trkpt>
      <trkpt lat="44.57825" lon="2.24811">
        <ele>354</ele>
        <time>2015-08-25T14:04:17Z</time>
      </trkpt>
      <trkpt lat="44.57835" lon="2.24813">
        <ele>354</ele>
        <time>2015-08-25T14:04:25Z</time>
      </trkpt>
      <trkpt lat="44.57845" lon="2.24816">
        <ele>355</ele>
        <time>2015-08-25T14:04:36Z</time>
      </trkpt>
      <trkpt lat="44.57854" lon="2.24814">
        <ele>358</ele>
        <time>2015-08-25T14:04:47Z</time>
      </trkpt>
      <trkpt lat="44.57863" lon="2.24809">
        <ele>358</ele>
        <time>2015-08-25T14:04:56Z</time>
      </trkpt>
      <trkpt lat="44.57881" lon="2.24794">
        <ele>366</ele>
        <time>2015-08-25T14:05:21Z</time>
      </trkpt>
      <trkpt lat="44.57867" lon="2.24801">
        <ele>359</ele>
        <time>2015-08-25T14:05:57Z</time>
      </trkpt>
      <trkpt lat="44.57875" lon="2.24796">
        <ele>359</ele>
        <time>2015-08-25T14:07:23Z</time>
      </trkpt>
      <trkpt lat="44.57882" lon="2.24786">
        <ele>359</ele>
        <time>2015-08-25T14:07:33Z</time>
      </trkpt>
      <trkpt lat="44.57886" lon="2.2478">
        <ele>359</ele>
        <time>2015-08-25T14:07:39Z</time>
      </trkpt>
      <trkpt lat="44.57891" lon="2.24768">
        <ele>359</ele>
        <time>2015-08-25T14:07:49Z</time>
      </trkpt>
      <trkpt lat="44.57892" lon="2.24762">
        <ele>358</ele>
        <time>2015-08-25T14:07:56Z</time>
      </trkpt>
      <trkpt lat="44.57891" lon="2.24755">
        <ele>358</ele>
        <time>2015-08-25T14:08:07Z</time>
      </trkpt>
      <trkpt lat="44.57889" lon="2.24742">
        <ele>358</ele>
        <time>2015-08-25T14:08:16Z</time>
      </trkpt>
      <trkpt lat="44.57889" lon="2.24727">
        <ele>359</ele>
        <time>2015-08-25T14:08:25Z</time>
      </trkpt>
      <trkpt lat="44.5789" lon="2.24713">
        <ele>359</ele>
        <time>2015-08-25T14:08:34Z</time>
      </trkpt>
      <trkpt lat="44.57893" lon="2.24698">
        <ele>359</ele>
        <time>2015-08-25T14:08:43Z</time>
      </trkpt>
      <trkpt lat="44.57892" lon="2.24683">
        <ele>360</ele>
        <time>2015-08-25T14:08:52Z</time>
      </trkpt>
      <trkpt lat="44.57892" lon="2.24667">
        <ele>358</ele>
        <time>2015-08-25T14:09:02Z</time>
      </trkpt>
      <trkpt lat="44.57893" lon="2.24653">
        <ele>357</ele>
        <time>2015-08-25T14:09:11Z</time>
      </trkpt>
      <trkpt lat="44.57895" lon="2.24639">
        <ele>359</ele>
        <time>2015-08-25T14:09:19Z</time>
      </trkpt>
      <trkpt lat="44.57894" lon="2.24625">
        <ele>361</ele>
        <time>2015-08-25T14:09:30Z</time>
      </trkpt>
      <trkpt lat="44.57891" lon="2.2461">
        <ele>361</ele>
        <time>2015-08-25T14:09:40Z</time>
      </trkpt>
      <trkpt lat="44.57886" lon="2.24597">
        <ele>361</ele>
        <time>2015-08-25T14:09:50Z</time>
      </trkpt>
      <trkpt lat="44.57882" lon="2.24586">
        <ele>362</ele>
        <time>2015-08-25T14:09:57Z</time>
      </trkpt>
      <trkpt lat="44.57873" lon="2.24576">
        <ele>360</ele>
        <time>2015-08-25T14:10:05Z</time>
      </trkpt>
      <trkpt lat="44.5787" lon="2.24571">
        <ele>360</ele>
        <time>2015-08-25T14:10:11Z</time>
      </trkpt>
      <trkpt lat="44.57863" lon="2.24562">
        <ele>359</ele>
        <time>2015-08-25T14:10:19Z</time>
      </trkpt>
      <trkpt lat="44.57854" lon="2.24552">
        <ele>358</ele>
        <time>2015-08-25T14:10:29Z</time>
      </trkpt>
      <trkpt lat="44.57846" lon="2.24544">
        <ele>357</ele>
        <time>2015-08-25T14:10:37Z</time>
      </trkpt>
      <trkpt lat="44.57838" lon="2.24536">
        <ele>360</ele>
        <time>2015-08-25T14:10:49Z</time>
      </trkpt>
      <trkpt lat="44.5783" lon="2.24531">
        <ele>360</ele>
        <time>2015-08-25T14:10:57Z</time>
      </trkpt>
      <trkpt lat="44.57821" lon="2.24528">
        <ele>359</ele>
        <time>2015-08-25T14:11:04Z</time>
      </trkpt>
      <trkpt lat="44.57811" lon="2.24523">
        <ele>359</ele>
        <time>2015-08-25T14:11:11Z</time>
      </trkpt>
      <trkpt lat="44.57801" lon="2.2452">
        <ele>359</ele>
        <time>2015-08-25T14:11:19Z</time>
      </trkpt>
      <trkpt lat="44.57791" lon="2.24516">
        <ele>359</ele>
        <time>2015-08-25T14:11:29Z</time>
      </trkpt>
      <trkpt lat="44.57782" lon="2.2451">
        <ele>358</ele>
        <time>2015-08-25T14:11:39Z</time>
      </trkpt>
      <trkpt lat="44.57773" lon="2.24504">
        <ele>356</ele>
        <time>2015-08-25T14:11:47Z</time>
      </trkpt>
      <trkpt lat="44.57764" lon="2.24497">
        <ele>357</ele>
        <time>2015-08-25T14:11:55Z</time>
      </trkpt>
      <trkpt lat="44.57758" lon="2.24494">
        <ele>354</ele>
        <time>2015-08-25T14:12:28Z</time>
      </trkpt>
      <trkpt lat="44.57748" lon="2.2449">
        <ele>356</ele>
        <time>2015-08-25T14:12:36Z</time>
      </trkpt>
      <trkpt lat="44.57739" lon="2.24483">
        <ele>355</ele>
        <time>2015-08-25T14:12:44Z</time>
      </trkpt>
      <trkpt lat="44.5773" lon="2.24479">
        <ele>354</ele>
        <time>2015-08-25T14:12:52Z</time>
      </trkpt>
      <trkpt lat="44.57719" lon="2.24474">
        <ele>355</ele>
        <time>2015-08-25T14:13:01Z</time>
      </trkpt>
      <trkpt lat="44.5771" lon="2.2447">
        <ele>354</ele>
        <time>2015-08-25T14:13:09Z</time>
      </trkpt>
      <trkpt lat="44.57701" lon="2.24465">
        <ele>353</ele>
        <time>2015-08-25T14:13:17Z</time>
      </trkpt>
      <trkpt lat="44.57692" lon="2.24457">
        <ele>352</ele>
        <time>2015-08-25T14:13:26Z</time>
      </trkpt>
      <trkpt lat="44.57684" lon="2.2445">
        <ele>352</ele>
        <time>2015-08-25T14:13:35Z</time>
      </trkpt>
      <trkpt lat="44.5768" lon="2.24452">
        <ele>346</ele>
        <time>2015-08-25T14:13:41Z</time>
      </trkpt>
      <trkpt lat="44.5767" lon="2.2445">
        <ele>344</ele>
        <time>2015-08-25T14:13:51Z</time>
      </trkpt>
      <trkpt lat="44.57668" lon="2.24442">
        <ele>349</ele>
        <time>2015-08-25T14:14:06Z</time>
      </trkpt>
      <trkpt lat="44.57668" lon="2.24428">
        <ele>354</ele>
        <time>2015-08-25T14:14:16Z</time>
      </trkpt>
      <trkpt lat="44.57665" lon="2.24422">
        <ele>355</ele>
        <time>2015-08-25T14:14:22Z</time>
      </trkpt>
      <trkpt lat="44.57668" lon="2.24428">
        <ele>350</ele>
        <time>2015-08-25T14:17:28Z</time>
      </trkpt>
      <trkpt lat="44.57666" lon="2.24422">
        <ele>348</ele>
        <time>2015-08-25T14:17:46Z</time>
      </trkpt>
      <trkpt lat="44.57666" lon="2.24411">
        <ele>347</ele>
        <time>2015-08-25T14:19:17Z</time>
      </trkpt>
      <trkpt lat="44.57669" lon="2.24405">
        <ele>348</ele>
        <time>2015-08-25T14:19:23Z</time>
      </trkpt>
      <trkpt lat="44.57674" lon="2.24393">
        <ele>349</ele>
        <time>2015-08-25T14:19:34Z</time>
      </trkpt>
      <trkpt lat="44.57678" lon="2.2438">
        <ele>351</ele>
        <time>2015-08-25T14:19:44Z</time>
      </trkpt>
      <trkpt lat="44.57684" lon="2.24368">
        <ele>354</ele>
        <time>2015-08-25T14:19:54Z</time>
      </trkpt>
      <trkpt lat="44.57688" lon="2.24359">
        <ele>356</ele>
        <time>2015-08-25T14:20:02Z</time>
      </trkpt>
      <trkpt lat="44.57691" lon="2.24347">
        <ele>358</ele>
        <time>2015-08-25T14:20:12Z</time>
      </trkpt>
      <trkpt lat="44.57695" lon="2.24334">
        <ele>359</ele>
        <time>2015-08-25T14:20:23Z</time>
      </trkpt>
      <trkpt lat="44.57699" lon="2.24322">
        <ele>361</ele>
        <time>2015-08-25T14:20:34Z</time>
      </trkpt>
      <trkpt lat="44.57704" lon="2.24311">
        <ele>362</ele>
        <time>2015-08-25T14:20:44Z</time>
      </trkpt>
      <trkpt lat="44.57709" lon="2.24299">
        <ele>363</ele>
        <time>2015-08-25T14:20:55Z</time>
      </trkpt>
      <trkpt lat="44.57713" lon="2.24291">
        <ele>364</ele>
        <time>2015-08-25T14:21:02Z</time>
      </trkpt>
      <trkpt lat="44.57719" lon="2.2428">
        <ele>365</ele>
        <time>2015-08-25T14:21:13Z</time>
      </trkpt>
      <trkpt lat="44.57721" lon="2.24267">
        <ele>366</ele>
        <time>2015-08-25T14:21:23Z</time>
      </trkpt>
      <trkpt lat="44.5772" lon="2.2426">
        <ele>365</ele>
        <time>2015-08-25T14:21:29Z</time>
      </trkpt>
      <trkpt lat="44.57718" lon="2.24253">
        <ele>363</ele>
        <time>2015-08-25T14:21:36Z</time>
      </trkpt>
      <trkpt lat="44.57714" lon="2.24239">
        <ele>364</ele>
        <time>2015-08-25T14:21:46Z</time>
      </trkpt>
      <trkpt lat="44.57707" lon="2.24229">
        <ele>365</ele>
        <time>2015-08-25T14:21:57Z</time>
      </trkpt>
      <trkpt lat="44.57701" lon="2.2422">
        <ele>367</ele>
        <time>2015-08-25T14:22:06Z</time>
      </trkpt>
      <trkpt lat="44.57693" lon="2.24212">
        <ele>368</ele>
        <time>2015-08-25T14:22:19Z</time>
      </trkpt>
      <trkpt lat="44.57688" lon="2.24211">
        <ele>369</ele>
        <time>2015-08-25T14:22:25Z</time>
      </trkpt>
      <trkpt lat="44.5768" lon="2.24203">
        <ele>372</ele>
        <time>2015-08-25T14:22:35Z</time>
      </trkpt>
      <trkpt lat="44.57676" lon="2.24199">
        <ele>372</ele>
        <time>2015-08-25T14:22:42Z</time>
      </trkpt>
      <trkpt lat="44.57669" lon="2.24195">
        <ele>372</ele>
        <time>2015-08-25T14:22:57Z</time>
      </trkpt>
      <trkpt lat="44.57666" lon="2.24191">
        <ele>374</ele>
        <time>2015-08-25T14:23:26Z</time>
      </trkpt>
      <trkpt lat="44.57663" lon="2.24185">
        <ele>374</ele>
        <time>2015-08-25T14:23:32Z</time>
      </trkpt>
      <trkpt lat="44.57654" lon="2.2418">
        <ele>373</ele>
        <time>2015-08-25T14:23:41Z</time>
      </trkpt>
      <trkpt lat="44.57651" lon="2.24173">
        <ele>376</ele>
        <time>2015-08-25T14:23:47Z</time>
      </trkpt>
      <trkpt lat="44.57647" lon="2.24168">
        <ele>377</ele>
        <time>2015-08-25T14:23:53Z</time>
      </trkpt>
      <trkpt lat="44.5764" lon="2.24159">
        <ele>380</ele>
        <time>2015-08-25T14:24:03Z</time>
      </trkpt>
      <trkpt lat="44.57634" lon="2.24147">
        <ele>381</ele>
        <time>2015-08-25T14:24:15Z</time>
      </trkpt>
      <trkpt lat="44.57633" lon="2.2414">
        <ele>382</ele>
        <time>2015-08-25T14:24:22Z</time>
      </trkpt>
      <trkpt lat="44.57629" lon="2.24135">
        <ele>382</ele>
        <time>2015-08-25T14:24:29Z</time>
      </trkpt>
      <trkpt lat="44.57625" lon="2.24132">
        <ele>385</ele>
        <time>2015-08-25T14:24:35Z</time>
      </trkpt>
      <trkpt lat="44.57621" lon="2.24127">
        <ele>385</ele>
        <time>2015-08-25T14:24:41Z</time>
      </trkpt>
      <trkpt lat="44.57616" lon="2.24126">
        <ele>386</ele>
        <time>2015-08-25T14:24:47Z</time>
      </trkpt>
      <trkpt lat="44.57611" lon="2.24123">
        <ele>385</ele>
        <time>2015-08-25T14:24:54Z</time>
      </trkpt>
      <trkpt lat="44.57605" lon="2.24121">
        <ele>385</ele>
        <time>2015-08-25T14:25:02Z</time>
      </trkpt>
      <trkpt lat="44.57598" lon="2.24111">
        <ele>387</ele>
        <time>2015-08-25T14:25:13Z</time>
      </trkpt>
      <trkpt lat="44.57597" lon="2.24104">
        <ele>388</ele>
        <time>2015-08-25T14:25:20Z</time>
      </trkpt>
      <trkpt lat="44.57597" lon="2.24097">
        <ele>390</ele>
        <time>2015-08-25T14:25:57Z</time>
      </trkpt>
      <trkpt lat="44.57602" lon="2.24092">
        <ele>390</ele>
        <time>2015-08-25T14:26:12Z</time>
      </trkpt>
      <trkpt lat="44.57605" lon="2.2408">
        <ele>391</ele>
        <time>2015-08-25T14:26:23Z</time>
      </trkpt>
      <trkpt lat="44.57609" lon="2.24074">
        <ele>395</ele>
        <time>2015-08-25T14:26:30Z</time>
      </trkpt>
      <trkpt lat="44.57611" lon="2.24067">
        <ele>397</ele>
        <time>2015-08-25T14:26:36Z</time>
      </trkpt>
      <trkpt lat="44.57613" lon="2.2406">
        <ele>397</ele>
        <time>2015-08-25T14:26:42Z</time>
      </trkpt>
      <trkpt lat="44.57616" lon="2.24047">
        <ele>396</ele>
        <time>2015-08-25T14:26:53Z</time>
      </trkpt>
      <trkpt lat="44.57616" lon="2.24034">
        <ele>397</ele>
        <time>2015-08-25T14:27:02Z</time>
      </trkpt>
      <trkpt lat="44.57617" lon="2.24027">
        <ele>396</ele>
        <time>2015-08-25T14:27:08Z</time>
      </trkpt>
      <trkpt lat="44.5762" lon="2.24021">
        <ele>396</ele>
        <time>2015-08-25T14:27:14Z</time>
      </trkpt>
      <trkpt lat="44.57624" lon="2.24009">
        <ele>396</ele>
        <time>2015-08-25T14:27:24Z</time>
      </trkpt>
      <trkpt lat="44.5763" lon="2.23999">
        <ele>400</ele>
        <time>2015-08-25T14:27:34Z</time>
      </trkpt>
      <trkpt lat="44.57632" lon="2.2399">
        <ele>398</ele>
        <time>2015-08-25T14:27:40Z</time>
      </trkpt>
      <trkpt lat="44.57632" lon="2.23983">
        <ele>402</ele>
        <time>2015-08-25T14:27:46Z</time>
      </trkpt>
      <trkpt lat="44.57636" lon="2.23971">
        <ele>402</ele>
        <time>2015-08-25T14:27:56Z</time>
      </trkpt>
      <trkpt lat="44.57638" lon="2.23963">
        <ele>403</ele>
        <time>2015-08-25T14:28:02Z</time>
      </trkpt>
      <trkpt lat="44.57641" lon="2.23949">
        <ele>403</ele>
        <time>2015-08-25T14:28:12Z</time>
      </trkpt>
      <trkpt lat="44.57639" lon="2.23935">
        <ele>401</ele>
        <time>2015-08-25T14:28:25Z</time>
      </trkpt>
      <trkpt lat="44.57633" lon="2.23938">
        <ele>396</ele>
        <time>2015-08-25T14:31:24Z</time>
      </trkpt>
      <trkpt lat="44.57638" lon="2.2394">
        <ele>400</ele>
        <time>2015-08-25T14:39:57Z</time>
      </trkpt>
      <trkpt lat="44.57637" lon="2.23934">
        <ele>398</ele>
        <time>2015-08-25T14:42:08Z</time>
      </trkpt>
      <trkpt lat="44.57645" lon="2.23926">
        <ele>398</ele>
        <time>2015-08-25T14:42:16Z</time>
      </trkpt>
      <trkpt lat="44.57653" lon="2.23918">
        <ele>398</ele>
        <time>2015-08-25T14:42:25Z</time>
      </trkpt>
      <trkpt lat="44.57661" lon="2.23908">
        <ele>398</ele>
        <time>2015-08-25T14:42:36Z</time>
      </trkpt>
      <trkpt lat="44.57666" lon="2.23897">
        <ele>398</ele>
        <time>2015-08-25T14:42:46Z</time>
      </trkpt>
      <trkpt lat="44.57668" lon="2.23884">
        <ele>398</ele>
        <time>2015-08-25T14:42:56Z</time>
      </trkpt>
      <trkpt lat="44.57671" lon="2.23878">
        <ele>399</ele>
        <time>2015-08-25T14:43:02Z</time>
      </trkpt>
      <trkpt lat="44.57674" lon="2.23871">
        <ele>401</ele>
        <time>2015-08-25T14:43:08Z</time>
      </trkpt>
      <trkpt lat="44.57676" lon="2.23865">
        <ele>400</ele>
        <time>2015-08-25T14:43:18Z</time>
      </trkpt>
      <trkpt lat="44.57678" lon="2.23859">
        <ele>402</ele>
        <time>2015-08-25T14:43:24Z</time>
      </trkpt>
      <trkpt lat="44.57678" lon="2.23852">
        <ele>401</ele>
        <time>2015-08-25T14:43:42Z</time>
      </trkpt>
      <trkpt lat="44.5768" lon="2.23845">
        <ele>400</ele>
        <time>2015-08-25T14:43:48Z</time>
      </trkpt>
      <trkpt lat="44.57681" lon="2.23832">
        <ele>399</ele>
        <time>2015-08-25T14:43:57Z</time>
      </trkpt>
      <trkpt lat="44.5768" lon="2.23819">
        <ele>401</ele>
        <time>2015-08-25T14:44:05Z</time>
      </trkpt>
      <trkpt lat="44.57677" lon="2.23804">
        <ele>402</ele>
        <time>2015-08-25T14:44:15Z</time>
      </trkpt>
      <trkpt lat="44.57677" lon="2.2379">
        <ele>403</ele>
        <time>2015-08-25T14:44:25Z</time>
      </trkpt>
      <trkpt lat="44.5768" lon="2.23776">
        <ele>404</ele>
        <time>2015-08-25T14:44:34Z</time>
      </trkpt>
      <trkpt lat="44.57681" lon="2.23763">
        <ele>404</ele>
        <time>2015-08-25T14:44:43Z</time>
      </trkpt>
      <trkpt lat="44.57682" lon="2.23756">
        <ele>403</ele>
        <time>2015-08-25T14:44:49Z</time>
      </trkpt>
      <trkpt lat="44.57683" lon="2.23749">
        <ele>402</ele>
        <time>2015-08-25T14:44:55Z</time>
      </trkpt>
      <trkpt lat="44.57684" lon="2.23741">
        <ele>398</ele>
        <time>2015-08-25T14:45:08Z</time>
      </trkpt>
      <trkpt lat="44.57687" lon="2.23727">
        <ele>398</ele>
        <time>2015-08-25T14:45:17Z</time>
      </trkpt>
      <trkpt lat="44.57689" lon="2.23714">
        <ele>398</ele>
        <time>2015-08-25T14:45:27Z</time>
      </trkpt>
      <trkpt lat="44.5769" lon="2.237">
        <ele>398</ele>
        <time>2015-08-25T14:45:37Z</time>
      </trkpt>
      <trkpt lat="44.57692" lon="2.23686">
        <ele>398</ele>
        <time>2015-08-25T14:45:46Z</time>
      </trkpt>
      <trkpt lat="44.57695" lon="2.23673">
        <ele>401</ele>
        <time>2015-08-25T14:45:55Z</time>
      </trkpt>
      <trkpt lat="44.57698" lon="2.23665">
        <ele>399</ele>
        <time>2015-08-25T14:46:01Z</time>
      </trkpt>
      <trkpt lat="44.57704" lon="2.23654">
        <ele>399</ele>
        <time>2015-08-25T14:46:09Z</time>
      </trkpt>
      <trkpt lat="44.57709" lon="2.23643">
        <ele>398</ele>
        <time>2015-08-25T14:46:18Z</time>
      </trkpt>
      <trkpt lat="44.57712" lon="2.23631">
        <ele>397</ele>
        <time>2015-08-25T14:46:27Z</time>
      </trkpt>
      <trkpt lat="44.57717" lon="2.23619">
        <ele>397</ele>
        <time>2015-08-25T14:46:38Z</time>
      </trkpt>
      <trkpt lat="44.57721" lon="2.23607">
        <ele>401</ele>
        <time>2015-08-25T14:46:47Z</time>
      </trkpt>
      <trkpt lat="44.57722" lon="2.23596">
        <ele>400</ele>
        <time>2015-08-25T14:46:57Z</time>
      </trkpt>
      <trkpt lat="44.57726" lon="2.23584">
        <ele>400</ele>
        <time>2015-08-25T14:47:06Z</time>
      </trkpt>
      <trkpt lat="44.57732" lon="2.23575">
        <ele>401</ele>
        <time>2015-08-25T14:47:13Z</time>
      </trkpt>
      <trkpt lat="44.57737" lon="2.23562">
        <ele>400</ele>
        <time>2015-08-25T14:47:22Z</time>
      </trkpt>
      <trkpt lat="44.57741" lon="2.23549">
        <ele>401</ele>
        <time>2015-08-25T14:47:32Z</time>
      </trkpt>
      <trkpt lat="44.57745" lon="2.23536">
        <ele>403</ele>
        <time>2015-08-25T14:47:42Z</time>
      </trkpt>
      <trkpt lat="44.57752" lon="2.23524">
        <ele>404</ele>
        <time>2015-08-25T14:47:52Z</time>
      </trkpt>
      <trkpt lat="44.57755" lon="2.23514">
        <ele>403</ele>
        <time>2015-08-25T14:48:00Z</time>
      </trkpt>
      <trkpt lat="44.57759" lon="2.23501">
        <ele>401</ele>
        <time>2015-08-25T14:48:10Z</time>
      </trkpt>
      <trkpt lat="44.57765" lon="2.2349">
        <ele>399</ele>
        <time>2015-08-25T14:48:19Z</time>
      </trkpt>
      <trkpt lat="44.57771" lon="2.23479">
        <ele>399</ele>
        <time>2015-08-25T14:48:27Z</time>
      </trkpt>
      <trkpt lat="44.57777" lon="2.23468">
        <ele>397</ele>
        <time>2015-08-25T14:48:37Z</time>
      </trkpt>
      <trkpt lat="44.57782" lon="2.23455">
        <ele>397</ele>
        <time>2015-08-25T14:48:46Z</time>
      </trkpt>
      <trkpt lat="44.57787" lon="2.23442">
        <ele>397</ele>
        <time>2015-08-25T14:48:54Z</time>
      </trkpt>
      <trkpt lat="44.5779" lon="2.23431">
        <ele>396</ele>
        <time>2015-08-25T14:49:02Z</time>
      </trkpt>
      <trkpt lat="44.57793" lon="2.23419">
        <ele>396</ele>
        <time>2015-08-25T14:49:11Z</time>
      </trkpt>
      <trkpt lat="44.57798" lon="2.23405">
        <ele>395</ele>
        <time>2015-08-25T14:49:21Z</time>
      </trkpt>
      <trkpt lat="44.578" lon="2.23392">
        <ele>394</ele>
        <time>2015-08-25T14:49:31Z</time>
      </trkpt>
      <trkpt lat="44.57805" lon="2.23377">
        <ele>393</ele>
        <time>2015-08-25T14:49:41Z</time>
      </trkpt>
      <trkpt lat="44.57807" lon="2.23371">
        <ele>392</ele>
        <time>2015-08-25T14:49:47Z</time>
      </trkpt>
      <trkpt lat="44.57813" lon="2.23358">
        <ele>393</ele>
        <time>2015-08-25T14:49:57Z</time>
      </trkpt>
      <trkpt lat="44.57818" lon="2.23346">
        <ele>390</ele>
        <time>2015-08-25T14:50:07Z</time>
      </trkpt>
      <trkpt lat="44.57823" lon="2.23334">
        <ele>390</ele>
        <time>2015-08-25T14:50:16Z</time>
      </trkpt>
      <trkpt lat="44.5783" lon="2.23323">
        <ele>389</ele>
        <time>2015-08-25T14:50:26Z</time>
      </trkpt>
      <trkpt lat="44.57836" lon="2.23311">
        <ele>385</ele>
        <time>2015-08-25T14:50:37Z</time>
      </trkpt>
      <trkpt lat="44.57841" lon="2.23297">
        <ele>386</ele>
        <time>2015-08-25T14:50:47Z</time>
      </trkpt>
      <trkpt lat="44.57847" lon="2.23286">
        <ele>384</ele>
        <time>2015-08-25T14:50:55Z</time>
      </trkpt>
      <trkpt lat="44.57851" lon="2.23277">
        <ele>383</ele>
        <time>2015-08-25T14:51:02Z</time>
      </trkpt>
      <trkpt lat="44.57857" lon="2.23266">
        <ele>382</ele>
        <time>2015-08-25T14:51:11Z</time>
      </trkpt>
      <trkpt lat="44.57862" lon="2.23255">
        <ele>381</ele>
        <time>2015-08-25T14:51:20Z</time>
      </trkpt>
      <trkpt lat="44.57866" lon="2.23252">
        <ele>381</ele>
        <time>2015-08-25T14:51:26Z</time>
      </trkpt>
      <trkpt lat="44.57872" lon="2.2324">
        <ele>382</ele>
        <time>2015-08-25T14:51:34Z</time>
      </trkpt>
      <trkpt lat="44.57877" lon="2.23228">
        <ele>379</ele>
        <time>2015-08-25T14:51:43Z</time>
      </trkpt>
      <trkpt lat="44.57884" lon="2.23218">
        <ele>376</ele>
        <time>2015-08-25T14:51:52Z</time>
      </trkpt>
      <trkpt lat="44.57889" lon="2.23207">
        <ele>375</ele>
        <time>2015-08-25T14:52:02Z</time>
      </trkpt>
      <trkpt lat="44.57895" lon="2.23196">
        <ele>376</ele>
        <time>2015-08-25T14:52:11Z</time>
      </trkpt>
      <trkpt lat="44.57899" lon="2.23192">
        <ele>376</ele>
        <time>2015-08-25T14:52:53Z</time>
      </trkpt>
      <trkpt lat="44.57904" lon="2.23187">
        <ele>373</ele>
        <time>2015-08-25T14:53:36Z</time>
      </trkpt>
      <trkpt lat="44.57911" lon="2.23177">
        <ele>376</ele>
        <time>2015-08-25T14:53:45Z</time>
      </trkpt>
      <trkpt lat="44.57919" lon="2.23174">
        <ele>376</ele>
        <time>2015-08-25T14:53:57Z</time>
      </trkpt>
      <trkpt lat="44.57922" lon="2.23169">
        <ele>373</ele>
        <time>2015-08-25T14:54:30Z</time>
      </trkpt>
      <trkpt lat="44.57925" lon="2.23164">
        <ele>374</ele>
        <time>2015-08-25T14:54:36Z</time>
      </trkpt>
      <trkpt lat="44.57933" lon="2.23154">
        <ele>374</ele>
        <time>2015-08-25T14:54:46Z</time>
      </trkpt>
      <trkpt lat="44.57938" lon="2.23143">
        <ele>377</ele>
        <time>2015-08-25T14:54:56Z</time>
      </trkpt>
      <trkpt lat="44.57943" lon="2.23138">
        <ele>376</ele>
        <time>2015-08-25T14:55:02Z</time>
      </trkpt>
      <trkpt lat="44.57951" lon="2.23128">
        <ele>376</ele>
        <time>2015-08-25T14:55:12Z</time>
      </trkpt>
      <trkpt lat="44.57959" lon="2.23118">
        <ele>375</ele>
        <time>2015-08-25T14:55:23Z</time>
      </trkpt>
      <trkpt lat="44.57963" lon="2.23105">
        <ele>379</ele>
        <time>2015-08-25T14:55:33Z</time>
      </trkpt>
      <trkpt lat="44.57969" lon="2.23094">
        <ele>379</ele>
        <time>2015-08-25T14:55:40Z</time>
      </trkpt>
      <trkpt lat="44.57973" lon="2.23082">
        <ele>379</ele>
        <time>2015-08-25T14:55:49Z</time>
      </trkpt>
      <trkpt lat="44.57979" lon="2.23072">
        <ele>378</ele>
        <time>2015-08-25T14:55:57Z</time>
      </trkpt>
      <trkpt lat="44.57982" lon="2.23065">
        <ele>378</ele>
        <time>2015-08-25T14:56:03Z</time>
      </trkpt>
      <trkpt lat="44.57987" lon="2.23054">
        <ele>375</ele>
        <time>2015-08-25T14:56:10Z</time>
      </trkpt>
      <trkpt lat="44.57993" lon="2.23042">
        <ele>378</ele>
        <time>2015-08-25T14:56:19Z</time>
      </trkpt>
      <trkpt lat="44.57996" lon="2.23029">
        <ele>379</ele>
        <time>2015-08-25T14:56:28Z</time>
      </trkpt>
      <trkpt lat="44.57999" lon="2.23015">
        <ele>380</ele>
        <time>2015-08-25T14:56:36Z</time>
      </trkpt>
      <trkpt lat="44.58001" lon="2.23002">
        <ele>379</ele>
        <time>2015-08-25T14:56:45Z</time>
      </trkpt>
      <trkpt lat="44.58006" lon="2.22989">
        <ele>379</ele>
        <time>2015-08-25T14:56:56Z</time>
      </trkpt>
      <trkpt lat="44.58011" lon="2.22976">
        <ele>379</ele>
        <time>2015-08-25T14:57:05Z</time>
      </trkpt>
      <trkpt lat="44.58017" lon="2.22964">
        <ele>379</ele>
        <time>2015-08-25T14:57:13Z</time>
      </trkpt>
      <trkpt lat="44.58022" lon="2.22952">
        <ele>379</ele>
        <time>2015-08-25T14:57:21Z</time>
      </trkpt>
      <trkpt lat="44.58028" lon="2.22939">
        <ele>379</ele>
        <time>2015-08-25T14:57:31Z</time>
      </trkpt>
      <trkpt lat="44.5803" lon="2.22932">
        <ele>377</ele>
        <time>2015-08-25T14:57:37Z</time>
      </trkpt>
      <trkpt lat="44.58034" lon="2.22919">
        <ele>375</ele>
        <time>2015-08-25T14:57:45Z</time>
      </trkpt>
      <trkpt lat="44.58038" lon="2.22905">
        <ele>376</ele>
        <time>2015-08-25T14:57:53Z</time>
      </trkpt>
      <trkpt lat="44.58042" lon="2.22894">
        <ele>371</ele>
        <time>2015-08-25T14:58:01Z</time>
      </trkpt>
      <trkpt lat="44.58046" lon="2.22889">
        <ele>372</ele>
        <time>2015-08-25T14:58:07Z</time>
      </trkpt>
      <trkpt lat="44.58046" lon="2.22881">
        <ele>374</ele>
        <time>2015-08-25T14:58:13Z</time>
      </trkpt>
      <trkpt lat="44.58051" lon="2.2287">
        <ele>371</ele>
        <time>2015-08-25T14:58:21Z</time>
      </trkpt>
      <trkpt lat="44.58055" lon="2.22859">
        <ele>371</ele>
        <time>2015-08-25T14:58:29Z</time>
      </trkpt>
      <trkpt lat="44.5806" lon="2.22854">
        <ele>374</ele>
        <time>2015-08-25T14:58:35Z</time>
      </trkpt>
      <trkpt lat="44.5807" lon="2.22849">
        <ele>373</ele>
        <time>2015-08-25T14:58:45Z</time>
      </trkpt>
      <trkpt lat="44.58079" lon="2.22846">
        <ele>370</ele>
        <time>2015-08-25T14:58:54Z</time>
      </trkpt>
      <trkpt lat="44.58086" lon="2.22843">
        <ele>369</ele>
        <time>2015-08-25T14:59:02Z</time>
      </trkpt>
      <trkpt lat="44.58097" lon="2.22843">
        <ele>368</ele>
        <time>2015-08-25T14:59:43Z</time>
      </trkpt>
      <trkpt lat="44.58102" lon="2.22844">
        <ele>369</ele>
        <time>2015-08-25T14:59:50Z</time>
      </trkpt>
      <trkpt lat="44.58107" lon="2.22845">
        <ele>367</ele>
        <time>2015-08-25T14:59:57Z</time>
      </trkpt>
      <trkpt lat="44.58112" lon="2.22845">
        <ele>365</ele>
        <time>2015-08-25T15:00:03Z</time>
      </trkpt>
      <trkpt lat="44.58121" lon="2.22846">
        <ele>364</ele>
        <time>2015-08-25T15:00:12Z</time>
      </trkpt>
      <trkpt lat="44.58131" lon="2.22848">
        <ele>362</ele>
        <time>2015-08-25T15:00:20Z</time>
      </trkpt>
      <trkpt lat="44.58136" lon="2.22847">
        <ele>364</ele>
        <time>2015-08-25T15:00:26Z</time>
      </trkpt>
      <trkpt lat="44.58141" lon="2.22847">
        <ele>363</ele>
        <time>2015-08-25T15:00:33Z</time>
      </trkpt>
      <trkpt lat="44.58145" lon="2.22849">
        <ele>362</ele>
        <time>2015-08-25T15:00:40Z</time>
      </trkpt>
      <trkpt lat="44.58149" lon="2.22847">
        <ele>362</ele>
        <time>2015-08-25T15:00:46Z</time>
      </trkpt>
      <trkpt lat="44.58156" lon="2.22838">
        <ele>361</ele>
        <time>2015-08-25T15:00:56Z</time>
      </trkpt>
      <trkpt lat="44.58165" lon="2.22829">
        <ele>362</ele>
        <time>2015-08-25T15:01:06Z</time>
      </trkpt>
      <trkpt lat="44.58169" lon="2.22817">
        <ele>359</ele>
        <time>2015-08-25T15:01:15Z</time>
      </trkpt>
      <trkpt lat="44.58175" lon="2.22807">
        <ele>358</ele>
        <time>2015-08-25T15:01:27Z</time>
      </trkpt>
      <trkpt lat="44.58181" lon="2.22796">
        <ele>357</ele>
        <time>2015-08-25T15:01:36Z</time>
      </trkpt>
      <trkpt lat="44.58187" lon="2.22784">
        <ele>355</ele>
        <time>2015-08-25T15:01:45Z</time>
      </trkpt>
      <trkpt lat="44.5819" lon="2.22778">
        <ele>357</ele>
        <time>2015-08-25T15:01:51Z</time>
      </trkpt>
      <trkpt lat="44.58193" lon="2.22771">
        <ele>356</ele>
        <time>2015-08-25T15:01:57Z</time>
      </trkpt>
      <trkpt lat="44.58198" lon="2.22758">
        <ele>356</ele>
        <time>2015-08-25T15:02:07Z</time>
      </trkpt>
      <trkpt lat="44.58202" lon="2.22746">
        <ele>353</ele>
        <time>2015-08-25T15:02:16Z</time>
      </trkpt>
      <trkpt lat="44.58202" lon="2.22738">
        <ele>353</ele>
        <time>2015-08-25T15:02:24Z</time>
      </trkpt>
      <trkpt lat="44.58204" lon="2.22725">
        <ele>354</ele>
        <time>2015-08-25T15:02:34Z</time>
      </trkpt>
      <trkpt lat="44.58206" lon="2.22719">
        <ele>353</ele>
        <time>2015-08-25T15:02:40Z</time>
      </trkpt>
      <trkpt lat="44.58207" lon="2.22712">
        <ele>350</ele>
        <time>2015-08-25T15:02:47Z</time>
      </trkpt>
      <trkpt lat="44.58209" lon="2.22706">
        <ele>348</ele>
        <time>2015-08-25T15:02:54Z</time>
      </trkpt>
      <trkpt lat="44.5821" lon="2.22697">
        <ele>348</ele>
        <time>2015-08-25T15:03:03Z</time>
      </trkpt>
      <trkpt lat="44.58212" lon="2.22684">
        <ele>347</ele>
        <time>2015-08-25T15:03:12Z</time>
      </trkpt>
      <trkpt lat="44.58215" lon="2.22679">
        <ele>345</ele>
        <time>2015-08-25T15:03:18Z</time>
      </trkpt>
      <trkpt lat="44.58215" lon="2.22671">
        <ele>345</ele>
        <time>2015-08-25T15:03:32Z</time>
      </trkpt>
      <trkpt lat="44.58216" lon="2.22665">
        <ele>345</ele>
        <time>2015-08-25T15:03:40Z</time>
      </trkpt>
      <trkpt lat="44.58218" lon="2.22659">
        <ele>343</ele>
        <time>2015-08-25T15:03:46Z</time>
      </trkpt>
      <trkpt lat="44.58221" lon="2.22653">
        <ele>343</ele>
        <time>2015-08-25T15:03:52Z</time>
      </trkpt>
      <trkpt lat="44.58228" lon="2.22646">
        <ele>341</ele>
        <time>2015-08-25T15:04:03Z</time>
      </trkpt>
      <trkpt lat="44.58231" lon="2.22639">
        <ele>338</ele>
        <time>2015-08-25T15:04:09Z</time>
      </trkpt>
      <trkpt lat="44.58234" lon="2.22635">
        <ele>338</ele>
        <time>2015-08-25T15:04:15Z</time>
      </trkpt>
      <trkpt lat="44.58242" lon="2.22626">
        <ele>335</ele>
        <time>2015-08-25T15:04:25Z</time>
      </trkpt>
      <trkpt lat="44.58245" lon="2.22621">
        <ele>333</ele>
        <time>2015-08-25T15:04:31Z</time>
      </trkpt>
      <trkpt lat="44.5825" lon="2.22618">
        <ele>333</ele>
        <time>2015-08-25T15:04:37Z</time>
      </trkpt>
      <trkpt lat="44.58257" lon="2.22609">
        <ele>331</ele>
        <time>2015-08-25T15:04:48Z</time>
      </trkpt>
      <trkpt lat="44.5826" lon="2.22603">
        <ele>330</ele>
        <time>2015-08-25T15:04:54Z</time>
      </trkpt>
      <trkpt lat="44.58264" lon="2.22594">
        <ele>331</ele>
        <time>2015-08-25T15:05:04Z</time>
      </trkpt>
      <trkpt lat="44.58265" lon="2.22586">
        <ele>332</ele>
        <time>2015-08-25T15:07:19Z</time>
      </trkpt>
      <trkpt lat="44.58267" lon="2.22579">
        <ele>331</ele>
        <time>2015-08-25T15:07:25Z</time>
      </trkpt>
      <trkpt lat="44.5827" lon="2.22567">
        <ele>332</ele>
        <time>2015-08-25T15:07:35Z</time>
      </trkpt>
      <trkpt lat="44.58271" lon="2.22559">
        <ele>331</ele>
        <time>2015-08-25T15:07:42Z</time>
      </trkpt>
      <trkpt lat="44.58266" lon="2.22547">
        <ele>328</ele>
        <time>2015-08-25T15:07:51Z</time>
      </trkpt>
      <trkpt lat="44.58268" lon="2.22538">
        <ele>325</ele>
        <time>2015-08-25T15:07:57Z</time>
      </trkpt>
      <trkpt lat="44.58265" lon="2.22533">
        <ele>324</ele>
        <time>2015-08-25T15:08:04Z</time>
      </trkpt>
      <trkpt lat="44.58261" lon="2.22519">
        <ele>319</ele>
        <time>2015-08-25T15:08:14Z</time>
      </trkpt>
      <trkpt lat="44.5826" lon="2.22505">
        <ele>320</ele>
        <time>2015-08-25T15:08:22Z</time>
      </trkpt>
      <trkpt lat="44.58261" lon="2.22492">
        <ele>320</ele>
        <time>2015-08-25T15:08:31Z</time>
      </trkpt>
      <trkpt lat="44.58261" lon="2.2248">
        <ele>320</ele>
        <time>2015-08-25T15:08:39Z</time>
      </trkpt>
      <trkpt lat="44.58265" lon="2.22478">
        <ele>317</ele>
        <time>2015-08-25T15:08:45Z</time>
      </trkpt>
      <trkpt lat="44.5827" lon="2.22479">
        <ele>316</ele>
        <time>2015-08-25T15:08:51Z</time>
      </trkpt>
      <trkpt lat="44.58275" lon="2.22485">
        <ele>316</ele>
        <time>2015-08-25T15:08:57Z</time>
      </trkpt>
      <trkpt lat="44.5828" lon="2.22482">
        <ele>316</ele>
        <time>2015-08-25T15:09:03Z</time>
      </trkpt>
      <trkpt lat="44.58282" lon="2.2247">
        <ele>314</ele>
        <time>2015-08-25T15:09:12Z</time>
      </trkpt>
      <trkpt lat="44.58276" lon="2.22458">
        <ele>311</ele>
        <time>2015-08-25T15:09:22Z</time>
      </trkpt>
      <trkpt lat="44.5827" lon="2.22448">
        <ele>309</ele>
        <time>2015-08-25T15:09:31Z</time>
      </trkpt>
      <trkpt lat="44.58269" lon="2.22442">
        <ele>309</ele>
        <time>2015-08-25T15:09:40Z</time>
      </trkpt>
      <trkpt lat="44.58264" lon="2.22428">
        <ele>304</ele>
        <time>2015-08-25T15:09:52Z</time>
      </trkpt>
      <trkpt lat="44.58269" lon="2.22429">
        <ele>309</ele>
        <time>2015-08-25T15:10:26Z</time>
      </trkpt>
      <trkpt lat="44.58273" lon="2.22431">
        <ele>306</ele>
        <time>2015-08-25T15:10:47Z</time>
      </trkpt>
      <trkpt lat="44.58278" lon="2.22431">
        <ele>306</ele>
        <time>2015-08-25T15:10:54Z</time>
      </trkpt>
      <trkpt lat="44.58282" lon="2.22436">
        <ele>306</ele>
        <time>2015-08-25T15:11:02Z</time>
      </trkpt>
      <trkpt lat="44.58286" lon="2.2244">
        <ele>306</ele>
        <time>2015-08-25T15:11:09Z</time>
      </trkpt>
      <trkpt lat="44.5829" lon="2.22444">
        <ele>304</ele>
        <time>2015-08-25T15:11:15Z</time>
      </trkpt>
      <trkpt lat="44.58294" lon="2.22448">
        <ele>303</ele>
        <time>2015-08-25T15:11:21Z</time>
      </trkpt>
      <trkpt lat="44.58298" lon="2.22454">
        <ele>304</ele>
        <time>2015-08-25T15:11:30Z</time>
      </trkpt>
      <trkpt lat="44.58301" lon="2.22459">
        <ele>304</ele>
        <time>2015-08-25T15:11:36Z</time>
      </trkpt>
      <trkpt lat="44.58305" lon="2.22464">
        <ele>303</ele>
        <time>2015-08-25T15:11:42Z</time>
      </trkpt>
      <trkpt lat="44.58308" lon="2.22468">
        <ele>302</ele>
        <time>2015-08-25T15:11:48Z</time>
      </trkpt>
      <trkpt lat="44.58313" lon="2.2247">
        <ele>301</ele>
        <time>2015-08-25T15:11:54Z</time>
      </trkpt>
      <trkpt lat="44.58318" lon="2.22477">
        <ele>300</ele>
        <time>2015-08-25T15:12:57Z</time>
      </trkpt>
      <trkpt lat="44.58322" lon="2.22481">
        <ele>300</ele>
        <time>2015-08-25T15:13:23Z</time>
      </trkpt>
      <trkpt lat="44.58327" lon="2.22492">
        <ele>299</ele>
        <time>2015-08-25T15:13:32Z</time>
      </trkpt>
      <trkpt lat="44.58337" lon="2.22498">
        <ele>299</ele>
        <time>2015-08-25T15:13:41Z</time>
      </trkpt>
      <trkpt lat="44.5834" lon="2.22502">
        <ele>292</ele>
        <time>2015-08-25T15:13:50Z</time>
      </trkpt>
      <trkpt lat="44.58343" lon="2.22507">
        <ele>290</ele>
        <time>2015-08-25T15:13:57Z</time>
      </trkpt>
      <trkpt lat="44.58345" lon="2.22513">
        <ele>288</ele>
        <time>2015-08-25T15:14:03Z</time>
      </trkpt>
      <trkpt lat="44.58348" lon="2.2252">
        <ele>285</ele>
        <time>2015-08-25T15:14:11Z</time>
      </trkpt>
      <trkpt lat="44.58355" lon="2.2253">
        <ele>286</ele>
        <time>2015-08-25T15:14:25Z</time>
      </trkpt>
      <trkpt lat="44.58362" lon="2.22541">
        <ele>285</ele>
        <time>2015-08-25T15:14:36Z</time>
      </trkpt>
      <trkpt lat="44.58367" lon="2.22543">
        <ele>283</ele>
        <time>2015-08-25T15:14:42Z</time>
      </trkpt>
      <trkpt lat="44.58375" lon="2.22552">
        <ele>280</ele>
        <time>2015-08-25T15:14:53Z</time>
      </trkpt>
      <trkpt lat="44.58376" lon="2.22559">
        <ele>276</ele>
        <time>2015-08-25T15:15:57Z</time>
      </trkpt>
      <trkpt lat="44.58377" lon="2.22566">
        <ele>273</ele>
        <time>2015-08-25T15:16:07Z</time>
      </trkpt>
      <trkpt lat="44.58377" lon="2.22572">
        <ele>274</ele>
        <time>2015-08-25T15:16:15Z</time>
      </trkpt>
      <trkpt lat="44.58381" lon="2.22576">
        <ele>276</ele>
        <time>2015-08-25T15:16:22Z</time>
      </trkpt>
      <trkpt lat="44.5838" lon="2.2259">
        <ele>274</ele>
        <time>2015-08-25T15:16:34Z</time>
      </trkpt>
      <trkpt lat="44.58385" lon="2.22601">
        <ele>275</ele>
        <time>2015-08-25T15:16:52Z</time>
      </trkpt>
      <trkpt lat="44.58393" lon="2.22609">
        <ele>271</ele>
        <time>2015-08-25T15:17:04Z</time>
      </trkpt>
      <trkpt lat="44.58397" lon="2.22614">
        <ele>271</ele>
        <time>2015-08-25T15:17:10Z</time>
      </trkpt>
      <trkpt lat="44.58405" lon="2.22624">
        <ele>272</ele>
        <time>2015-08-25T15:17:21Z</time>
      </trkpt>
      <trkpt lat="44.5841" lon="2.22627">
        <ele>271</ele>
        <time>2015-08-25T15:17:29Z</time>
      </trkpt>
      <trkpt lat="44.58418" lon="2.22634">
        <ele>264</ele>
        <time>2015-08-25T15:17:38Z</time>
      </trkpt>
      <trkpt lat="44.58425" lon="2.22644">
        <ele>264</ele>
        <time>2015-08-25T15:17:49Z</time>
      </trkpt>
      <trkpt lat="44.58426" lon="2.22653">
        <ele>268</ele>
        <time>2015-08-25T15:17:57Z</time>
      </trkpt>
      <trkpt lat="44.58426" lon="2.22661">
        <ele>269</ele>
        <time>2015-08-25T15:18:03Z</time>
      </trkpt>
      <trkpt lat="44.58427" lon="2.22673">
        <ele>266</ele>
        <time>2015-08-25T15:18:14Z</time>
      </trkpt>
      <trkpt lat="44.58427" lon="2.22686">
        <ele>268</ele>
        <time>2015-08-25T15:18:24Z</time>
      </trkpt>
      <trkpt lat="44.58427" lon="2.22694">
        <ele>265</ele>
        <time>2015-08-25T15:18:31Z</time>
      </trkpt>
      <trkpt lat="44.58429" lon="2.22706">
        <ele>259</ele>
        <time>2015-08-25T15:18:41Z</time>
      </trkpt>
      <trkpt lat="44.58431" lon="2.22714">
        <ele>257</ele>
        <time>2015-08-25T15:18:50Z</time>
      </trkpt>
      <trkpt lat="44.58434" lon="2.22722">
        <ele>257</ele>
        <time>2015-08-25T15:18:57Z</time>
      </trkpt>
      <trkpt lat="44.58438" lon="2.22724">
        <ele>263</ele>
        <time>2015-08-25T15:19:09Z</time>
      </trkpt>
      <trkpt lat="44.58441" lon="2.2273">
        <ele>262</ele>
        <time>2015-08-25T15:19:29Z</time>
      </trkpt>
      <trkpt lat="44.58444" lon="2.22735">
        <ele>260</ele>
        <time>2015-08-25T15:19:48Z</time>
      </trkpt>
      <trkpt lat="44.58452" lon="2.22742">
        <ele>259</ele>
        <time>2015-08-25T15:19:57Z</time>
      </trkpt>
      <trkpt lat="44.58459" lon="2.22751">
        <ele>256</ele>
        <time>2015-08-25T15:20:07Z</time>
      </trkpt>
      <trkpt lat="44.58463" lon="2.22756">
        <ele>255</ele>
        <time>2015-08-25T15:20:13Z</time>
      </trkpt>
      <trkpt lat="44.58463" lon="2.22763">
        <ele>252</ele>
        <time>2015-08-25T15:20:19Z</time>
      </trkpt>
      <trkpt lat="44.58466" lon="2.22768">
        <ele>250</ele>
        <time>2015-08-25T15:20:28Z</time>
      </trkpt>
      <trkpt lat="44.58466" lon="2.22775">
        <ele>247</ele>
        <time>2015-08-25T15:20:37Z</time>
      </trkpt>
      <trkpt lat="44.58469" lon="2.22787">
        <ele>246</ele>
        <time>2015-08-25T15:20:46Z</time>
      </trkpt>
      <trkpt lat="44.58468" lon="2.22793">
        <ele>243</ele>
        <time>2015-08-25T15:20:52Z</time>
      </trkpt>
      <trkpt lat="44.58471" lon="2.22807">
        <ele>247</ele>
        <time>2015-08-25T15:21:02Z</time>
      </trkpt>
      <trkpt lat="44.58473" lon="2.22821">
        <ele>245</ele>
        <time>2015-08-25T15:21:11Z</time>
      </trkpt>
      <trkpt lat="44.58471" lon="2.22829">
        <ele>242</ele>
        <time>2015-08-25T15:21:17Z</time>
      </trkpt>
      <trkpt lat="44.58471" lon="2.22835">
        <ele>242</ele>
        <time>2015-08-25T15:21:23Z</time>
      </trkpt>
      <trkpt lat="44.58469" lon="2.22841">
        <ele>240</ele>
        <time>2015-08-25T15:21:29Z</time>
      </trkpt>
      <trkpt lat="44.58466" lon="2.22855">
        <ele>237</ele>
        <time>2015-08-25T15:21:40Z</time>
      </trkpt>
      <trkpt lat="44.58467" lon="2.22867">
        <ele>234</ele>
        <time>2015-08-25T15:22:17Z</time>
      </trkpt>
      <trkpt lat="44.58468" lon="2.22881">
        <ele>235</ele>
        <time>2015-08-25T15:22:28Z</time>
      </trkpt>
      <trkpt lat="44.58475" lon="2.22881">
        <ele>235</ele>
        <time>2015-08-25T15:24:40Z</time>
      </trkpt>
      <trkpt lat="44.58479" lon="2.22876">
        <ele>237</ele>
        <time>2015-08-25T15:24:46Z</time>
      </trkpt>
      <trkpt lat="44.58484" lon="2.22873">
        <ele>238</ele>
        <time>2015-08-25T15:24:52Z</time>
      </trkpt>
      <trkpt lat="44.58491" lon="2.22863">
        <ele>236</ele>
        <time>2015-08-25T15:25:03Z</time>
      </trkpt>
      <trkpt lat="44.58495" lon="2.2286">
        <ele>237</ele>
        <time>2015-08-25T15:25:09Z</time>
      </trkpt>
      <trkpt lat="44.58505" lon="2.22856">
        <ele>236</ele>
        <time>2015-08-25T15:25:19Z</time>
      </trkpt>
      <trkpt lat="44.58515" lon="2.22854">
        <ele>237</ele>
        <time>2015-08-25T15:25:28Z</time>
      </trkpt>
      <trkpt lat="44.58524" lon="2.22857">
        <ele>237</ele>
        <time>2015-08-25T15:25:38Z</time>
      </trkpt>
      <trkpt lat="44.58533" lon="2.22864">
        <ele>237</ele>
        <time>2015-08-25T15:25:48Z</time>
      </trkpt>
      <trkpt lat="44.58542" lon="2.22871">
        <ele>237</ele>
        <time>2015-08-25T15:25:57Z</time>
      </trkpt>
      <trkpt lat="44.58552" lon="2.22871">
        <ele>236</ele>
        <time>2015-08-25T15:26:07Z</time>
      </trkpt>
      <trkpt lat="44.58561" lon="2.22876">
        <ele>237</ele>
        <time>2015-08-25T15:26:16Z</time>
      </trkpt>
      <trkpt lat="44.58571" lon="2.2288">
        <ele>238</ele>
        <time>2015-08-25T15:26:26Z</time>
      </trkpt>
      <trkpt lat="44.5858" lon="2.22885">
        <ele>238</ele>
        <time>2015-08-25T15:26:34Z</time>
      </trkpt>
      <trkpt lat="44.58584" lon="2.22888">
        <ele>238</ele>
        <time>2015-08-25T15:26:40Z</time>
      </trkpt>
      <trkpt lat="44.58593" lon="2.22896">
        <ele>239</ele>
        <time>2015-08-25T15:26:49Z</time>
      </trkpt>
      <trkpt lat="44.58599" lon="2.22899">
        <ele>237</ele>
        <time>2015-08-25T15:26:57Z</time>
      </trkpt>
      <trkpt lat="44.58608" lon="2.22905">
        <ele>237</ele>
        <time>2015-08-25T15:27:05Z</time>
      </trkpt>
      <trkpt lat="44.58616" lon="2.22911">
        <ele>237</ele>
        <time>2015-08-25T15:27:14Z</time>
      </trkpt>
      <trkpt lat="44.58624" lon="2.22916">
        <ele>239</ele>
        <time>2015-08-25T15:27:22Z</time>
      </trkpt>
      <trkpt lat="44.58633" lon="2.22921">
        <ele>239</ele>
        <time>2015-08-25T15:27:31Z</time>
      </trkpt>
      <trkpt lat="44.58643" lon="2.22924">
        <ele>239</ele>
        <time>2015-08-25T15:27:41Z</time>
      </trkpt>
      <trkpt lat="44.58652" lon="2.2293">
        <ele>239</ele>
        <time>2015-08-25T15:27:49Z</time>
      </trkpt>
      <trkpt lat="44.58659" lon="2.22935">
        <ele>238</ele>
        <time>2015-08-25T15:27:57Z</time>
      </trkpt>
      <trkpt lat="44.58669" lon="2.2294">
        <ele>239</ele>
        <time>2015-08-25T15:28:06Z</time>
      </trkpt>
      <trkpt lat="44.58678" lon="2.22947">
        <ele>239</ele>
        <time>2015-08-25T15:28:15Z</time>
      </trkpt>
      <trkpt lat="44.58687" lon="2.22953">
        <ele>238</ele>
        <time>2015-08-25T15:28:25Z</time>
      </trkpt>
      <trkpt lat="44.58695" lon="2.22961">
        <ele>240</ele>
        <time>2015-08-25T15:28:34Z</time>
      </trkpt>
      <trkpt lat="44.58703" lon="2.2297">
        <ele>238</ele>
        <time>2015-08-25T15:28:44Z</time>
      </trkpt>
      <trkpt lat="44.5871" lon="2.22979">
        <ele>238</ele>
        <time>2015-08-25T15:28:53Z</time>
      </trkpt>
      <trkpt lat="44.58716" lon="2.2299">
        <ele>237</ele>
        <time>2015-08-25T15:29:01Z</time>
      </trkpt>
      <trkpt lat="44.58722" lon="2.23">
        <ele>237</ele>
        <time>2015-08-25T15:29:09Z</time>
      </trkpt>
      <trkpt lat="44.58728" lon="2.23012">
        <ele>236</ele>
        <time>2015-08-25T15:29:17Z</time>
      </trkpt>
      <trkpt lat="44.58731" lon="2.23024">
        <ele>236</ele>
        <time>2015-08-25T15:29:25Z</time>
      </trkpt>
      <trkpt lat="44.58735" lon="2.23037">
        <ele>235</ele>
        <time>2015-08-25T15:29:34Z</time>
      </trkpt>
      <trkpt lat="44.58738" lon="2.23051">
        <ele>234</ele>
        <time>2015-08-25T15:29:43Z</time>
      </trkpt>
      <trkpt lat="44.58741" lon="2.23063">
        <ele>234</ele>
        <time>2015-08-25T15:29:51Z</time>
      </trkpt>
      <trkpt lat="44.58744" lon="2.23072">
        <ele>232</ele>
        <time>2015-08-25T15:29:57Z</time>
      </trkpt>
      <trkpt lat="44.58748" lon="2.23086">
        <ele>233</ele>
        <time>2015-08-25T15:30:07Z</time>
      </trkpt>
      <trkpt lat="44.58752" lon="2.23098">
        <ele>232</ele>
        <time>2015-08-25T15:30:16Z</time>
      </trkpt>
      <trkpt lat="44.58759" lon="2.23106">
        <ele>232</ele>
        <time>2015-08-25T15:30:57Z</time>
      </trkpt>
      <trkpt lat="44.58762" lon="2.23102">
        <ele>234</ele>
        <time>2015-08-25T15:31:19Z</time>
      </trkpt>
      <trkpt lat="44.58773" lon="2.23098">
        <ele>233</ele>
        <time>2015-08-25T15:31:29Z</time>
      </trkpt>
      <trkpt lat="44.58783" lon="2.23102">
        <ele>234</ele>
        <time>2015-08-25T15:31:40Z</time>
      </trkpt>
      <trkpt lat="44.58788" lon="2.23104">
        <ele>235</ele>
        <time>2015-08-25T15:31:46Z</time>
      </trkpt>
      <trkpt lat="44.58796" lon="2.23111">
        <ele>234</ele>
        <time>2015-08-25T15:31:56Z</time>
      </trkpt>
      <trkpt lat="44.58807" lon="2.23115">
        <ele>232</ele>
        <time>2015-08-25T15:32:05Z</time>
      </trkpt>
      <trkpt lat="44.58813" lon="2.23127">
        <ele>234</ele>
        <time>2015-08-25T15:32:16Z</time>
      </trkpt>
      <trkpt lat="44.58817" lon="2.2313">
        <ele>234</ele>
        <time>2015-08-25T15:32:33Z</time>
      </trkpt>
      <trkpt lat="44.58826" lon="2.23136">
        <ele>233</ele>
        <time>2015-08-25T15:32:42Z</time>
      </trkpt>
      <trkpt lat="44.58832" lon="2.23146">
        <ele>234</ele>
        <time>2015-08-25T15:32:51Z</time>
      </trkpt>
      <trkpt lat="44.58837" lon="2.2315">
        <ele>236</ele>
        <time>2015-08-25T15:32:57Z</time>
      </trkpt>
      <trkpt lat="44.58846" lon="2.23152">
        <ele>232</ele>
        <time>2015-08-25T15:33:05Z</time>
      </trkpt>
      <trkpt lat="44.58856" lon="2.23156">
        <ele>229</ele>
        <time>2015-08-25T15:33:15Z</time>
      </trkpt>
      <trkpt lat="44.58865" lon="2.23161">
        <ele>232</ele>
        <time>2015-08-25T15:33:25Z</time>
      </trkpt>
      <trkpt lat="44.5887" lon="2.23163">
        <ele>231</ele>
        <time>2015-08-25T15:33:31Z</time>
      </trkpt>
      <trkpt lat="44.5888" lon="2.23168">
        <ele>232</ele>
        <time>2015-08-25T15:33:42Z</time>
      </trkpt>
      <trkpt lat="44.58887" lon="2.23175">
        <ele>233</ele>
        <time>2015-08-25T15:34:03Z</time>
      </trkpt>
      <trkpt lat="44.58895" lon="2.23182">
        <ele>236</ele>
        <time>2015-08-25T15:34:14Z</time>
      </trkpt>
      <trkpt lat="44.58902" lon="2.23192">
        <ele>238</ele>
        <time>2015-08-25T15:34:25Z</time>
      </trkpt>
      <trkpt lat="44.58905" lon="2.23197">
        <ele>235</ele>
        <time>2015-08-25T15:34:31Z</time>
      </trkpt>
      <trkpt lat="44.58909" lon="2.23209">
        <ele>233</ele>
        <time>2015-08-25T15:34:42Z</time>
      </trkpt>
      <trkpt lat="44.58913" lon="2.23215">
        <ele>236</ele>
        <time>2015-08-25T15:34:49Z</time>
      </trkpt>
      <trkpt lat="44.58918" lon="2.23222">
        <ele>238</ele>
        <time>2015-08-25T15:34:57Z</time>
      </trkpt>
      <trkpt lat="44.58923" lon="2.23223">
        <ele>239</ele>
        <time>2015-08-25T15:35:03Z</time>
      </trkpt>
      <trkpt lat="44.58931" lon="2.2323">
        <ele>241</ele>
        <time>2015-08-25T15:35:13Z</time>
      </trkpt>
      <trkpt lat="44.58941" lon="2.23233">
        <ele>240</ele>
        <time>2015-08-25T15:35:23Z</time>
      </trkpt>
      <trkpt lat="44.58945" lon="2.23233">
        <ele>240</ele>
        <time>2015-08-25T15:35:29Z</time>
      </trkpt>
      <trkpt lat="44.58955" lon="2.23236">
        <ele>238</ele>
        <time>2015-08-25T15:35:39Z</time>
      </trkpt>
      <trkpt lat="44.58966" lon="2.23238">
        <ele>240</ele>
        <time>2015-08-25T15:35:50Z</time>
      </trkpt>
      <trkpt lat="44.58972" lon="2.23238">
        <ele>243</ele>
        <time>2015-08-25T15:35:57Z</time>
      </trkpt>
      <trkpt lat="44.58978" lon="2.23238">
        <ele>244</ele>
        <time>2015-08-25T15:36:03Z</time>
      </trkpt>
      <trkpt lat="44.58982" lon="2.2324">
        <ele>243</ele>
        <time>2015-08-25T15:36:09Z</time>
      </trkpt>
      <trkpt lat="44.58992" lon="2.2324">
        <ele>243</ele>
        <time>2015-08-25T15:36:19Z</time>
      </trkpt>
      <trkpt lat="44.59002" lon="2.23241">
        <ele>244</ele>
        <time>2015-08-25T15:36:30Z</time>
      </trkpt>
      <trkpt lat="44.59011" lon="2.2324">
        <ele>247</ele>
        <time>2015-08-25T15:36:40Z</time>
      </trkpt>
      <trkpt lat="44.59021" lon="2.23238">
        <ele>248</ele>
        <time>2015-08-25T15:36:50Z</time>
      </trkpt>
      <trkpt lat="44.59026" lon="2.23237">
        <ele>248</ele>
        <time>2015-08-25T15:36:56Z</time>
      </trkpt>
      <trkpt lat="44.59031" lon="2.23238">
        <ele>251</ele>
        <time>2015-08-25T15:37:04Z</time>
      </trkpt>
      <trkpt lat="44.59036" lon="2.23236">
        <ele>252</ele>
        <time>2015-08-25T15:37:10Z</time>
      </trkpt>
      <trkpt lat="44.59041" lon="2.23234">
        <ele>254</ele>
        <time>2015-08-25T15:37:16Z</time>
      </trkpt>
      <trkpt lat="44.59046" lon="2.23232">
        <ele>254</ele>
        <time>2015-08-25T15:37:24Z</time>
      </trkpt>
      <trkpt lat="44.59051" lon="2.23232">
        <ele>254</ele>
        <time>2015-08-25T15:37:31Z</time>
      </trkpt>
      <trkpt lat="44.59061" lon="2.23233">
        <ele>256</ele>
        <time>2015-08-25T15:37:42Z</time>
      </trkpt>
      <trkpt lat="44.59065" lon="2.23232">
        <ele>256</ele>
        <time>2015-08-25T15:37:48Z</time>
      </trkpt>
      <trkpt lat="44.5907" lon="2.23224">
        <ele>254</ele>
        <time>2015-08-25T15:37:57Z</time>
      </trkpt>
      <trkpt lat="44.59079" lon="2.23224">
        <ele>258</ele>
        <time>2015-08-25T15:38:12Z</time>
      </trkpt>
      <trkpt lat="44.59088" lon="2.23218">
        <ele>261</ele>
        <time>2015-08-25T15:38:23Z</time>
      </trkpt>
      <trkpt lat="44.59093" lon="2.23217">
        <ele>261</ele>
        <time>2015-08-25T15:38:30Z</time>
      </trkpt>
      <trkpt lat="44.59101" lon="2.23227">
        <ele>260</ele>
        <time>2015-08-25T15:38:40Z</time>
      </trkpt>
      <trkpt lat="44.59111" lon="2.23225">
        <ele>257</ele>
        <time>2015-08-25T15:38:49Z</time>
      </trkpt>
      <trkpt lat="44.59116" lon="2.23221">
        <ele>255</ele>
        <time>2015-08-25T15:38:56Z</time>
      </trkpt>
      <trkpt lat="44.59121" lon="2.23221">
        <ele>256</ele>
        <time>2015-08-25T15:39:02Z</time>
      </trkpt>
      <trkpt lat="44.59128" lon="2.23214">
        <ele>260</ele>
        <time>2015-08-25T15:39:14Z</time>
      </trkpt>
      <trkpt lat="44.59129" lon="2.23207">
        <ele>261</ele>
        <time>2015-08-25T15:39:21Z</time>
      </trkpt>
      <trkpt lat="44.59129" lon="2.232">
        <ele>262</ele>
        <time>2015-08-25T15:39:28Z</time>
      </trkpt>
      <trkpt lat="44.59134" lon="2.23199">
        <ele>266</ele>
        <time>2015-08-25T15:39:56Z</time>
      </trkpt>
    </trkseg>
  </trk>
</gpx>